<?xml version="1.0" encoding="UTF-8" standalone="no" ?>
<gpx xmlns="http://www.topografix.com/GPX/1/1" xmlns:xsi="http://www.w3.org/2001/XMLSchema-instance" xsi:schemaLocation="http://www.topografix.com/GPX/1/1 http://www.topografix.com/GPX/1/1/gpx.xsd" version="1.1" creator="VisuGPX - https://www.visugpx.com">
  <metadata>
    <name>Entrainement à l'Ouest de Périgueux</name>
    <desc><![CDATA[Petit entrainement sur route et chemins secs pour cause de terrain trop gras en sous bois.]]></desc>
  </metadata>
  <trk>
    <name><![CDATA[Entrainement à l'Ouest de Périgueux_1]]></name>
    <trkseg>
      <trkpt lat="45.18585" lon="0.63312">
        <ele>79</ele>
        <time>2018-05-03T12:25:44Z</time>
      </trkpt>
      <trkpt lat="45.18585" lon="0.63312">
        <ele>116</ele>
        <time>2018-05-03T12:25:59Z</time>
      </trkpt>
      <trkpt lat="45.18594" lon="0.63311">
        <ele>124</ele>
        <time>2018-05-03T12:26:27Z</time>
      </trkpt>
      <trkpt lat="45.18596" lon="0.63319">
        <ele>125</ele>
        <time>2018-05-03T12:26:30Z</time>
      </trkpt>
      <trkpt lat="45.18599" lon="0.63326">
        <ele>125</ele>
        <time>2018-05-03T12:26:32Z</time>
      </trkpt>
      <trkpt lat="45.18599" lon="0.63337">
        <ele>126</ele>
        <time>2018-05-03T12:26:35Z</time>
      </trkpt>
      <trkpt lat="45.18594" lon="0.63345">
        <ele>126</ele>
        <time>2018-05-03T12:26:37Z</time>
      </trkpt>
      <trkpt lat="45.18592" lon="0.63349">
        <ele>126</ele>
        <time>2018-05-03T12:26:38Z</time>
      </trkpt>
      <trkpt lat="45.1859" lon="0.63353">
        <ele>125</ele>
        <time>2018-05-03T12:26:39Z</time>
      </trkpt>
      <trkpt lat="45.18588" lon="0.63357">
        <ele>125</ele>
        <time>2018-05-03T12:26:40Z</time>
      </trkpt>
      <trkpt lat="45.18585" lon="0.63361">
        <ele>124</ele>
        <time>2018-05-03T12:26:41Z</time>
      </trkpt>
      <trkpt lat="45.18583" lon="0.63365">
        <ele>123</ele>
        <time>2018-05-03T12:26:42Z</time>
      </trkpt>
      <trkpt lat="45.18582" lon="0.63368">
        <ele>121</ele>
        <time>2018-05-03T12:26:43Z</time>
      </trkpt>
      <trkpt lat="45.18577" lon="0.63373">
        <ele>122</ele>
        <time>2018-05-03T12:26:45Z</time>
      </trkpt>
      <trkpt lat="45.1857" lon="0.63372">
        <ele>120</ele>
        <time>2018-05-03T12:26:47Z</time>
      </trkpt>
      <trkpt lat="45.18559" lon="0.63364">
        <ele>121</ele>
        <time>2018-05-03T12:26:50Z</time>
      </trkpt>
      <trkpt lat="45.18553" lon="0.63358">
        <ele>121</ele>
        <time>2018-05-03T12:26:52Z</time>
      </trkpt>
      <trkpt lat="45.18549" lon="0.63355">
        <ele>121</ele>
        <time>2018-05-03T12:26:53Z</time>
      </trkpt>
      <trkpt lat="45.18545" lon="0.63352">
        <ele>122</ele>
        <time>2018-05-03T12:26:54Z</time>
      </trkpt>
      <trkpt lat="45.18541" lon="0.63349">
        <ele>122</ele>
        <time>2018-05-03T12:26:55Z</time>
      </trkpt>
      <trkpt lat="45.18537" lon="0.63347">
        <ele>121</ele>
        <time>2018-05-03T12:26:56Z</time>
      </trkpt>
      <trkpt lat="45.18534" lon="0.63344">
        <ele>122</ele>
        <time>2018-05-03T12:26:57Z</time>
      </trkpt>
      <trkpt lat="45.1853" lon="0.63341">
        <ele>122</ele>
        <time>2018-05-03T12:26:58Z</time>
      </trkpt>
      <trkpt lat="45.18525" lon="0.63338">
        <ele>121</ele>
        <time>2018-05-03T12:26:59Z</time>
      </trkpt>
      <trkpt lat="45.18521" lon="0.63335">
        <ele>121</ele>
        <time>2018-05-03T12:27:00Z</time>
      </trkpt>
      <trkpt lat="45.18516" lon="0.63333">
        <ele>121</ele>
        <time>2018-05-03T12:27:01Z</time>
      </trkpt>
      <trkpt lat="45.18512" lon="0.63331">
        <ele>121</ele>
        <time>2018-05-03T12:27:02Z</time>
      </trkpt>
      <trkpt lat="45.18508" lon="0.63328">
        <ele>121</ele>
        <time>2018-05-03T12:27:03Z</time>
      </trkpt>
      <trkpt lat="45.18501" lon="0.63322">
        <ele>121</ele>
        <time>2018-05-03T12:27:05Z</time>
      </trkpt>
      <trkpt lat="45.18497" lon="0.63314">
        <ele>121</ele>
        <time>2018-05-03T12:27:07Z</time>
      </trkpt>
      <trkpt lat="45.18497" lon="0.63307">
        <ele>121</ele>
        <time>2018-05-03T12:27:08Z</time>
      </trkpt>
      <trkpt lat="45.18496" lon="0.63296">
        <ele>121</ele>
        <time>2018-05-03T12:27:10Z</time>
      </trkpt>
      <trkpt lat="45.18496" lon="0.63289">
        <ele>122</ele>
        <time>2018-05-03T12:27:11Z</time>
      </trkpt>
      <trkpt lat="45.18496" lon="0.63282">
        <ele>121</ele>
        <time>2018-05-03T12:27:12Z</time>
      </trkpt>
      <trkpt lat="45.18496" lon="0.63271">
        <ele>122</ele>
        <time>2018-05-03T12:27:14Z</time>
      </trkpt>
      <trkpt lat="45.18496" lon="0.63263">
        <ele>122</ele>
        <time>2018-05-03T12:27:15Z</time>
      </trkpt>
      <trkpt lat="45.18495" lon="0.63256">
        <ele>123</ele>
        <time>2018-05-03T12:27:16Z</time>
      </trkpt>
      <trkpt lat="45.18495" lon="0.63249">
        <ele>123</ele>
        <time>2018-05-03T12:27:17Z</time>
      </trkpt>
      <trkpt lat="45.18495" lon="0.63237">
        <ele>123</ele>
        <time>2018-05-03T12:27:19Z</time>
      </trkpt>
      <trkpt lat="45.18495" lon="0.6323">
        <ele>123</ele>
        <time>2018-05-03T12:27:20Z</time>
      </trkpt>
      <trkpt lat="45.18494" lon="0.63223">
        <ele>123</ele>
        <time>2018-05-03T12:27:21Z</time>
      </trkpt>
      <trkpt lat="45.18494" lon="0.63217">
        <ele>123</ele>
        <time>2018-05-03T12:27:22Z</time>
      </trkpt>
      <trkpt lat="45.18494" lon="0.63204">
        <ele>122</ele>
        <time>2018-05-03T12:27:24Z</time>
      </trkpt>
      <trkpt lat="45.18496" lon="0.63198">
        <ele>123</ele>
        <time>2018-05-03T12:27:25Z</time>
      </trkpt>
      <trkpt lat="45.18496" lon="0.63191">
        <ele>123</ele>
        <time>2018-05-03T12:27:26Z</time>
      </trkpt>
      <trkpt lat="45.18497" lon="0.63185">
        <ele>123</ele>
        <time>2018-05-03T12:27:27Z</time>
      </trkpt>
      <trkpt lat="45.18498" lon="0.63173">
        <ele>124</ele>
        <time>2018-05-03T12:27:29Z</time>
      </trkpt>
      <trkpt lat="45.18498" lon="0.63167">
        <ele>124</ele>
        <time>2018-05-03T12:27:30Z</time>
      </trkpt>
      <trkpt lat="45.18499" lon="0.6316">
        <ele>123</ele>
        <time>2018-05-03T12:27:31Z</time>
      </trkpt>
      <trkpt lat="45.185" lon="0.63154">
        <ele>123</ele>
        <time>2018-05-03T12:27:32Z</time>
      </trkpt>
      <trkpt lat="45.185" lon="0.63147">
        <ele>123</ele>
        <time>2018-05-03T12:27:33Z</time>
      </trkpt>
      <trkpt lat="45.18501" lon="0.63141">
        <ele>122</ele>
        <time>2018-05-03T12:27:34Z</time>
      </trkpt>
      <trkpt lat="45.18502" lon="0.63135">
        <ele>121</ele>
        <time>2018-05-03T12:27:35Z</time>
      </trkpt>
      <trkpt lat="45.18503" lon="0.63128">
        <ele>121</ele>
        <time>2018-05-03T12:27:36Z</time>
      </trkpt>
      <trkpt lat="45.18507" lon="0.63109">
        <ele>121</ele>
        <time>2018-05-03T12:27:39Z</time>
      </trkpt>
      <trkpt lat="45.18508" lon="0.63102">
        <ele>121</ele>
        <time>2018-05-03T12:27:40Z</time>
      </trkpt>
      <trkpt lat="45.18509" lon="0.63089">
        <ele>119</ele>
        <time>2018-05-03T12:27:42Z</time>
      </trkpt>
      <trkpt lat="45.18512" lon="0.63071">
        <ele>119</ele>
        <time>2018-05-03T12:27:45Z</time>
      </trkpt>
      <trkpt lat="45.18512" lon="0.63058">
        <ele>119</ele>
        <time>2018-05-03T12:27:47Z</time>
      </trkpt>
      <trkpt lat="45.18513" lon="0.63051">
        <ele>119</ele>
        <time>2018-05-03T12:27:48Z</time>
      </trkpt>
      <trkpt lat="45.18513" lon="0.63045">
        <ele>119</ele>
        <time>2018-05-03T12:27:49Z</time>
      </trkpt>
      <trkpt lat="45.18513" lon="0.6304">
        <ele>118</ele>
        <time>2018-05-03T12:27:50Z</time>
      </trkpt>
      <trkpt lat="45.18511" lon="0.63028">
        <ele>119</ele>
        <time>2018-05-03T12:27:52Z</time>
      </trkpt>
      <trkpt lat="45.18511" lon="0.63023">
        <ele>119</ele>
        <time>2018-05-03T12:27:53Z</time>
      </trkpt>
      <trkpt lat="45.18508" lon="0.63014">
        <ele>120</ele>
        <time>2018-05-03T12:27:54Z</time>
      </trkpt>
      <trkpt lat="45.18507" lon="0.63007">
        <ele>119</ele>
        <time>2018-05-03T12:27:55Z</time>
      </trkpt>
      <trkpt lat="45.18504" lon="0.62988">
        <ele>117</ele>
        <time>2018-05-03T12:27:58Z</time>
      </trkpt>
      <trkpt lat="45.18503" lon="0.62982">
        <ele>117</ele>
        <time>2018-05-03T12:27:59Z</time>
      </trkpt>
      <trkpt lat="45.18502" lon="0.62975">
        <ele>118</ele>
        <time>2018-05-03T12:28:00Z</time>
      </trkpt>
      <trkpt lat="45.18501" lon="0.62969">
        <ele>118</ele>
        <time>2018-05-03T12:28:01Z</time>
      </trkpt>
      <trkpt lat="45.185" lon="0.62962">
        <ele>118</ele>
        <time>2018-05-03T12:28:02Z</time>
      </trkpt>
      <trkpt lat="45.18499" lon="0.62953">
        <ele>117</ele>
        <time>2018-05-03T12:28:03Z</time>
      </trkpt>
      <trkpt lat="45.18498" lon="0.62947">
        <ele>117</ele>
        <time>2018-05-03T12:28:04Z</time>
      </trkpt>
      <trkpt lat="45.18497" lon="0.6294">
        <ele>117</ele>
        <time>2018-05-03T12:28:05Z</time>
      </trkpt>
      <trkpt lat="45.18493" lon="0.62925">
        <ele>117</ele>
        <time>2018-05-03T12:28:07Z</time>
      </trkpt>
      <trkpt lat="45.1849" lon="0.62912">
        <ele>117</ele>
        <time>2018-05-03T12:28:09Z</time>
      </trkpt>
      <trkpt lat="45.18488" lon="0.62897">
        <ele>118</ele>
        <time>2018-05-03T12:28:11Z</time>
      </trkpt>
      <trkpt lat="45.18489" lon="0.6289">
        <ele>118</ele>
        <time>2018-05-03T12:28:12Z</time>
      </trkpt>
      <trkpt lat="45.18496" lon="0.6287">
        <ele>117</ele>
        <time>2018-05-03T12:28:15Z</time>
      </trkpt>
      <trkpt lat="45.18498" lon="0.62864">
        <ele>116</ele>
        <time>2018-05-03T12:28:16Z</time>
      </trkpt>
      <trkpt lat="45.18501" lon="0.62856">
        <ele>118</ele>
        <time>2018-05-03T12:28:17Z</time>
      </trkpt>
      <trkpt lat="45.18504" lon="0.62849">
        <ele>117</ele>
        <time>2018-05-03T12:28:18Z</time>
      </trkpt>
      <trkpt lat="45.18507" lon="0.62841">
        <ele>119</ele>
        <time>2018-05-03T12:28:19Z</time>
      </trkpt>
      <trkpt lat="45.18509" lon="0.62833">
        <ele>119</ele>
        <time>2018-05-03T12:28:20Z</time>
      </trkpt>
      <trkpt lat="45.18511" lon="0.62826">
        <ele>118</ele>
        <time>2018-05-03T12:28:21Z</time>
      </trkpt>
      <trkpt lat="45.18513" lon="0.62818">
        <ele>117</ele>
        <time>2018-05-03T12:28:22Z</time>
      </trkpt>
      <trkpt lat="45.18515" lon="0.62813">
        <ele>117</ele>
        <time>2018-05-03T12:28:23Z</time>
      </trkpt>
      <trkpt lat="45.18517" lon="0.62809">
        <ele>117</ele>
        <time>2018-05-03T12:28:24Z</time>
      </trkpt>
      <trkpt lat="45.18521" lon="0.62803">
        <ele>117</ele>
        <time>2018-05-03T12:28:26Z</time>
      </trkpt>
      <trkpt lat="45.18522" lon="0.62794">
        <ele>119</ele>
        <time>2018-05-03T12:28:29Z</time>
      </trkpt>
      <trkpt lat="45.18517" lon="0.62788">
        <ele>120</ele>
        <time>2018-05-03T12:28:31Z</time>
      </trkpt>
      <trkpt lat="45.18511" lon="0.62782">
        <ele>120</ele>
        <time>2018-05-03T12:28:33Z</time>
      </trkpt>
      <trkpt lat="45.18507" lon="0.6278">
        <ele>120</ele>
        <time>2018-05-03T12:28:34Z</time>
      </trkpt>
      <trkpt lat="45.18502" lon="0.62779">
        <ele>119</ele>
        <time>2018-05-03T12:28:35Z</time>
      </trkpt>
      <trkpt lat="45.18487" lon="0.62773">
        <ele>119</ele>
        <time>2018-05-03T12:28:38Z</time>
      </trkpt>
      <trkpt lat="45.18481" lon="0.62771">
        <ele>119</ele>
        <time>2018-05-03T12:28:39Z</time>
      </trkpt>
      <trkpt lat="45.18476" lon="0.6277">
        <ele>118</ele>
        <time>2018-05-03T12:28:40Z</time>
      </trkpt>
      <trkpt lat="45.18471" lon="0.62768">
        <ele>117</ele>
        <time>2018-05-03T12:28:41Z</time>
      </trkpt>
      <trkpt lat="45.18466" lon="0.62767">
        <ele>118</ele>
        <time>2018-05-03T12:28:42Z</time>
      </trkpt>
      <trkpt lat="45.1846" lon="0.62765">
        <ele>118</ele>
        <time>2018-05-03T12:28:43Z</time>
      </trkpt>
      <trkpt lat="45.18454" lon="0.62764">
        <ele>118</ele>
        <time>2018-05-03T12:28:44Z</time>
      </trkpt>
      <trkpt lat="45.18448" lon="0.62764">
        <ele>117</ele>
        <time>2018-05-03T12:28:45Z</time>
      </trkpt>
      <trkpt lat="45.18442" lon="0.62763">
        <ele>118</ele>
        <time>2018-05-03T12:28:46Z</time>
      </trkpt>
      <trkpt lat="45.18438" lon="0.62764">
        <ele>118</ele>
        <time>2018-05-03T12:28:47Z</time>
      </trkpt>
      <trkpt lat="45.18432" lon="0.62764">
        <ele>118</ele>
        <time>2018-05-03T12:28:48Z</time>
      </trkpt>
      <trkpt lat="45.18425" lon="0.62764">
        <ele>119</ele>
        <time>2018-05-03T12:28:50Z</time>
      </trkpt>
      <trkpt lat="45.18422" lon="0.62764">
        <ele>119</ele>
        <time>2018-05-03T12:28:51Z</time>
      </trkpt>
      <trkpt lat="45.18416" lon="0.62761">
        <ele>119</ele>
        <time>2018-05-03T12:28:53Z</time>
      </trkpt>
      <trkpt lat="45.1841" lon="0.62752">
        <ele>119</ele>
        <time>2018-05-03T12:28:56Z</time>
      </trkpt>
      <trkpt lat="45.18408" lon="0.62748">
        <ele>119</ele>
        <time>2018-05-03T12:28:57Z</time>
      </trkpt>
      <trkpt lat="45.18398" lon="0.62743">
        <ele>121</ele>
        <time>2018-05-03T12:29:00Z</time>
      </trkpt>
      <trkpt lat="45.18391" lon="0.62744">
        <ele>121</ele>
        <time>2018-05-03T12:29:02Z</time>
      </trkpt>
      <trkpt lat="45.18383" lon="0.62747">
        <ele>121</ele>
        <time>2018-05-03T12:29:04Z</time>
      </trkpt>
      <trkpt lat="45.18379" lon="0.62748">
        <ele>121</ele>
        <time>2018-05-03T12:29:05Z</time>
      </trkpt>
      <trkpt lat="45.18375" lon="0.62749">
        <ele>121</ele>
        <time>2018-05-03T12:29:06Z</time>
      </trkpt>
      <trkpt lat="45.18372" lon="0.6275">
        <ele>121</ele>
        <time>2018-05-03T12:29:07Z</time>
      </trkpt>
      <trkpt lat="45.18368" lon="0.62751">
        <ele>121</ele>
        <time>2018-05-03T12:29:08Z</time>
      </trkpt>
      <trkpt lat="45.18365" lon="0.62752">
        <ele>121</ele>
        <time>2018-05-03T12:29:09Z</time>
      </trkpt>
      <trkpt lat="45.18362" lon="0.62752">
        <ele>122</ele>
        <time>2018-05-03T12:29:10Z</time>
      </trkpt>
      <trkpt lat="45.18356" lon="0.62753">
        <ele>123</ele>
        <time>2018-05-03T12:29:12Z</time>
      </trkpt>
      <trkpt lat="45.18348" lon="0.62748">
        <ele>122</ele>
        <time>2018-05-03T12:29:15Z</time>
      </trkpt>
      <trkpt lat="45.18346" lon="0.62739">
        <ele>123</ele>
        <time>2018-05-03T12:29:17Z</time>
      </trkpt>
      <trkpt lat="45.18346" lon="0.62729">
        <ele>123</ele>
        <time>2018-05-03T12:29:19Z</time>
      </trkpt>
      <trkpt lat="45.18345" lon="0.62724">
        <ele>123</ele>
        <time>2018-05-03T12:29:20Z</time>
      </trkpt>
      <trkpt lat="45.18344" lon="0.62714">
        <ele>123</ele>
        <time>2018-05-03T12:29:22Z</time>
      </trkpt>
      <trkpt lat="45.18343" lon="0.62709">
        <ele>123</ele>
        <time>2018-05-03T12:29:23Z</time>
      </trkpt>
      <trkpt lat="45.18343" lon="0.62704">
        <ele>124</ele>
        <time>2018-05-03T12:29:24Z</time>
      </trkpt>
      <trkpt lat="45.18342" lon="0.62699">
        <ele>123</ele>
        <time>2018-05-03T12:29:26Z</time>
      </trkpt>
      <trkpt lat="45.1834" lon="0.6269">
        <ele>124</ele>
        <time>2018-05-03T12:29:27Z</time>
      </trkpt>
      <trkpt lat="45.18339" lon="0.62686">
        <ele>123</ele>
        <time>2018-05-03T12:29:28Z</time>
      </trkpt>
      <trkpt lat="45.18336" lon="0.62677">
        <ele>123</ele>
        <time>2018-05-03T12:29:30Z</time>
      </trkpt>
      <trkpt lat="45.18335" lon="0.62672">
        <ele>123</ele>
        <time>2018-05-03T12:29:31Z</time>
      </trkpt>
      <trkpt lat="45.18334" lon="0.62668">
        <ele>123</ele>
        <time>2018-05-03T12:29:33Z</time>
      </trkpt>
      <trkpt lat="45.18331" lon="0.6266">
        <ele>124</ele>
        <time>2018-05-03T12:29:34Z</time>
      </trkpt>
      <trkpt lat="45.1833" lon="0.62656">
        <ele>124</ele>
        <time>2018-05-03T12:29:35Z</time>
      </trkpt>
      <trkpt lat="45.18329" lon="0.62652">
        <ele>123</ele>
        <time>2018-05-03T12:29:36Z</time>
      </trkpt>
      <trkpt lat="45.18327" lon="0.62648">
        <ele>123</ele>
        <time>2018-05-03T12:29:37Z</time>
      </trkpt>
      <trkpt lat="45.18325" lon="0.62644">
        <ele>124</ele>
        <time>2018-05-03T12:29:38Z</time>
      </trkpt>
      <trkpt lat="45.18323" lon="0.6264">
        <ele>125</ele>
        <time>2018-05-03T12:29:40Z</time>
      </trkpt>
      <trkpt lat="45.1832" lon="0.62632">
        <ele>124</ele>
        <time>2018-05-03T12:29:41Z</time>
      </trkpt>
      <trkpt lat="45.18316" lon="0.62625">
        <ele>125</ele>
        <time>2018-05-03T12:29:43Z</time>
      </trkpt>
      <trkpt lat="45.18312" lon="0.62617">
        <ele>126</ele>
        <time>2018-05-03T12:29:45Z</time>
      </trkpt>
      <trkpt lat="45.18309" lon="0.62613">
        <ele>125</ele>
        <time>2018-05-03T12:29:46Z</time>
      </trkpt>
      <trkpt lat="45.18307" lon="0.62609">
        <ele>125</ele>
        <time>2018-05-03T12:29:47Z</time>
      </trkpt>
      <trkpt lat="45.18304" lon="0.62605">
        <ele>125</ele>
        <time>2018-05-03T12:29:48Z</time>
      </trkpt>
      <trkpt lat="45.18299" lon="0.62597">
        <ele>125</ele>
        <time>2018-05-03T12:29:50Z</time>
      </trkpt>
      <trkpt lat="45.18292" lon="0.62586">
        <ele>126</ele>
        <time>2018-05-03T12:29:53Z</time>
      </trkpt>
      <trkpt lat="45.1829" lon="0.62583">
        <ele>127</ele>
        <time>2018-05-03T12:29:54Z</time>
      </trkpt>
      <trkpt lat="45.18288" lon="0.62579">
        <ele>127</ele>
        <time>2018-05-03T12:29:55Z</time>
      </trkpt>
      <trkpt lat="45.18285" lon="0.62575">
        <ele>127</ele>
        <time>2018-05-03T12:29:56Z</time>
      </trkpt>
      <trkpt lat="45.18283" lon="0.62572">
        <ele>127</ele>
        <time>2018-05-03T12:29:57Z</time>
      </trkpt>
      <trkpt lat="45.18276" lon="0.62564">
        <ele>125</ele>
        <time>2018-05-03T12:30:00Z</time>
      </trkpt>
      <trkpt lat="45.18273" lon="0.6256">
        <ele>125</ele>
        <time>2018-05-03T12:30:01Z</time>
      </trkpt>
      <trkpt lat="45.18271" lon="0.62557">
        <ele>125</ele>
        <time>2018-05-03T12:30:02Z</time>
      </trkpt>
      <trkpt lat="45.18266" lon="0.62551">
        <ele>126</ele>
        <time>2018-05-03T12:30:04Z</time>
      </trkpt>
      <trkpt lat="45.18264" lon="0.62547">
        <ele>126</ele>
        <time>2018-05-03T12:30:05Z</time>
      </trkpt>
      <trkpt lat="45.18259" lon="0.62541">
        <ele>127</ele>
        <time>2018-05-03T12:30:07Z</time>
      </trkpt>
      <trkpt lat="45.18257" lon="0.62538">
        <ele>128</ele>
        <time>2018-05-03T12:30:08Z</time>
      </trkpt>
      <trkpt lat="45.18252" lon="0.62532">
        <ele>128</ele>
        <time>2018-05-03T12:30:10Z</time>
      </trkpt>
      <trkpt lat="45.18244" lon="0.62524">
        <ele>127</ele>
        <time>2018-05-03T12:30:13Z</time>
      </trkpt>
      <trkpt lat="45.18241" lon="0.62521">
        <ele>127</ele>
        <time>2018-05-03T12:30:14Z</time>
      </trkpt>
      <trkpt lat="45.18238" lon="0.62518">
        <ele>128</ele>
        <time>2018-05-03T12:30:15Z</time>
      </trkpt>
      <trkpt lat="45.18235" lon="0.62515">
        <ele>128</ele>
        <time>2018-05-03T12:30:16Z</time>
      </trkpt>
      <trkpt lat="45.18232" lon="0.62513">
        <ele>129</ele>
        <time>2018-05-03T12:30:17Z</time>
      </trkpt>
      <trkpt lat="45.18229" lon="0.62511">
        <ele>130</ele>
        <time>2018-05-03T12:30:18Z</time>
      </trkpt>
      <trkpt lat="45.18221" lon="0.62504">
        <ele>131</ele>
        <time>2018-05-03T12:30:21Z</time>
      </trkpt>
      <trkpt lat="45.18218" lon="0.62502">
        <ele>131</ele>
        <time>2018-05-03T12:30:22Z</time>
      </trkpt>
      <trkpt lat="45.18216" lon="0.625">
        <ele>132</ele>
        <time>2018-05-03T12:30:23Z</time>
      </trkpt>
      <trkpt lat="45.18213" lon="0.62497">
        <ele>134</ele>
        <time>2018-05-03T12:30:24Z</time>
      </trkpt>
      <trkpt lat="45.1821" lon="0.62495">
        <ele>134</ele>
        <time>2018-05-03T12:30:25Z</time>
      </trkpt>
      <trkpt lat="45.18206" lon="0.62492">
        <ele>134</ele>
        <time>2018-05-03T12:30:26Z</time>
      </trkpt>
      <trkpt lat="45.18203" lon="0.6249">
        <ele>134</ele>
        <time>2018-05-03T12:30:27Z</time>
      </trkpt>
      <trkpt lat="45.18201" lon="0.62488">
        <ele>135</ele>
        <time>2018-05-03T12:30:28Z</time>
      </trkpt>
      <trkpt lat="45.18198" lon="0.62486">
        <ele>136</ele>
        <time>2018-05-03T12:30:29Z</time>
      </trkpt>
      <trkpt lat="45.18195" lon="0.62484">
        <ele>137</ele>
        <time>2018-05-03T12:30:30Z</time>
      </trkpt>
      <trkpt lat="45.18193" lon="0.62482">
        <ele>137</ele>
        <time>2018-05-03T12:30:31Z</time>
      </trkpt>
      <trkpt lat="45.1819" lon="0.62479">
        <ele>136</ele>
        <time>2018-05-03T12:30:32Z</time>
      </trkpt>
      <trkpt lat="45.18187" lon="0.62477">
        <ele>136</ele>
        <time>2018-05-03T12:30:33Z</time>
      </trkpt>
      <trkpt lat="45.18171" lon="0.62466">
        <ele>134</ele>
        <time>2018-05-03T12:30:38Z</time>
      </trkpt>
      <trkpt lat="45.18168" lon="0.62464">
        <ele>134</ele>
        <time>2018-05-03T12:30:39Z</time>
      </trkpt>
      <trkpt lat="45.18165" lon="0.62461">
        <ele>134</ele>
        <time>2018-05-03T12:30:40Z</time>
      </trkpt>
      <trkpt lat="45.18162" lon="0.62459">
        <ele>135</ele>
        <time>2018-05-03T12:30:41Z</time>
      </trkpt>
      <trkpt lat="45.18159" lon="0.62456">
        <ele>135</ele>
        <time>2018-05-03T12:30:42Z</time>
      </trkpt>
      <trkpt lat="45.18153" lon="0.62451">
        <ele>135</ele>
        <time>2018-05-03T12:30:44Z</time>
      </trkpt>
      <trkpt lat="45.18146" lon="0.62447">
        <ele>135</ele>
        <time>2018-05-03T12:30:46Z</time>
      </trkpt>
      <trkpt lat="45.18143" lon="0.62444">
        <ele>134</ele>
        <time>2018-05-03T12:30:47Z</time>
      </trkpt>
      <trkpt lat="45.18139" lon="0.62442">
        <ele>134</ele>
        <time>2018-05-03T12:30:48Z</time>
      </trkpt>
      <trkpt lat="45.18133" lon="0.62437">
        <ele>134</ele>
        <time>2018-05-03T12:30:50Z</time>
      </trkpt>
      <trkpt lat="45.1813" lon="0.62434">
        <ele>133</ele>
        <time>2018-05-03T12:30:51Z</time>
      </trkpt>
      <trkpt lat="45.18127" lon="0.62431">
        <ele>133</ele>
        <time>2018-05-03T12:30:52Z</time>
      </trkpt>
      <trkpt lat="45.1812" lon="0.62425">
        <ele>133</ele>
        <time>2018-05-03T12:30:54Z</time>
      </trkpt>
      <trkpt lat="45.18109" lon="0.62416">
        <ele>134</ele>
        <time>2018-05-03T12:30:57Z</time>
      </trkpt>
      <trkpt lat="45.18106" lon="0.62414">
        <ele>133</ele>
        <time>2018-05-03T12:30:58Z</time>
      </trkpt>
      <trkpt lat="45.18102" lon="0.6241">
        <ele>133</ele>
        <time>2018-05-03T12:30:59Z</time>
      </trkpt>
      <trkpt lat="45.18099" lon="0.62407">
        <ele>133</ele>
        <time>2018-05-03T12:31:00Z</time>
      </trkpt>
      <trkpt lat="45.18092" lon="0.624">
        <ele>132</ele>
        <time>2018-05-03T12:31:02Z</time>
      </trkpt>
      <trkpt lat="45.18089" lon="0.62396">
        <ele>132</ele>
        <time>2018-05-03T12:31:03Z</time>
      </trkpt>
      <trkpt lat="45.18085" lon="0.62391">
        <ele>132</ele>
        <time>2018-05-03T12:31:04Z</time>
      </trkpt>
      <trkpt lat="45.18082" lon="0.62387">
        <ele>132</ele>
        <time>2018-05-03T12:31:05Z</time>
      </trkpt>
      <trkpt lat="45.18079" lon="0.62383">
        <ele>132</ele>
        <time>2018-05-03T12:31:06Z</time>
      </trkpt>
      <trkpt lat="45.18075" lon="0.62378">
        <ele>133</ele>
        <time>2018-05-03T12:31:07Z</time>
      </trkpt>
      <trkpt lat="45.18071" lon="0.62373">
        <ele>133</ele>
        <time>2018-05-03T12:31:08Z</time>
      </trkpt>
      <trkpt lat="45.18068" lon="0.62368">
        <ele>133</ele>
        <time>2018-05-03T12:31:09Z</time>
      </trkpt>
      <trkpt lat="45.18065" lon="0.62364">
        <ele>133</ele>
        <time>2018-05-03T12:31:10Z</time>
      </trkpt>
      <trkpt lat="45.18061" lon="0.62358">
        <ele>133</ele>
        <time>2018-05-03T12:31:11Z</time>
      </trkpt>
      <trkpt lat="45.18058" lon="0.62353">
        <ele>133</ele>
        <time>2018-05-03T12:31:12Z</time>
      </trkpt>
      <trkpt lat="45.18055" lon="0.62348">
        <ele>133</ele>
        <time>2018-05-03T12:31:13Z</time>
      </trkpt>
      <trkpt lat="45.1805" lon="0.62342">
        <ele>134</ele>
        <time>2018-05-03T12:31:14Z</time>
      </trkpt>
      <trkpt lat="45.18044" lon="0.62332">
        <ele>133</ele>
        <time>2018-05-03T12:31:16Z</time>
      </trkpt>
      <trkpt lat="45.1804" lon="0.62326">
        <ele>133</ele>
        <time>2018-05-03T12:31:17Z</time>
      </trkpt>
      <trkpt lat="45.18036" lon="0.62319">
        <ele>133</ele>
        <time>2018-05-03T12:31:18Z</time>
      </trkpt>
      <trkpt lat="45.18032" lon="0.62314">
        <ele>133</ele>
        <time>2018-05-03T12:31:19Z</time>
      </trkpt>
      <trkpt lat="45.18028" lon="0.62307">
        <ele>133</ele>
        <time>2018-05-03T12:31:20Z</time>
      </trkpt>
      <trkpt lat="45.18025" lon="0.623">
        <ele>134</ele>
        <time>2018-05-03T12:31:21Z</time>
      </trkpt>
      <trkpt lat="45.1802" lon="0.62293">
        <ele>134</ele>
        <time>2018-05-03T12:31:22Z</time>
      </trkpt>
      <trkpt lat="45.18012" lon="0.6228">
        <ele>135</ele>
        <time>2018-05-03T12:31:24Z</time>
      </trkpt>
      <trkpt lat="45.18008" lon="0.62272">
        <ele>135</ele>
        <time>2018-05-03T12:31:25Z</time>
      </trkpt>
      <trkpt lat="45.18004" lon="0.62265">
        <ele>135</ele>
        <time>2018-05-03T12:31:26Z</time>
      </trkpt>
      <trkpt lat="45.18001" lon="0.62257">
        <ele>134</ele>
        <time>2018-05-03T12:31:27Z</time>
      </trkpt>
      <trkpt lat="45.17996" lon="0.62249">
        <ele>134</ele>
        <time>2018-05-03T12:31:28Z</time>
      </trkpt>
      <trkpt lat="45.17992" lon="0.62241">
        <ele>133</ele>
        <time>2018-05-03T12:31:29Z</time>
      </trkpt>
      <trkpt lat="45.17987" lon="0.62233">
        <ele>134</ele>
        <time>2018-05-03T12:31:30Z</time>
      </trkpt>
      <trkpt lat="45.17983" lon="0.62224">
        <ele>133</ele>
        <time>2018-05-03T12:31:31Z</time>
      </trkpt>
      <trkpt lat="45.17979" lon="0.62216">
        <ele>132</ele>
        <time>2018-05-03T12:31:32Z</time>
      </trkpt>
      <trkpt lat="45.17974" lon="0.62208">
        <ele>132</ele>
        <time>2018-05-03T12:31:33Z</time>
      </trkpt>
      <trkpt lat="45.17969" lon="0.62198">
        <ele>131</ele>
        <time>2018-05-03T12:31:34Z</time>
      </trkpt>
      <trkpt lat="45.17964" lon="0.62189">
        <ele>131</ele>
        <time>2018-05-03T12:31:35Z</time>
      </trkpt>
      <trkpt lat="45.1796" lon="0.62183">
        <ele>130</ele>
        <time>2018-05-03T12:31:36Z</time>
      </trkpt>
      <trkpt lat="45.17955" lon="0.62174">
        <ele>131</ele>
        <time>2018-05-03T12:31:37Z</time>
      </trkpt>
      <trkpt lat="45.1795" lon="0.62165">
        <ele>131</ele>
        <time>2018-05-03T12:31:38Z</time>
      </trkpt>
      <trkpt lat="45.17946" lon="0.62156">
        <ele>130</ele>
        <time>2018-05-03T12:31:39Z</time>
      </trkpt>
      <trkpt lat="45.17941" lon="0.62147">
        <ele>131</ele>
        <time>2018-05-03T12:31:40Z</time>
      </trkpt>
      <trkpt lat="45.17938" lon="0.62139">
        <ele>130</ele>
        <time>2018-05-03T12:31:41Z</time>
      </trkpt>
      <trkpt lat="45.17932" lon="0.6213">
        <ele>131</ele>
        <time>2018-05-03T12:31:42Z</time>
      </trkpt>
      <trkpt lat="45.17927" lon="0.6212">
        <ele>131</ele>
        <time>2018-05-03T12:31:43Z</time>
      </trkpt>
      <trkpt lat="45.17922" lon="0.62113">
        <ele>130</ele>
        <time>2018-05-03T12:31:44Z</time>
      </trkpt>
      <trkpt lat="45.17919" lon="0.62104">
        <ele>130</ele>
        <time>2018-05-03T12:31:45Z</time>
      </trkpt>
      <trkpt lat="45.17913" lon="0.62095">
        <ele>129</ele>
        <time>2018-05-03T12:31:46Z</time>
      </trkpt>
      <trkpt lat="45.17907" lon="0.62087">
        <ele>129</ele>
        <time>2018-05-03T12:31:47Z</time>
      </trkpt>
      <trkpt lat="45.17903" lon="0.62078">
        <ele>129</ele>
        <time>2018-05-03T12:31:48Z</time>
      </trkpt>
      <trkpt lat="45.17897" lon="0.62069">
        <ele>129</ele>
        <time>2018-05-03T12:31:49Z</time>
      </trkpt>
      <trkpt lat="45.17893" lon="0.62061">
        <ele>128</ele>
        <time>2018-05-03T12:31:50Z</time>
      </trkpt>
      <trkpt lat="45.17888" lon="0.62052">
        <ele>128</ele>
        <time>2018-05-03T12:31:51Z</time>
      </trkpt>
      <trkpt lat="45.17883" lon="0.62043">
        <ele>127</ele>
        <time>2018-05-03T12:31:52Z</time>
      </trkpt>
      <trkpt lat="45.17879" lon="0.62035">
        <ele>126</ele>
        <time>2018-05-03T12:31:53Z</time>
      </trkpt>
      <trkpt lat="45.17874" lon="0.62026">
        <ele>127</ele>
        <time>2018-05-03T12:31:54Z</time>
      </trkpt>
      <trkpt lat="45.17861" lon="0.62001">
        <ele>126</ele>
        <time>2018-05-03T12:31:57Z</time>
      </trkpt>
      <trkpt lat="45.17857" lon="0.61993">
        <ele>126</ele>
        <time>2018-05-03T12:31:58Z</time>
      </trkpt>
      <trkpt lat="45.17853" lon="0.61985">
        <ele>126</ele>
        <time>2018-05-03T12:31:59Z</time>
      </trkpt>
      <trkpt lat="45.17848" lon="0.61976">
        <ele>126</ele>
        <time>2018-05-03T12:32:00Z</time>
      </trkpt>
      <trkpt lat="45.17844" lon="0.61968">
        <ele>126</ele>
        <time>2018-05-03T12:32:01Z</time>
      </trkpt>
      <trkpt lat="45.17839" lon="0.6196">
        <ele>126</ele>
        <time>2018-05-03T12:32:02Z</time>
      </trkpt>
      <trkpt lat="45.17834" lon="0.61951">
        <ele>127</ele>
        <time>2018-05-03T12:32:03Z</time>
      </trkpt>
      <trkpt lat="45.17829" lon="0.61943">
        <ele>126</ele>
        <time>2018-05-03T12:32:04Z</time>
      </trkpt>
      <trkpt lat="45.17824" lon="0.61934">
        <ele>125</ele>
        <time>2018-05-03T12:32:05Z</time>
      </trkpt>
      <trkpt lat="45.1782" lon="0.61926">
        <ele>126</ele>
        <time>2018-05-03T12:32:06Z</time>
      </trkpt>
      <trkpt lat="45.17816" lon="0.61918">
        <ele>126</ele>
        <time>2018-05-03T12:32:07Z</time>
      </trkpt>
      <trkpt lat="45.17811" lon="0.61909">
        <ele>125</ele>
        <time>2018-05-03T12:32:08Z</time>
      </trkpt>
      <trkpt lat="45.17802" lon="0.61892">
        <ele>124</ele>
        <time>2018-05-03T12:32:10Z</time>
      </trkpt>
      <trkpt lat="45.17797" lon="0.61884">
        <ele>124</ele>
        <time>2018-05-03T12:32:11Z</time>
      </trkpt>
      <trkpt lat="45.17793" lon="0.61876">
        <ele>123</ele>
        <time>2018-05-03T12:32:12Z</time>
      </trkpt>
      <trkpt lat="45.17788" lon="0.61867">
        <ele>123</ele>
        <time>2018-05-03T12:32:13Z</time>
      </trkpt>
      <trkpt lat="45.1777" lon="0.61833">
        <ele>123</ele>
        <time>2018-05-03T12:32:17Z</time>
      </trkpt>
      <trkpt lat="45.17763" lon="0.61817">
        <ele>122</ele>
        <time>2018-05-03T12:32:19Z</time>
      </trkpt>
      <trkpt lat="45.17758" lon="0.61811">
        <ele>124</ele>
        <time>2018-05-03T12:32:20Z</time>
      </trkpt>
      <trkpt lat="45.17754" lon="0.61803">
        <ele>123</ele>
        <time>2018-05-03T12:32:21Z</time>
      </trkpt>
      <trkpt lat="45.17749" lon="0.61794">
        <ele>123</ele>
        <time>2018-05-03T12:32:22Z</time>
      </trkpt>
      <trkpt lat="45.17745" lon="0.61787">
        <ele>123</ele>
        <time>2018-05-03T12:32:23Z</time>
      </trkpt>
      <trkpt lat="45.17731" lon="0.61761">
        <ele>123</ele>
        <time>2018-05-03T12:32:26Z</time>
      </trkpt>
      <trkpt lat="45.17726" lon="0.61753">
        <ele>123</ele>
        <time>2018-05-03T12:32:27Z</time>
      </trkpt>
      <trkpt lat="45.17721" lon="0.61745">
        <ele>123</ele>
        <time>2018-05-03T12:32:28Z</time>
      </trkpt>
      <trkpt lat="45.17712" lon="0.61727">
        <ele>122</ele>
        <time>2018-05-03T12:32:30Z</time>
      </trkpt>
      <trkpt lat="45.17708" lon="0.6172">
        <ele>122</ele>
        <time>2018-05-03T12:32:31Z</time>
      </trkpt>
      <trkpt lat="45.17697" lon="0.61698">
        <ele>120</ele>
        <time>2018-05-03T12:32:34Z</time>
      </trkpt>
      <trkpt lat="45.17693" lon="0.61691">
        <ele>120</ele>
        <time>2018-05-03T12:32:35Z</time>
      </trkpt>
      <trkpt lat="45.17689" lon="0.61683">
        <ele>120</ele>
        <time>2018-05-03T12:32:36Z</time>
      </trkpt>
      <trkpt lat="45.17686" lon="0.61676">
        <ele>121</ele>
        <time>2018-05-03T12:32:37Z</time>
      </trkpt>
      <trkpt lat="45.17675" lon="0.61658">
        <ele>122</ele>
        <time>2018-05-03T12:32:40Z</time>
      </trkpt>
      <trkpt lat="45.17671" lon="0.61651">
        <ele>122</ele>
        <time>2018-05-03T12:32:41Z</time>
      </trkpt>
      <trkpt lat="45.17667" lon="0.61646">
        <ele>122</ele>
        <time>2018-05-03T12:32:42Z</time>
      </trkpt>
      <trkpt lat="45.17664" lon="0.6164">
        <ele>122</ele>
        <time>2018-05-03T12:32:43Z</time>
      </trkpt>
      <trkpt lat="45.1766" lon="0.61634">
        <ele>122</ele>
        <time>2018-05-03T12:32:44Z</time>
      </trkpt>
      <trkpt lat="45.17654" lon="0.61623">
        <ele>122</ele>
        <time>2018-05-03T12:32:46Z</time>
      </trkpt>
      <trkpt lat="45.17652" lon="0.61617">
        <ele>122</ele>
        <time>2018-05-03T12:32:48Z</time>
      </trkpt>
      <trkpt lat="45.17642" lon="0.61601">
        <ele>122</ele>
        <time>2018-05-03T12:32:50Z</time>
      </trkpt>
      <trkpt lat="45.17639" lon="0.61595">
        <ele>123</ele>
        <time>2018-05-03T12:32:51Z</time>
      </trkpt>
      <trkpt lat="45.17633" lon="0.61583">
        <ele>123</ele>
        <time>2018-05-03T12:32:53Z</time>
      </trkpt>
      <trkpt lat="45.1763" lon="0.61578">
        <ele>123</ele>
        <time>2018-05-03T12:32:55Z</time>
      </trkpt>
      <trkpt lat="45.17621" lon="0.61563">
        <ele>124</ele>
        <time>2018-05-03T12:32:57Z</time>
      </trkpt>
      <trkpt lat="45.17618" lon="0.61558">
        <ele>123</ele>
        <time>2018-05-03T12:32:58Z</time>
      </trkpt>
      <trkpt lat="45.17616" lon="0.61553">
        <ele>123</ele>
        <time>2018-05-03T12:32:59Z</time>
      </trkpt>
      <trkpt lat="45.1761" lon="0.61542">
        <ele>124</ele>
        <time>2018-05-03T12:33:01Z</time>
      </trkpt>
      <trkpt lat="45.17607" lon="0.61537">
        <ele>124</ele>
        <time>2018-05-03T12:33:02Z</time>
      </trkpt>
      <trkpt lat="45.17601" lon="0.61526">
        <ele>124</ele>
        <time>2018-05-03T12:33:04Z</time>
      </trkpt>
      <trkpt lat="45.17598" lon="0.61521">
        <ele>124</ele>
        <time>2018-05-03T12:33:05Z</time>
      </trkpt>
      <trkpt lat="45.17595" lon="0.61516">
        <ele>125</ele>
        <time>2018-05-03T12:33:06Z</time>
      </trkpt>
      <trkpt lat="45.17592" lon="0.6151">
        <ele>125</ele>
        <time>2018-05-03T12:33:07Z</time>
      </trkpt>
      <trkpt lat="45.17589" lon="0.61505">
        <ele>125</ele>
        <time>2018-05-03T12:33:08Z</time>
      </trkpt>
      <trkpt lat="45.17586" lon="0.615">
        <ele>125</ele>
        <time>2018-05-03T12:33:09Z</time>
      </trkpt>
      <trkpt lat="45.17584" lon="0.61495">
        <ele>126</ele>
        <time>2018-05-03T12:33:10Z</time>
      </trkpt>
      <trkpt lat="45.17581" lon="0.6149">
        <ele>125</ele>
        <time>2018-05-03T12:33:11Z</time>
      </trkpt>
      <trkpt lat="45.17575" lon="0.6148">
        <ele>125</ele>
        <time>2018-05-03T12:33:13Z</time>
      </trkpt>
      <trkpt lat="45.17572" lon="0.61475">
        <ele>125</ele>
        <time>2018-05-03T12:33:14Z</time>
      </trkpt>
      <trkpt lat="45.1757" lon="0.6147">
        <ele>125</ele>
        <time>2018-05-03T12:33:15Z</time>
      </trkpt>
      <trkpt lat="45.17564" lon="0.6146">
        <ele>124</ele>
        <time>2018-05-03T12:33:17Z</time>
      </trkpt>
      <trkpt lat="45.17561" lon="0.61454">
        <ele>124</ele>
        <time>2018-05-03T12:33:18Z</time>
      </trkpt>
      <trkpt lat="45.17559" lon="0.61449">
        <ele>124</ele>
        <time>2018-05-03T12:33:19Z</time>
      </trkpt>
      <trkpt lat="45.17555" lon="0.61444">
        <ele>125</ele>
        <time>2018-05-03T12:33:20Z</time>
      </trkpt>
      <trkpt lat="45.17552" lon="0.6144">
        <ele>125</ele>
        <time>2018-05-03T12:33:21Z</time>
      </trkpt>
      <trkpt lat="45.17549" lon="0.61435">
        <ele>125</ele>
        <time>2018-05-03T12:33:22Z</time>
      </trkpt>
      <trkpt lat="45.17541" lon="0.61419">
        <ele>125</ele>
        <time>2018-05-03T12:33:25Z</time>
      </trkpt>
      <trkpt lat="45.17539" lon="0.61414">
        <ele>125</ele>
        <time>2018-05-03T12:33:26Z</time>
      </trkpt>
      <trkpt lat="45.17534" lon="0.61405">
        <ele>125</ele>
        <time>2018-05-03T12:33:28Z</time>
      </trkpt>
      <trkpt lat="45.17532" lon="0.614">
        <ele>125</ele>
        <time>2018-05-03T12:33:29Z</time>
      </trkpt>
      <trkpt lat="45.17529" lon="0.61395">
        <ele>125</ele>
        <time>2018-05-03T12:33:30Z</time>
      </trkpt>
      <trkpt lat="45.17524" lon="0.61386">
        <ele>125</ele>
        <time>2018-05-03T12:33:32Z</time>
      </trkpt>
      <trkpt lat="45.17521" lon="0.61382">
        <ele>125</ele>
        <time>2018-05-03T12:33:33Z</time>
      </trkpt>
      <trkpt lat="45.17514" lon="0.61368">
        <ele>125</ele>
        <time>2018-05-03T12:33:36Z</time>
      </trkpt>
      <trkpt lat="45.17511" lon="0.61364">
        <ele>125</ele>
        <time>2018-05-03T12:33:37Z</time>
      </trkpt>
      <trkpt lat="45.17509" lon="0.61359">
        <ele>125</ele>
        <time>2018-05-03T12:33:38Z</time>
      </trkpt>
      <trkpt lat="45.17504" lon="0.6135">
        <ele>126</ele>
        <time>2018-05-03T12:33:40Z</time>
      </trkpt>
      <trkpt lat="45.17501" lon="0.61346">
        <ele>126</ele>
        <time>2018-05-03T12:33:41Z</time>
      </trkpt>
      <trkpt lat="45.17498" lon="0.61341">
        <ele>126</ele>
        <time>2018-05-03T12:33:42Z</time>
      </trkpt>
      <trkpt lat="45.17495" lon="0.61337">
        <ele>126</ele>
        <time>2018-05-03T12:33:43Z</time>
      </trkpt>
      <trkpt lat="45.17493" lon="0.61332">
        <ele>125</ele>
        <time>2018-05-03T12:33:44Z</time>
      </trkpt>
      <trkpt lat="45.17485" lon="0.61318">
        <ele>124</ele>
        <time>2018-05-03T12:33:47Z</time>
      </trkpt>
      <trkpt lat="45.17483" lon="0.61314">
        <ele>125</ele>
        <time>2018-05-03T12:33:48Z</time>
      </trkpt>
      <trkpt lat="45.1748" lon="0.61309">
        <ele>126</ele>
        <time>2018-05-03T12:33:49Z</time>
      </trkpt>
      <trkpt lat="45.17478" lon="0.61305">
        <ele>127</ele>
        <time>2018-05-03T12:33:50Z</time>
      </trkpt>
      <trkpt lat="45.17475" lon="0.613">
        <ele>126</ele>
        <time>2018-05-03T12:33:52Z</time>
      </trkpt>
      <trkpt lat="45.17469" lon="0.6129">
        <ele>126</ele>
        <time>2018-05-03T12:33:53Z</time>
      </trkpt>
      <trkpt lat="45.17466" lon="0.61284">
        <ele>126</ele>
        <time>2018-05-03T12:33:54Z</time>
      </trkpt>
      <trkpt lat="45.17461" lon="0.61273">
        <ele>125</ele>
        <time>2018-05-03T12:33:56Z</time>
      </trkpt>
      <trkpt lat="45.17457" lon="0.61268">
        <ele>125</ele>
        <time>2018-05-03T12:33:57Z</time>
      </trkpt>
      <trkpt lat="45.17455" lon="0.61262">
        <ele>124</ele>
        <time>2018-05-03T12:33:58Z</time>
      </trkpt>
      <trkpt lat="45.17452" lon="0.61257">
        <ele>124</ele>
        <time>2018-05-03T12:33:59Z</time>
      </trkpt>
      <trkpt lat="45.17446" lon="0.61245">
        <ele>125</ele>
        <time>2018-05-03T12:34:01Z</time>
      </trkpt>
      <trkpt lat="45.17442" lon="0.6124">
        <ele>124</ele>
        <time>2018-05-03T12:34:02Z</time>
      </trkpt>
      <trkpt lat="45.17439" lon="0.61234">
        <ele>124</ele>
        <time>2018-05-03T12:34:04Z</time>
      </trkpt>
      <trkpt lat="45.17422" lon="0.61221">
        <ele>125</ele>
        <time>2018-05-03T12:34:07Z</time>
      </trkpt>
      <trkpt lat="45.17419" lon="0.61216">
        <ele>125</ele>
        <time>2018-05-03T12:34:08Z</time>
      </trkpt>
      <trkpt lat="45.17413" lon="0.61205">
        <ele>125</ele>
        <time>2018-05-03T12:34:10Z</time>
      </trkpt>
      <trkpt lat="45.1741" lon="0.61199">
        <ele>125</ele>
        <time>2018-05-03T12:34:11Z</time>
      </trkpt>
      <trkpt lat="45.17406" lon="0.61194">
        <ele>125</ele>
        <time>2018-05-03T12:34:12Z</time>
      </trkpt>
      <trkpt lat="45.17404" lon="0.61187">
        <ele>126</ele>
        <time>2018-05-03T12:34:13Z</time>
      </trkpt>
      <trkpt lat="45.174" lon="0.61182">
        <ele>126</ele>
        <time>2018-05-03T12:34:14Z</time>
      </trkpt>
      <trkpt lat="45.17397" lon="0.61176">
        <ele>126</ele>
        <time>2018-05-03T12:34:15Z</time>
      </trkpt>
      <trkpt lat="45.17394" lon="0.6117">
        <ele>126</ele>
        <time>2018-05-03T12:34:16Z</time>
      </trkpt>
      <trkpt lat="45.17391" lon="0.61164">
        <ele>125</ele>
        <time>2018-05-03T12:34:17Z</time>
      </trkpt>
      <trkpt lat="45.17388" lon="0.61158">
        <ele>125</ele>
        <time>2018-05-03T12:34:18Z</time>
      </trkpt>
      <trkpt lat="45.17385" lon="0.61152">
        <ele>125</ele>
        <time>2018-05-03T12:34:19Z</time>
      </trkpt>
      <trkpt lat="45.17381" lon="0.61146">
        <ele>125</ele>
        <time>2018-05-03T12:34:20Z</time>
      </trkpt>
      <trkpt lat="45.17378" lon="0.61141">
        <ele>126</ele>
        <time>2018-05-03T12:34:21Z</time>
      </trkpt>
      <trkpt lat="45.17375" lon="0.61135">
        <ele>126</ele>
        <time>2018-05-03T12:34:22Z</time>
      </trkpt>
      <trkpt lat="45.17367" lon="0.61128">
        <ele>126</ele>
        <time>2018-05-03T12:34:24Z</time>
      </trkpt>
      <trkpt lat="45.17362" lon="0.6113">
        <ele>127</ele>
        <time>2018-05-03T12:34:25Z</time>
      </trkpt>
      <trkpt lat="45.1735" lon="0.6114">
        <ele>125</ele>
        <time>2018-05-03T12:34:28Z</time>
      </trkpt>
      <trkpt lat="45.17346" lon="0.61143">
        <ele>125</ele>
        <time>2018-05-03T12:34:29Z</time>
      </trkpt>
      <trkpt lat="45.17342" lon="0.61148">
        <ele>125</ele>
        <time>2018-05-03T12:34:30Z</time>
      </trkpt>
      <trkpt lat="45.17338" lon="0.61152">
        <ele>125</ele>
        <time>2018-05-03T12:34:31Z</time>
      </trkpt>
      <trkpt lat="45.1733" lon="0.61157">
        <ele>124</ele>
        <time>2018-05-03T12:34:33Z</time>
      </trkpt>
      <trkpt lat="45.17325" lon="0.61164">
        <ele>124</ele>
        <time>2018-05-03T12:34:35Z</time>
      </trkpt>
      <trkpt lat="45.17319" lon="0.61173">
        <ele>124</ele>
        <time>2018-05-03T12:34:37Z</time>
      </trkpt>
      <trkpt lat="45.17315" lon="0.61178">
        <ele>125</ele>
        <time>2018-05-03T12:34:38Z</time>
      </trkpt>
      <trkpt lat="45.17309" lon="0.61186">
        <ele>126</ele>
        <time>2018-05-03T12:34:40Z</time>
      </trkpt>
      <trkpt lat="45.17305" lon="0.61191">
        <ele>126</ele>
        <time>2018-05-03T12:34:41Z</time>
      </trkpt>
      <trkpt lat="45.17303" lon="0.61195">
        <ele>126</ele>
        <time>2018-05-03T12:34:42Z</time>
      </trkpt>
      <trkpt lat="45.17299" lon="0.612">
        <ele>126</ele>
        <time>2018-05-03T12:34:43Z</time>
      </trkpt>
      <trkpt lat="45.17292" lon="0.61214">
        <ele>126</ele>
        <time>2018-05-03T12:34:46Z</time>
      </trkpt>
      <trkpt lat="45.17287" lon="0.61223">
        <ele>125</ele>
        <time>2018-05-03T12:34:48Z</time>
      </trkpt>
      <trkpt lat="45.17282" lon="0.61232">
        <ele>125</ele>
        <time>2018-05-03T12:34:50Z</time>
      </trkpt>
      <trkpt lat="45.17277" lon="0.61241">
        <ele>126</ele>
        <time>2018-05-03T12:34:52Z</time>
      </trkpt>
      <trkpt lat="45.17274" lon="0.61245">
        <ele>126</ele>
        <time>2018-05-03T12:34:53Z</time>
      </trkpt>
      <trkpt lat="45.17272" lon="0.61249">
        <ele>126</ele>
        <time>2018-05-03T12:34:54Z</time>
      </trkpt>
      <trkpt lat="45.17267" lon="0.61258">
        <ele>127</ele>
        <time>2018-05-03T12:34:56Z</time>
      </trkpt>
      <trkpt lat="45.17265" lon="0.61262">
        <ele>127</ele>
        <time>2018-05-03T12:34:57Z</time>
      </trkpt>
      <trkpt lat="45.17262" lon="0.61267">
        <ele>127</ele>
        <time>2018-05-03T12:34:58Z</time>
      </trkpt>
      <trkpt lat="45.17257" lon="0.61276">
        <ele>128</ele>
        <time>2018-05-03T12:35:00Z</time>
      </trkpt>
      <trkpt lat="45.17254" lon="0.6128">
        <ele>128</ele>
        <time>2018-05-03T12:35:01Z</time>
      </trkpt>
      <trkpt lat="45.17252" lon="0.61285">
        <ele>128</ele>
        <time>2018-05-03T12:35:02Z</time>
      </trkpt>
      <trkpt lat="45.17249" lon="0.61289">
        <ele>128</ele>
        <time>2018-05-03T12:35:03Z</time>
      </trkpt>
      <trkpt lat="45.17243" lon="0.61297">
        <ele>128</ele>
        <time>2018-05-03T12:35:05Z</time>
      </trkpt>
      <trkpt lat="45.17236" lon="0.61305">
        <ele>128</ele>
        <time>2018-05-03T12:35:07Z</time>
      </trkpt>
      <trkpt lat="45.17228" lon="0.61311">
        <ele>128</ele>
        <time>2018-05-03T12:35:09Z</time>
      </trkpt>
      <trkpt lat="45.17223" lon="0.61313">
        <ele>129</ele>
        <time>2018-05-03T12:35:10Z</time>
      </trkpt>
      <trkpt lat="45.17219" lon="0.61315">
        <ele>129</ele>
        <time>2018-05-03T12:35:11Z</time>
      </trkpt>
      <trkpt lat="45.17214" lon="0.61318">
        <ele>129</ele>
        <time>2018-05-03T12:35:12Z</time>
      </trkpt>
      <trkpt lat="45.17201" lon="0.61324">
        <ele>129</ele>
        <time>2018-05-03T12:35:15Z</time>
      </trkpt>
      <trkpt lat="45.17197" lon="0.61326">
        <ele>130</ele>
        <time>2018-05-03T12:35:16Z</time>
      </trkpt>
      <trkpt lat="45.17193" lon="0.61329">
        <ele>130</ele>
        <time>2018-05-03T12:35:17Z</time>
      </trkpt>
      <trkpt lat="45.17189" lon="0.61331">
        <ele>129</ele>
        <time>2018-05-03T12:35:18Z</time>
      </trkpt>
      <trkpt lat="45.17184" lon="0.61334">
        <ele>130</ele>
        <time>2018-05-03T12:35:19Z</time>
      </trkpt>
      <trkpt lat="45.1718" lon="0.61336">
        <ele>130</ele>
        <time>2018-05-03T12:35:20Z</time>
      </trkpt>
      <trkpt lat="45.17176" lon="0.61339">
        <ele>130</ele>
        <time>2018-05-03T12:35:21Z</time>
      </trkpt>
      <trkpt lat="45.17172" lon="0.61342">
        <ele>130</ele>
        <time>2018-05-03T12:35:22Z</time>
      </trkpt>
      <trkpt lat="45.17162" lon="0.61351">
        <ele>130</ele>
        <time>2018-05-03T12:35:25Z</time>
      </trkpt>
      <trkpt lat="45.17158" lon="0.61354">
        <ele>131</ele>
        <time>2018-05-03T12:35:26Z</time>
      </trkpt>
      <trkpt lat="45.17152" lon="0.61361">
        <ele>131</ele>
        <time>2018-05-03T12:35:28Z</time>
      </trkpt>
      <trkpt lat="45.17144" lon="0.61373">
        <ele>132</ele>
        <time>2018-05-03T12:35:31Z</time>
      </trkpt>
      <trkpt lat="45.17136" lon="0.6138">
        <ele>132</ele>
        <time>2018-05-03T12:35:33Z</time>
      </trkpt>
      <trkpt lat="45.1713" lon="0.61386">
        <ele>133</ele>
        <time>2018-05-03T12:35:35Z</time>
      </trkpt>
      <trkpt lat="45.17116" lon="0.61394">
        <ele>129</ele>
        <time>2018-05-03T12:35:39Z</time>
      </trkpt>
      <trkpt lat="45.17112" lon="0.61397">
        <ele>129</ele>
        <time>2018-05-03T12:35:40Z</time>
      </trkpt>
      <trkpt lat="45.17108" lon="0.61399">
        <ele>129</ele>
        <time>2018-05-03T12:35:41Z</time>
      </trkpt>
      <trkpt lat="45.17101" lon="0.61402">
        <ele>128</ele>
        <time>2018-05-03T12:35:43Z</time>
      </trkpt>
      <trkpt lat="45.17089" lon="0.61405">
        <ele>129</ele>
        <time>2018-05-03T12:35:46Z</time>
      </trkpt>
      <trkpt lat="45.17085" lon="0.61406">
        <ele>129</ele>
        <time>2018-05-03T12:35:47Z</time>
      </trkpt>
      <trkpt lat="45.17077" lon="0.61408">
        <ele>128</ele>
        <time>2018-05-03T12:35:49Z</time>
      </trkpt>
      <trkpt lat="45.17073" lon="0.61409">
        <ele>128</ele>
        <time>2018-05-03T12:35:50Z</time>
      </trkpt>
      <trkpt lat="45.17065" lon="0.61411">
        <ele>128</ele>
        <time>2018-05-03T12:35:52Z</time>
      </trkpt>
      <trkpt lat="45.17062" lon="0.61412">
        <ele>129</ele>
        <time>2018-05-03T12:35:53Z</time>
      </trkpt>
      <trkpt lat="45.17058" lon="0.61413">
        <ele>130</ele>
        <time>2018-05-03T12:35:54Z</time>
      </trkpt>
      <trkpt lat="45.17047" lon="0.61415">
        <ele>130</ele>
        <time>2018-05-03T12:35:57Z</time>
      </trkpt>
      <trkpt lat="45.17035" lon="0.6141">
        <ele>132</ele>
        <time>2018-05-03T12:36:01Z</time>
      </trkpt>
      <trkpt lat="45.17029" lon="0.61404">
        <ele>132</ele>
        <time>2018-05-03T12:36:03Z</time>
      </trkpt>
      <trkpt lat="45.17026" lon="0.61401">
        <ele>133</ele>
        <time>2018-05-03T12:36:04Z</time>
      </trkpt>
      <trkpt lat="45.17024" lon="0.61398">
        <ele>132</ele>
        <time>2018-05-03T12:36:05Z</time>
      </trkpt>
      <trkpt lat="45.17021" lon="0.61395">
        <ele>133</ele>
        <time>2018-05-03T12:36:06Z</time>
      </trkpt>
      <trkpt lat="45.17018" lon="0.61392">
        <ele>134</ele>
        <time>2018-05-03T12:36:07Z</time>
      </trkpt>
      <trkpt lat="45.17015" lon="0.61389">
        <ele>133</ele>
        <time>2018-05-03T12:36:08Z</time>
      </trkpt>
      <trkpt lat="45.1701" lon="0.61382">
        <ele>132</ele>
        <time>2018-05-03T12:36:10Z</time>
      </trkpt>
      <trkpt lat="45.17007" lon="0.61378">
        <ele>132</ele>
        <time>2018-05-03T12:36:11Z</time>
      </trkpt>
      <trkpt lat="45.16996" lon="0.61365">
        <ele>133</ele>
        <time>2018-05-03T12:36:15Z</time>
      </trkpt>
      <trkpt lat="45.1699" lon="0.61358">
        <ele>132</ele>
        <time>2018-05-03T12:36:17Z</time>
      </trkpt>
      <trkpt lat="45.16988" lon="0.61355">
        <ele>133</ele>
        <time>2018-05-03T12:36:18Z</time>
      </trkpt>
      <trkpt lat="45.16983" lon="0.61348">
        <ele>133</ele>
        <time>2018-05-03T12:36:20Z</time>
      </trkpt>
      <trkpt lat="45.16978" lon="0.6134">
        <ele>135</ele>
        <time>2018-05-03T12:36:22Z</time>
      </trkpt>
      <trkpt lat="45.16976" lon="0.61337">
        <ele>136</ele>
        <time>2018-05-03T12:36:23Z</time>
      </trkpt>
      <trkpt lat="45.16974" lon="0.61334">
        <ele>138</ele>
        <time>2018-05-03T12:36:24Z</time>
      </trkpt>
      <trkpt lat="45.16969" lon="0.61329">
        <ele>137</ele>
        <time>2018-05-03T12:36:26Z</time>
      </trkpt>
      <trkpt lat="45.16967" lon="0.61326">
        <ele>138</ele>
        <time>2018-05-03T12:36:27Z</time>
      </trkpt>
      <trkpt lat="45.16965" lon="0.61324">
        <ele>139</ele>
        <time>2018-05-03T12:36:28Z</time>
      </trkpt>
      <trkpt lat="45.16963" lon="0.61321">
        <ele>140</ele>
        <time>2018-05-03T12:36:29Z</time>
      </trkpt>
      <trkpt lat="45.1696" lon="0.61317">
        <ele>139</ele>
        <time>2018-05-03T12:36:30Z</time>
      </trkpt>
      <trkpt lat="45.16955" lon="0.6131">
        <ele>140</ele>
        <time>2018-05-03T12:36:32Z</time>
      </trkpt>
      <trkpt lat="45.16949" lon="0.61304">
        <ele>138</ele>
        <time>2018-05-03T12:36:34Z</time>
      </trkpt>
      <trkpt lat="45.16946" lon="0.61301">
        <ele>138</ele>
        <time>2018-05-03T12:36:35Z</time>
      </trkpt>
      <trkpt lat="45.16943" lon="0.61298">
        <ele>138</ele>
        <time>2018-05-03T12:36:37Z</time>
      </trkpt>
      <trkpt lat="45.16937" lon="0.61291">
        <ele>138</ele>
        <time>2018-05-03T12:36:38Z</time>
      </trkpt>
      <trkpt lat="45.16934" lon="0.61288">
        <ele>138</ele>
        <time>2018-05-03T12:36:39Z</time>
      </trkpt>
      <trkpt lat="45.16931" lon="0.61285">
        <ele>138</ele>
        <time>2018-05-03T12:36:40Z</time>
      </trkpt>
      <trkpt lat="45.16928" lon="0.61282">
        <ele>137</ele>
        <time>2018-05-03T12:36:41Z</time>
      </trkpt>
      <trkpt lat="45.16926" lon="0.61278">
        <ele>136</ele>
        <time>2018-05-03T12:36:42Z</time>
      </trkpt>
      <trkpt lat="45.16921" lon="0.6127">
        <ele>137</ele>
        <time>2018-05-03T12:36:44Z</time>
      </trkpt>
      <trkpt lat="45.16919" lon="0.61265">
        <ele>138</ele>
        <time>2018-05-03T12:36:45Z</time>
      </trkpt>
      <trkpt lat="45.16916" lon="0.6126">
        <ele>138</ele>
        <time>2018-05-03T12:36:46Z</time>
      </trkpt>
      <trkpt lat="45.16914" lon="0.61256">
        <ele>137</ele>
        <time>2018-05-03T12:36:47Z</time>
      </trkpt>
      <trkpt lat="45.16911" lon="0.61251">
        <ele>137</ele>
        <time>2018-05-03T12:36:48Z</time>
      </trkpt>
      <trkpt lat="45.16909" lon="0.61247">
        <ele>138</ele>
        <time>2018-05-03T12:36:49Z</time>
      </trkpt>
      <trkpt lat="45.16904" lon="0.61241">
        <ele>137</ele>
        <time>2018-05-03T12:36:51Z</time>
      </trkpt>
      <trkpt lat="45.16902" lon="0.61237">
        <ele>137</ele>
        <time>2018-05-03T12:36:52Z</time>
      </trkpt>
      <trkpt lat="45.16899" lon="0.61233">
        <ele>136</ele>
        <time>2018-05-03T12:36:53Z</time>
      </trkpt>
      <trkpt lat="45.16897" lon="0.61229">
        <ele>136</ele>
        <time>2018-05-03T12:36:54Z</time>
      </trkpt>
      <trkpt lat="45.16891" lon="0.61221">
        <ele>136</ele>
        <time>2018-05-03T12:36:56Z</time>
      </trkpt>
      <trkpt lat="45.16888" lon="0.61217">
        <ele>134</ele>
        <time>2018-05-03T12:36:57Z</time>
      </trkpt>
      <trkpt lat="45.16885" lon="0.61213">
        <ele>135</ele>
        <time>2018-05-03T12:36:58Z</time>
      </trkpt>
      <trkpt lat="45.16881" lon="0.61209">
        <ele>136</ele>
        <time>2018-05-03T12:36:59Z</time>
      </trkpt>
      <trkpt lat="45.16878" lon="0.61205">
        <ele>136</ele>
        <time>2018-05-03T12:37:00Z</time>
      </trkpt>
      <trkpt lat="45.16874" lon="0.61202">
        <ele>136</ele>
        <time>2018-05-03T12:37:01Z</time>
      </trkpt>
      <trkpt lat="45.1687" lon="0.61199">
        <ele>137</ele>
        <time>2018-05-03T12:37:02Z</time>
      </trkpt>
      <trkpt lat="45.16864" lon="0.61196">
        <ele>136</ele>
        <time>2018-05-03T12:37:03Z</time>
      </trkpt>
      <trkpt lat="45.1686" lon="0.61193">
        <ele>136</ele>
        <time>2018-05-03T12:37:04Z</time>
      </trkpt>
      <trkpt lat="45.16856" lon="0.61191">
        <ele>136</ele>
        <time>2018-05-03T12:37:05Z</time>
      </trkpt>
      <trkpt lat="45.16851" lon="0.61189">
        <ele>136</ele>
        <time>2018-05-03T12:37:06Z</time>
      </trkpt>
      <trkpt lat="45.16845" lon="0.61186">
        <ele>136</ele>
        <time>2018-05-03T12:37:07Z</time>
      </trkpt>
      <trkpt lat="45.16841" lon="0.61184">
        <ele>136</ele>
        <time>2018-05-03T12:37:08Z</time>
      </trkpt>
      <trkpt lat="45.16836" lon="0.61181">
        <ele>137</ele>
        <time>2018-05-03T12:37:09Z</time>
      </trkpt>
      <trkpt lat="45.16832" lon="0.61176">
        <ele>137</ele>
        <time>2018-05-03T12:37:10Z</time>
      </trkpt>
      <trkpt lat="45.16828" lon="0.61172">
        <ele>137</ele>
        <time>2018-05-03T12:37:11Z</time>
      </trkpt>
      <trkpt lat="45.16823" lon="0.61167">
        <ele>137</ele>
        <time>2018-05-03T12:37:12Z</time>
      </trkpt>
      <trkpt lat="45.16818" lon="0.61163">
        <ele>137</ele>
        <time>2018-05-03T12:37:13Z</time>
      </trkpt>
      <trkpt lat="45.16813" lon="0.61159">
        <ele>138</ele>
        <time>2018-05-03T12:37:14Z</time>
      </trkpt>
      <trkpt lat="45.16808" lon="0.61154">
        <ele>139</ele>
        <time>2018-05-03T12:37:15Z</time>
      </trkpt>
      <trkpt lat="45.16804" lon="0.6115">
        <ele>138</ele>
        <time>2018-05-03T12:37:16Z</time>
      </trkpt>
      <trkpt lat="45.16799" lon="0.61144">
        <ele>138</ele>
        <time>2018-05-03T12:37:17Z</time>
      </trkpt>
      <trkpt lat="45.16794" lon="0.61139">
        <ele>137</ele>
        <time>2018-05-03T12:37:18Z</time>
      </trkpt>
      <trkpt lat="45.1679" lon="0.61133">
        <ele>136</ele>
        <time>2018-05-03T12:37:19Z</time>
      </trkpt>
      <trkpt lat="45.16781" lon="0.61119">
        <ele>136</ele>
        <time>2018-05-03T12:37:21Z</time>
      </trkpt>
      <trkpt lat="45.16777" lon="0.61113">
        <ele>136</ele>
        <time>2018-05-03T12:37:22Z</time>
      </trkpt>
      <trkpt lat="45.16774" lon="0.61108">
        <ele>136</ele>
        <time>2018-05-03T12:37:23Z</time>
      </trkpt>
      <trkpt lat="45.16769" lon="0.61101">
        <ele>135</ele>
        <time>2018-05-03T12:37:24Z</time>
      </trkpt>
      <trkpt lat="45.16765" lon="0.61094">
        <ele>134</ele>
        <time>2018-05-03T12:37:25Z</time>
      </trkpt>
      <trkpt lat="45.16761" lon="0.61088">
        <ele>135</ele>
        <time>2018-05-03T12:37:26Z</time>
      </trkpt>
      <trkpt lat="45.16736" lon="0.61046">
        <ele>132</ele>
        <time>2018-05-03T12:37:31Z</time>
      </trkpt>
      <trkpt lat="45.16713" lon="0.61">
        <ele>130</ele>
        <time>2018-05-03T12:37:35Z</time>
      </trkpt>
      <trkpt lat="45.16708" lon="0.60989">
        <ele>129</ele>
        <time>2018-05-03T12:37:36Z</time>
      </trkpt>
      <trkpt lat="45.16701" lon="0.60975">
        <ele>130</ele>
        <time>2018-05-03T12:37:37Z</time>
      </trkpt>
      <trkpt lat="45.16683" lon="0.60936">
        <ele>129</ele>
        <time>2018-05-03T12:37:40Z</time>
      </trkpt>
      <trkpt lat="45.16659" lon="0.60896">
        <ele>128</ele>
        <time>2018-05-03T12:37:44Z</time>
      </trkpt>
      <trkpt lat="45.16653" lon="0.60886">
        <ele>127</ele>
        <time>2018-05-03T12:37:45Z</time>
      </trkpt>
      <trkpt lat="45.16647" lon="0.60876">
        <ele>127</ele>
        <time>2018-05-03T12:37:46Z</time>
      </trkpt>
      <trkpt lat="45.16637" lon="0.60855">
        <ele>126</ele>
        <time>2018-05-03T12:37:48Z</time>
      </trkpt>
      <trkpt lat="45.16632" lon="0.60846">
        <ele>125</ele>
        <time>2018-05-03T12:37:49Z</time>
      </trkpt>
      <trkpt lat="45.16619" lon="0.60815">
        <ele>126</ele>
        <time>2018-05-03T12:37:52Z</time>
      </trkpt>
      <trkpt lat="45.16616" lon="0.60805">
        <ele>125</ele>
        <time>2018-05-03T12:37:53Z</time>
      </trkpt>
      <trkpt lat="45.16607" lon="0.60778">
        <ele>125</ele>
        <time>2018-05-03T12:37:56Z</time>
      </trkpt>
      <trkpt lat="45.16605" lon="0.6077">
        <ele>124</ele>
        <time>2018-05-03T12:37:57Z</time>
      </trkpt>
      <trkpt lat="45.16601" lon="0.60755">
        <ele>125</ele>
        <time>2018-05-03T12:37:59Z</time>
      </trkpt>
      <trkpt lat="45.16594" lon="0.60734">
        <ele>124</ele>
        <time>2018-05-03T12:38:02Z</time>
      </trkpt>
      <trkpt lat="45.16592" lon="0.60727">
        <ele>124</ele>
        <time>2018-05-03T12:38:03Z</time>
      </trkpt>
      <trkpt lat="45.16589" lon="0.6072">
        <ele>123</ele>
        <time>2018-05-03T12:38:04Z</time>
      </trkpt>
      <trkpt lat="45.16588" lon="0.60712">
        <ele>124</ele>
        <time>2018-05-03T12:38:05Z</time>
      </trkpt>
      <trkpt lat="45.16583" lon="0.60699">
        <ele>124</ele>
        <time>2018-05-03T12:38:07Z</time>
      </trkpt>
      <trkpt lat="45.16582" lon="0.60692">
        <ele>125</ele>
        <time>2018-05-03T12:38:08Z</time>
      </trkpt>
      <trkpt lat="45.16581" lon="0.60677">
        <ele>124</ele>
        <time>2018-05-03T12:38:10Z</time>
      </trkpt>
      <trkpt lat="45.1658" lon="0.6067">
        <ele>124</ele>
        <time>2018-05-03T12:38:11Z</time>
      </trkpt>
      <trkpt lat="45.16578" lon="0.60655">
        <ele>123</ele>
        <time>2018-05-03T12:38:13Z</time>
      </trkpt>
      <trkpt lat="45.16577" lon="0.60647">
        <ele>124</ele>
        <time>2018-05-03T12:38:14Z</time>
      </trkpt>
      <trkpt lat="45.16576" lon="0.6064">
        <ele>124</ele>
        <time>2018-05-03T12:38:15Z</time>
      </trkpt>
      <trkpt lat="45.16575" lon="0.60633">
        <ele>124</ele>
        <time>2018-05-03T12:38:16Z</time>
      </trkpt>
      <trkpt lat="45.16573" lon="0.60611">
        <ele>124</ele>
        <time>2018-05-03T12:38:19Z</time>
      </trkpt>
      <trkpt lat="45.16572" lon="0.60604">
        <ele>124</ele>
        <time>2018-05-03T12:38:20Z</time>
      </trkpt>
      <trkpt lat="45.16572" lon="0.60597">
        <ele>124</ele>
        <time>2018-05-03T12:38:21Z</time>
      </trkpt>
      <trkpt lat="45.16571" lon="0.60589">
        <ele>124</ele>
        <time>2018-05-03T12:38:22Z</time>
      </trkpt>
      <trkpt lat="45.1657" lon="0.60582">
        <ele>124</ele>
        <time>2018-05-03T12:38:23Z</time>
      </trkpt>
      <trkpt lat="45.16569" lon="0.60575">
        <ele>124</ele>
        <time>2018-05-03T12:38:24Z</time>
      </trkpt>
      <trkpt lat="45.16569" lon="0.60568">
        <ele>124</ele>
        <time>2018-05-03T12:38:25Z</time>
      </trkpt>
      <trkpt lat="45.16569" lon="0.60561">
        <ele>124</ele>
        <time>2018-05-03T12:38:26Z</time>
      </trkpt>
      <trkpt lat="45.16568" lon="0.60554">
        <ele>124</ele>
        <time>2018-05-03T12:38:27Z</time>
      </trkpt>
      <trkpt lat="45.16567" lon="0.60547">
        <ele>124</ele>
        <time>2018-05-03T12:38:28Z</time>
      </trkpt>
      <trkpt lat="45.16567" lon="0.6054">
        <ele>124</ele>
        <time>2018-05-03T12:38:29Z</time>
      </trkpt>
      <trkpt lat="45.16566" lon="0.60533">
        <ele>124</ele>
        <time>2018-05-03T12:38:30Z</time>
      </trkpt>
      <trkpt lat="45.16565" lon="0.60527">
        <ele>124</ele>
        <time>2018-05-03T12:38:31Z</time>
      </trkpt>
      <trkpt lat="45.16564" lon="0.60512">
        <ele>124</ele>
        <time>2018-05-03T12:38:33Z</time>
      </trkpt>
      <trkpt lat="45.16563" lon="0.60491">
        <ele>122</ele>
        <time>2018-05-03T12:38:36Z</time>
      </trkpt>
      <trkpt lat="45.16563" lon="0.60485">
        <ele>123</ele>
        <time>2018-05-03T12:38:37Z</time>
      </trkpt>
      <trkpt lat="45.16561" lon="0.6047">
        <ele>123</ele>
        <time>2018-05-03T12:38:39Z</time>
      </trkpt>
      <trkpt lat="45.1656" lon="0.6045">
        <ele>123</ele>
        <time>2018-05-03T12:38:42Z</time>
      </trkpt>
      <trkpt lat="45.16559" lon="0.60437">
        <ele>124</ele>
        <time>2018-05-03T12:38:44Z</time>
      </trkpt>
      <trkpt lat="45.16559" lon="0.60429">
        <ele>123</ele>
        <time>2018-05-03T12:38:45Z</time>
      </trkpt>
      <trkpt lat="45.16559" lon="0.60422">
        <ele>124</ele>
        <time>2018-05-03T12:38:46Z</time>
      </trkpt>
      <trkpt lat="45.16558" lon="0.60414">
        <ele>124</ele>
        <time>2018-05-03T12:38:47Z</time>
      </trkpt>
      <trkpt lat="45.16558" lon="0.60407">
        <ele>125</ele>
        <time>2018-05-03T12:38:48Z</time>
      </trkpt>
      <trkpt lat="45.16558" lon="0.60401">
        <ele>125</ele>
        <time>2018-05-03T12:38:49Z</time>
      </trkpt>
      <trkpt lat="45.16557" lon="0.60393">
        <ele>125</ele>
        <time>2018-05-03T12:38:50Z</time>
      </trkpt>
      <trkpt lat="45.16557" lon="0.60385">
        <ele>125</ele>
        <time>2018-05-03T12:38:52Z</time>
      </trkpt>
      <trkpt lat="45.16554" lon="0.60372">
        <ele>126</ele>
        <time>2018-05-03T12:38:53Z</time>
      </trkpt>
      <trkpt lat="45.16553" lon="0.60365">
        <ele>125</ele>
        <time>2018-05-03T12:38:54Z</time>
      </trkpt>
      <trkpt lat="45.16553" lon="0.60358">
        <ele>125</ele>
        <time>2018-05-03T12:38:55Z</time>
      </trkpt>
      <trkpt lat="45.16553" lon="0.60352">
        <ele>125</ele>
        <time>2018-05-03T12:38:56Z</time>
      </trkpt>
      <trkpt lat="45.16552" lon="0.60345">
        <ele>126</ele>
        <time>2018-05-03T12:38:58Z</time>
      </trkpt>
      <trkpt lat="45.16551" lon="0.60331">
        <ele>125</ele>
        <time>2018-05-03T12:38:59Z</time>
      </trkpt>
      <trkpt lat="45.1655" lon="0.60318">
        <ele>126</ele>
        <time>2018-05-03T12:39:01Z</time>
      </trkpt>
      <trkpt lat="45.16549" lon="0.60311">
        <ele>126</ele>
        <time>2018-05-03T12:39:02Z</time>
      </trkpt>
      <trkpt lat="45.16548" lon="0.60295">
        <ele>125</ele>
        <time>2018-05-03T12:39:05Z</time>
      </trkpt>
      <trkpt lat="45.16548" lon="0.60283">
        <ele>127</ele>
        <time>2018-05-03T12:39:07Z</time>
      </trkpt>
      <trkpt lat="45.16546" lon="0.60265">
        <ele>128</ele>
        <time>2018-05-03T12:39:10Z</time>
      </trkpt>
      <trkpt lat="45.16545" lon="0.60248">
        <ele>127</ele>
        <time>2018-05-03T12:39:14Z</time>
      </trkpt>
      <trkpt lat="45.16545" lon="0.60241">
        <ele>129</ele>
        <time>2018-05-03T12:39:16Z</time>
      </trkpt>
      <trkpt lat="45.16542" lon="0.60234">
        <ele>128</ele>
        <time>2018-05-03T12:39:18Z</time>
      </trkpt>
      <trkpt lat="45.16534" lon="0.60227">
        <ele>129</ele>
        <time>2018-05-03T12:39:21Z</time>
      </trkpt>
      <trkpt lat="45.16527" lon="0.60223">
        <ele>129</ele>
        <time>2018-05-03T12:39:23Z</time>
      </trkpt>
      <trkpt lat="45.16524" lon="0.60221">
        <ele>129</ele>
        <time>2018-05-03T12:39:24Z</time>
      </trkpt>
      <trkpt lat="45.16519" lon="0.60216">
        <ele>129</ele>
        <time>2018-05-03T12:39:26Z</time>
      </trkpt>
      <trkpt lat="45.16516" lon="0.60214">
        <ele>129</ele>
        <time>2018-05-03T12:39:27Z</time>
      </trkpt>
      <trkpt lat="45.1651" lon="0.60207">
        <ele>130</ele>
        <time>2018-05-03T12:39:29Z</time>
      </trkpt>
      <trkpt lat="45.16507" lon="0.60204">
        <ele>130</ele>
        <time>2018-05-03T12:39:30Z</time>
      </trkpt>
      <trkpt lat="45.16505" lon="0.60201">
        <ele>131</ele>
        <time>2018-05-03T12:39:31Z</time>
      </trkpt>
      <trkpt lat="45.16502" lon="0.60198">
        <ele>131</ele>
        <time>2018-05-03T12:39:32Z</time>
      </trkpt>
      <trkpt lat="45.16499" lon="0.60196">
        <ele>131</ele>
        <time>2018-05-03T12:39:33Z</time>
      </trkpt>
      <trkpt lat="45.16491" lon="0.6019">
        <ele>131</ele>
        <time>2018-05-03T12:39:36Z</time>
      </trkpt>
      <trkpt lat="45.16482" lon="0.60182">
        <ele>132</ele>
        <time>2018-05-03T12:39:39Z</time>
      </trkpt>
      <trkpt lat="45.16475" lon="0.60173">
        <ele>133</ele>
        <time>2018-05-03T12:39:42Z</time>
      </trkpt>
      <trkpt lat="45.16472" lon="0.6017">
        <ele>133</ele>
        <time>2018-05-03T12:39:43Z</time>
      </trkpt>
      <trkpt lat="45.16467" lon="0.60165">
        <ele>133</ele>
        <time>2018-05-03T12:39:45Z</time>
      </trkpt>
      <trkpt lat="45.16464" lon="0.60162">
        <ele>134</ele>
        <time>2018-05-03T12:39:46Z</time>
      </trkpt>
      <trkpt lat="45.16458" lon="0.60154">
        <ele>134</ele>
        <time>2018-05-03T12:39:48Z</time>
      </trkpt>
      <trkpt lat="45.16455" lon="0.60151">
        <ele>133</ele>
        <time>2018-05-03T12:39:49Z</time>
      </trkpt>
      <trkpt lat="45.16446" lon="0.60141">
        <ele>131</ele>
        <time>2018-05-03T12:39:52Z</time>
      </trkpt>
      <trkpt lat="45.16443" lon="0.6013">
        <ele>129</ele>
        <time>2018-05-03T12:39:55Z</time>
      </trkpt>
      <trkpt lat="45.16442" lon="0.60117">
        <ele>130</ele>
        <time>2018-05-03T12:39:58Z</time>
      </trkpt>
      <trkpt lat="45.16444" lon="0.60107">
        <ele>130</ele>
        <time>2018-05-03T12:40:01Z</time>
      </trkpt>
      <trkpt lat="45.1644" lon="0.60099">
        <ele>131</ele>
        <time>2018-05-03T12:40:03Z</time>
      </trkpt>
      <trkpt lat="45.16432" lon="0.60093">
        <ele>132</ele>
        <time>2018-05-03T12:40:05Z</time>
      </trkpt>
      <trkpt lat="45.16424" lon="0.60089">
        <ele>132</ele>
        <time>2018-05-03T12:40:07Z</time>
      </trkpt>
      <trkpt lat="45.1642" lon="0.60088">
        <ele>133</ele>
        <time>2018-05-03T12:40:08Z</time>
      </trkpt>
      <trkpt lat="45.16415" lon="0.60086">
        <ele>134</ele>
        <time>2018-05-03T12:40:09Z</time>
      </trkpt>
      <trkpt lat="45.16411" lon="0.60085">
        <ele>134</ele>
        <time>2018-05-03T12:40:10Z</time>
      </trkpt>
      <trkpt lat="45.16406" lon="0.60085">
        <ele>135</ele>
        <time>2018-05-03T12:40:11Z</time>
      </trkpt>
      <trkpt lat="45.16398" lon="0.60086">
        <ele>136</ele>
        <time>2018-05-03T12:40:13Z</time>
      </trkpt>
      <trkpt lat="45.16389" lon="0.60089">
        <ele>136</ele>
        <time>2018-05-03T12:40:15Z</time>
      </trkpt>
      <trkpt lat="45.16379" lon="0.60107">
        <ele>136</ele>
        <time>2018-05-03T12:40:18Z</time>
      </trkpt>
      <trkpt lat="45.16371" lon="0.60123">
        <ele>136</ele>
        <time>2018-05-03T12:40:21Z</time>
      </trkpt>
      <trkpt lat="45.16363" lon="0.60137">
        <ele>136</ele>
        <time>2018-05-03T12:40:24Z</time>
      </trkpt>
      <trkpt lat="45.1636" lon="0.60141">
        <ele>136</ele>
        <time>2018-05-03T12:40:25Z</time>
      </trkpt>
      <trkpt lat="45.16357" lon="0.60147">
        <ele>136</ele>
        <time>2018-05-03T12:40:26Z</time>
      </trkpt>
      <trkpt lat="45.16353" lon="0.60153">
        <ele>137</ele>
        <time>2018-05-03T12:40:27Z</time>
      </trkpt>
      <trkpt lat="45.16345" lon="0.60166">
        <ele>134</ele>
        <time>2018-05-03T12:40:30Z</time>
      </trkpt>
      <trkpt lat="45.16343" lon="0.60172">
        <ele>134</ele>
        <time>2018-05-03T12:40:31Z</time>
      </trkpt>
      <trkpt lat="45.1634" lon="0.60177">
        <ele>135</ele>
        <time>2018-05-03T12:40:32Z</time>
      </trkpt>
      <trkpt lat="45.16331" lon="0.60193">
        <ele>135</ele>
        <time>2018-05-03T12:40:35Z</time>
      </trkpt>
      <trkpt lat="45.16325" lon="0.60204">
        <ele>136</ele>
        <time>2018-05-03T12:40:37Z</time>
      </trkpt>
      <trkpt lat="45.16322" lon="0.60209">
        <ele>136</ele>
        <time>2018-05-03T12:40:38Z</time>
      </trkpt>
      <trkpt lat="45.16317" lon="0.6022">
        <ele>135</ele>
        <time>2018-05-03T12:40:40Z</time>
      </trkpt>
      <trkpt lat="45.16315" lon="0.60225">
        <ele>136</ele>
        <time>2018-05-03T12:40:41Z</time>
      </trkpt>
      <trkpt lat="45.16311" lon="0.6023">
        <ele>135</ele>
        <time>2018-05-03T12:40:42Z</time>
      </trkpt>
      <trkpt lat="45.16307" lon="0.60241">
        <ele>135</ele>
        <time>2018-05-03T12:40:44Z</time>
      </trkpt>
      <trkpt lat="45.16303" lon="0.60252">
        <ele>135</ele>
        <time>2018-05-03T12:40:46Z</time>
      </trkpt>
      <trkpt lat="45.16297" lon="0.60262">
        <ele>136</ele>
        <time>2018-05-03T12:40:48Z</time>
      </trkpt>
      <trkpt lat="45.16291" lon="0.60278">
        <ele>136</ele>
        <time>2018-05-03T12:40:51Z</time>
      </trkpt>
      <trkpt lat="45.16288" lon="0.60284">
        <ele>137</ele>
        <time>2018-05-03T12:40:52Z</time>
      </trkpt>
      <trkpt lat="45.16284" lon="0.60293">
        <ele>136</ele>
        <time>2018-05-03T12:40:54Z</time>
      </trkpt>
      <trkpt lat="45.1628" lon="0.60298">
        <ele>137</ele>
        <time>2018-05-03T12:40:55Z</time>
      </trkpt>
      <trkpt lat="45.16273" lon="0.60313">
        <ele>139</ele>
        <time>2018-05-03T12:40:58Z</time>
      </trkpt>
      <trkpt lat="45.16271" lon="0.60321">
        <ele>135</ele>
        <time>2018-05-03T12:41:00Z</time>
      </trkpt>
      <trkpt lat="45.1627" lon="0.60325">
        <ele>134</ele>
        <time>2018-05-03T12:41:01Z</time>
      </trkpt>
      <trkpt lat="45.16266" lon="0.6033">
        <ele>134</ele>
        <time>2018-05-03T12:41:04Z</time>
      </trkpt>
      <trkpt lat="45.16265" lon="0.60336">
        <ele>135</ele>
        <time>2018-05-03T12:41:06Z</time>
      </trkpt>
      <trkpt lat="45.16263" lon="0.60344">
        <ele>135</ele>
        <time>2018-05-03T12:41:08Z</time>
      </trkpt>
      <trkpt lat="45.16261" lon="0.60354">
        <ele>134</ele>
        <time>2018-05-03T12:41:10Z</time>
      </trkpt>
      <trkpt lat="45.16257" lon="0.60365">
        <ele>133</ele>
        <time>2018-05-03T12:41:12Z</time>
      </trkpt>
      <trkpt lat="45.16251" lon="0.60376">
        <ele>133</ele>
        <time>2018-05-03T12:41:14Z</time>
      </trkpt>
      <trkpt lat="45.16247" lon="0.60387">
        <ele>133</ele>
        <time>2018-05-03T12:41:16Z</time>
      </trkpt>
      <trkpt lat="45.1624" lon="0.60404">
        <ele>132</ele>
        <time>2018-05-03T12:41:19Z</time>
      </trkpt>
      <trkpt lat="45.16237" lon="0.60416">
        <ele>131</ele>
        <time>2018-05-03T12:41:21Z</time>
      </trkpt>
      <trkpt lat="45.16234" lon="0.60422">
        <ele>131</ele>
        <time>2018-05-03T12:41:22Z</time>
      </trkpt>
      <trkpt lat="45.16233" lon="0.60427">
        <ele>131</ele>
        <time>2018-05-03T12:41:23Z</time>
      </trkpt>
      <trkpt lat="45.1623" lon="0.60432">
        <ele>131</ele>
        <time>2018-05-03T12:41:24Z</time>
      </trkpt>
      <trkpt lat="45.16228" lon="0.60437">
        <ele>132</ele>
        <time>2018-05-03T12:41:25Z</time>
      </trkpt>
      <trkpt lat="45.16223" lon="0.60446">
        <ele>130</ele>
        <time>2018-05-03T12:41:27Z</time>
      </trkpt>
      <trkpt lat="45.16219" lon="0.60456">
        <ele>130</ele>
        <time>2018-05-03T12:41:29Z</time>
      </trkpt>
      <trkpt lat="45.16209" lon="0.60473">
        <ele>130</ele>
        <time>2018-05-03T12:41:32Z</time>
      </trkpt>
      <trkpt lat="45.16207" lon="0.60479">
        <ele>131</ele>
        <time>2018-05-03T12:41:33Z</time>
      </trkpt>
      <trkpt lat="45.162" lon="0.60494">
        <ele>132</ele>
        <time>2018-05-03T12:41:36Z</time>
      </trkpt>
      <trkpt lat="45.16197" lon="0.605">
        <ele>132</ele>
        <time>2018-05-03T12:41:37Z</time>
      </trkpt>
      <trkpt lat="45.16194" lon="0.60506">
        <ele>132</ele>
        <time>2018-05-03T12:41:38Z</time>
      </trkpt>
      <trkpt lat="45.16192" lon="0.60511">
        <ele>133</ele>
        <time>2018-05-03T12:41:39Z</time>
      </trkpt>
      <trkpt lat="45.16189" lon="0.60517">
        <ele>133</ele>
        <time>2018-05-03T12:41:40Z</time>
      </trkpt>
      <trkpt lat="45.16187" lon="0.60522">
        <ele>132</ele>
        <time>2018-05-03T12:41:41Z</time>
      </trkpt>
      <trkpt lat="45.16184" lon="0.60527">
        <ele>133</ele>
        <time>2018-05-03T12:41:42Z</time>
      </trkpt>
      <trkpt lat="45.16181" lon="0.60532">
        <ele>133</ele>
        <time>2018-05-03T12:41:43Z</time>
      </trkpt>
      <trkpt lat="45.16176" lon="0.60542">
        <ele>133</ele>
        <time>2018-05-03T12:41:45Z</time>
      </trkpt>
      <trkpt lat="45.16173" lon="0.60547">
        <ele>133</ele>
        <time>2018-05-03T12:41:46Z</time>
      </trkpt>
      <trkpt lat="45.16168" lon="0.60557">
        <ele>131</ele>
        <time>2018-05-03T12:41:48Z</time>
      </trkpt>
      <trkpt lat="45.16165" lon="0.60562">
        <ele>130</ele>
        <time>2018-05-03T12:41:49Z</time>
      </trkpt>
      <trkpt lat="45.16162" lon="0.60567">
        <ele>131</ele>
        <time>2018-05-03T12:41:50Z</time>
      </trkpt>
      <trkpt lat="45.16159" lon="0.60572">
        <ele>131</ele>
        <time>2018-05-03T12:41:51Z</time>
      </trkpt>
      <trkpt lat="45.16139" lon="0.60604">
        <ele>140</ele>
        <time>2018-05-03T12:41:57Z</time>
      </trkpt>
      <trkpt lat="45.16136" lon="0.60608">
        <ele>140</ele>
        <time>2018-05-03T12:41:58Z</time>
      </trkpt>
      <trkpt lat="45.16131" lon="0.60616">
        <ele>138</ele>
        <time>2018-05-03T12:42:00Z</time>
      </trkpt>
      <trkpt lat="45.16128" lon="0.60619">
        <ele>137</ele>
        <time>2018-05-03T12:42:01Z</time>
      </trkpt>
      <trkpt lat="45.16125" lon="0.60623">
        <ele>136</ele>
        <time>2018-05-03T12:42:02Z</time>
      </trkpt>
      <trkpt lat="45.16123" lon="0.60626">
        <ele>135</ele>
        <time>2018-05-03T12:42:03Z</time>
      </trkpt>
      <trkpt lat="45.1612" lon="0.60629">
        <ele>135</ele>
        <time>2018-05-03T12:42:04Z</time>
      </trkpt>
      <trkpt lat="45.16117" lon="0.60633">
        <ele>136</ele>
        <time>2018-05-03T12:42:05Z</time>
      </trkpt>
      <trkpt lat="45.16108" lon="0.60645">
        <ele>135</ele>
        <time>2018-05-03T12:42:08Z</time>
      </trkpt>
      <trkpt lat="45.16101" lon="0.60654">
        <ele>135</ele>
        <time>2018-05-03T12:42:10Z</time>
      </trkpt>
      <trkpt lat="45.16098" lon="0.60658">
        <ele>136</ele>
        <time>2018-05-03T12:42:11Z</time>
      </trkpt>
      <trkpt lat="45.16094" lon="0.60662">
        <ele>137</ele>
        <time>2018-05-03T12:42:12Z</time>
      </trkpt>
      <trkpt lat="45.16091" lon="0.60666">
        <ele>137</ele>
        <time>2018-05-03T12:42:13Z</time>
      </trkpt>
      <trkpt lat="45.16087" lon="0.6067">
        <ele>138</ele>
        <time>2018-05-03T12:42:14Z</time>
      </trkpt>
      <trkpt lat="45.16084" lon="0.60674">
        <ele>138</ele>
        <time>2018-05-03T12:42:15Z</time>
      </trkpt>
      <trkpt lat="45.1608" lon="0.60678">
        <ele>139</ele>
        <time>2018-05-03T12:42:16Z</time>
      </trkpt>
      <trkpt lat="45.16077" lon="0.60682">
        <ele>140</ele>
        <time>2018-05-03T12:42:17Z</time>
      </trkpt>
      <trkpt lat="45.16074" lon="0.60686">
        <ele>140</ele>
        <time>2018-05-03T12:42:18Z</time>
      </trkpt>
      <trkpt lat="45.16071" lon="0.60689">
        <ele>140</ele>
        <time>2018-05-03T12:42:19Z</time>
      </trkpt>
      <trkpt lat="45.16064" lon="0.60697">
        <ele>141</ele>
        <time>2018-05-03T12:42:21Z</time>
      </trkpt>
      <trkpt lat="45.16061" lon="0.60701">
        <ele>141</ele>
        <time>2018-05-03T12:42:22Z</time>
      </trkpt>
      <trkpt lat="45.16058" lon="0.60705">
        <ele>141</ele>
        <time>2018-05-03T12:42:23Z</time>
      </trkpt>
      <trkpt lat="45.16054" lon="0.60709">
        <ele>141</ele>
        <time>2018-05-03T12:42:24Z</time>
      </trkpt>
      <trkpt lat="45.16051" lon="0.60712">
        <ele>141</ele>
        <time>2018-05-03T12:42:25Z</time>
      </trkpt>
      <trkpt lat="45.16047" lon="0.60716">
        <ele>141</ele>
        <time>2018-05-03T12:42:26Z</time>
      </trkpt>
      <trkpt lat="45.16044" lon="0.6072">
        <ele>141</ele>
        <time>2018-05-03T12:42:27Z</time>
      </trkpt>
      <trkpt lat="45.16041" lon="0.60724">
        <ele>142</ele>
        <time>2018-05-03T12:42:28Z</time>
      </trkpt>
      <trkpt lat="45.16038" lon="0.60728">
        <ele>142</ele>
        <time>2018-05-03T12:42:29Z</time>
      </trkpt>
      <trkpt lat="45.16035" lon="0.60732">
        <ele>141</ele>
        <time>2018-05-03T12:42:30Z</time>
      </trkpt>
      <trkpt lat="45.16031" lon="0.60736">
        <ele>141</ele>
        <time>2018-05-03T12:42:31Z</time>
      </trkpt>
      <trkpt lat="45.16028" lon="0.60741">
        <ele>141</ele>
        <time>2018-05-03T12:42:32Z</time>
      </trkpt>
      <trkpt lat="45.16025" lon="0.60745">
        <ele>141</ele>
        <time>2018-05-03T12:42:33Z</time>
      </trkpt>
      <trkpt lat="45.16022" lon="0.60749">
        <ele>141</ele>
        <time>2018-05-03T12:42:34Z</time>
      </trkpt>
      <trkpt lat="45.16019" lon="0.60753">
        <ele>141</ele>
        <time>2018-05-03T12:42:35Z</time>
      </trkpt>
      <trkpt lat="45.16016" lon="0.60758">
        <ele>141</ele>
        <time>2018-05-03T12:42:36Z</time>
      </trkpt>
      <trkpt lat="45.16013" lon="0.60762">
        <ele>141</ele>
        <time>2018-05-03T12:42:37Z</time>
      </trkpt>
      <trkpt lat="45.16009" lon="0.60766">
        <ele>140</ele>
        <time>2018-05-03T12:42:38Z</time>
      </trkpt>
      <trkpt lat="45.16006" lon="0.6077">
        <ele>140</ele>
        <time>2018-05-03T12:42:39Z</time>
      </trkpt>
      <trkpt lat="45.16003" lon="0.60774">
        <ele>140</ele>
        <time>2018-05-03T12:42:40Z</time>
      </trkpt>
      <trkpt lat="45.16" lon="0.60779">
        <ele>139</ele>
        <time>2018-05-03T12:42:41Z</time>
      </trkpt>
      <trkpt lat="45.15997" lon="0.60783">
        <ele>140</ele>
        <time>2018-05-03T12:42:42Z</time>
      </trkpt>
      <trkpt lat="45.15994" lon="0.60787">
        <ele>140</ele>
        <time>2018-05-03T12:42:43Z</time>
      </trkpt>
      <trkpt lat="45.15991" lon="0.60791">
        <ele>140</ele>
        <time>2018-05-03T12:42:44Z</time>
      </trkpt>
      <trkpt lat="45.15988" lon="0.60795">
        <ele>140</ele>
        <time>2018-05-03T12:42:45Z</time>
      </trkpt>
      <trkpt lat="45.15985" lon="0.60798">
        <ele>140</ele>
        <time>2018-05-03T12:42:46Z</time>
      </trkpt>
      <trkpt lat="45.15982" lon="0.60802">
        <ele>140</ele>
        <time>2018-05-03T12:42:47Z</time>
      </trkpt>
      <trkpt lat="45.15979" lon="0.60806">
        <ele>140</ele>
        <time>2018-05-03T12:42:48Z</time>
      </trkpt>
      <trkpt lat="45.15975" lon="0.6081">
        <ele>140</ele>
        <time>2018-05-03T12:42:49Z</time>
      </trkpt>
      <trkpt lat="45.15972" lon="0.60814">
        <ele>141</ele>
        <time>2018-05-03T12:42:50Z</time>
      </trkpt>
      <trkpt lat="45.15969" lon="0.60818">
        <ele>141</ele>
        <time>2018-05-03T12:42:51Z</time>
      </trkpt>
      <trkpt lat="45.15965" lon="0.60821">
        <ele>141</ele>
        <time>2018-05-03T12:42:52Z</time>
      </trkpt>
      <trkpt lat="45.15961" lon="0.60825">
        <ele>141</ele>
        <time>2018-05-03T12:42:53Z</time>
      </trkpt>
      <trkpt lat="45.15958" lon="0.60829">
        <ele>141</ele>
        <time>2018-05-03T12:42:54Z</time>
      </trkpt>
      <trkpt lat="45.15954" lon="0.60832">
        <ele>141</ele>
        <time>2018-05-03T12:42:55Z</time>
      </trkpt>
      <trkpt lat="45.15947" lon="0.60839">
        <ele>141</ele>
        <time>2018-05-03T12:42:57Z</time>
      </trkpt>
      <trkpt lat="45.15944" lon="0.60843">
        <ele>141</ele>
        <time>2018-05-03T12:42:58Z</time>
      </trkpt>
      <trkpt lat="45.1594" lon="0.60846">
        <ele>141</ele>
        <time>2018-05-03T12:42:59Z</time>
      </trkpt>
      <trkpt lat="45.15937" lon="0.6085">
        <ele>141</ele>
        <time>2018-05-03T12:43:00Z</time>
      </trkpt>
      <trkpt lat="45.15933" lon="0.60853">
        <ele>141</ele>
        <time>2018-05-03T12:43:01Z</time>
      </trkpt>
      <trkpt lat="45.15929" lon="0.60857">
        <ele>141</ele>
        <time>2018-05-03T12:43:02Z</time>
      </trkpt>
      <trkpt lat="45.15926" lon="0.6086">
        <ele>141</ele>
        <time>2018-05-03T12:43:03Z</time>
      </trkpt>
      <trkpt lat="45.15922" lon="0.60864">
        <ele>141</ele>
        <time>2018-05-03T12:43:04Z</time>
      </trkpt>
      <trkpt lat="45.15918" lon="0.60867">
        <ele>141</ele>
        <time>2018-05-03T12:43:05Z</time>
      </trkpt>
      <trkpt lat="45.15911" lon="0.60874">
        <ele>141</ele>
        <time>2018-05-03T12:43:07Z</time>
      </trkpt>
      <trkpt lat="45.15908" lon="0.60877">
        <ele>141</ele>
        <time>2018-05-03T12:43:08Z</time>
      </trkpt>
      <trkpt lat="45.15905" lon="0.6088">
        <ele>141</ele>
        <time>2018-05-03T12:43:09Z</time>
      </trkpt>
      <trkpt lat="45.15901" lon="0.60883">
        <ele>142</ele>
        <time>2018-05-03T12:43:10Z</time>
      </trkpt>
      <trkpt lat="45.15898" lon="0.60886">
        <ele>142</ele>
        <time>2018-05-03T12:43:11Z</time>
      </trkpt>
      <trkpt lat="45.15894" lon="0.60888">
        <ele>142</ele>
        <time>2018-05-03T12:43:12Z</time>
      </trkpt>
      <trkpt lat="45.15891" lon="0.60891">
        <ele>142</ele>
        <time>2018-05-03T12:43:13Z</time>
      </trkpt>
      <trkpt lat="45.15887" lon="0.60893">
        <ele>142</ele>
        <time>2018-05-03T12:43:14Z</time>
      </trkpt>
      <trkpt lat="45.15883" lon="0.60896">
        <ele>142</ele>
        <time>2018-05-03T12:43:15Z</time>
      </trkpt>
      <trkpt lat="45.15879" lon="0.60899">
        <ele>142</ele>
        <time>2018-05-03T12:43:16Z</time>
      </trkpt>
      <trkpt lat="45.15875" lon="0.60901">
        <ele>142</ele>
        <time>2018-05-03T12:43:17Z</time>
      </trkpt>
      <trkpt lat="45.15872" lon="0.60903">
        <ele>141</ele>
        <time>2018-05-03T12:43:18Z</time>
      </trkpt>
      <trkpt lat="45.15868" lon="0.60905">
        <ele>142</ele>
        <time>2018-05-03T12:43:19Z</time>
      </trkpt>
      <trkpt lat="45.15864" lon="0.60908">
        <ele>142</ele>
        <time>2018-05-03T12:43:20Z</time>
      </trkpt>
      <trkpt lat="45.1586" lon="0.6091">
        <ele>142</ele>
        <time>2018-05-03T12:43:21Z</time>
      </trkpt>
      <trkpt lat="45.15848" lon="0.60916">
        <ele>143</ele>
        <time>2018-05-03T12:43:24Z</time>
      </trkpt>
      <trkpt lat="45.15841" lon="0.60922">
        <ele>143</ele>
        <time>2018-05-03T12:43:26Z</time>
      </trkpt>
      <trkpt lat="45.15835" lon="0.6093">
        <ele>143</ele>
        <time>2018-05-03T12:43:28Z</time>
      </trkpt>
      <trkpt lat="45.15829" lon="0.60939">
        <ele>144</ele>
        <time>2018-05-03T12:43:30Z</time>
      </trkpt>
      <trkpt lat="45.15825" lon="0.60949">
        <ele>142</ele>
        <time>2018-05-03T12:43:32Z</time>
      </trkpt>
      <trkpt lat="45.15819" lon="0.60965">
        <ele>141</ele>
        <time>2018-05-03T12:43:35Z</time>
      </trkpt>
      <trkpt lat="45.15818" lon="0.6097">
        <ele>140</ele>
        <time>2018-05-03T12:43:36Z</time>
      </trkpt>
      <trkpt lat="45.15816" lon="0.60976">
        <ele>140</ele>
        <time>2018-05-03T12:43:37Z</time>
      </trkpt>
      <trkpt lat="45.15814" lon="0.60982">
        <ele>140</ele>
        <time>2018-05-03T12:43:38Z</time>
      </trkpt>
      <trkpt lat="45.15812" lon="0.60987">
        <ele>141</ele>
        <time>2018-05-03T12:43:39Z</time>
      </trkpt>
      <trkpt lat="45.15811" lon="0.60993">
        <ele>141</ele>
        <time>2018-05-03T12:43:40Z</time>
      </trkpt>
      <trkpt lat="45.15809" lon="0.60999">
        <ele>141</ele>
        <time>2018-05-03T12:43:41Z</time>
      </trkpt>
      <trkpt lat="45.15807" lon="0.61005">
        <ele>143</ele>
        <time>2018-05-03T12:43:42Z</time>
      </trkpt>
      <trkpt lat="45.15806" lon="0.6101">
        <ele>140</ele>
        <time>2018-05-03T12:43:43Z</time>
      </trkpt>
      <trkpt lat="45.15804" lon="0.61016">
        <ele>141</ele>
        <time>2018-05-03T12:43:44Z</time>
      </trkpt>
      <trkpt lat="45.15802" lon="0.61022">
        <ele>141</ele>
        <time>2018-05-03T12:43:45Z</time>
      </trkpt>
      <trkpt lat="45.15801" lon="0.61028">
        <ele>141</ele>
        <time>2018-05-03T12:43:46Z</time>
      </trkpt>
      <trkpt lat="45.15799" lon="0.61034">
        <ele>142</ele>
        <time>2018-05-03T12:43:47Z</time>
      </trkpt>
      <trkpt lat="45.15798" lon="0.6104">
        <ele>142</ele>
        <time>2018-05-03T12:43:48Z</time>
      </trkpt>
      <trkpt lat="45.15796" lon="0.61046">
        <ele>142</ele>
        <time>2018-05-03T12:43:49Z</time>
      </trkpt>
      <trkpt lat="45.15795" lon="0.61053">
        <ele>143</ele>
        <time>2018-05-03T12:43:50Z</time>
      </trkpt>
      <trkpt lat="45.15792" lon="0.61065">
        <ele>143</ele>
        <time>2018-05-03T12:43:52Z</time>
      </trkpt>
      <trkpt lat="45.15791" lon="0.61071">
        <ele>143</ele>
        <time>2018-05-03T12:43:53Z</time>
      </trkpt>
      <trkpt lat="45.1579" lon="0.61077">
        <ele>145</ele>
        <time>2018-05-03T12:43:54Z</time>
      </trkpt>
      <trkpt lat="45.15788" lon="0.61083">
        <ele>145</ele>
        <time>2018-05-03T12:43:55Z</time>
      </trkpt>
      <trkpt lat="45.15783" lon="0.61101">
        <ele>145</ele>
        <time>2018-05-03T12:43:58Z</time>
      </trkpt>
      <trkpt lat="45.15781" lon="0.61108">
        <ele>145</ele>
        <time>2018-05-03T12:43:59Z</time>
      </trkpt>
      <trkpt lat="45.1578" lon="0.61114">
        <ele>144</ele>
        <time>2018-05-03T12:44:00Z</time>
      </trkpt>
      <trkpt lat="45.15778" lon="0.6112">
        <ele>144</ele>
        <time>2018-05-03T12:44:01Z</time>
      </trkpt>
      <trkpt lat="45.15776" lon="0.61125">
        <ele>144</ele>
        <time>2018-05-03T12:44:02Z</time>
      </trkpt>
      <trkpt lat="45.15773" lon="0.61131">
        <ele>144</ele>
        <time>2018-05-03T12:44:03Z</time>
      </trkpt>
      <trkpt lat="45.15771" lon="0.61137">
        <ele>145</ele>
        <time>2018-05-03T12:44:04Z</time>
      </trkpt>
      <trkpt lat="45.15765" lon="0.61148">
        <ele>146</ele>
        <time>2018-05-03T12:44:06Z</time>
      </trkpt>
      <trkpt lat="45.15762" lon="0.61152">
        <ele>146</ele>
        <time>2018-05-03T12:44:07Z</time>
      </trkpt>
      <trkpt lat="45.15759" lon="0.61156">
        <ele>145</ele>
        <time>2018-05-03T12:44:08Z</time>
      </trkpt>
      <trkpt lat="45.15749" lon="0.6117">
        <ele>146</ele>
        <time>2018-05-03T12:44:11Z</time>
      </trkpt>
      <trkpt lat="45.15743" lon="0.61179">
        <ele>146</ele>
        <time>2018-05-03T12:44:13Z</time>
      </trkpt>
      <trkpt lat="45.15739" lon="0.61183">
        <ele>148</ele>
        <time>2018-05-03T12:44:14Z</time>
      </trkpt>
      <trkpt lat="45.15732" lon="0.61189">
        <ele>146</ele>
        <time>2018-05-03T12:44:16Z</time>
      </trkpt>
      <trkpt lat="45.15729" lon="0.61192">
        <ele>146</ele>
        <time>2018-05-03T12:44:17Z</time>
      </trkpt>
      <trkpt lat="45.15725" lon="0.61196">
        <ele>147</ele>
        <time>2018-05-03T12:44:18Z</time>
      </trkpt>
      <trkpt lat="45.15721" lon="0.612">
        <ele>146</ele>
        <time>2018-05-03T12:44:19Z</time>
      </trkpt>
      <trkpt lat="45.15712" lon="0.61207">
        <ele>148</ele>
        <time>2018-05-03T12:44:21Z</time>
      </trkpt>
      <trkpt lat="45.15709" lon="0.61212">
        <ele>148</ele>
        <time>2018-05-03T12:44:22Z</time>
      </trkpt>
      <trkpt lat="45.15705" lon="0.61215">
        <ele>148</ele>
        <time>2018-05-03T12:44:23Z</time>
      </trkpt>
      <trkpt lat="45.15701" lon="0.61219">
        <ele>148</ele>
        <time>2018-05-03T12:44:24Z</time>
      </trkpt>
      <trkpt lat="45.15698" lon="0.61224">
        <ele>148</ele>
        <time>2018-05-03T12:44:25Z</time>
      </trkpt>
      <trkpt lat="45.15694" lon="0.61227">
        <ele>148</ele>
        <time>2018-05-03T12:44:26Z</time>
      </trkpt>
      <trkpt lat="45.1569" lon="0.61232">
        <ele>148</ele>
        <time>2018-05-03T12:44:27Z</time>
      </trkpt>
      <trkpt lat="45.15681" lon="0.61242">
        <ele>146</ele>
        <time>2018-05-03T12:44:30Z</time>
      </trkpt>
      <trkpt lat="45.15675" lon="0.61248">
        <ele>144</ele>
        <time>2018-05-03T12:44:32Z</time>
      </trkpt>
      <trkpt lat="45.15672" lon="0.61253">
        <ele>145</ele>
        <time>2018-05-03T12:44:33Z</time>
      </trkpt>
      <trkpt lat="45.15664" lon="0.61261">
        <ele>144</ele>
        <time>2018-05-03T12:44:36Z</time>
      </trkpt>
      <trkpt lat="45.15661" lon="0.61264">
        <ele>144</ele>
        <time>2018-05-03T12:44:37Z</time>
      </trkpt>
      <trkpt lat="45.15659" lon="0.61267">
        <ele>144</ele>
        <time>2018-05-03T12:44:38Z</time>
      </trkpt>
      <trkpt lat="45.15652" lon="0.61275">
        <ele>144</ele>
        <time>2018-05-03T12:44:41Z</time>
      </trkpt>
      <trkpt lat="45.1565" lon="0.61277">
        <ele>143</ele>
        <time>2018-05-03T12:44:42Z</time>
      </trkpt>
      <trkpt lat="45.15646" lon="0.61282">
        <ele>143</ele>
        <time>2018-05-03T12:44:44Z</time>
      </trkpt>
      <trkpt lat="45.15643" lon="0.61288">
        <ele>145</ele>
        <time>2018-05-03T12:44:46Z</time>
      </trkpt>
      <trkpt lat="45.15641" lon="0.61292">
        <ele>145</ele>
        <time>2018-05-03T12:44:47Z</time>
      </trkpt>
      <trkpt lat="45.1564" lon="0.61295">
        <ele>145</ele>
        <time>2018-05-03T12:44:48Z</time>
      </trkpt>
      <trkpt lat="45.15638" lon="0.61299">
        <ele>145</ele>
        <time>2018-05-03T12:44:49Z</time>
      </trkpt>
      <trkpt lat="45.15637" lon="0.61302">
        <ele>146</ele>
        <time>2018-05-03T12:44:50Z</time>
      </trkpt>
      <trkpt lat="45.15636" lon="0.61308">
        <ele>146</ele>
        <time>2018-05-03T12:44:52Z</time>
      </trkpt>
      <trkpt lat="45.15635" lon="0.61312">
        <ele>146</ele>
        <time>2018-05-03T12:44:53Z</time>
      </trkpt>
      <trkpt lat="45.15635" lon="0.61315">
        <ele>145</ele>
        <time>2018-05-03T12:44:54Z</time>
      </trkpt>
      <trkpt lat="45.15634" lon="0.61319">
        <ele>146</ele>
        <time>2018-05-03T12:44:56Z</time>
      </trkpt>
      <trkpt lat="45.15633" lon="0.61326">
        <ele>147</ele>
        <time>2018-05-03T12:44:57Z</time>
      </trkpt>
      <trkpt lat="45.15633" lon="0.6133">
        <ele>147</ele>
        <time>2018-05-03T12:44:58Z</time>
      </trkpt>
      <trkpt lat="45.15631" lon="0.61342">
        <ele>146</ele>
        <time>2018-05-03T12:45:01Z</time>
      </trkpt>
      <trkpt lat="45.1563" lon="0.61346">
        <ele>147</ele>
        <time>2018-05-03T12:45:02Z</time>
      </trkpt>
      <trkpt lat="45.1563" lon="0.6135">
        <ele>148</ele>
        <time>2018-05-03T12:45:03Z</time>
      </trkpt>
      <trkpt lat="45.15629" lon="0.61354">
        <ele>148</ele>
        <time>2018-05-03T12:45:04Z</time>
      </trkpt>
      <trkpt lat="45.15628" lon="0.61361">
        <ele>147</ele>
        <time>2018-05-03T12:45:06Z</time>
      </trkpt>
      <trkpt lat="45.15627" lon="0.61366">
        <ele>147</ele>
        <time>2018-05-03T12:45:07Z</time>
      </trkpt>
      <trkpt lat="45.15625" lon="0.61378">
        <ele>147</ele>
        <time>2018-05-03T12:45:10Z</time>
      </trkpt>
      <trkpt lat="45.15624" lon="0.61383">
        <ele>148</ele>
        <time>2018-05-03T12:45:11Z</time>
      </trkpt>
      <trkpt lat="45.15623" lon="0.61387">
        <ele>148</ele>
        <time>2018-05-03T12:45:12Z</time>
      </trkpt>
      <trkpt lat="45.15622" lon="0.61391">
        <ele>148</ele>
        <time>2018-05-03T12:45:13Z</time>
      </trkpt>
      <trkpt lat="45.1562" lon="0.61396">
        <ele>147</ele>
        <time>2018-05-03T12:45:14Z</time>
      </trkpt>
      <trkpt lat="45.1562" lon="0.614">
        <ele>147</ele>
        <time>2018-05-03T12:45:15Z</time>
      </trkpt>
      <trkpt lat="45.15618" lon="0.61405">
        <ele>147</ele>
        <time>2018-05-03T12:45:16Z</time>
      </trkpt>
      <trkpt lat="45.15617" lon="0.61409">
        <ele>146</ele>
        <time>2018-05-03T12:45:17Z</time>
      </trkpt>
      <trkpt lat="45.15613" lon="0.61418">
        <ele>146</ele>
        <time>2018-05-03T12:45:19Z</time>
      </trkpt>
      <trkpt lat="45.15611" lon="0.61422">
        <ele>146</ele>
        <time>2018-05-03T12:45:21Z</time>
      </trkpt>
      <trkpt lat="45.15607" lon="0.61431">
        <ele>146</ele>
        <time>2018-05-03T12:45:22Z</time>
      </trkpt>
      <trkpt lat="45.15601" lon="0.6144">
        <ele>147</ele>
        <time>2018-05-03T12:45:24Z</time>
      </trkpt>
      <trkpt lat="45.15598" lon="0.61444">
        <ele>147</ele>
        <time>2018-05-03T12:45:25Z</time>
      </trkpt>
      <trkpt lat="45.15594" lon="0.61449">
        <ele>148</ele>
        <time>2018-05-03T12:45:26Z</time>
      </trkpt>
      <trkpt lat="45.15589" lon="0.61452">
        <ele>148</ele>
        <time>2018-05-03T12:45:27Z</time>
      </trkpt>
      <trkpt lat="45.15582" lon="0.6146">
        <ele>148</ele>
        <time>2018-05-03T12:45:29Z</time>
      </trkpt>
      <trkpt lat="45.15579" lon="0.61464">
        <ele>149</ele>
        <time>2018-05-03T12:45:30Z</time>
      </trkpt>
      <trkpt lat="45.15575" lon="0.61468">
        <ele>150</ele>
        <time>2018-05-03T12:45:31Z</time>
      </trkpt>
      <trkpt lat="45.1556" lon="0.61481">
        <ele>150</ele>
        <time>2018-05-03T12:45:36Z</time>
      </trkpt>
      <trkpt lat="45.15554" lon="0.61489">
        <ele>149</ele>
        <time>2018-05-03T12:45:37Z</time>
      </trkpt>
      <trkpt lat="45.15551" lon="0.61494">
        <ele>149</ele>
        <time>2018-05-03T12:45:38Z</time>
      </trkpt>
      <trkpt lat="45.15548" lon="0.61498">
        <ele>149</ele>
        <time>2018-05-03T12:45:39Z</time>
      </trkpt>
      <trkpt lat="45.15545" lon="0.61503">
        <ele>149</ele>
        <time>2018-05-03T12:45:40Z</time>
      </trkpt>
      <trkpt lat="45.15542" lon="0.61507">
        <ele>149</ele>
        <time>2018-05-03T12:45:41Z</time>
      </trkpt>
      <trkpt lat="45.1554" lon="0.61512">
        <ele>150</ele>
        <time>2018-05-03T12:45:42Z</time>
      </trkpt>
      <trkpt lat="45.15537" lon="0.61517">
        <ele>150</ele>
        <time>2018-05-03T12:45:43Z</time>
      </trkpt>
      <trkpt lat="45.15535" lon="0.61522">
        <ele>150</ele>
        <time>2018-05-03T12:45:44Z</time>
      </trkpt>
      <trkpt lat="45.1553" lon="0.61531">
        <ele>148</ele>
        <time>2018-05-03T12:45:46Z</time>
      </trkpt>
      <trkpt lat="45.15527" lon="0.6154">
        <ele>147</ele>
        <time>2018-05-03T12:45:48Z</time>
      </trkpt>
      <trkpt lat="45.15526" lon="0.61545">
        <ele>147</ele>
        <time>2018-05-03T12:45:49Z</time>
      </trkpt>
      <trkpt lat="45.15524" lon="0.61549">
        <ele>147</ele>
        <time>2018-05-03T12:45:50Z</time>
      </trkpt>
      <trkpt lat="45.15523" lon="0.61553">
        <ele>148</ele>
        <time>2018-05-03T12:45:51Z</time>
      </trkpt>
      <trkpt lat="45.15522" lon="0.61557">
        <ele>147</ele>
        <time>2018-05-03T12:45:52Z</time>
      </trkpt>
      <trkpt lat="45.1552" lon="0.61561">
        <ele>147</ele>
        <time>2018-05-03T12:45:53Z</time>
      </trkpt>
      <trkpt lat="45.15519" lon="0.61565">
        <ele>147</ele>
        <time>2018-05-03T12:45:54Z</time>
      </trkpt>
      <trkpt lat="45.15517" lon="0.61568">
        <ele>147</ele>
        <time>2018-05-03T12:45:55Z</time>
      </trkpt>
      <trkpt lat="45.15516" lon="0.61572">
        <ele>147</ele>
        <time>2018-05-03T12:45:56Z</time>
      </trkpt>
      <trkpt lat="45.15514" lon="0.61575">
        <ele>148</ele>
        <time>2018-05-03T12:45:57Z</time>
      </trkpt>
      <trkpt lat="45.15513" lon="0.61579">
        <ele>148</ele>
        <time>2018-05-03T12:45:58Z</time>
      </trkpt>
      <trkpt lat="45.1551" lon="0.61584">
        <ele>148</ele>
        <time>2018-05-03T12:46:00Z</time>
      </trkpt>
      <trkpt lat="45.15507" lon="0.61592">
        <ele>149</ele>
        <time>2018-05-03T12:46:03Z</time>
      </trkpt>
      <trkpt lat="45.15504" lon="0.61598">
        <ele>149</ele>
        <time>2018-05-03T12:46:06Z</time>
      </trkpt>
      <trkpt lat="45.15501" lon="0.61607">
        <ele>151</ele>
        <time>2018-05-03T12:46:10Z</time>
      </trkpt>
      <trkpt lat="45.15498" lon="0.61613">
        <ele>152</ele>
        <time>2018-05-03T12:46:13Z</time>
      </trkpt>
      <trkpt lat="45.15496" lon="0.61616">
        <ele>152</ele>
        <time>2018-05-03T12:46:15Z</time>
      </trkpt>
      <trkpt lat="45.15493" lon="0.61623">
        <ele>149</ele>
        <time>2018-05-03T12:46:18Z</time>
      </trkpt>
      <trkpt lat="45.15492" lon="0.61626">
        <ele>149</ele>
        <time>2018-05-03T12:46:20Z</time>
      </trkpt>
      <trkpt lat="45.15489" lon="0.6163">
        <ele>150</ele>
        <time>2018-05-03T12:46:22Z</time>
      </trkpt>
      <trkpt lat="45.15487" lon="0.61637">
        <ele>151</ele>
        <time>2018-05-03T12:46:25Z</time>
      </trkpt>
      <trkpt lat="45.15485" lon="0.61641">
        <ele>152</ele>
        <time>2018-05-03T12:46:27Z</time>
      </trkpt>
      <trkpt lat="45.15482" lon="0.61646">
        <ele>153</ele>
        <time>2018-05-03T12:46:29Z</time>
      </trkpt>
      <trkpt lat="45.15478" lon="0.61653">
        <ele>154</ele>
        <time>2018-05-03T12:46:32Z</time>
      </trkpt>
      <trkpt lat="45.15474" lon="0.61661">
        <ele>153</ele>
        <time>2018-05-03T12:46:37Z</time>
      </trkpt>
      <trkpt lat="45.15471" lon="0.61669">
        <ele>153</ele>
        <time>2018-05-03T12:46:40Z</time>
      </trkpt>
      <trkpt lat="45.1547" lon="0.61674">
        <ele>155</ele>
        <time>2018-05-03T12:46:42Z</time>
      </trkpt>
      <trkpt lat="45.15469" lon="0.61678">
        <ele>152</ele>
        <time>2018-05-03T12:46:44Z</time>
      </trkpt>
      <trkpt lat="45.15467" lon="0.61685">
        <ele>152</ele>
        <time>2018-05-03T12:46:47Z</time>
      </trkpt>
      <trkpt lat="45.15464" lon="0.61693">
        <ele>153</ele>
        <time>2018-05-03T12:46:50Z</time>
      </trkpt>
      <trkpt lat="45.15463" lon="0.61696">
        <ele>153</ele>
        <time>2018-05-03T12:46:51Z</time>
      </trkpt>
      <trkpt lat="45.15461" lon="0.61704">
        <ele>153</ele>
        <time>2018-05-03T12:46:54Z</time>
      </trkpt>
      <trkpt lat="45.15458" lon="0.6171">
        <ele>155</ele>
        <time>2018-05-03T12:46:56Z</time>
      </trkpt>
      <trkpt lat="45.15457" lon="0.61713">
        <ele>154</ele>
        <time>2018-05-03T12:46:57Z</time>
      </trkpt>
      <trkpt lat="45.15454" lon="0.61722">
        <ele>154</ele>
        <time>2018-05-03T12:47:00Z</time>
      </trkpt>
      <trkpt lat="45.15452" lon="0.61726">
        <ele>154</ele>
        <time>2018-05-03T12:47:01Z</time>
      </trkpt>
      <trkpt lat="45.15451" lon="0.6173">
        <ele>155</ele>
        <time>2018-05-03T12:47:02Z</time>
      </trkpt>
      <trkpt lat="45.15449" lon="0.61735">
        <ele>155</ele>
        <time>2018-05-03T12:47:03Z</time>
      </trkpt>
      <trkpt lat="45.15447" lon="0.61739">
        <ele>155</ele>
        <time>2018-05-03T12:47:04Z</time>
      </trkpt>
      <trkpt lat="45.15446" lon="0.61744">
        <ele>155</ele>
        <time>2018-05-03T12:47:05Z</time>
      </trkpt>
      <trkpt lat="45.15444" lon="0.61749">
        <ele>155</ele>
        <time>2018-05-03T12:47:06Z</time>
      </trkpt>
      <trkpt lat="45.15439" lon="0.61764">
        <ele>156</ele>
        <time>2018-05-03T12:47:09Z</time>
      </trkpt>
      <trkpt lat="45.15435" lon="0.61775">
        <ele>156</ele>
        <time>2018-05-03T12:47:11Z</time>
      </trkpt>
      <trkpt lat="45.15432" lon="0.6178">
        <ele>156</ele>
        <time>2018-05-03T12:47:12Z</time>
      </trkpt>
      <trkpt lat="45.1543" lon="0.61787">
        <ele>156</ele>
        <time>2018-05-03T12:47:13Z</time>
      </trkpt>
      <trkpt lat="45.15427" lon="0.61795">
        <ele>157</ele>
        <time>2018-05-03T12:47:14Z</time>
      </trkpt>
      <trkpt lat="45.15424" lon="0.61802">
        <ele>157</ele>
        <time>2018-05-03T12:47:15Z</time>
      </trkpt>
      <trkpt lat="45.15419" lon="0.61816">
        <ele>156</ele>
        <time>2018-05-03T12:47:17Z</time>
      </trkpt>
      <trkpt lat="45.15416" lon="0.61825">
        <ele>156</ele>
        <time>2018-05-03T12:47:18Z</time>
      </trkpt>
      <trkpt lat="45.15413" lon="0.61833">
        <ele>155</ele>
        <time>2018-05-03T12:47:19Z</time>
      </trkpt>
      <trkpt lat="45.15409" lon="0.61841">
        <ele>156</ele>
        <time>2018-05-03T12:47:20Z</time>
      </trkpt>
      <trkpt lat="45.15405" lon="0.6185">
        <ele>157</ele>
        <time>2018-05-03T12:47:21Z</time>
      </trkpt>
      <trkpt lat="45.15401" lon="0.61858">
        <ele>157</ele>
        <time>2018-05-03T12:47:22Z</time>
      </trkpt>
      <trkpt lat="45.15398" lon="0.61866">
        <ele>157</ele>
        <time>2018-05-03T12:47:23Z</time>
      </trkpt>
      <trkpt lat="45.15395" lon="0.61875">
        <ele>158</ele>
        <time>2018-05-03T12:47:24Z</time>
      </trkpt>
      <trkpt lat="45.15394" lon="0.61883">
        <ele>157</ele>
        <time>2018-05-03T12:47:25Z</time>
      </trkpt>
      <trkpt lat="45.15392" lon="0.61892">
        <ele>157</ele>
        <time>2018-05-03T12:47:26Z</time>
      </trkpt>
      <trkpt lat="45.15391" lon="0.61901">
        <ele>157</ele>
        <time>2018-05-03T12:47:27Z</time>
      </trkpt>
      <trkpt lat="45.15392" lon="0.61925">
        <ele>155</ele>
        <time>2018-05-03T12:47:30Z</time>
      </trkpt>
      <trkpt lat="45.15392" lon="0.61931">
        <ele>154</ele>
        <time>2018-05-03T12:47:31Z</time>
      </trkpt>
      <trkpt lat="45.1539" lon="0.61946">
        <ele>154</ele>
        <time>2018-05-03T12:47:33Z</time>
      </trkpt>
      <trkpt lat="45.15389" lon="0.61953">
        <ele>154</ele>
        <time>2018-05-03T12:47:34Z</time>
      </trkpt>
      <trkpt lat="45.15389" lon="0.61963">
        <ele>155</ele>
        <time>2018-05-03T12:47:36Z</time>
      </trkpt>
      <trkpt lat="45.15384" lon="0.61974">
        <ele>155</ele>
        <time>2018-05-03T12:47:39Z</time>
      </trkpt>
      <trkpt lat="45.15381" lon="0.6198">
        <ele>156</ele>
        <time>2018-05-03T12:47:41Z</time>
      </trkpt>
      <trkpt lat="45.15376" lon="0.61987">
        <ele>156</ele>
        <time>2018-05-03T12:47:44Z</time>
      </trkpt>
      <trkpt lat="45.15373" lon="0.61992">
        <ele>156</ele>
        <time>2018-05-03T12:47:46Z</time>
      </trkpt>
      <trkpt lat="45.15369" lon="0.61998">
        <ele>156</ele>
        <time>2018-05-03T12:47:48Z</time>
      </trkpt>
      <trkpt lat="45.15368" lon="0.62">
        <ele>156</ele>
        <time>2018-05-03T12:47:49Z</time>
      </trkpt>
      <trkpt lat="45.15365" lon="0.62004">
        <ele>156</ele>
        <time>2018-05-03T12:47:51Z</time>
      </trkpt>
      <trkpt lat="45.15363" lon="0.62007">
        <ele>157</ele>
        <time>2018-05-03T12:47:52Z</time>
      </trkpt>
      <trkpt lat="45.1536" lon="0.62011">
        <ele>157</ele>
        <time>2018-05-03T12:47:54Z</time>
      </trkpt>
      <trkpt lat="45.15357" lon="0.62015">
        <ele>158</ele>
        <time>2018-05-03T12:47:56Z</time>
      </trkpt>
      <trkpt lat="45.15353" lon="0.62021">
        <ele>159</ele>
        <time>2018-05-03T12:47:59Z</time>
      </trkpt>
      <trkpt lat="45.1535" lon="0.62025">
        <ele>160</ele>
        <time>2018-05-03T12:48:01Z</time>
      </trkpt>
      <trkpt lat="45.15345" lon="0.62032">
        <ele>161</ele>
        <time>2018-05-03T12:48:04Z</time>
      </trkpt>
      <trkpt lat="45.15342" lon="0.62035">
        <ele>160</ele>
        <time>2018-05-03T12:48:06Z</time>
      </trkpt>
      <trkpt lat="45.15339" lon="0.62039">
        <ele>160</ele>
        <time>2018-05-03T12:48:08Z</time>
      </trkpt>
      <trkpt lat="45.15336" lon="0.62044">
        <ele>159</ele>
        <time>2018-05-03T12:48:10Z</time>
      </trkpt>
      <trkpt lat="45.15334" lon="0.62046">
        <ele>159</ele>
        <time>2018-05-03T12:48:11Z</time>
      </trkpt>
      <trkpt lat="45.15331" lon="0.6205">
        <ele>160</ele>
        <time>2018-05-03T12:48:13Z</time>
      </trkpt>
      <trkpt lat="45.15328" lon="0.62053">
        <ele>161</ele>
        <time>2018-05-03T12:48:14Z</time>
      </trkpt>
      <trkpt lat="45.15326" lon="0.62055">
        <ele>162</ele>
        <time>2018-05-03T12:48:15Z</time>
      </trkpt>
      <trkpt lat="45.15324" lon="0.62057">
        <ele>162</ele>
        <time>2018-05-03T12:48:16Z</time>
      </trkpt>
      <trkpt lat="45.15322" lon="0.6206">
        <ele>162</ele>
        <time>2018-05-03T12:48:17Z</time>
      </trkpt>
      <trkpt lat="45.1532" lon="0.62062">
        <ele>162</ele>
        <time>2018-05-03T12:48:18Z</time>
      </trkpt>
      <trkpt lat="45.15318" lon="0.62065">
        <ele>162</ele>
        <time>2018-05-03T12:48:19Z</time>
      </trkpt>
      <trkpt lat="45.15315" lon="0.62069">
        <ele>162</ele>
        <time>2018-05-03T12:48:20Z</time>
      </trkpt>
      <trkpt lat="45.15311" lon="0.62072">
        <ele>162</ele>
        <time>2018-05-03T12:48:21Z</time>
      </trkpt>
      <trkpt lat="45.15308" lon="0.62076">
        <ele>159</ele>
        <time>2018-05-03T12:48:22Z</time>
      </trkpt>
      <trkpt lat="45.15305" lon="0.6208">
        <ele>160</ele>
        <time>2018-05-03T12:48:23Z</time>
      </trkpt>
      <trkpt lat="45.15294" lon="0.62094">
        <ele>159</ele>
        <time>2018-05-03T12:48:26Z</time>
      </trkpt>
      <trkpt lat="45.15289" lon="0.62097">
        <ele>158</ele>
        <time>2018-05-03T12:48:27Z</time>
      </trkpt>
      <trkpt lat="45.15285" lon="0.62101">
        <ele>157</ele>
        <time>2018-05-03T12:48:28Z</time>
      </trkpt>
      <trkpt lat="45.1528" lon="0.62106">
        <ele>158</ele>
        <time>2018-05-03T12:48:29Z</time>
      </trkpt>
      <trkpt lat="45.15275" lon="0.62111">
        <ele>158</ele>
        <time>2018-05-03T12:48:30Z</time>
      </trkpt>
      <trkpt lat="45.1527" lon="0.62115">
        <ele>158</ele>
        <time>2018-05-03T12:48:31Z</time>
      </trkpt>
      <trkpt lat="45.15263" lon="0.62118">
        <ele>157</ele>
        <time>2018-05-03T12:48:32Z</time>
      </trkpt>
      <trkpt lat="45.15257" lon="0.62122">
        <ele>157</ele>
        <time>2018-05-03T12:48:33Z</time>
      </trkpt>
      <trkpt lat="45.15251" lon="0.62125">
        <ele>157</ele>
        <time>2018-05-03T12:48:34Z</time>
      </trkpt>
      <trkpt lat="45.15238" lon="0.62128">
        <ele>156</ele>
        <time>2018-05-03T12:48:36Z</time>
      </trkpt>
      <trkpt lat="45.15208" lon="0.62128">
        <ele>156</ele>
        <time>2018-05-03T12:48:40Z</time>
      </trkpt>
      <trkpt lat="45.15201" lon="0.62128">
        <ele>155</ele>
        <time>2018-05-03T12:48:41Z</time>
      </trkpt>
      <trkpt lat="45.15194" lon="0.62128">
        <ele>155</ele>
        <time>2018-05-03T12:48:42Z</time>
      </trkpt>
      <trkpt lat="45.15185" lon="0.62127">
        <ele>155</ele>
        <time>2018-05-03T12:48:43Z</time>
      </trkpt>
      <trkpt lat="45.15177" lon="0.62127">
        <ele>154</ele>
        <time>2018-05-03T12:48:44Z</time>
      </trkpt>
      <trkpt lat="45.15169" lon="0.62125">
        <ele>154</ele>
        <time>2018-05-03T12:48:45Z</time>
      </trkpt>
      <trkpt lat="45.15162" lon="0.62123">
        <ele>154</ele>
        <time>2018-05-03T12:48:46Z</time>
      </trkpt>
      <trkpt lat="45.15154" lon="0.62121">
        <ele>155</ele>
        <time>2018-05-03T12:48:47Z</time>
      </trkpt>
      <trkpt lat="45.15146" lon="0.6212">
        <ele>154</ele>
        <time>2018-05-03T12:48:48Z</time>
      </trkpt>
      <trkpt lat="45.15139" lon="0.62118">
        <ele>154</ele>
        <time>2018-05-03T12:48:49Z</time>
      </trkpt>
      <trkpt lat="45.15132" lon="0.62115">
        <ele>154</ele>
        <time>2018-05-03T12:48:50Z</time>
      </trkpt>
      <trkpt lat="45.15125" lon="0.62113">
        <ele>154</ele>
        <time>2018-05-03T12:48:51Z</time>
      </trkpt>
      <trkpt lat="45.15119" lon="0.62111">
        <ele>154</ele>
        <time>2018-05-03T12:48:52Z</time>
      </trkpt>
      <trkpt lat="45.15112" lon="0.62109">
        <ele>154</ele>
        <time>2018-05-03T12:48:53Z</time>
      </trkpt>
      <trkpt lat="45.15105" lon="0.62107">
        <ele>153</ele>
        <time>2018-05-03T12:48:54Z</time>
      </trkpt>
      <trkpt lat="45.15099" lon="0.62105">
        <ele>153</ele>
        <time>2018-05-03T12:48:55Z</time>
      </trkpt>
      <trkpt lat="45.15092" lon="0.62102">
        <ele>153</ele>
        <time>2018-05-03T12:48:56Z</time>
      </trkpt>
      <trkpt lat="45.15085" lon="0.62101">
        <ele>153</ele>
        <time>2018-05-03T12:48:57Z</time>
      </trkpt>
      <trkpt lat="45.15078" lon="0.62099">
        <ele>152</ele>
        <time>2018-05-03T12:48:58Z</time>
      </trkpt>
      <trkpt lat="45.15071" lon="0.62097">
        <ele>152</ele>
        <time>2018-05-03T12:48:59Z</time>
      </trkpt>
      <trkpt lat="45.15064" lon="0.62095">
        <ele>151</ele>
        <time>2018-05-03T12:49:00Z</time>
      </trkpt>
      <trkpt lat="45.15058" lon="0.62093">
        <ele>151</ele>
        <time>2018-05-03T12:49:01Z</time>
      </trkpt>
      <trkpt lat="45.15052" lon="0.62091">
        <ele>151</ele>
        <time>2018-05-03T12:49:02Z</time>
      </trkpt>
      <trkpt lat="45.15045" lon="0.62089">
        <ele>151</ele>
        <time>2018-05-03T12:49:03Z</time>
      </trkpt>
      <trkpt lat="45.15039" lon="0.62087">
        <ele>151</ele>
        <time>2018-05-03T12:49:04Z</time>
      </trkpt>
      <trkpt lat="45.15032" lon="0.62086">
        <ele>150</ele>
        <time>2018-05-03T12:49:05Z</time>
      </trkpt>
      <trkpt lat="45.15025" lon="0.62085">
        <ele>150</ele>
        <time>2018-05-03T12:49:06Z</time>
      </trkpt>
      <trkpt lat="45.15017" lon="0.62086">
        <ele>150</ele>
        <time>2018-05-03T12:49:07Z</time>
      </trkpt>
      <trkpt lat="45.1501" lon="0.62087">
        <ele>150</ele>
        <time>2018-05-03T12:49:08Z</time>
      </trkpt>
      <trkpt lat="45.15005" lon="0.62092">
        <ele>150</ele>
        <time>2018-05-03T12:49:09Z</time>
      </trkpt>
      <trkpt lat="45.14999" lon="0.62097">
        <ele>149</ele>
        <time>2018-05-03T12:49:10Z</time>
      </trkpt>
      <trkpt lat="45.14994" lon="0.62103">
        <ele>149</ele>
        <time>2018-05-03T12:49:11Z</time>
      </trkpt>
      <trkpt lat="45.1499" lon="0.6211">
        <ele>149</ele>
        <time>2018-05-03T12:49:12Z</time>
      </trkpt>
      <trkpt lat="45.14985" lon="0.62117">
        <ele>149</ele>
        <time>2018-05-03T12:49:13Z</time>
      </trkpt>
      <trkpt lat="45.14977" lon="0.62139">
        <ele>150</ele>
        <time>2018-05-03T12:49:16Z</time>
      </trkpt>
      <trkpt lat="45.14978" lon="0.62147">
        <ele>151</ele>
        <time>2018-05-03T12:49:17Z</time>
      </trkpt>
      <trkpt lat="45.14977" lon="0.62154">
        <ele>151</ele>
        <time>2018-05-03T12:49:18Z</time>
      </trkpt>
      <trkpt lat="45.14978" lon="0.62159">
        <ele>151</ele>
        <time>2018-05-03T12:49:19Z</time>
      </trkpt>
      <trkpt lat="45.1498" lon="0.62166">
        <ele>151</ele>
        <time>2018-05-03T12:49:21Z</time>
      </trkpt>
      <trkpt lat="45.14985" lon="0.62176">
        <ele>150</ele>
        <time>2018-05-03T12:49:24Z</time>
      </trkpt>
      <trkpt lat="45.14988" lon="0.62183">
        <ele>151</ele>
        <time>2018-05-03T12:49:26Z</time>
      </trkpt>
      <trkpt lat="45.1499" lon="0.62187">
        <ele>151</ele>
        <time>2018-05-03T12:49:27Z</time>
      </trkpt>
      <trkpt lat="45.14992" lon="0.62192">
        <ele>152</ele>
        <time>2018-05-03T12:49:29Z</time>
      </trkpt>
      <trkpt lat="45.14994" lon="0.62195">
        <ele>152</ele>
        <time>2018-05-03T12:49:30Z</time>
      </trkpt>
      <trkpt lat="45.14995" lon="0.62198">
        <ele>152</ele>
        <time>2018-05-03T12:49:31Z</time>
      </trkpt>
      <trkpt lat="45.14996" lon="0.62201">
        <ele>152</ele>
        <time>2018-05-03T12:49:32Z</time>
      </trkpt>
      <trkpt lat="45.14998" lon="0.62203">
        <ele>152</ele>
        <time>2018-05-03T12:49:33Z</time>
      </trkpt>
      <trkpt lat="45.15" lon="0.62209">
        <ele>152</ele>
        <time>2018-05-03T12:49:35Z</time>
      </trkpt>
      <trkpt lat="45.15001" lon="0.62211">
        <ele>153</ele>
        <time>2018-05-03T12:49:36Z</time>
      </trkpt>
      <trkpt lat="45.15002" lon="0.62214">
        <ele>153</ele>
        <time>2018-05-03T12:49:37Z</time>
      </trkpt>
      <trkpt lat="45.15002" lon="0.62222">
        <ele>153</ele>
        <time>2018-05-03T12:49:40Z</time>
      </trkpt>
      <trkpt lat="45.15002" lon="0.62228">
        <ele>154</ele>
        <time>2018-05-03T12:49:42Z</time>
      </trkpt>
      <trkpt lat="45.15003" lon="0.62232">
        <ele>154</ele>
        <time>2018-05-03T12:49:43Z</time>
      </trkpt>
      <trkpt lat="45.15003" lon="0.62235">
        <ele>154</ele>
        <time>2018-05-03T12:49:44Z</time>
      </trkpt>
      <trkpt lat="45.15003" lon="0.62241">
        <ele>156</ele>
        <time>2018-05-03T12:49:46Z</time>
      </trkpt>
      <trkpt lat="45.15003" lon="0.62249">
        <ele>156</ele>
        <time>2018-05-03T12:49:49Z</time>
      </trkpt>
      <trkpt lat="45.15003" lon="0.62255">
        <ele>156</ele>
        <time>2018-05-03T12:49:51Z</time>
      </trkpt>
      <trkpt lat="45.15001" lon="0.62262">
        <ele>157</ele>
        <time>2018-05-03T12:49:54Z</time>
      </trkpt>
      <trkpt lat="45.14999" lon="0.62268">
        <ele>158</ele>
        <time>2018-05-03T12:49:57Z</time>
      </trkpt>
      <trkpt lat="45.14998" lon="0.62275">
        <ele>158</ele>
        <time>2018-05-03T12:50:00Z</time>
      </trkpt>
      <trkpt lat="45.14996" lon="0.62283">
        <ele>159</ele>
        <time>2018-05-03T12:50:04Z</time>
      </trkpt>
      <trkpt lat="45.14996" lon="0.62291">
        <ele>159</ele>
        <time>2018-05-03T12:50:07Z</time>
      </trkpt>
      <trkpt lat="45.14994" lon="0.62302">
        <ele>159</ele>
        <time>2018-05-03T12:50:11Z</time>
      </trkpt>
      <trkpt lat="45.14993" lon="0.62311">
        <ele>160</ele>
        <time>2018-05-03T12:50:14Z</time>
      </trkpt>
      <trkpt lat="45.14992" lon="0.62319">
        <ele>161</ele>
        <time>2018-05-03T12:50:17Z</time>
      </trkpt>
      <trkpt lat="45.14992" lon="0.62324">
        <ele>161</ele>
        <time>2018-05-03T12:50:19Z</time>
      </trkpt>
      <trkpt lat="45.14992" lon="0.62332">
        <ele>161</ele>
        <time>2018-05-03T12:50:23Z</time>
      </trkpt>
      <trkpt lat="45.14992" lon="0.62337">
        <ele>162</ele>
        <time>2018-05-03T12:50:24Z</time>
      </trkpt>
      <trkpt lat="45.14993" lon="0.62344">
        <ele>163</ele>
        <time>2018-05-03T12:50:27Z</time>
      </trkpt>
      <trkpt lat="45.14994" lon="0.62349">
        <ele>162</ele>
        <time>2018-05-03T12:50:29Z</time>
      </trkpt>
      <trkpt lat="45.14996" lon="0.62356">
        <ele>164</ele>
        <time>2018-05-03T12:50:32Z</time>
      </trkpt>
      <trkpt lat="45.14997" lon="0.62361">
        <ele>163</ele>
        <time>2018-05-03T12:50:34Z</time>
      </trkpt>
      <trkpt lat="45.14999" lon="0.62367">
        <ele>162</ele>
        <time>2018-05-03T12:50:36Z</time>
      </trkpt>
      <trkpt lat="45.15002" lon="0.62373">
        <ele>162</ele>
        <time>2018-05-03T12:50:39Z</time>
      </trkpt>
      <trkpt lat="45.15006" lon="0.62379">
        <ele>162</ele>
        <time>2018-05-03T12:50:42Z</time>
      </trkpt>
      <trkpt lat="45.15008" lon="0.62383">
        <ele>163</ele>
        <time>2018-05-03T12:50:44Z</time>
      </trkpt>
      <trkpt lat="45.15011" lon="0.62386">
        <ele>164</ele>
        <time>2018-05-03T12:50:46Z</time>
      </trkpt>
      <trkpt lat="45.15016" lon="0.62391">
        <ele>165</ele>
        <time>2018-05-03T12:50:49Z</time>
      </trkpt>
      <trkpt lat="45.15023" lon="0.62404">
        <ele>167</ele>
        <time>2018-05-03T12:50:55Z</time>
      </trkpt>
      <trkpt lat="45.15025" lon="0.62408">
        <ele>168</ele>
        <time>2018-05-03T12:50:57Z</time>
      </trkpt>
      <trkpt lat="45.15028" lon="0.62412">
        <ele>168</ele>
        <time>2018-05-03T12:50:59Z</time>
      </trkpt>
      <trkpt lat="45.15029" lon="0.62416">
        <ele>168</ele>
        <time>2018-05-03T12:51:01Z</time>
      </trkpt>
      <trkpt lat="45.15032" lon="0.62423">
        <ele>168</ele>
        <time>2018-05-03T12:51:04Z</time>
      </trkpt>
      <trkpt lat="45.15034" lon="0.62428">
        <ele>167</ele>
        <time>2018-05-03T12:51:07Z</time>
      </trkpt>
      <trkpt lat="45.15036" lon="0.62433">
        <ele>167</ele>
        <time>2018-05-03T12:51:09Z</time>
      </trkpt>
      <trkpt lat="45.15037" lon="0.6244">
        <ele>167</ele>
        <time>2018-05-03T12:51:12Z</time>
      </trkpt>
      <trkpt lat="45.15038" lon="0.62444">
        <ele>168</ele>
        <time>2018-05-03T12:51:14Z</time>
      </trkpt>
      <trkpt lat="45.15039" lon="0.62451">
        <ele>170</ele>
        <time>2018-05-03T12:51:17Z</time>
      </trkpt>
      <trkpt lat="45.15039" lon="0.62458">
        <ele>173</ele>
        <time>2018-05-03T12:51:20Z</time>
      </trkpt>
      <trkpt lat="45.15039" lon="0.62465">
        <ele>174</ele>
        <time>2018-05-03T12:51:23Z</time>
      </trkpt>
      <trkpt lat="45.15038" lon="0.62471">
        <ele>173</ele>
        <time>2018-05-03T12:51:26Z</time>
      </trkpt>
      <trkpt lat="45.15038" lon="0.62478">
        <ele>170</ele>
        <time>2018-05-03T12:51:29Z</time>
      </trkpt>
      <trkpt lat="45.15033" lon="0.62487">
        <ele>170</ele>
        <time>2018-05-03T12:51:34Z</time>
      </trkpt>
      <trkpt lat="45.15032" lon="0.62498">
        <ele>172</ele>
        <time>2018-05-03T12:51:39Z</time>
      </trkpt>
      <trkpt lat="45.15032" lon="0.62502">
        <ele>173</ele>
        <time>2018-05-03T12:51:41Z</time>
      </trkpt>
      <trkpt lat="45.15032" lon="0.62507">
        <ele>174</ele>
        <time>2018-05-03T12:51:43Z</time>
      </trkpt>
      <trkpt lat="45.15031" lon="0.62512">
        <ele>175</ele>
        <time>2018-05-03T12:51:45Z</time>
      </trkpt>
      <trkpt lat="45.15026" lon="0.6252">
        <ele>173</ele>
        <time>2018-05-03T12:51:49Z</time>
      </trkpt>
      <trkpt lat="45.15023" lon="0.62529">
        <ele>175</ele>
        <time>2018-05-03T12:51:54Z</time>
      </trkpt>
      <trkpt lat="45.15024" lon="0.6254">
        <ele>176</ele>
        <time>2018-05-03T12:51:59Z</time>
      </trkpt>
      <trkpt lat="45.15026" lon="0.62548">
        <ele>178</ele>
        <time>2018-05-03T12:52:02Z</time>
      </trkpt>
      <trkpt lat="45.15025" lon="0.62555">
        <ele>176</ele>
        <time>2018-05-03T12:52:05Z</time>
      </trkpt>
      <trkpt lat="45.15024" lon="0.6256">
        <ele>177</ele>
        <time>2018-05-03T12:52:07Z</time>
      </trkpt>
      <trkpt lat="45.15026" lon="0.62566">
        <ele>178</ele>
        <time>2018-05-03T12:52:10Z</time>
      </trkpt>
      <trkpt lat="45.15026" lon="0.62574">
        <ele>178</ele>
        <time>2018-05-03T12:52:14Z</time>
      </trkpt>
      <trkpt lat="45.15028" lon="0.62585">
        <ele>178</ele>
        <time>2018-05-03T12:52:18Z</time>
      </trkpt>
      <trkpt lat="45.1503" lon="0.6259">
        <ele>178</ele>
        <time>2018-05-03T12:52:20Z</time>
      </trkpt>
      <trkpt lat="45.15031" lon="0.62599">
        <ele>178</ele>
        <time>2018-05-03T12:52:24Z</time>
      </trkpt>
      <trkpt lat="45.15036" lon="0.62606">
        <ele>180</ele>
        <time>2018-05-03T12:52:27Z</time>
      </trkpt>
      <trkpt lat="45.15037" lon="0.62608">
        <ele>181</ele>
        <time>2018-05-03T12:52:28Z</time>
      </trkpt>
      <trkpt lat="45.15039" lon="0.62615">
        <ele>181</ele>
        <time>2018-05-03T12:52:31Z</time>
      </trkpt>
      <trkpt lat="45.15038" lon="0.62622">
        <ele>183</ele>
        <time>2018-05-03T12:52:34Z</time>
      </trkpt>
      <trkpt lat="45.15035" lon="0.62629">
        <ele>183</ele>
        <time>2018-05-03T12:52:37Z</time>
      </trkpt>
      <trkpt lat="45.15034" lon="0.62631">
        <ele>183</ele>
        <time>2018-05-03T12:52:38Z</time>
      </trkpt>
      <trkpt lat="45.15033" lon="0.62634">
        <ele>182</ele>
        <time>2018-05-03T12:52:39Z</time>
      </trkpt>
      <trkpt lat="45.15031" lon="0.62644">
        <ele>183</ele>
        <time>2018-05-03T12:52:43Z</time>
      </trkpt>
      <trkpt lat="45.15031" lon="0.6265">
        <ele>183</ele>
        <time>2018-05-03T12:52:46Z</time>
      </trkpt>
      <trkpt lat="45.15028" lon="0.6266">
        <ele>180</ele>
        <time>2018-05-03T12:52:50Z</time>
      </trkpt>
      <trkpt lat="45.15024" lon="0.62664">
        <ele>180</ele>
        <time>2018-05-03T12:52:52Z</time>
      </trkpt>
      <trkpt lat="45.15021" lon="0.62668">
        <ele>180</ele>
        <time>2018-05-03T12:52:54Z</time>
      </trkpt>
      <trkpt lat="45.15018" lon="0.62674">
        <ele>182</ele>
        <time>2018-05-03T12:52:56Z</time>
      </trkpt>
      <trkpt lat="45.15016" lon="0.6268">
        <ele>182</ele>
        <time>2018-05-03T12:52:59Z</time>
      </trkpt>
      <trkpt lat="45.15013" lon="0.6269">
        <ele>184</ele>
        <time>2018-05-03T12:53:03Z</time>
      </trkpt>
      <trkpt lat="45.15005" lon="0.627">
        <ele>186</ele>
        <time>2018-05-03T12:53:08Z</time>
      </trkpt>
      <trkpt lat="45.15002" lon="0.62708">
        <ele>187</ele>
        <time>2018-05-03T12:53:11Z</time>
      </trkpt>
      <trkpt lat="45.14998" lon="0.62717">
        <ele>188</ele>
        <time>2018-05-03T12:53:15Z</time>
      </trkpt>
      <trkpt lat="45.14994" lon="0.62724">
        <ele>190</ele>
        <time>2018-05-03T12:53:17Z</time>
      </trkpt>
      <trkpt lat="45.14989" lon="0.62737">
        <ele>191</ele>
        <time>2018-05-03T12:53:20Z</time>
      </trkpt>
      <trkpt lat="45.14984" lon="0.62763">
        <ele>166</ele>
        <time>2018-05-03T12:53:26Z</time>
      </trkpt>
      <trkpt lat="45.14973" lon="0.62789">
        <ele>178</ele>
        <time>2018-05-03T12:53:30Z</time>
      </trkpt>
      <trkpt lat="45.14966" lon="0.62807">
        <ele>181</ele>
        <time>2018-05-03T12:53:31Z</time>
      </trkpt>
      <trkpt lat="45.14962" lon="0.62819">
        <ele>181</ele>
        <time>2018-05-03T12:53:33Z</time>
      </trkpt>
      <trkpt lat="45.1496" lon="0.62831">
        <ele>182</ele>
        <time>2018-05-03T12:53:35Z</time>
      </trkpt>
      <trkpt lat="45.14956" lon="0.62865">
        <ele>186</ele>
        <time>2018-05-03T12:53:38Z</time>
      </trkpt>
      <trkpt lat="45.1495" lon="0.62874">
        <ele>186</ele>
        <time>2018-05-03T12:53:39Z</time>
      </trkpt>
      <trkpt lat="45.14938" lon="0.62894">
        <ele>187</ele>
        <time>2018-05-03T12:53:42Z</time>
      </trkpt>
      <trkpt lat="45.14934" lon="0.62904">
        <ele>187</ele>
        <time>2018-05-03T12:53:43Z</time>
      </trkpt>
      <trkpt lat="45.14932" lon="0.62914">
        <ele>188</ele>
        <time>2018-05-03T12:53:44Z</time>
      </trkpt>
      <trkpt lat="45.14928" lon="0.62922">
        <ele>189</ele>
        <time>2018-05-03T12:53:45Z</time>
      </trkpt>
      <trkpt lat="45.14926" lon="0.62931">
        <ele>189</ele>
        <time>2018-05-03T12:53:46Z</time>
      </trkpt>
      <trkpt lat="45.14928" lon="0.62945">
        <ele>182</ele>
        <time>2018-05-03T12:53:48Z</time>
      </trkpt>
      <trkpt lat="45.14926" lon="0.62953">
        <ele>181</ele>
        <time>2018-05-03T12:53:49Z</time>
      </trkpt>
      <trkpt lat="45.14924" lon="0.62963">
        <ele>181</ele>
        <time>2018-05-03T12:53:50Z</time>
      </trkpt>
      <trkpt lat="45.14878" lon="0.63042">
        <ele>180</ele>
        <time>2018-05-03T12:53:58Z</time>
      </trkpt>
      <trkpt lat="45.1487" lon="0.63051">
        <ele>178</ele>
        <time>2018-05-03T12:53:59Z</time>
      </trkpt>
      <trkpt lat="45.14851" lon="0.63069">
        <ele>177</ele>
        <time>2018-05-03T12:54:01Z</time>
      </trkpt>
      <trkpt lat="45.14842" lon="0.63077">
        <ele>176</ele>
        <time>2018-05-03T12:54:02Z</time>
      </trkpt>
      <trkpt lat="45.14837" lon="0.63085">
        <ele>175</ele>
        <time>2018-05-03T12:54:03Z</time>
      </trkpt>
      <trkpt lat="45.1483" lon="0.63094">
        <ele>176</ele>
        <time>2018-05-03T12:54:04Z</time>
      </trkpt>
      <trkpt lat="45.14833" lon="0.63122">
        <ele>168</ele>
        <time>2018-05-03T12:54:07Z</time>
      </trkpt>
      <trkpt lat="45.14838" lon="0.63133">
        <ele>165</ele>
        <time>2018-05-03T12:54:08Z</time>
      </trkpt>
      <trkpt lat="45.14846" lon="0.63159">
        <ele>163</ele>
        <time>2018-05-03T12:54:10Z</time>
      </trkpt>
      <trkpt lat="45.14853" lon="0.63174">
        <ele>161</ele>
        <time>2018-05-03T12:54:11Z</time>
      </trkpt>
      <trkpt lat="45.14872" lon="0.63216">
        <ele>158</ele>
        <time>2018-05-03T12:54:14Z</time>
      </trkpt>
      <trkpt lat="45.1488" lon="0.63231">
        <ele>155</ele>
        <time>2018-05-03T12:54:15Z</time>
      </trkpt>
      <trkpt lat="45.14898" lon="0.63292">
        <ele>153</ele>
        <time>2018-05-03T12:54:19Z</time>
      </trkpt>
      <trkpt lat="45.14906" lon="0.63311">
        <ele>157</ele>
        <time>2018-05-03T12:54:23Z</time>
      </trkpt>
      <trkpt lat="45.14924" lon="0.63325">
        <ele>154</ele>
        <time>2018-05-03T12:54:27Z</time>
      </trkpt>
      <trkpt lat="45.14931" lon="0.63327">
        <ele>153</ele>
        <time>2018-05-03T12:54:28Z</time>
      </trkpt>
      <trkpt lat="45.14937" lon="0.6333">
        <ele>152</ele>
        <time>2018-05-03T12:54:29Z</time>
      </trkpt>
      <trkpt lat="45.14943" lon="0.63334">
        <ele>152</ele>
        <time>2018-05-03T12:54:30Z</time>
      </trkpt>
      <trkpt lat="45.14949" lon="0.63338">
        <ele>151</ele>
        <time>2018-05-03T12:54:31Z</time>
      </trkpt>
      <trkpt lat="45.14955" lon="0.63343">
        <ele>151</ele>
        <time>2018-05-03T12:54:32Z</time>
      </trkpt>
      <trkpt lat="45.14973" lon="0.63371">
        <ele>151</ele>
        <time>2018-05-03T12:54:37Z</time>
      </trkpt>
      <trkpt lat="45.14979" lon="0.63377">
        <ele>150</ele>
        <time>2018-05-03T12:54:38Z</time>
      </trkpt>
      <trkpt lat="45.14985" lon="0.63384">
        <ele>150</ele>
        <time>2018-05-03T12:54:39Z</time>
      </trkpt>
      <trkpt lat="45.14996" lon="0.63396">
        <ele>148</ele>
        <time>2018-05-03T12:54:41Z</time>
      </trkpt>
      <trkpt lat="45.15001" lon="0.63408">
        <ele>147</ele>
        <time>2018-05-03T12:54:43Z</time>
      </trkpt>
      <trkpt lat="45.15013" lon="0.63422">
        <ele>145</ele>
        <time>2018-05-03T12:54:45Z</time>
      </trkpt>
      <trkpt lat="45.15021" lon="0.63427">
        <ele>145</ele>
        <time>2018-05-03T12:54:46Z</time>
      </trkpt>
      <trkpt lat="45.15047" lon="0.63449">
        <ele>148</ele>
        <time>2018-05-03T12:54:50Z</time>
      </trkpt>
      <trkpt lat="45.15054" lon="0.63453">
        <ele>148</ele>
        <time>2018-05-03T12:54:51Z</time>
      </trkpt>
      <trkpt lat="45.1506" lon="0.63455">
        <ele>148</ele>
        <time>2018-05-03T12:54:52Z</time>
      </trkpt>
      <trkpt lat="45.15067" lon="0.63457">
        <ele>148</ele>
        <time>2018-05-03T12:54:53Z</time>
      </trkpt>
      <trkpt lat="45.15086" lon="0.63466">
        <ele>150</ele>
        <time>2018-05-03T12:54:56Z</time>
      </trkpt>
      <trkpt lat="45.15091" lon="0.63468">
        <ele>149</ele>
        <time>2018-05-03T12:54:57Z</time>
      </trkpt>
      <trkpt lat="45.15098" lon="0.6347">
        <ele>149</ele>
        <time>2018-05-03T12:54:58Z</time>
      </trkpt>
      <trkpt lat="45.15119" lon="0.63481">
        <ele>147</ele>
        <time>2018-05-03T12:55:01Z</time>
      </trkpt>
      <trkpt lat="45.15126" lon="0.63484">
        <ele>146</ele>
        <time>2018-05-03T12:55:02Z</time>
      </trkpt>
      <trkpt lat="45.15138" lon="0.63491">
        <ele>145</ele>
        <time>2018-05-03T12:55:04Z</time>
      </trkpt>
      <trkpt lat="45.15144" lon="0.63495">
        <ele>145</ele>
        <time>2018-05-03T12:55:05Z</time>
      </trkpt>
      <trkpt lat="45.15151" lon="0.63499">
        <ele>145</ele>
        <time>2018-05-03T12:55:06Z</time>
      </trkpt>
      <trkpt lat="45.15155" lon="0.63501">
        <ele>143</ele>
        <time>2018-05-03T12:55:07Z</time>
      </trkpt>
      <trkpt lat="45.15161" lon="0.63505">
        <ele>140</ele>
        <time>2018-05-03T12:55:08Z</time>
      </trkpt>
      <trkpt lat="45.15168" lon="0.63515">
        <ele>140</ele>
        <time>2018-05-03T12:55:10Z</time>
      </trkpt>
      <trkpt lat="45.15173" lon="0.6352">
        <ele>141</ele>
        <time>2018-05-03T12:55:11Z</time>
      </trkpt>
      <trkpt lat="45.1518" lon="0.63531">
        <ele>149</ele>
        <time>2018-05-03T12:55:13Z</time>
      </trkpt>
      <trkpt lat="45.15185" lon="0.63535">
        <ele>145</ele>
        <time>2018-05-03T12:55:14Z</time>
      </trkpt>
      <trkpt lat="45.15189" lon="0.6354">
        <ele>143</ele>
        <time>2018-05-03T12:55:15Z</time>
      </trkpt>
      <trkpt lat="45.15197" lon="0.63547">
        <ele>142</ele>
        <time>2018-05-03T12:55:17Z</time>
      </trkpt>
      <trkpt lat="45.15201" lon="0.63551">
        <ele>141</ele>
        <time>2018-05-03T12:55:18Z</time>
      </trkpt>
      <trkpt lat="45.15204" lon="0.6356">
        <ele>142</ele>
        <time>2018-05-03T12:55:20Z</time>
      </trkpt>
      <trkpt lat="45.15202" lon="0.6357">
        <ele>142</ele>
        <time>2018-05-03T12:55:22Z</time>
      </trkpt>
      <trkpt lat="45.15197" lon="0.63583">
        <ele>138</ele>
        <time>2018-05-03T12:55:25Z</time>
      </trkpt>
      <trkpt lat="45.1519" lon="0.63597">
        <ele>140</ele>
        <time>2018-05-03T12:55:28Z</time>
      </trkpt>
      <trkpt lat="45.15188" lon="0.63602">
        <ele>141</ele>
        <time>2018-05-03T12:55:29Z</time>
      </trkpt>
      <trkpt lat="45.15182" lon="0.63613">
        <ele>138</ele>
        <time>2018-05-03T12:55:31Z</time>
      </trkpt>
      <trkpt lat="45.15178" lon="0.63621">
        <ele>136</ele>
        <time>2018-05-03T12:55:33Z</time>
      </trkpt>
      <trkpt lat="45.15173" lon="0.63633">
        <ele>136</ele>
        <time>2018-05-03T12:55:35Z</time>
      </trkpt>
      <trkpt lat="45.15166" lon="0.63651">
        <ele>144</ele>
        <time>2018-05-03T12:55:38Z</time>
      </trkpt>
      <trkpt lat="45.15161" lon="0.63662">
        <ele>140</ele>
        <time>2018-05-03T12:55:40Z</time>
      </trkpt>
      <trkpt lat="45.15158" lon="0.63668">
        <ele>139</ele>
        <time>2018-05-03T12:55:41Z</time>
      </trkpt>
      <trkpt lat="45.15156" lon="0.63673">
        <ele>138</ele>
        <time>2018-05-03T12:55:42Z</time>
      </trkpt>
      <trkpt lat="45.15153" lon="0.63678">
        <ele>137</ele>
        <time>2018-05-03T12:55:43Z</time>
      </trkpt>
      <trkpt lat="45.15148" lon="0.63689">
        <ele>134</ele>
        <time>2018-05-03T12:55:45Z</time>
      </trkpt>
      <trkpt lat="45.15145" lon="0.63694">
        <ele>134</ele>
        <time>2018-05-03T12:55:46Z</time>
      </trkpt>
      <trkpt lat="45.1514" lon="0.63706">
        <ele>134</ele>
        <time>2018-05-03T12:55:48Z</time>
      </trkpt>
      <trkpt lat="45.15137" lon="0.63713">
        <ele>135</ele>
        <time>2018-05-03T12:55:49Z</time>
      </trkpt>
      <trkpt lat="45.15135" lon="0.63719">
        <ele>136</ele>
        <time>2018-05-03T12:55:50Z</time>
      </trkpt>
      <trkpt lat="45.1513" lon="0.63729">
        <ele>136</ele>
        <time>2018-05-03T12:55:52Z</time>
      </trkpt>
      <trkpt lat="45.15119" lon="0.63746">
        <ele>137</ele>
        <time>2018-05-03T12:55:56Z</time>
      </trkpt>
      <trkpt lat="45.15116" lon="0.63751">
        <ele>137</ele>
        <time>2018-05-03T12:55:57Z</time>
      </trkpt>
      <trkpt lat="45.15113" lon="0.63756">
        <ele>138</ele>
        <time>2018-05-03T12:55:58Z</time>
      </trkpt>
      <trkpt lat="45.15108" lon="0.63765">
        <ele>136</ele>
        <time>2018-05-03T12:56:00Z</time>
      </trkpt>
      <trkpt lat="45.15106" lon="0.6377">
        <ele>136</ele>
        <time>2018-05-03T12:56:01Z</time>
      </trkpt>
      <trkpt lat="45.15104" lon="0.63774">
        <ele>136</ele>
        <time>2018-05-03T12:56:02Z</time>
      </trkpt>
      <trkpt lat="45.15099" lon="0.63783">
        <ele>136</ele>
        <time>2018-05-03T12:56:04Z</time>
      </trkpt>
      <trkpt lat="45.15097" lon="0.63787">
        <ele>136</ele>
        <time>2018-05-03T12:56:05Z</time>
      </trkpt>
      <trkpt lat="45.15095" lon="0.63791">
        <ele>135</ele>
        <time>2018-05-03T12:56:06Z</time>
      </trkpt>
      <trkpt lat="45.15093" lon="0.63796">
        <ele>136</ele>
        <time>2018-05-03T12:56:07Z</time>
      </trkpt>
      <trkpt lat="45.15091" lon="0.638">
        <ele>135</ele>
        <time>2018-05-03T12:56:08Z</time>
      </trkpt>
      <trkpt lat="45.15082" lon="0.63818">
        <ele>135</ele>
        <time>2018-05-03T12:56:12Z</time>
      </trkpt>
      <trkpt lat="45.15077" lon="0.63827">
        <ele>144</ele>
        <time>2018-05-03T12:56:14Z</time>
      </trkpt>
      <trkpt lat="45.15075" lon="0.63832">
        <ele>141</ele>
        <time>2018-05-03T12:56:15Z</time>
      </trkpt>
      <trkpt lat="45.15073" lon="0.63836">
        <ele>138</ele>
        <time>2018-05-03T12:56:16Z</time>
      </trkpt>
      <trkpt lat="45.15071" lon="0.6384">
        <ele>137</ele>
        <time>2018-05-03T12:56:17Z</time>
      </trkpt>
      <trkpt lat="45.15069" lon="0.63845">
        <ele>137</ele>
        <time>2018-05-03T12:56:18Z</time>
      </trkpt>
      <trkpt lat="45.15067" lon="0.63849">
        <ele>136</ele>
        <time>2018-05-03T12:56:19Z</time>
      </trkpt>
      <trkpt lat="45.15065" lon="0.63853">
        <ele>137</ele>
        <time>2018-05-03T12:56:20Z</time>
      </trkpt>
      <trkpt lat="45.15059" lon="0.63865">
        <ele>136</ele>
        <time>2018-05-03T12:56:23Z</time>
      </trkpt>
      <trkpt lat="45.15057" lon="0.63869">
        <ele>136</ele>
        <time>2018-05-03T12:56:24Z</time>
      </trkpt>
      <trkpt lat="45.15053" lon="0.63876">
        <ele>136</ele>
        <time>2018-05-03T12:56:26Z</time>
      </trkpt>
      <trkpt lat="45.15051" lon="0.6388">
        <ele>136</ele>
        <time>2018-05-03T12:56:27Z</time>
      </trkpt>
      <trkpt lat="45.1505" lon="0.63883">
        <ele>136</ele>
        <time>2018-05-03T12:56:28Z</time>
      </trkpt>
      <trkpt lat="45.15048" lon="0.63887">
        <ele>136</ele>
        <time>2018-05-03T12:56:29Z</time>
      </trkpt>
      <trkpt lat="45.15045" lon="0.63893">
        <ele>136</ele>
        <time>2018-05-03T12:56:31Z</time>
      </trkpt>
      <trkpt lat="45.15043" lon="0.63896">
        <ele>136</ele>
        <time>2018-05-03T12:56:32Z</time>
      </trkpt>
      <trkpt lat="45.15041" lon="0.63899">
        <ele>136</ele>
        <time>2018-05-03T12:56:33Z</time>
      </trkpt>
      <trkpt lat="45.15039" lon="0.63903">
        <ele>137</ele>
        <time>2018-05-03T12:56:34Z</time>
      </trkpt>
      <trkpt lat="45.15034" lon="0.63911">
        <ele>137</ele>
        <time>2018-05-03T12:56:37Z</time>
      </trkpt>
      <trkpt lat="45.15032" lon="0.63914">
        <ele>137</ele>
        <time>2018-05-03T12:56:38Z</time>
      </trkpt>
      <trkpt lat="45.15031" lon="0.63917">
        <ele>138</ele>
        <time>2018-05-03T12:56:39Z</time>
      </trkpt>
      <trkpt lat="45.15029" lon="0.63919">
        <ele>139</ele>
        <time>2018-05-03T12:56:40Z</time>
      </trkpt>
      <trkpt lat="45.15027" lon="0.63922">
        <ele>139</ele>
        <time>2018-05-03T12:56:41Z</time>
      </trkpt>
      <trkpt lat="45.15025" lon="0.63925">
        <ele>139</ele>
        <time>2018-05-03T12:56:42Z</time>
      </trkpt>
      <trkpt lat="45.15021" lon="0.63931">
        <ele>142</ele>
        <time>2018-05-03T12:56:44Z</time>
      </trkpt>
      <trkpt lat="45.15019" lon="0.63934">
        <ele>142</ele>
        <time>2018-05-03T12:56:45Z</time>
      </trkpt>
      <trkpt lat="45.15017" lon="0.63936">
        <ele>142</ele>
        <time>2018-05-03T12:56:46Z</time>
      </trkpt>
      <trkpt lat="45.15015" lon="0.63939">
        <ele>142</ele>
        <time>2018-05-03T12:56:47Z</time>
      </trkpt>
      <trkpt lat="45.15013" lon="0.63941">
        <ele>144</ele>
        <time>2018-05-03T12:56:48Z</time>
      </trkpt>
      <trkpt lat="45.15009" lon="0.63946">
        <ele>144</ele>
        <time>2018-05-03T12:56:50Z</time>
      </trkpt>
      <trkpt lat="45.15007" lon="0.63948">
        <ele>144</ele>
        <time>2018-05-03T12:56:51Z</time>
      </trkpt>
      <trkpt lat="45.15005" lon="0.63951">
        <ele>144</ele>
        <time>2018-05-03T12:56:52Z</time>
      </trkpt>
      <trkpt lat="45.15003" lon="0.63953">
        <ele>143</ele>
        <time>2018-05-03T12:56:53Z</time>
      </trkpt>
      <trkpt lat="45.14998" lon="0.63957">
        <ele>144</ele>
        <time>2018-05-03T12:56:55Z</time>
      </trkpt>
      <trkpt lat="45.14994" lon="0.63962">
        <ele>145</ele>
        <time>2018-05-03T12:56:57Z</time>
      </trkpt>
      <trkpt lat="45.14993" lon="0.63965">
        <ele>145</ele>
        <time>2018-05-03T12:56:58Z</time>
      </trkpt>
      <trkpt lat="45.14989" lon="0.6397">
        <ele>143</ele>
        <time>2018-05-03T12:57:00Z</time>
      </trkpt>
      <trkpt lat="45.14986" lon="0.63979">
        <ele>141</ele>
        <time>2018-05-03T12:57:03Z</time>
      </trkpt>
      <trkpt lat="45.14986" lon="0.63987">
        <ele>138</ele>
        <time>2018-05-03T12:57:05Z</time>
      </trkpt>
      <trkpt lat="45.14994" lon="0.63996">
        <ele>139</ele>
        <time>2018-05-03T12:57:07Z</time>
      </trkpt>
      <trkpt lat="45.15004" lon="0.63996">
        <ele>140</ele>
        <time>2018-05-03T12:57:09Z</time>
      </trkpt>
      <trkpt lat="45.15015" lon="0.63989">
        <ele>142</ele>
        <time>2018-05-03T12:57:12Z</time>
      </trkpt>
      <trkpt lat="45.1502" lon="0.63984">
        <ele>140</ele>
        <time>2018-05-03T12:57:14Z</time>
      </trkpt>
      <trkpt lat="45.15027" lon="0.63979">
        <ele>140</ele>
        <time>2018-05-03T12:57:17Z</time>
      </trkpt>
      <trkpt lat="45.15032" lon="0.63973">
        <ele>139</ele>
        <time>2018-05-03T12:57:20Z</time>
      </trkpt>
      <trkpt lat="45.15038" lon="0.6397">
        <ele>139</ele>
        <time>2018-05-03T12:57:23Z</time>
      </trkpt>
      <trkpt lat="45.15042" lon="0.63967">
        <ele>139</ele>
        <time>2018-05-03T12:57:26Z</time>
      </trkpt>
      <trkpt lat="45.15047" lon="0.63963">
        <ele>139</ele>
        <time>2018-05-03T12:57:28Z</time>
      </trkpt>
      <trkpt lat="45.1505" lon="0.6396">
        <ele>141</ele>
        <time>2018-05-03T12:57:30Z</time>
      </trkpt>
      <trkpt lat="45.15054" lon="0.63958">
        <ele>142</ele>
        <time>2018-05-03T12:57:32Z</time>
      </trkpt>
      <trkpt lat="45.15056" lon="0.63956">
        <ele>142</ele>
        <time>2018-05-03T12:57:34Z</time>
      </trkpt>
      <trkpt lat="45.15059" lon="0.63954">
        <ele>142</ele>
        <time>2018-05-03T12:57:36Z</time>
      </trkpt>
      <trkpt lat="45.15062" lon="0.63953">
        <ele>144</ele>
        <time>2018-05-03T12:57:38Z</time>
      </trkpt>
      <trkpt lat="45.15065" lon="0.63951">
        <ele>143</ele>
        <time>2018-05-03T12:57:40Z</time>
      </trkpt>
      <trkpt lat="45.1507" lon="0.6395">
        <ele>145</ele>
        <time>2018-05-03T12:57:44Z</time>
      </trkpt>
      <trkpt lat="45.15073" lon="0.63949">
        <ele>145</ele>
        <time>2018-05-03T12:57:46Z</time>
      </trkpt>
      <trkpt lat="45.15075" lon="0.63948">
        <ele>144</ele>
        <time>2018-05-03T12:57:48Z</time>
      </trkpt>
      <trkpt lat="45.1508" lon="0.63947">
        <ele>144</ele>
        <time>2018-05-03T12:57:52Z</time>
      </trkpt>
      <trkpt lat="45.15084" lon="0.63946">
        <ele>145</ele>
        <time>2018-05-03T12:57:55Z</time>
      </trkpt>
      <trkpt lat="45.15089" lon="0.63943">
        <ele>144</ele>
        <time>2018-05-03T12:57:59Z</time>
      </trkpt>
      <trkpt lat="45.15091" lon="0.63942">
        <ele>144</ele>
        <time>2018-05-03T12:58:01Z</time>
      </trkpt>
      <trkpt lat="45.15098" lon="0.6394">
        <ele>145</ele>
        <time>2018-05-03T12:58:06Z</time>
      </trkpt>
      <trkpt lat="45.15103" lon="0.63939">
        <ele>149</ele>
        <time>2018-05-03T12:58:10Z</time>
      </trkpt>
      <trkpt lat="45.15106" lon="0.63939">
        <ele>148</ele>
        <time>2018-05-03T12:58:12Z</time>
      </trkpt>
      <trkpt lat="45.15109" lon="0.63939">
        <ele>147</ele>
        <time>2018-05-03T12:58:14Z</time>
      </trkpt>
      <trkpt lat="45.15113" lon="0.63938">
        <ele>147</ele>
        <time>2018-05-03T12:58:17Z</time>
      </trkpt>
      <trkpt lat="45.15117" lon="0.63937">
        <ele>148</ele>
        <time>2018-05-03T12:58:20Z</time>
      </trkpt>
      <trkpt lat="45.15121" lon="0.63937">
        <ele>149</ele>
        <time>2018-05-03T12:58:23Z</time>
      </trkpt>
      <trkpt lat="45.15124" lon="0.63937">
        <ele>149</ele>
        <time>2018-05-03T12:58:25Z</time>
      </trkpt>
      <trkpt lat="45.15129" lon="0.63935">
        <ele>151</ele>
        <time>2018-05-03T12:58:29Z</time>
      </trkpt>
      <trkpt lat="45.15136" lon="0.63934">
        <ele>154</ele>
        <time>2018-05-03T12:58:34Z</time>
      </trkpt>
      <trkpt lat="45.1514" lon="0.63934">
        <ele>154</ele>
        <time>2018-05-03T12:58:37Z</time>
      </trkpt>
      <trkpt lat="45.15147" lon="0.63933">
        <ele>155</ele>
        <time>2018-05-03T12:58:42Z</time>
      </trkpt>
      <trkpt lat="45.15152" lon="0.63933">
        <ele>157</ele>
        <time>2018-05-03T12:58:46Z</time>
      </trkpt>
      <trkpt lat="45.15155" lon="0.63933">
        <ele>157</ele>
        <time>2018-05-03T12:58:48Z</time>
      </trkpt>
      <trkpt lat="45.1516" lon="0.63933">
        <ele>158</ele>
        <time>2018-05-03T12:58:52Z</time>
      </trkpt>
      <trkpt lat="45.15163" lon="0.63933">
        <ele>158</ele>
        <time>2018-05-03T12:58:54Z</time>
      </trkpt>
      <trkpt lat="45.15165" lon="0.63933">
        <ele>158</ele>
        <time>2018-05-03T12:58:56Z</time>
      </trkpt>
      <trkpt lat="45.15167" lon="0.63933">
        <ele>158</ele>
        <time>2018-05-03T12:58:58Z</time>
      </trkpt>
      <trkpt lat="45.1517" lon="0.63933">
        <ele>158</ele>
        <time>2018-05-03T12:59:00Z</time>
      </trkpt>
      <trkpt lat="45.15176" lon="0.63932">
        <ele>159</ele>
        <time>2018-05-03T12:59:04Z</time>
      </trkpt>
      <trkpt lat="45.15181" lon="0.63932">
        <ele>159</ele>
        <time>2018-05-03T12:59:08Z</time>
      </trkpt>
      <trkpt lat="45.15184" lon="0.63933">
        <ele>160</ele>
        <time>2018-05-03T12:59:10Z</time>
      </trkpt>
      <trkpt lat="45.15187" lon="0.63932">
        <ele>161</ele>
        <time>2018-05-03T12:59:12Z</time>
      </trkpt>
      <trkpt lat="45.1519" lon="0.63932">
        <ele>162</ele>
        <time>2018-05-03T12:59:15Z</time>
      </trkpt>
      <trkpt lat="45.15192" lon="0.63932">
        <ele>162</ele>
        <time>2018-05-03T12:59:17Z</time>
      </trkpt>
      <trkpt lat="45.152" lon="0.63932">
        <ele>162</ele>
        <time>2018-05-03T12:59:22Z</time>
      </trkpt>
      <trkpt lat="45.15203" lon="0.63932">
        <ele>160</ele>
        <time>2018-05-03T12:59:24Z</time>
      </trkpt>
      <trkpt lat="45.15206" lon="0.63932">
        <ele>162</ele>
        <time>2018-05-03T12:59:26Z</time>
      </trkpt>
      <trkpt lat="45.15208" lon="0.63932">
        <ele>161</ele>
        <time>2018-05-03T12:59:28Z</time>
      </trkpt>
      <trkpt lat="45.15214" lon="0.63933">
        <ele>161</ele>
        <time>2018-05-03T12:59:32Z</time>
      </trkpt>
      <trkpt lat="45.15217" lon="0.63934">
        <ele>161</ele>
        <time>2018-05-03T12:59:34Z</time>
      </trkpt>
      <trkpt lat="45.1522" lon="0.63934">
        <ele>161</ele>
        <time>2018-05-03T12:59:36Z</time>
      </trkpt>
      <trkpt lat="45.15223" lon="0.63935">
        <ele>161</ele>
        <time>2018-05-03T12:59:38Z</time>
      </trkpt>
      <trkpt lat="45.15226" lon="0.63935">
        <ele>161</ele>
        <time>2018-05-03T12:59:40Z</time>
      </trkpt>
      <trkpt lat="45.15229" lon="0.63935">
        <ele>162</ele>
        <time>2018-05-03T12:59:42Z</time>
      </trkpt>
      <trkpt lat="45.15232" lon="0.63935">
        <ele>162</ele>
        <time>2018-05-03T12:59:45Z</time>
      </trkpt>
      <trkpt lat="45.15239" lon="0.63935">
        <ele>162</ele>
        <time>2018-05-03T12:59:50Z</time>
      </trkpt>
      <trkpt lat="45.15245" lon="0.63935">
        <ele>162</ele>
        <time>2018-05-03T12:59:53Z</time>
      </trkpt>
      <trkpt lat="45.15248" lon="0.63936">
        <ele>161</ele>
        <time>2018-05-03T12:59:55Z</time>
      </trkpt>
      <trkpt lat="45.15251" lon="0.63937">
        <ele>161</ele>
        <time>2018-05-03T12:59:57Z</time>
      </trkpt>
      <trkpt lat="45.15258" lon="0.63937">
        <ele>160</ele>
        <time>2018-05-03T13:00:01Z</time>
      </trkpt>
      <trkpt lat="45.15263" lon="0.63936">
        <ele>159</ele>
        <time>2018-05-03T13:00:04Z</time>
      </trkpt>
      <trkpt lat="45.15266" lon="0.63936">
        <ele>160</ele>
        <time>2018-05-03T13:00:06Z</time>
      </trkpt>
      <trkpt lat="45.15269" lon="0.63936">
        <ele>159</ele>
        <time>2018-05-03T13:00:08Z</time>
      </trkpt>
      <trkpt lat="45.15272" lon="0.63936">
        <ele>158</ele>
        <time>2018-05-03T13:00:10Z</time>
      </trkpt>
      <trkpt lat="45.15276" lon="0.63934">
        <ele>160</ele>
        <time>2018-05-03T13:00:13Z</time>
      </trkpt>
      <trkpt lat="45.1528" lon="0.6393">
        <ele>161</ele>
        <time>2018-05-03T13:00:16Z</time>
      </trkpt>
      <trkpt lat="45.15284" lon="0.63924">
        <ele>161</ele>
        <time>2018-05-03T13:00:19Z</time>
      </trkpt>
      <trkpt lat="45.15287" lon="0.63918">
        <ele>163</ele>
        <time>2018-05-03T13:00:22Z</time>
      </trkpt>
      <trkpt lat="45.15304" lon="0.63871">
        <ele>168</ele>
        <time>2018-05-03T13:00:35Z</time>
      </trkpt>
      <trkpt lat="45.15305" lon="0.63867">
        <ele>168</ele>
        <time>2018-05-03T13:00:36Z</time>
      </trkpt>
      <trkpt lat="45.15307" lon="0.63864">
        <ele>170</ele>
        <time>2018-05-03T13:00:37Z</time>
      </trkpt>
      <trkpt lat="45.1531" lon="0.63857">
        <ele>170</ele>
        <time>2018-05-03T13:00:39Z</time>
      </trkpt>
      <trkpt lat="45.15312" lon="0.63853">
        <ele>170</ele>
        <time>2018-05-03T13:00:40Z</time>
      </trkpt>
      <trkpt lat="45.15314" lon="0.63849">
        <ele>170</ele>
        <time>2018-05-03T13:00:41Z</time>
      </trkpt>
      <trkpt lat="45.15317" lon="0.63841">
        <ele>171</ele>
        <time>2018-05-03T13:00:43Z</time>
      </trkpt>
      <trkpt lat="45.15319" lon="0.63836">
        <ele>170</ele>
        <time>2018-05-03T13:00:44Z</time>
      </trkpt>
      <trkpt lat="45.15321" lon="0.63832">
        <ele>170</ele>
        <time>2018-05-03T13:00:45Z</time>
      </trkpt>
      <trkpt lat="45.15322" lon="0.63828">
        <ele>170</ele>
        <time>2018-05-03T13:00:46Z</time>
      </trkpt>
      <trkpt lat="45.15324" lon="0.63823">
        <ele>171</ele>
        <time>2018-05-03T13:00:47Z</time>
      </trkpt>
      <trkpt lat="45.15325" lon="0.63818">
        <ele>171</ele>
        <time>2018-05-03T13:00:48Z</time>
      </trkpt>
      <trkpt lat="45.15327" lon="0.63814">
        <ele>171</ele>
        <time>2018-05-03T13:00:49Z</time>
      </trkpt>
      <trkpt lat="45.15331" lon="0.63805">
        <ele>170</ele>
        <time>2018-05-03T13:00:51Z</time>
      </trkpt>
      <trkpt lat="45.15335" lon="0.63795">
        <ele>169</ele>
        <time>2018-05-03T13:00:53Z</time>
      </trkpt>
      <trkpt lat="45.15337" lon="0.6379">
        <ele>169</ele>
        <time>2018-05-03T13:00:54Z</time>
      </trkpt>
      <trkpt lat="45.1534" lon="0.63785">
        <ele>169</ele>
        <time>2018-05-03T13:00:55Z</time>
      </trkpt>
      <trkpt lat="45.15345" lon="0.63773">
        <ele>168</ele>
        <time>2018-05-03T13:00:57Z</time>
      </trkpt>
      <trkpt lat="45.15349" lon="0.63761">
        <ele>166</ele>
        <time>2018-05-03T13:00:59Z</time>
      </trkpt>
      <trkpt lat="45.15351" lon="0.63756">
        <ele>165</ele>
        <time>2018-05-03T13:01:00Z</time>
      </trkpt>
      <trkpt lat="45.15354" lon="0.63751">
        <ele>165</ele>
        <time>2018-05-03T13:01:01Z</time>
      </trkpt>
      <trkpt lat="45.15357" lon="0.63745">
        <ele>165</ele>
        <time>2018-05-03T13:01:02Z</time>
      </trkpt>
      <trkpt lat="45.15361" lon="0.63735">
        <ele>163</ele>
        <time>2018-05-03T13:01:04Z</time>
      </trkpt>
      <trkpt lat="45.15364" lon="0.6373">
        <ele>164</ele>
        <time>2018-05-03T13:01:05Z</time>
      </trkpt>
      <trkpt lat="45.1537" lon="0.63723">
        <ele>164</ele>
        <time>2018-05-03T13:01:07Z</time>
      </trkpt>
      <trkpt lat="45.15377" lon="0.63724">
        <ele>164</ele>
        <time>2018-05-03T13:01:09Z</time>
      </trkpt>
      <trkpt lat="45.15385" lon="0.63727">
        <ele>163</ele>
        <time>2018-05-03T13:01:12Z</time>
      </trkpt>
      <trkpt lat="45.1539" lon="0.63732">
        <ele>164</ele>
        <time>2018-05-03T13:01:15Z</time>
      </trkpt>
      <trkpt lat="45.15394" lon="0.63738">
        <ele>159</ele>
        <time>2018-05-03T13:01:18Z</time>
      </trkpt>
      <trkpt lat="45.15403" lon="0.63746">
        <ele>164</ele>
        <time>2018-05-03T13:01:25Z</time>
      </trkpt>
      <trkpt lat="45.15406" lon="0.63749">
        <ele>165</ele>
        <time>2018-05-03T13:01:27Z</time>
      </trkpt>
      <trkpt lat="45.15408" lon="0.63751">
        <ele>165</ele>
        <time>2018-05-03T13:01:29Z</time>
      </trkpt>
      <trkpt lat="45.15413" lon="0.63758">
        <ele>166</ele>
        <time>2018-05-03T13:01:33Z</time>
      </trkpt>
      <trkpt lat="45.15416" lon="0.63762">
        <ele>166</ele>
        <time>2018-05-03T13:01:36Z</time>
      </trkpt>
      <trkpt lat="45.15418" lon="0.63765">
        <ele>166</ele>
        <time>2018-05-03T13:01:38Z</time>
      </trkpt>
      <trkpt lat="45.1542" lon="0.63768">
        <ele>167</ele>
        <time>2018-05-03T13:01:40Z</time>
      </trkpt>
      <trkpt lat="45.15423" lon="0.63771">
        <ele>168</ele>
        <time>2018-05-03T13:01:42Z</time>
      </trkpt>
      <trkpt lat="45.15426" lon="0.63774">
        <ele>169</ele>
        <time>2018-05-03T13:01:44Z</time>
      </trkpt>
      <trkpt lat="45.15428" lon="0.63777">
        <ele>169</ele>
        <time>2018-05-03T13:01:46Z</time>
      </trkpt>
      <trkpt lat="45.1543" lon="0.63779">
        <ele>170</ele>
        <time>2018-05-03T13:01:48Z</time>
      </trkpt>
      <trkpt lat="45.15433" lon="0.63782">
        <ele>171</ele>
        <time>2018-05-03T13:01:50Z</time>
      </trkpt>
      <trkpt lat="45.15435" lon="0.63784">
        <ele>170</ele>
        <time>2018-05-03T13:01:52Z</time>
      </trkpt>
      <trkpt lat="45.15439" lon="0.63787">
        <ele>170</ele>
        <time>2018-05-03T13:01:55Z</time>
      </trkpt>
      <trkpt lat="45.15442" lon="0.6379">
        <ele>170</ele>
        <time>2018-05-03T13:01:57Z</time>
      </trkpt>
      <trkpt lat="45.15444" lon="0.63792">
        <ele>171</ele>
        <time>2018-05-03T13:01:59Z</time>
      </trkpt>
      <trkpt lat="45.15447" lon="0.63795">
        <ele>171</ele>
        <time>2018-05-03T13:02:01Z</time>
      </trkpt>
      <trkpt lat="45.15449" lon="0.63798">
        <ele>171</ele>
        <time>2018-05-03T13:02:03Z</time>
      </trkpt>
      <trkpt lat="45.15453" lon="0.63801">
        <ele>173</ele>
        <time>2018-05-03T13:02:06Z</time>
      </trkpt>
      <trkpt lat="45.15456" lon="0.63803">
        <ele>173</ele>
        <time>2018-05-03T13:02:08Z</time>
      </trkpt>
      <trkpt lat="45.15458" lon="0.63805">
        <ele>174</ele>
        <time>2018-05-03T13:02:10Z</time>
      </trkpt>
      <trkpt lat="45.15463" lon="0.6381">
        <ele>175</ele>
        <time>2018-05-03T13:02:14Z</time>
      </trkpt>
      <trkpt lat="45.15466" lon="0.63812">
        <ele>175</ele>
        <time>2018-05-03T13:02:16Z</time>
      </trkpt>
      <trkpt lat="45.15468" lon="0.63814">
        <ele>176</ele>
        <time>2018-05-03T13:02:18Z</time>
      </trkpt>
      <trkpt lat="45.15471" lon="0.63817">
        <ele>177</ele>
        <time>2018-05-03T13:02:20Z</time>
      </trkpt>
      <trkpt lat="45.15476" lon="0.63821">
        <ele>178</ele>
        <time>2018-05-03T13:02:24Z</time>
      </trkpt>
      <trkpt lat="45.15478" lon="0.63823">
        <ele>178</ele>
        <time>2018-05-03T13:02:26Z</time>
      </trkpt>
      <trkpt lat="45.15483" lon="0.63827">
        <ele>178</ele>
        <time>2018-05-03T13:02:30Z</time>
      </trkpt>
      <trkpt lat="45.15487" lon="0.63832">
        <ele>179</ele>
        <time>2018-05-03T13:02:34Z</time>
      </trkpt>
      <trkpt lat="45.1549" lon="0.63835">
        <ele>179</ele>
        <time>2018-05-03T13:02:36Z</time>
      </trkpt>
      <trkpt lat="45.15492" lon="0.63837">
        <ele>180</ele>
        <time>2018-05-03T13:02:38Z</time>
      </trkpt>
      <trkpt lat="45.15494" lon="0.6384">
        <ele>180</ele>
        <time>2018-05-03T13:02:40Z</time>
      </trkpt>
      <trkpt lat="45.15497" lon="0.63842">
        <ele>180</ele>
        <time>2018-05-03T13:02:43Z</time>
      </trkpt>
      <trkpt lat="45.15502" lon="0.63847">
        <ele>180</ele>
        <time>2018-05-03T13:02:47Z</time>
      </trkpt>
      <trkpt lat="45.15508" lon="0.63853">
        <ele>182</ele>
        <time>2018-05-03T13:02:51Z</time>
      </trkpt>
      <trkpt lat="45.1551" lon="0.63856">
        <ele>181</ele>
        <time>2018-05-03T13:02:53Z</time>
      </trkpt>
      <trkpt lat="45.15513" lon="0.63858">
        <ele>182</ele>
        <time>2018-05-03T13:02:55Z</time>
      </trkpt>
      <trkpt lat="45.15517" lon="0.63863">
        <ele>182</ele>
        <time>2018-05-03T13:02:58Z</time>
      </trkpt>
      <trkpt lat="45.15521" lon="0.63867">
        <ele>182</ele>
        <time>2018-05-03T13:03:01Z</time>
      </trkpt>
      <trkpt lat="45.15524" lon="0.6387">
        <ele>183</ele>
        <time>2018-05-03T13:03:03Z</time>
      </trkpt>
      <trkpt lat="45.15527" lon="0.63873">
        <ele>181</ele>
        <time>2018-05-03T13:03:05Z</time>
      </trkpt>
      <trkpt lat="45.15533" lon="0.6388">
        <ele>182</ele>
        <time>2018-05-03T13:03:10Z</time>
      </trkpt>
      <trkpt lat="45.15537" lon="0.63885">
        <ele>182</ele>
        <time>2018-05-03T13:03:13Z</time>
      </trkpt>
      <trkpt lat="45.15541" lon="0.63889">
        <ele>183</ele>
        <time>2018-05-03T13:03:16Z</time>
      </trkpt>
      <trkpt lat="45.15543" lon="0.63892">
        <ele>183</ele>
        <time>2018-05-03T13:03:18Z</time>
      </trkpt>
      <trkpt lat="45.15546" lon="0.63894">
        <ele>184</ele>
        <time>2018-05-03T13:03:20Z</time>
      </trkpt>
      <trkpt lat="45.15548" lon="0.63897">
        <ele>184</ele>
        <time>2018-05-03T13:03:22Z</time>
      </trkpt>
      <trkpt lat="45.15552" lon="0.63901">
        <ele>185</ele>
        <time>2018-05-03T13:03:25Z</time>
      </trkpt>
      <trkpt lat="45.15554" lon="0.63904">
        <ele>186</ele>
        <time>2018-05-03T13:03:27Z</time>
      </trkpt>
      <trkpt lat="45.1556" lon="0.6391">
        <ele>187</ele>
        <time>2018-05-03T13:03:31Z</time>
      </trkpt>
      <trkpt lat="45.15564" lon="0.63916">
        <ele>189</ele>
        <time>2018-05-03T13:03:35Z</time>
      </trkpt>
      <trkpt lat="45.15568" lon="0.6392">
        <ele>189</ele>
        <time>2018-05-03T13:03:38Z</time>
      </trkpt>
      <trkpt lat="45.1557" lon="0.63923">
        <ele>191</ele>
        <time>2018-05-03T13:03:40Z</time>
      </trkpt>
      <trkpt lat="45.15573" lon="0.63925">
        <ele>191</ele>
        <time>2018-05-03T13:03:42Z</time>
      </trkpt>
      <trkpt lat="45.15575" lon="0.63928">
        <ele>191</ele>
        <time>2018-05-03T13:03:44Z</time>
      </trkpt>
      <trkpt lat="45.15579" lon="0.63933">
        <ele>191</ele>
        <time>2018-05-03T13:03:47Z</time>
      </trkpt>
      <trkpt lat="45.15582" lon="0.63938">
        <ele>192</ele>
        <time>2018-05-03T13:03:50Z</time>
      </trkpt>
      <trkpt lat="45.15585" lon="0.63942">
        <ele>192</ele>
        <time>2018-05-03T13:03:53Z</time>
      </trkpt>
      <trkpt lat="45.15588" lon="0.63945">
        <ele>192</ele>
        <time>2018-05-03T13:03:55Z</time>
      </trkpt>
      <trkpt lat="45.15592" lon="0.63949">
        <ele>191</ele>
        <time>2018-05-03T13:03:58Z</time>
      </trkpt>
      <trkpt lat="45.15597" lon="0.63953">
        <ele>192</ele>
        <time>2018-05-03T13:04:01Z</time>
      </trkpt>
      <trkpt lat="45.156" lon="0.63956">
        <ele>192</ele>
        <time>2018-05-03T13:04:03Z</time>
      </trkpt>
      <trkpt lat="45.15604" lon="0.63961">
        <ele>194</ele>
        <time>2018-05-03T13:04:06Z</time>
      </trkpt>
      <trkpt lat="45.15608" lon="0.63964">
        <ele>193</ele>
        <time>2018-05-03T13:04:09Z</time>
      </trkpt>
      <trkpt lat="45.15612" lon="0.63967">
        <ele>193</ele>
        <time>2018-05-03T13:04:12Z</time>
      </trkpt>
      <trkpt lat="45.15615" lon="0.63969">
        <ele>194</ele>
        <time>2018-05-03T13:04:14Z</time>
      </trkpt>
      <trkpt lat="45.15618" lon="0.63971">
        <ele>192</ele>
        <time>2018-05-03T13:04:16Z</time>
      </trkpt>
      <trkpt lat="45.15621" lon="0.63973">
        <ele>191</ele>
        <time>2018-05-03T13:04:18Z</time>
      </trkpt>
      <trkpt lat="45.15624" lon="0.63975">
        <ele>191</ele>
        <time>2018-05-03T13:04:20Z</time>
      </trkpt>
      <trkpt lat="45.15627" lon="0.63976">
        <ele>191</ele>
        <time>2018-05-03T13:04:22Z</time>
      </trkpt>
      <trkpt lat="45.15631" lon="0.6398">
        <ele>191</ele>
        <time>2018-05-03T13:04:25Z</time>
      </trkpt>
      <trkpt lat="45.15635" lon="0.63984">
        <ele>190</ele>
        <time>2018-05-03T13:04:28Z</time>
      </trkpt>
      <trkpt lat="45.15642" lon="0.63989">
        <ele>191</ele>
        <time>2018-05-03T13:04:32Z</time>
      </trkpt>
      <trkpt lat="45.15647" lon="0.63991">
        <ele>191</ele>
        <time>2018-05-03T13:04:35Z</time>
      </trkpt>
      <trkpt lat="45.15651" lon="0.63992">
        <ele>191</ele>
        <time>2018-05-03T13:04:37Z</time>
      </trkpt>
      <trkpt lat="45.15658" lon="0.63996">
        <ele>193</ele>
        <time>2018-05-03T13:04:41Z</time>
      </trkpt>
      <trkpt lat="45.15663" lon="0.63997">
        <ele>192</ele>
        <time>2018-05-03T13:04:44Z</time>
      </trkpt>
      <trkpt lat="45.1567" lon="0.63997">
        <ele>192</ele>
        <time>2018-05-03T13:04:47Z</time>
      </trkpt>
      <trkpt lat="45.15676" lon="0.63998">
        <ele>193</ele>
        <time>2018-05-03T13:04:50Z</time>
      </trkpt>
      <trkpt lat="45.15679" lon="0.63999">
        <ele>194</ele>
        <time>2018-05-03T13:04:52Z</time>
      </trkpt>
      <trkpt lat="45.15683" lon="0.64">
        <ele>194</ele>
        <time>2018-05-03T13:04:54Z</time>
      </trkpt>
      <trkpt lat="45.15688" lon="0.64001">
        <ele>195</ele>
        <time>2018-05-03T13:04:56Z</time>
      </trkpt>
      <trkpt lat="45.15694" lon="0.64004">
        <ele>195</ele>
        <time>2018-05-03T13:04:59Z</time>
      </trkpt>
      <trkpt lat="45.15701" lon="0.64007">
        <ele>196</ele>
        <time>2018-05-03T13:05:03Z</time>
      </trkpt>
      <trkpt lat="45.15705" lon="0.64008">
        <ele>198</ele>
        <time>2018-05-03T13:05:05Z</time>
      </trkpt>
      <trkpt lat="45.15708" lon="0.6401">
        <ele>198</ele>
        <time>2018-05-03T13:05:07Z</time>
      </trkpt>
      <trkpt lat="45.15712" lon="0.64011">
        <ele>198</ele>
        <time>2018-05-03T13:05:09Z</time>
      </trkpt>
      <trkpt lat="45.15718" lon="0.64012">
        <ele>199</ele>
        <time>2018-05-03T13:05:12Z</time>
      </trkpt>
      <trkpt lat="45.15723" lon="0.64012">
        <ele>199</ele>
        <time>2018-05-03T13:05:15Z</time>
      </trkpt>
      <trkpt lat="45.15727" lon="0.64012">
        <ele>199</ele>
        <time>2018-05-03T13:05:17Z</time>
      </trkpt>
      <trkpt lat="45.15733" lon="0.64013">
        <ele>198</ele>
        <time>2018-05-03T13:05:20Z</time>
      </trkpt>
      <trkpt lat="45.15737" lon="0.64014">
        <ele>198</ele>
        <time>2018-05-03T13:05:22Z</time>
      </trkpt>
      <trkpt lat="45.15741" lon="0.64015">
        <ele>198</ele>
        <time>2018-05-03T13:05:24Z</time>
      </trkpt>
      <trkpt lat="45.15748" lon="0.64017">
        <ele>200</ele>
        <time>2018-05-03T13:05:28Z</time>
      </trkpt>
      <trkpt lat="45.15756" lon="0.64019">
        <ele>199</ele>
        <time>2018-05-03T13:05:32Z</time>
      </trkpt>
      <trkpt lat="45.1576" lon="0.6402">
        <ele>198</ele>
        <time>2018-05-03T13:05:34Z</time>
      </trkpt>
      <trkpt lat="45.15763" lon="0.64021">
        <ele>197</ele>
        <time>2018-05-03T13:05:36Z</time>
      </trkpt>
      <trkpt lat="45.15793" lon="0.64027">
        <ele>198</ele>
        <time>2018-05-03T13:05:54Z</time>
      </trkpt>
      <trkpt lat="45.15796" lon="0.64028">
        <ele>199</ele>
        <time>2018-05-03T13:05:56Z</time>
      </trkpt>
      <trkpt lat="45.15803" lon="0.6403">
        <ele>198</ele>
        <time>2018-05-03T13:06:00Z</time>
      </trkpt>
      <trkpt lat="45.15806" lon="0.64032">
        <ele>198</ele>
        <time>2018-05-03T13:06:02Z</time>
      </trkpt>
      <trkpt lat="45.15809" lon="0.64033">
        <ele>198</ele>
        <time>2018-05-03T13:06:04Z</time>
      </trkpt>
      <trkpt lat="45.15814" lon="0.64035">
        <ele>197</ele>
        <time>2018-05-03T13:06:07Z</time>
      </trkpt>
      <trkpt lat="45.15817" lon="0.64036">
        <ele>198</ele>
        <time>2018-05-03T13:06:09Z</time>
      </trkpt>
      <trkpt lat="45.15822" lon="0.64039">
        <ele>200</ele>
        <time>2018-05-03T13:06:12Z</time>
      </trkpt>
      <trkpt lat="45.15825" lon="0.6404">
        <ele>201</ele>
        <time>2018-05-03T13:06:14Z</time>
      </trkpt>
      <trkpt lat="45.15829" lon="0.64041">
        <ele>200</ele>
        <time>2018-05-03T13:06:16Z</time>
      </trkpt>
      <trkpt lat="45.15832" lon="0.64042">
        <ele>200</ele>
        <time>2018-05-03T13:06:18Z</time>
      </trkpt>
      <trkpt lat="45.15839" lon="0.64043">
        <ele>200</ele>
        <time>2018-05-03T13:06:21Z</time>
      </trkpt>
      <trkpt lat="45.15843" lon="0.64044">
        <ele>202</ele>
        <time>2018-05-03T13:06:23Z</time>
      </trkpt>
      <trkpt lat="45.1585" lon="0.64047">
        <ele>202</ele>
        <time>2018-05-03T13:06:27Z</time>
      </trkpt>
      <trkpt lat="45.15855" lon="0.64048">
        <ele>201</ele>
        <time>2018-05-03T13:06:30Z</time>
      </trkpt>
      <trkpt lat="45.15861" lon="0.64048">
        <ele>202</ele>
        <time>2018-05-03T13:06:33Z</time>
      </trkpt>
      <trkpt lat="45.15865" lon="0.64048">
        <ele>202</ele>
        <time>2018-05-03T13:06:35Z</time>
      </trkpt>
      <trkpt lat="45.1587" lon="0.64049">
        <ele>203</ele>
        <time>2018-05-03T13:06:38Z</time>
      </trkpt>
      <trkpt lat="45.15874" lon="0.6405">
        <ele>204</ele>
        <time>2018-05-03T13:06:40Z</time>
      </trkpt>
      <trkpt lat="45.1588" lon="0.64051">
        <ele>205</ele>
        <time>2018-05-03T13:06:43Z</time>
      </trkpt>
      <trkpt lat="45.15887" lon="0.64051">
        <ele>206</ele>
        <time>2018-05-03T13:06:47Z</time>
      </trkpt>
      <trkpt lat="45.15892" lon="0.64053">
        <ele>208</ele>
        <time>2018-05-03T13:06:50Z</time>
      </trkpt>
      <trkpt lat="45.15895" lon="0.64054">
        <ele>208</ele>
        <time>2018-05-03T13:06:52Z</time>
      </trkpt>
      <trkpt lat="45.15901" lon="0.64055">
        <ele>207</ele>
        <time>2018-05-03T13:06:55Z</time>
      </trkpt>
      <trkpt lat="45.15904" lon="0.64056">
        <ele>207</ele>
        <time>2018-05-03T13:06:57Z</time>
      </trkpt>
      <trkpt lat="45.15908" lon="0.64057">
        <ele>206</ele>
        <time>2018-05-03T13:06:59Z</time>
      </trkpt>
      <trkpt lat="45.15914" lon="0.64058">
        <ele>206</ele>
        <time>2018-05-03T13:07:03Z</time>
      </trkpt>
      <trkpt lat="45.15921" lon="0.64057">
        <ele>205</ele>
        <time>2018-05-03T13:07:07Z</time>
      </trkpt>
      <trkpt lat="45.15924" lon="0.64056">
        <ele>206</ele>
        <time>2018-05-03T13:07:09Z</time>
      </trkpt>
      <trkpt lat="45.15928" lon="0.64056">
        <ele>204</ele>
        <time>2018-05-03T13:07:11Z</time>
      </trkpt>
      <trkpt lat="45.15931" lon="0.64055">
        <ele>205</ele>
        <time>2018-05-03T13:07:13Z</time>
      </trkpt>
      <trkpt lat="45.15934" lon="0.64055">
        <ele>206</ele>
        <time>2018-05-03T13:07:15Z</time>
      </trkpt>
      <trkpt lat="45.1594" lon="0.64053">
        <ele>206</ele>
        <time>2018-05-03T13:07:19Z</time>
      </trkpt>
      <trkpt lat="45.15945" lon="0.64053">
        <ele>207</ele>
        <time>2018-05-03T13:07:22Z</time>
      </trkpt>
      <trkpt lat="45.15949" lon="0.64055">
        <ele>207</ele>
        <time>2018-05-03T13:07:25Z</time>
      </trkpt>
      <trkpt lat="45.15955" lon="0.6406">
        <ele>209</ele>
        <time>2018-05-03T13:07:29Z</time>
      </trkpt>
      <trkpt lat="45.15959" lon="0.64069">
        <ele>210</ele>
        <time>2018-05-03T13:07:33Z</time>
      </trkpt>
      <trkpt lat="45.15961" lon="0.64073">
        <ele>211</ele>
        <time>2018-05-03T13:07:35Z</time>
      </trkpt>
      <trkpt lat="45.15963" lon="0.6408">
        <ele>212</ele>
        <time>2018-05-03T13:07:38Z</time>
      </trkpt>
      <trkpt lat="45.15965" lon="0.6409">
        <ele>212</ele>
        <time>2018-05-03T13:07:42Z</time>
      </trkpt>
      <trkpt lat="45.15972" lon="0.64106">
        <ele>212</ele>
        <time>2018-05-03T13:07:49Z</time>
      </trkpt>
      <trkpt lat="45.15975" lon="0.64114">
        <ele>213</ele>
        <time>2018-05-03T13:07:52Z</time>
      </trkpt>
      <trkpt lat="45.15977" lon="0.64122">
        <ele>212</ele>
        <time>2018-05-03T13:07:56Z</time>
      </trkpt>
      <trkpt lat="45.15978" lon="0.64128">
        <ele>205</ele>
        <time>2018-05-03T13:07:59Z</time>
      </trkpt>
      <trkpt lat="45.15979" lon="0.64132">
        <ele>208</ele>
        <time>2018-05-03T13:08:01Z</time>
      </trkpt>
      <trkpt lat="45.1598" lon="0.64138">
        <ele>211</ele>
        <time>2018-05-03T13:08:04Z</time>
      </trkpt>
      <trkpt lat="45.1598" lon="0.64146">
        <ele>209</ele>
        <time>2018-05-03T13:08:08Z</time>
      </trkpt>
      <trkpt lat="45.15982" lon="0.64152">
        <ele>210</ele>
        <time>2018-05-03T13:08:11Z</time>
      </trkpt>
      <trkpt lat="45.15985" lon="0.64158">
        <ele>211</ele>
        <time>2018-05-03T13:08:14Z</time>
      </trkpt>
      <trkpt lat="45.15987" lon="0.64164">
        <ele>212</ele>
        <time>2018-05-03T13:08:17Z</time>
      </trkpt>
      <trkpt lat="45.15988" lon="0.64169">
        <ele>213</ele>
        <time>2018-05-03T13:08:21Z</time>
      </trkpt>
      <trkpt lat="45.1599" lon="0.64172">
        <ele>213</ele>
        <time>2018-05-03T13:08:22Z</time>
      </trkpt>
      <trkpt lat="45.15991" lon="0.64176">
        <ele>214</ele>
        <time>2018-05-03T13:08:24Z</time>
      </trkpt>
      <trkpt lat="45.15993" lon="0.64184">
        <ele>215</ele>
        <time>2018-05-03T13:08:28Z</time>
      </trkpt>
      <trkpt lat="45.15995" lon="0.6419">
        <ele>215</ele>
        <time>2018-05-03T13:08:31Z</time>
      </trkpt>
      <trkpt lat="45.15997" lon="0.64195">
        <ele>215</ele>
        <time>2018-05-03T13:08:33Z</time>
      </trkpt>
      <trkpt lat="45.15998" lon="0.64199">
        <ele>216</ele>
        <time>2018-05-03T13:08:35Z</time>
      </trkpt>
      <trkpt lat="45.16" lon="0.6421">
        <ele>205</ele>
        <time>2018-05-03T13:08:41Z</time>
      </trkpt>
      <trkpt lat="45.16002" lon="0.64216">
        <ele>210</ele>
        <time>2018-05-03T13:08:44Z</time>
      </trkpt>
      <trkpt lat="45.16003" lon="0.64223">
        <ele>213</ele>
        <time>2018-05-03T13:08:47Z</time>
      </trkpt>
      <trkpt lat="45.16004" lon="0.64233">
        <ele>201</ele>
        <time>2018-05-03T13:08:52Z</time>
      </trkpt>
      <trkpt lat="45.16005" lon="0.6424">
        <ele>209</ele>
        <time>2018-05-03T13:08:55Z</time>
      </trkpt>
      <trkpt lat="45.16005" lon="0.64247">
        <ele>201</ele>
        <time>2018-05-03T13:08:58Z</time>
      </trkpt>
      <trkpt lat="45.16007" lon="0.64254">
        <ele>207</ele>
        <time>2018-05-03T13:09:01Z</time>
      </trkpt>
      <trkpt lat="45.16011" lon="0.64262">
        <ele>211</ele>
        <time>2018-05-03T13:09:04Z</time>
      </trkpt>
      <trkpt lat="45.16013" lon="0.64269">
        <ele>213</ele>
        <time>2018-05-03T13:09:07Z</time>
      </trkpt>
      <trkpt lat="45.16015" lon="0.64276">
        <ele>214</ele>
        <time>2018-05-03T13:09:10Z</time>
      </trkpt>
      <trkpt lat="45.16016" lon="0.64281">
        <ele>215</ele>
        <time>2018-05-03T13:09:12Z</time>
      </trkpt>
      <trkpt lat="45.16018" lon="0.64286">
        <ele>215</ele>
        <time>2018-05-03T13:09:14Z</time>
      </trkpt>
      <trkpt lat="45.16018" lon="0.64291">
        <ele>216</ele>
        <time>2018-05-03T13:09:16Z</time>
      </trkpt>
      <trkpt lat="45.16018" lon="0.64298">
        <ele>217</ele>
        <time>2018-05-03T13:09:19Z</time>
      </trkpt>
      <trkpt lat="45.16019" lon="0.64303">
        <ele>217</ele>
        <time>2018-05-03T13:09:21Z</time>
      </trkpt>
      <trkpt lat="45.16021" lon="0.6431">
        <ele>218</ele>
        <time>2018-05-03T13:09:24Z</time>
      </trkpt>
      <trkpt lat="45.16019" lon="0.64317">
        <ele>219</ele>
        <time>2018-05-03T13:09:27Z</time>
      </trkpt>
      <trkpt lat="45.1602" lon="0.64325">
        <ele>221</ele>
        <time>2018-05-03T13:09:30Z</time>
      </trkpt>
      <trkpt lat="45.16022" lon="0.64332">
        <ele>222</ele>
        <time>2018-05-03T13:09:33Z</time>
      </trkpt>
      <trkpt lat="45.16024" lon="0.64338">
        <ele>224</ele>
        <time>2018-05-03T13:09:36Z</time>
      </trkpt>
      <trkpt lat="45.16025" lon="0.64342">
        <ele>224</ele>
        <time>2018-05-03T13:09:38Z</time>
      </trkpt>
      <trkpt lat="45.16026" lon="0.64346">
        <ele>225</ele>
        <time>2018-05-03T13:09:40Z</time>
      </trkpt>
      <trkpt lat="45.16028" lon="0.64351">
        <ele>225</ele>
        <time>2018-05-03T13:09:43Z</time>
      </trkpt>
      <trkpt lat="45.16031" lon="0.64358">
        <ele>223</ele>
        <time>2018-05-03T13:09:46Z</time>
      </trkpt>
      <trkpt lat="45.16032" lon="0.64363">
        <ele>223</ele>
        <time>2018-05-03T13:09:48Z</time>
      </trkpt>
      <trkpt lat="45.16034" lon="0.64368">
        <ele>223</ele>
        <time>2018-05-03T13:09:50Z</time>
      </trkpt>
      <trkpt lat="45.16035" lon="0.64372">
        <ele>224</ele>
        <time>2018-05-03T13:09:52Z</time>
      </trkpt>
      <trkpt lat="45.16037" lon="0.64377">
        <ele>224</ele>
        <time>2018-05-03T13:09:54Z</time>
      </trkpt>
      <trkpt lat="45.1604" lon="0.64385">
        <ele>224</ele>
        <time>2018-05-03T13:09:58Z</time>
      </trkpt>
      <trkpt lat="45.16045" lon="0.64393">
        <ele>225</ele>
        <time>2018-05-03T13:10:02Z</time>
      </trkpt>
      <trkpt lat="45.16048" lon="0.64397">
        <ele>225</ele>
        <time>2018-05-03T13:10:04Z</time>
      </trkpt>
      <trkpt lat="45.1605" lon="0.64402">
        <ele>209</ele>
        <time>2018-05-03T13:10:06Z</time>
      </trkpt>
      <trkpt lat="45.16054" lon="0.64407">
        <ele>215</ele>
        <time>2018-05-03T13:10:08Z</time>
      </trkpt>
      <trkpt lat="45.16056" lon="0.64413">
        <ele>218</ele>
        <time>2018-05-03T13:10:10Z</time>
      </trkpt>
      <trkpt lat="45.16058" lon="0.64415">
        <ele>218</ele>
        <time>2018-05-03T13:10:11Z</time>
      </trkpt>
      <trkpt lat="45.16063" lon="0.64425">
        <ele>223</ele>
        <time>2018-05-03T13:10:15Z</time>
      </trkpt>
      <trkpt lat="45.16066" lon="0.64431">
        <ele>217</ele>
        <time>2018-05-03T13:10:17Z</time>
      </trkpt>
      <trkpt lat="45.16067" lon="0.64434">
        <ele>219</ele>
        <time>2018-05-03T13:10:18Z</time>
      </trkpt>
      <trkpt lat="45.16069" lon="0.64437">
        <ele>222</ele>
        <time>2018-05-03T13:10:19Z</time>
      </trkpt>
      <trkpt lat="45.1607" lon="0.6444">
        <ele>224</ele>
        <time>2018-05-03T13:10:20Z</time>
      </trkpt>
      <trkpt lat="45.16072" lon="0.64443">
        <ele>225</ele>
        <time>2018-05-03T13:10:21Z</time>
      </trkpt>
      <trkpt lat="45.16074" lon="0.64446">
        <ele>226</ele>
        <time>2018-05-03T13:10:22Z</time>
      </trkpt>
      <trkpt lat="45.16076" lon="0.6445">
        <ele>226</ele>
        <time>2018-05-03T13:10:23Z</time>
      </trkpt>
      <trkpt lat="45.1608" lon="0.64456">
        <ele>228</ele>
        <time>2018-05-03T13:10:25Z</time>
      </trkpt>
      <trkpt lat="45.16082" lon="0.64459">
        <ele>228</ele>
        <time>2018-05-03T13:10:26Z</time>
      </trkpt>
      <trkpt lat="45.16085" lon="0.64463">
        <ele>228</ele>
        <time>2018-05-03T13:10:27Z</time>
      </trkpt>
      <trkpt lat="45.16093" lon="0.64475">
        <ele>229</ele>
        <time>2018-05-03T13:10:30Z</time>
      </trkpt>
      <trkpt lat="45.16096" lon="0.64479">
        <ele>229</ele>
        <time>2018-05-03T13:10:31Z</time>
      </trkpt>
      <trkpt lat="45.16099" lon="0.64484">
        <ele>229</ele>
        <time>2018-05-03T13:10:32Z</time>
      </trkpt>
      <trkpt lat="45.16106" lon="0.64492">
        <ele>229</ele>
        <time>2018-05-03T13:10:34Z</time>
      </trkpt>
      <trkpt lat="45.16109" lon="0.64499">
        <ele>230</ele>
        <time>2018-05-03T13:10:35Z</time>
      </trkpt>
      <trkpt lat="45.16112" lon="0.64505">
        <ele>230</ele>
        <time>2018-05-03T13:10:36Z</time>
      </trkpt>
      <trkpt lat="45.16116" lon="0.6451">
        <ele>229</ele>
        <time>2018-05-03T13:10:37Z</time>
      </trkpt>
      <trkpt lat="45.16121" lon="0.64515">
        <ele>229</ele>
        <time>2018-05-03T13:10:38Z</time>
      </trkpt>
      <trkpt lat="45.16124" lon="0.64522">
        <ele>229</ele>
        <time>2018-05-03T13:10:39Z</time>
      </trkpt>
      <trkpt lat="45.16127" lon="0.6453">
        <ele>228</ele>
        <time>2018-05-03T13:10:40Z</time>
      </trkpt>
      <trkpt lat="45.16132" lon="0.64537">
        <ele>228</ele>
        <time>2018-05-03T13:10:41Z</time>
      </trkpt>
      <trkpt lat="45.1615" lon="0.64568">
        <ele>225</ele>
        <time>2018-05-03T13:10:45Z</time>
      </trkpt>
      <trkpt lat="45.16156" lon="0.64577">
        <ele>225</ele>
        <time>2018-05-03T13:10:46Z</time>
      </trkpt>
      <trkpt lat="45.16161" lon="0.64585">
        <ele>222</ele>
        <time>2018-05-03T13:10:47Z</time>
      </trkpt>
      <trkpt lat="45.16166" lon="0.64594">
        <ele>221</ele>
        <time>2018-05-03T13:10:48Z</time>
      </trkpt>
      <trkpt lat="45.16172" lon="0.64603">
        <ele>221</ele>
        <time>2018-05-03T13:10:49Z</time>
      </trkpt>
      <trkpt lat="45.16191" lon="0.64642">
        <ele>219</ele>
        <time>2018-05-03T13:10:53Z</time>
      </trkpt>
      <trkpt lat="45.16196" lon="0.6465">
        <ele>218</ele>
        <time>2018-05-03T13:10:54Z</time>
      </trkpt>
      <trkpt lat="45.16207" lon="0.64677">
        <ele>219</ele>
        <time>2018-05-03T13:10:57Z</time>
      </trkpt>
      <trkpt lat="45.16214" lon="0.64707">
        <ele>218</ele>
        <time>2018-05-03T13:11:00Z</time>
      </trkpt>
      <trkpt lat="45.16216" lon="0.64718">
        <ele>165</ele>
        <time>2018-05-03T13:11:01Z</time>
      </trkpt>
      <trkpt lat="45.16224" lon="0.64748">
        <ele>197</ele>
        <time>2018-05-03T13:11:04Z</time>
      </trkpt>
      <trkpt lat="45.16228" lon="0.6476">
        <ele>200</ele>
        <time>2018-05-03T13:11:05Z</time>
      </trkpt>
      <trkpt lat="45.1623" lon="0.64771">
        <ele>205</ele>
        <time>2018-05-03T13:11:06Z</time>
      </trkpt>
      <trkpt lat="45.16233" lon="0.64779">
        <ele>208</ele>
        <time>2018-05-03T13:11:07Z</time>
      </trkpt>
      <trkpt lat="45.1624" lon="0.64799">
        <ele>210</ele>
        <time>2018-05-03T13:11:09Z</time>
      </trkpt>
      <trkpt lat="45.16252" lon="0.64829">
        <ele>212</ele>
        <time>2018-05-03T13:11:12Z</time>
      </trkpt>
      <trkpt lat="45.16257" lon="0.64838">
        <ele>213</ele>
        <time>2018-05-03T13:11:13Z</time>
      </trkpt>
      <trkpt lat="45.1626" lon="0.64848">
        <ele>214</ele>
        <time>2018-05-03T13:11:14Z</time>
      </trkpt>
      <trkpt lat="45.16263" lon="0.64857">
        <ele>214</ele>
        <time>2018-05-03T13:11:15Z</time>
      </trkpt>
      <trkpt lat="45.16265" lon="0.64866">
        <ele>215</ele>
        <time>2018-05-03T13:11:16Z</time>
      </trkpt>
      <trkpt lat="45.16267" lon="0.64874">
        <ele>215</ele>
        <time>2018-05-03T13:11:17Z</time>
      </trkpt>
      <trkpt lat="45.16273" lon="0.6491">
        <ele>216</ele>
        <time>2018-05-03T13:11:21Z</time>
      </trkpt>
      <trkpt lat="45.16268" lon="0.64917">
        <ele>217</ele>
        <time>2018-05-03T13:11:23Z</time>
      </trkpt>
      <trkpt lat="45.16268" lon="0.64933">
        <ele>217</ele>
        <time>2018-05-03T13:11:24Z</time>
      </trkpt>
      <trkpt lat="45.16268" lon="0.64941">
        <ele>216</ele>
        <time>2018-05-03T13:11:25Z</time>
      </trkpt>
      <trkpt lat="45.16267" lon="0.64957">
        <ele>215</ele>
        <time>2018-05-03T13:11:27Z</time>
      </trkpt>
      <trkpt lat="45.16268" lon="0.64965">
        <ele>215</ele>
        <time>2018-05-03T13:11:28Z</time>
      </trkpt>
      <trkpt lat="45.16269" lon="0.64974">
        <ele>215</ele>
        <time>2018-05-03T13:11:29Z</time>
      </trkpt>
      <trkpt lat="45.16272" lon="0.64983">
        <ele>215</ele>
        <time>2018-05-03T13:11:30Z</time>
      </trkpt>
      <trkpt lat="45.16273" lon="0.64999">
        <ele>216</ele>
        <time>2018-05-03T13:11:32Z</time>
      </trkpt>
      <trkpt lat="45.16273" lon="0.65015">
        <ele>215</ele>
        <time>2018-05-03T13:11:34Z</time>
      </trkpt>
      <trkpt lat="45.16272" lon="0.65022">
        <ele>216</ele>
        <time>2018-05-03T13:11:35Z</time>
      </trkpt>
      <trkpt lat="45.16271" lon="0.65031">
        <ele>216</ele>
        <time>2018-05-03T13:11:36Z</time>
      </trkpt>
      <trkpt lat="45.16273" lon="0.65054">
        <ele>214</ele>
        <time>2018-05-03T13:11:39Z</time>
      </trkpt>
      <trkpt lat="45.16272" lon="0.65062">
        <ele>215</ele>
        <time>2018-05-03T13:11:40Z</time>
      </trkpt>
      <trkpt lat="45.16271" lon="0.65069">
        <ele>215</ele>
        <time>2018-05-03T13:11:41Z</time>
      </trkpt>
      <trkpt lat="45.16272" lon="0.65083">
        <ele>214</ele>
        <time>2018-05-03T13:11:43Z</time>
      </trkpt>
      <trkpt lat="45.16273" lon="0.65091">
        <ele>214</ele>
        <time>2018-05-03T13:11:44Z</time>
      </trkpt>
      <trkpt lat="45.16269" lon="0.65099">
        <ele>214</ele>
        <time>2018-05-03T13:11:45Z</time>
      </trkpt>
      <trkpt lat="45.16267" lon="0.65119">
        <ele>213</ele>
        <time>2018-05-03T13:11:48Z</time>
      </trkpt>
      <trkpt lat="45.16265" lon="0.6513">
        <ele>213</ele>
        <time>2018-05-03T13:11:50Z</time>
      </trkpt>
      <trkpt lat="45.16265" lon="0.65139">
        <ele>213</ele>
        <time>2018-05-03T13:11:52Z</time>
      </trkpt>
      <trkpt lat="45.16266" lon="0.6515">
        <ele>214</ele>
        <time>2018-05-03T13:11:54Z</time>
      </trkpt>
      <trkpt lat="45.16266" lon="0.65161">
        <ele>215</ele>
        <time>2018-05-03T13:11:56Z</time>
      </trkpt>
      <trkpt lat="45.16266" lon="0.65171">
        <ele>216</ele>
        <time>2018-05-03T13:11:58Z</time>
      </trkpt>
      <trkpt lat="45.16267" lon="0.65177">
        <ele>217</ele>
        <time>2018-05-03T13:12:00Z</time>
      </trkpt>
      <trkpt lat="45.16268" lon="0.65207">
        <ele>220</ele>
        <time>2018-05-03T13:12:06Z</time>
      </trkpt>
      <trkpt lat="45.16259" lon="0.65218">
        <ele>220</ele>
        <time>2018-05-03T13:12:09Z</time>
      </trkpt>
      <trkpt lat="45.16256" lon="0.65223">
        <ele>220</ele>
        <time>2018-05-03T13:12:10Z</time>
      </trkpt>
      <trkpt lat="45.16253" lon="0.65232">
        <ele>219</ele>
        <time>2018-05-03T13:12:12Z</time>
      </trkpt>
      <trkpt lat="45.16252" lon="0.65243">
        <ele>193</ele>
        <time>2018-05-03T13:12:15Z</time>
      </trkpt>
      <trkpt lat="45.16253" lon="0.65251">
        <ele>202</ele>
        <time>2018-05-03T13:12:17Z</time>
      </trkpt>
      <trkpt lat="45.16255" lon="0.65261">
        <ele>209</ele>
        <time>2018-05-03T13:12:19Z</time>
      </trkpt>
      <trkpt lat="45.16261" lon="0.6528">
        <ele>213</ele>
        <time>2018-05-03T13:12:23Z</time>
      </trkpt>
      <trkpt lat="45.16263" lon="0.6529">
        <ele>213</ele>
        <time>2018-05-03T13:12:25Z</time>
      </trkpt>
      <trkpt lat="45.16264" lon="0.65299">
        <ele>214</ele>
        <time>2018-05-03T13:12:27Z</time>
      </trkpt>
      <trkpt lat="45.16263" lon="0.65309">
        <ele>214</ele>
        <time>2018-05-03T13:12:29Z</time>
      </trkpt>
      <trkpt lat="45.16272" lon="0.65335">
        <ele>215</ele>
        <time>2018-05-03T13:12:34Z</time>
      </trkpt>
      <trkpt lat="45.16274" lon="0.65341">
        <ele>214</ele>
        <time>2018-05-03T13:12:36Z</time>
      </trkpt>
      <trkpt lat="45.1628" lon="0.65351">
        <ele>189</ele>
        <time>2018-05-03T13:12:37Z</time>
      </trkpt>
      <trkpt lat="45.16283" lon="0.65355">
        <ele>197</ele>
        <time>2018-05-03T13:12:38Z</time>
      </trkpt>
      <trkpt lat="45.16285" lon="0.65359">
        <ele>202</ele>
        <time>2018-05-03T13:12:39Z</time>
      </trkpt>
      <trkpt lat="45.16287" lon="0.65364">
        <ele>205</ele>
        <time>2018-05-03T13:12:41Z</time>
      </trkpt>
      <trkpt lat="45.16295" lon="0.65378">
        <ele>211</ele>
        <time>2018-05-03T13:12:43Z</time>
      </trkpt>
      <trkpt lat="45.16297" lon="0.65383">
        <ele>212</ele>
        <time>2018-05-03T13:12:44Z</time>
      </trkpt>
      <trkpt lat="45.163" lon="0.65388">
        <ele>213</ele>
        <time>2018-05-03T13:12:45Z</time>
      </trkpt>
      <trkpt lat="45.16302" lon="0.65392">
        <ele>213</ele>
        <time>2018-05-03T13:12:46Z</time>
      </trkpt>
      <trkpt lat="45.16309" lon="0.65406">
        <ele>213</ele>
        <time>2018-05-03T13:12:49Z</time>
      </trkpt>
      <trkpt lat="45.16311" lon="0.6541">
        <ele>213</ele>
        <time>2018-05-03T13:12:50Z</time>
      </trkpt>
      <trkpt lat="45.16313" lon="0.65415">
        <ele>214</ele>
        <time>2018-05-03T13:12:51Z</time>
      </trkpt>
      <trkpt lat="45.16316" lon="0.65419">
        <ele>215</ele>
        <time>2018-05-03T13:12:52Z</time>
      </trkpt>
      <trkpt lat="45.16324" lon="0.65436">
        <ele>214</ele>
        <time>2018-05-03T13:12:56Z</time>
      </trkpt>
      <trkpt lat="45.16327" lon="0.65444">
        <ele>215</ele>
        <time>2018-05-03T13:12:58Z</time>
      </trkpt>
      <trkpt lat="45.16336" lon="0.6547">
        <ele>216</ele>
        <time>2018-05-03T13:13:04Z</time>
      </trkpt>
      <trkpt lat="45.16337" lon="0.65474">
        <ele>216</ele>
        <time>2018-05-03T13:13:05Z</time>
      </trkpt>
      <trkpt lat="45.16338" lon="0.65478">
        <ele>215</ele>
        <time>2018-05-03T13:13:06Z</time>
      </trkpt>
      <trkpt lat="45.1634" lon="0.65483">
        <ele>215</ele>
        <time>2018-05-03T13:13:07Z</time>
      </trkpt>
      <trkpt lat="45.16343" lon="0.65492">
        <ele>214</ele>
        <time>2018-05-03T13:13:09Z</time>
      </trkpt>
      <trkpt lat="45.16344" lon="0.65496">
        <ele>214</ele>
        <time>2018-05-03T13:13:10Z</time>
      </trkpt>
      <trkpt lat="45.16345" lon="0.655">
        <ele>213</ele>
        <time>2018-05-03T13:13:11Z</time>
      </trkpt>
      <trkpt lat="45.16349" lon="0.65512">
        <ele>212</ele>
        <time>2018-05-03T13:13:14Z</time>
      </trkpt>
      <trkpt lat="45.16351" lon="0.65521">
        <ele>214</ele>
        <time>2018-05-03T13:13:16Z</time>
      </trkpt>
      <trkpt lat="45.16353" lon="0.65531">
        <ele>214</ele>
        <time>2018-05-03T13:13:18Z</time>
      </trkpt>
      <trkpt lat="45.16354" lon="0.65535">
        <ele>215</ele>
        <time>2018-05-03T13:13:19Z</time>
      </trkpt>
      <trkpt lat="45.16356" lon="0.65541">
        <ele>214</ele>
        <time>2018-05-03T13:13:20Z</time>
      </trkpt>
      <trkpt lat="45.16358" lon="0.65546">
        <ele>215</ele>
        <time>2018-05-03T13:13:21Z</time>
      </trkpt>
      <trkpt lat="45.16366" lon="0.65556">
        <ele>214</ele>
        <time>2018-05-03T13:13:23Z</time>
      </trkpt>
      <trkpt lat="45.16369" lon="0.65561">
        <ele>214</ele>
        <time>2018-05-03T13:13:24Z</time>
      </trkpt>
      <trkpt lat="45.16373" lon="0.65565">
        <ele>214</ele>
        <time>2018-05-03T13:13:25Z</time>
      </trkpt>
      <trkpt lat="45.16375" lon="0.65571">
        <ele>214</ele>
        <time>2018-05-03T13:13:26Z</time>
      </trkpt>
      <trkpt lat="45.16376" lon="0.65592">
        <ele>216</ele>
        <time>2018-05-03T13:13:30Z</time>
      </trkpt>
      <trkpt lat="45.16376" lon="0.65598">
        <ele>216</ele>
        <time>2018-05-03T13:13:31Z</time>
      </trkpt>
      <trkpt lat="45.16378" lon="0.6561">
        <ele>217</ele>
        <time>2018-05-03T13:13:33Z</time>
      </trkpt>
      <trkpt lat="45.16383" lon="0.65633">
        <ele>216</ele>
        <time>2018-05-03T13:13:36Z</time>
      </trkpt>
      <trkpt lat="45.16385" lon="0.65641">
        <ele>216</ele>
        <time>2018-05-03T13:13:37Z</time>
      </trkpt>
      <trkpt lat="45.16386" lon="0.65648">
        <ele>216</ele>
        <time>2018-05-03T13:13:38Z</time>
      </trkpt>
      <trkpt lat="45.16388" lon="0.65656">
        <ele>216</ele>
        <time>2018-05-03T13:13:39Z</time>
      </trkpt>
      <trkpt lat="45.16392" lon="0.65672">
        <ele>216</ele>
        <time>2018-05-03T13:13:41Z</time>
      </trkpt>
      <trkpt lat="45.1639" lon="0.6568">
        <ele>217</ele>
        <time>2018-05-03T13:13:42Z</time>
      </trkpt>
      <trkpt lat="45.16387" lon="0.65689">
        <ele>216</ele>
        <time>2018-05-03T13:13:43Z</time>
      </trkpt>
      <trkpt lat="45.1639" lon="0.65699">
        <ele>216</ele>
        <time>2018-05-03T13:13:44Z</time>
      </trkpt>
      <trkpt lat="45.16395" lon="0.65719">
        <ele>215</ele>
        <time>2018-05-03T13:13:46Z</time>
      </trkpt>
      <trkpt lat="45.1639" lon="0.65728">
        <ele>214</ele>
        <time>2018-05-03T13:13:47Z</time>
      </trkpt>
      <trkpt lat="45.164" lon="0.65742">
        <ele>215</ele>
        <time>2018-05-03T13:13:48Z</time>
      </trkpt>
      <trkpt lat="45.16403" lon="0.65773">
        <ele>215</ele>
        <time>2018-05-03T13:13:50Z</time>
      </trkpt>
      <trkpt lat="45.16394" lon="0.65785">
        <ele>213</ele>
        <time>2018-05-03T13:13:51Z</time>
      </trkpt>
      <trkpt lat="45.16397" lon="0.65798">
        <ele>211</ele>
        <time>2018-05-03T13:13:52Z</time>
      </trkpt>
      <trkpt lat="45.16399" lon="0.65814">
        <ele>211</ele>
        <time>2018-05-03T13:13:53Z</time>
      </trkpt>
      <trkpt lat="45.16398" lon="0.65827">
        <ele>209</ele>
        <time>2018-05-03T13:13:54Z</time>
      </trkpt>
      <trkpt lat="45.16398" lon="0.65882">
        <ele>211</ele>
        <time>2018-05-03T13:13:58Z</time>
      </trkpt>
      <trkpt lat="45.164" lon="0.65907">
        <ele>210</ele>
        <time>2018-05-03T13:14:00Z</time>
      </trkpt>
      <trkpt lat="45.16399" lon="0.65918">
        <ele>211</ele>
        <time>2018-05-03T13:14:01Z</time>
      </trkpt>
      <trkpt lat="45.16403" lon="0.65922">
        <ele>210</ele>
        <time>2018-05-03T13:14:02Z</time>
      </trkpt>
      <trkpt lat="45.16405" lon="0.65928">
        <ele>211</ele>
        <time>2018-05-03T13:14:03Z</time>
      </trkpt>
      <trkpt lat="45.16404" lon="0.65943">
        <ele>214</ele>
        <time>2018-05-03T13:14:06Z</time>
      </trkpt>
      <trkpt lat="45.16402" lon="0.65962">
        <ele>215</ele>
        <time>2018-05-03T13:14:09Z</time>
      </trkpt>
      <trkpt lat="45.16405" lon="0.65968">
        <ele>213</ele>
        <time>2018-05-03T13:14:11Z</time>
      </trkpt>
      <trkpt lat="45.16401" lon="0.65977">
        <ele>214</ele>
        <time>2018-05-03T13:14:13Z</time>
      </trkpt>
      <trkpt lat="45.16404" lon="0.65985">
        <ele>215</ele>
        <time>2018-05-03T13:14:17Z</time>
      </trkpt>
      <trkpt lat="45.16405" lon="0.65994">
        <ele>214</ele>
        <time>2018-05-03T13:14:20Z</time>
      </trkpt>
      <trkpt lat="45.16407" lon="0.66002">
        <ele>216</ele>
        <time>2018-05-03T13:14:23Z</time>
      </trkpt>
      <trkpt lat="45.16407" lon="0.66011">
        <ele>218</ele>
        <time>2018-05-03T13:14:26Z</time>
      </trkpt>
      <trkpt lat="45.16404" lon="0.66021">
        <ele>217</ele>
        <time>2018-05-03T13:14:30Z</time>
      </trkpt>
      <trkpt lat="45.16403" lon="0.66032">
        <ele>217</ele>
        <time>2018-05-03T13:14:34Z</time>
      </trkpt>
      <trkpt lat="45.16405" lon="0.66038">
        <ele>219</ele>
        <time>2018-05-03T13:14:37Z</time>
      </trkpt>
      <trkpt lat="45.16407" lon="0.66046">
        <ele>219</ele>
        <time>2018-05-03T13:14:40Z</time>
      </trkpt>
      <trkpt lat="45.16407" lon="0.66054">
        <ele>218</ele>
        <time>2018-05-03T13:14:43Z</time>
      </trkpt>
      <trkpt lat="45.16406" lon="0.66061">
        <ele>218</ele>
        <time>2018-05-03T13:14:46Z</time>
      </trkpt>
      <trkpt lat="45.16403" lon="0.66067">
        <ele>217</ele>
        <time>2018-05-03T13:14:49Z</time>
      </trkpt>
      <trkpt lat="45.16395" lon="0.66074">
        <ele>210</ele>
        <time>2018-05-03T13:14:53Z</time>
      </trkpt>
      <trkpt lat="45.16397" lon="0.66085">
        <ele>214</ele>
        <time>2018-05-03T13:14:58Z</time>
      </trkpt>
      <trkpt lat="45.16403" lon="0.66098">
        <ele>218</ele>
        <time>2018-05-03T13:15:03Z</time>
      </trkpt>
      <trkpt lat="45.16404" lon="0.661">
        <ele>218</ele>
        <time>2018-05-03T13:15:04Z</time>
      </trkpt>
      <trkpt lat="45.16405" lon="0.66108">
        <ele>217</ele>
        <time>2018-05-03T13:15:07Z</time>
      </trkpt>
      <trkpt lat="45.16405" lon="0.66108">
        <ele>217</ele>
        <time>2018-05-03T13:15:15Z</time>
      </trkpt>
      <trkpt lat="45.16405" lon="0.66108">
        <ele>174.1</ele>
        <time>2018-05-03T13:15:16Z</time>
      </trkpt>
      <trkpt lat="45.16405" lon="0.66108">
        <ele>174.1</ele>
        <time>2018-05-03T13:15:23Z</time>
      </trkpt>
      <trkpt lat="45.16404" lon="0.6613">
        <ele>221</ele>
        <time>2018-05-03T13:15:23Z</time>
      </trkpt>
      <trkpt lat="45.16402" lon="0.66139">
        <ele>219</ele>
        <time>2018-05-03T13:15:26Z</time>
      </trkpt>
      <trkpt lat="45.16402" lon="0.66147">
        <ele>221</ele>
        <time>2018-05-03T13:15:29Z</time>
      </trkpt>
      <trkpt lat="45.16403" lon="0.66156">
        <ele>220</ele>
        <time>2018-05-03T13:15:32Z</time>
      </trkpt>
      <trkpt lat="45.16404" lon="0.66163">
        <ele>221</ele>
        <time>2018-05-03T13:15:34Z</time>
      </trkpt>
      <trkpt lat="45.16404" lon="0.66175">
        <ele>222</ele>
        <time>2018-05-03T13:15:39Z</time>
      </trkpt>
      <trkpt lat="45.16404" lon="0.66184">
        <ele>224</ele>
        <time>2018-05-03T13:15:42Z</time>
      </trkpt>
      <trkpt lat="45.16404" lon="0.66192">
        <ele>224</ele>
        <time>2018-05-03T13:15:45Z</time>
      </trkpt>
      <trkpt lat="45.16402" lon="0.66201">
        <ele>224</ele>
        <time>2018-05-03T13:15:48Z</time>
      </trkpt>
      <trkpt lat="45.16401" lon="0.66207">
        <ele>226</ele>
        <time>2018-05-03T13:15:50Z</time>
      </trkpt>
      <trkpt lat="45.164" lon="0.6621">
        <ele>226</ele>
        <time>2018-05-03T13:15:51Z</time>
      </trkpt>
      <trkpt lat="45.16398" lon="0.6622">
        <ele>226</ele>
        <time>2018-05-03T13:15:55Z</time>
      </trkpt>
      <trkpt lat="45.16397" lon="0.66229">
        <ele>226</ele>
        <time>2018-05-03T13:15:58Z</time>
      </trkpt>
      <trkpt lat="45.16396" lon="0.66232">
        <ele>225</ele>
        <time>2018-05-03T13:15:59Z</time>
      </trkpt>
      <trkpt lat="45.16394" lon="0.66239">
        <ele>225</ele>
        <time>2018-05-03T13:16:01Z</time>
      </trkpt>
      <trkpt lat="45.16394" lon="0.66243">
        <ele>225</ele>
        <time>2018-05-03T13:16:02Z</time>
      </trkpt>
      <trkpt lat="45.16395" lon="0.66249">
        <ele>225</ele>
        <time>2018-05-03T13:16:05Z</time>
      </trkpt>
      <trkpt lat="45.16397" lon="0.66253">
        <ele>224</ele>
        <time>2018-05-03T13:16:07Z</time>
      </trkpt>
      <trkpt lat="45.16396" lon="0.66262">
        <ele>226</ele>
        <time>2018-05-03T13:16:10Z</time>
      </trkpt>
      <trkpt lat="45.16395" lon="0.66269">
        <ele>226</ele>
        <time>2018-05-03T13:16:13Z</time>
      </trkpt>
      <trkpt lat="45.16394" lon="0.66278">
        <ele>226</ele>
        <time>2018-05-03T13:16:16Z</time>
      </trkpt>
      <trkpt lat="45.16394" lon="0.66285">
        <ele>228</ele>
        <time>2018-05-03T13:16:20Z</time>
      </trkpt>
      <trkpt lat="45.16394" lon="0.66291">
        <ele>227</ele>
        <time>2018-05-03T13:16:23Z</time>
      </trkpt>
      <trkpt lat="45.16391" lon="0.66302">
        <ele>227</ele>
        <time>2018-05-03T13:16:27Z</time>
      </trkpt>
      <trkpt lat="45.16389" lon="0.66309">
        <ele>227</ele>
        <time>2018-05-03T13:16:29Z</time>
      </trkpt>
      <trkpt lat="45.16388" lon="0.66316">
        <ele>228</ele>
        <time>2018-05-03T13:16:31Z</time>
      </trkpt>
      <trkpt lat="45.16387" lon="0.66324">
        <ele>232</ele>
        <time>2018-05-03T13:16:34Z</time>
      </trkpt>
      <trkpt lat="45.16388" lon="0.66333">
        <ele>230</ele>
        <time>2018-05-03T13:16:37Z</time>
      </trkpt>
      <trkpt lat="45.16387" lon="0.66341">
        <ele>229</ele>
        <time>2018-05-03T13:16:40Z</time>
      </trkpt>
      <trkpt lat="45.16387" lon="0.66345">
        <ele>230</ele>
        <time>2018-05-03T13:16:42Z</time>
      </trkpt>
      <trkpt lat="45.16389" lon="0.66353">
        <ele>231</ele>
        <time>2018-05-03T13:16:45Z</time>
      </trkpt>
      <trkpt lat="45.1639" lon="0.66357">
        <ele>229</ele>
        <time>2018-05-03T13:16:46Z</time>
      </trkpt>
      <trkpt lat="45.16389" lon="0.66365">
        <ele>230</ele>
        <time>2018-05-03T13:16:49Z</time>
      </trkpt>
      <trkpt lat="45.16392" lon="0.66372">
        <ele>217</ele>
        <time>2018-05-03T13:16:53Z</time>
      </trkpt>
      <trkpt lat="45.16393" lon="0.6638">
        <ele>222</ele>
        <time>2018-05-03T13:16:56Z</time>
      </trkpt>
      <trkpt lat="45.16392" lon="0.66386">
        <ele>226</ele>
        <time>2018-05-03T13:16:58Z</time>
      </trkpt>
      <trkpt lat="45.16388" lon="0.66395">
        <ele>225</ele>
        <time>2018-05-03T13:17:01Z</time>
      </trkpt>
      <trkpt lat="45.16386" lon="0.66398">
        <ele>225</ele>
        <time>2018-05-03T13:17:02Z</time>
      </trkpt>
      <trkpt lat="45.16384" lon="0.66405">
        <ele>226</ele>
        <time>2018-05-03T13:17:04Z</time>
      </trkpt>
      <trkpt lat="45.16382" lon="0.66411">
        <ele>226</ele>
        <time>2018-05-03T13:17:06Z</time>
      </trkpt>
      <trkpt lat="45.1638" lon="0.66418">
        <ele>225</ele>
        <time>2018-05-03T13:17:09Z</time>
      </trkpt>
      <trkpt lat="45.16376" lon="0.66426">
        <ele>224</ele>
        <time>2018-05-03T13:17:12Z</time>
      </trkpt>
      <trkpt lat="45.16375" lon="0.66429">
        <ele>224</ele>
        <time>2018-05-03T13:17:13Z</time>
      </trkpt>
      <trkpt lat="45.16373" lon="0.66436">
        <ele>225</ele>
        <time>2018-05-03T13:17:15Z</time>
      </trkpt>
      <trkpt lat="45.16372" lon="0.6644">
        <ele>226</ele>
        <time>2018-05-03T13:17:16Z</time>
      </trkpt>
      <trkpt lat="45.1637" lon="0.66444">
        <ele>226</ele>
        <time>2018-05-03T13:17:17Z</time>
      </trkpt>
      <trkpt lat="45.16368" lon="0.66448">
        <ele>226</ele>
        <time>2018-05-03T13:17:18Z</time>
      </trkpt>
      <trkpt lat="45.16365" lon="0.66455">
        <ele>225</ele>
        <time>2018-05-03T13:17:20Z</time>
      </trkpt>
      <trkpt lat="45.16363" lon="0.66459">
        <ele>225</ele>
        <time>2018-05-03T13:17:21Z</time>
      </trkpt>
      <trkpt lat="45.1636" lon="0.66466">
        <ele>226</ele>
        <time>2018-05-03T13:17:23Z</time>
      </trkpt>
      <trkpt lat="45.16362" lon="0.66487">
        <ele>228</ele>
        <time>2018-05-03T13:17:27Z</time>
      </trkpt>
      <trkpt lat="45.16363" lon="0.66497">
        <ele>230</ele>
        <time>2018-05-03T13:17:29Z</time>
      </trkpt>
      <trkpt lat="45.16359" lon="0.66509">
        <ele>230</ele>
        <time>2018-05-03T13:17:31Z</time>
      </trkpt>
      <trkpt lat="45.16355" lon="0.66516">
        <ele>230</ele>
        <time>2018-05-03T13:17:32Z</time>
      </trkpt>
      <trkpt lat="45.16352" lon="0.66522">
        <ele>230</ele>
        <time>2018-05-03T13:17:33Z</time>
      </trkpt>
      <trkpt lat="45.16345" lon="0.66529">
        <ele>229</ele>
        <time>2018-05-03T13:17:34Z</time>
      </trkpt>
      <trkpt lat="45.16339" lon="0.66535">
        <ele>228</ele>
        <time>2018-05-03T13:17:35Z</time>
      </trkpt>
      <trkpt lat="45.16334" lon="0.66541">
        <ele>228</ele>
        <time>2018-05-03T13:17:36Z</time>
      </trkpt>
      <trkpt lat="45.16331" lon="0.66547">
        <ele>229</ele>
        <time>2018-05-03T13:17:37Z</time>
      </trkpt>
      <trkpt lat="45.16321" lon="0.66564">
        <ele>227</ele>
        <time>2018-05-03T13:17:40Z</time>
      </trkpt>
      <trkpt lat="45.16316" lon="0.66572">
        <ele>227</ele>
        <time>2018-05-03T13:17:41Z</time>
      </trkpt>
      <trkpt lat="45.16314" lon="0.66578">
        <ele>226</ele>
        <time>2018-05-03T13:17:42Z</time>
      </trkpt>
      <trkpt lat="45.16312" lon="0.66585">
        <ele>226</ele>
        <time>2018-05-03T13:17:43Z</time>
      </trkpt>
      <trkpt lat="45.16309" lon="0.66596">
        <ele>226</ele>
        <time>2018-05-03T13:17:45Z</time>
      </trkpt>
      <trkpt lat="45.16302" lon="0.66613">
        <ele>224</ele>
        <time>2018-05-03T13:17:48Z</time>
      </trkpt>
      <trkpt lat="45.16298" lon="0.66618">
        <ele>223</ele>
        <time>2018-05-03T13:17:49Z</time>
      </trkpt>
      <trkpt lat="45.16297" lon="0.66626">
        <ele>223</ele>
        <time>2018-05-03T13:17:51Z</time>
      </trkpt>
      <trkpt lat="45.16293" lon="0.66632">
        <ele>220</ele>
        <time>2018-05-03T13:17:52Z</time>
      </trkpt>
      <trkpt lat="45.16291" lon="0.66639">
        <ele>225</ele>
        <time>2018-05-03T13:17:55Z</time>
      </trkpt>
      <trkpt lat="45.1629" lon="0.66643">
        <ele>226</ele>
        <time>2018-05-03T13:17:57Z</time>
      </trkpt>
      <trkpt lat="45.16286" lon="0.66653">
        <ele>227</ele>
        <time>2018-05-03T13:18:01Z</time>
      </trkpt>
      <trkpt lat="45.16285" lon="0.66659">
        <ele>228</ele>
        <time>2018-05-03T13:18:04Z</time>
      </trkpt>
      <trkpt lat="45.16282" lon="0.66667">
        <ele>229</ele>
        <time>2018-05-03T13:18:08Z</time>
      </trkpt>
      <trkpt lat="45.16281" lon="0.66671">
        <ele>230</ele>
        <time>2018-05-03T13:18:10Z</time>
      </trkpt>
      <trkpt lat="45.1628" lon="0.66678">
        <ele>229</ele>
        <time>2018-05-03T13:18:14Z</time>
      </trkpt>
      <trkpt lat="45.1628" lon="0.66684">
        <ele>229</ele>
        <time>2018-05-03T13:18:17Z</time>
      </trkpt>
      <trkpt lat="45.16277" lon="0.66689">
        <ele>232</ele>
        <time>2018-05-03T13:18:20Z</time>
      </trkpt>
      <trkpt lat="45.16274" lon="0.66695">
        <ele>234</ele>
        <time>2018-05-03T13:18:23Z</time>
      </trkpt>
      <trkpt lat="45.16273" lon="0.667">
        <ele>236</ele>
        <time>2018-05-03T13:18:25Z</time>
      </trkpt>
      <trkpt lat="45.16272" lon="0.66703">
        <ele>236</ele>
        <time>2018-05-03T13:18:26Z</time>
      </trkpt>
      <trkpt lat="45.16269" lon="0.6671">
        <ele>237</ele>
        <time>2018-05-03T13:18:30Z</time>
      </trkpt>
      <trkpt lat="45.16267" lon="0.66718">
        <ele>239</ele>
        <time>2018-05-03T13:18:33Z</time>
      </trkpt>
      <trkpt lat="45.16265" lon="0.66722">
        <ele>240</ele>
        <time>2018-05-03T13:18:35Z</time>
      </trkpt>
      <trkpt lat="45.16264" lon="0.66725">
        <ele>241</ele>
        <time>2018-05-03T13:18:36Z</time>
      </trkpt>
      <trkpt lat="45.16262" lon="0.6673">
        <ele>240</ele>
        <time>2018-05-03T13:18:38Z</time>
      </trkpt>
      <trkpt lat="45.16258" lon="0.66736">
        <ele>240</ele>
        <time>2018-05-03T13:18:41Z</time>
      </trkpt>
      <trkpt lat="45.16257" lon="0.66742">
        <ele>239</ele>
        <time>2018-05-03T13:18:44Z</time>
      </trkpt>
      <trkpt lat="45.16256" lon="0.6675">
        <ele>240</ele>
        <time>2018-05-03T13:18:47Z</time>
      </trkpt>
      <trkpt lat="45.16255" lon="0.66756">
        <ele>239</ele>
        <time>2018-05-03T13:18:49Z</time>
      </trkpt>
      <trkpt lat="45.16256" lon="0.66766">
        <ele>238</ele>
        <time>2018-05-03T13:18:52Z</time>
      </trkpt>
      <trkpt lat="45.16255" lon="0.66769">
        <ele>238</ele>
        <time>2018-05-03T13:18:53Z</time>
      </trkpt>
      <trkpt lat="45.16255" lon="0.66772">
        <ele>238</ele>
        <time>2018-05-03T13:18:54Z</time>
      </trkpt>
      <trkpt lat="45.16255" lon="0.66776">
        <ele>238</ele>
        <time>2018-05-03T13:18:55Z</time>
      </trkpt>
      <trkpt lat="45.16254" lon="0.66783">
        <ele>238</ele>
        <time>2018-05-03T13:18:57Z</time>
      </trkpt>
      <trkpt lat="45.16252" lon="0.66791">
        <ele>238</ele>
        <time>2018-05-03T13:18:59Z</time>
      </trkpt>
      <trkpt lat="45.16247" lon="0.66801">
        <ele>240</ele>
        <time>2018-05-03T13:19:02Z</time>
      </trkpt>
      <trkpt lat="45.1624" lon="0.66806">
        <ele>239</ele>
        <time>2018-05-03T13:19:04Z</time>
      </trkpt>
      <trkpt lat="45.16234" lon="0.66806">
        <ele>240</ele>
        <time>2018-05-03T13:19:06Z</time>
      </trkpt>
      <trkpt lat="45.16228" lon="0.66804">
        <ele>238</ele>
        <time>2018-05-03T13:19:08Z</time>
      </trkpt>
      <trkpt lat="45.16222" lon="0.66802">
        <ele>238</ele>
        <time>2018-05-03T13:19:10Z</time>
      </trkpt>
      <trkpt lat="45.16211" lon="0.668">
        <ele>238</ele>
        <time>2018-05-03T13:19:14Z</time>
      </trkpt>
      <trkpt lat="45.16209" lon="0.668">
        <ele>238</ele>
        <time>2018-05-03T13:19:15Z</time>
      </trkpt>
      <trkpt lat="45.16206" lon="0.668">
        <ele>237</ele>
        <time>2018-05-03T13:19:16Z</time>
      </trkpt>
      <trkpt lat="45.16204" lon="0.66799">
        <ele>238</ele>
        <time>2018-05-03T13:19:17Z</time>
      </trkpt>
      <trkpt lat="45.16201" lon="0.66798">
        <ele>238</ele>
        <time>2018-05-03T13:19:18Z</time>
      </trkpt>
      <trkpt lat="45.16196" lon="0.66798">
        <ele>237</ele>
        <time>2018-05-03T13:19:20Z</time>
      </trkpt>
      <trkpt lat="45.16193" lon="0.66797">
        <ele>237</ele>
        <time>2018-05-03T13:19:21Z</time>
      </trkpt>
      <trkpt lat="45.1619" lon="0.66797">
        <ele>237</ele>
        <time>2018-05-03T13:19:22Z</time>
      </trkpt>
      <trkpt lat="45.16188" lon="0.66796">
        <ele>236</ele>
        <time>2018-05-03T13:19:23Z</time>
      </trkpt>
      <trkpt lat="45.16186" lon="0.66796">
        <ele>236</ele>
        <time>2018-05-03T13:19:24Z</time>
      </trkpt>
      <trkpt lat="45.16183" lon="0.66795">
        <ele>236</ele>
        <time>2018-05-03T13:19:26Z</time>
      </trkpt>
      <trkpt lat="45.16177" lon="0.66795">
        <ele>236</ele>
        <time>2018-05-03T13:19:27Z</time>
      </trkpt>
      <trkpt lat="45.16175" lon="0.66794">
        <ele>236</ele>
        <time>2018-05-03T13:19:28Z</time>
      </trkpt>
      <trkpt lat="45.16169" lon="0.66793">
        <ele>236</ele>
        <time>2018-05-03T13:19:30Z</time>
      </trkpt>
      <trkpt lat="45.16158" lon="0.66791">
        <ele>234</ele>
        <time>2018-05-03T13:19:34Z</time>
      </trkpt>
      <trkpt lat="45.16155" lon="0.66791">
        <ele>235</ele>
        <time>2018-05-03T13:19:35Z</time>
      </trkpt>
      <trkpt lat="45.16153" lon="0.6679">
        <ele>235</ele>
        <time>2018-05-03T13:19:36Z</time>
      </trkpt>
      <trkpt lat="45.16151" lon="0.6679">
        <ele>237</ele>
        <time>2018-05-03T13:19:37Z</time>
      </trkpt>
      <trkpt lat="45.16148" lon="0.6679">
        <ele>236</ele>
        <time>2018-05-03T13:19:38Z</time>
      </trkpt>
      <trkpt lat="45.16146" lon="0.6679">
        <ele>237</ele>
        <time>2018-05-03T13:19:39Z</time>
      </trkpt>
      <trkpt lat="45.16141" lon="0.6679">
        <ele>237</ele>
        <time>2018-05-03T13:19:42Z</time>
      </trkpt>
      <trkpt lat="45.16134" lon="0.66794">
        <ele>237</ele>
        <time>2018-05-03T13:19:44Z</time>
      </trkpt>
      <trkpt lat="45.16131" lon="0.66801">
        <ele>237</ele>
        <time>2018-05-03T13:19:47Z</time>
      </trkpt>
      <trkpt lat="45.16121" lon="0.66829">
        <ele>237</ele>
        <time>2018-05-03T13:19:53Z</time>
      </trkpt>
      <trkpt lat="45.1612" lon="0.66834">
        <ele>239</ele>
        <time>2018-05-03T13:19:54Z</time>
      </trkpt>
      <trkpt lat="45.16118" lon="0.66849">
        <ele>238</ele>
        <time>2018-05-03T13:19:56Z</time>
      </trkpt>
      <trkpt lat="45.16118" lon="0.66859">
        <ele>238</ele>
        <time>2018-05-03T13:19:58Z</time>
      </trkpt>
      <trkpt lat="45.16117" lon="0.6687">
        <ele>238</ele>
        <time>2018-05-03T13:20:01Z</time>
      </trkpt>
      <trkpt lat="45.16113" lon="0.66901">
        <ele>241</ele>
        <time>2018-05-03T13:20:06Z</time>
      </trkpt>
      <trkpt lat="45.1611" lon="0.6691">
        <ele>241</ele>
        <time>2018-05-03T13:20:07Z</time>
      </trkpt>
      <trkpt lat="45.16106" lon="0.6693">
        <ele>241</ele>
        <time>2018-05-03T13:20:10Z</time>
      </trkpt>
      <trkpt lat="45.16107" lon="0.66937">
        <ele>241</ele>
        <time>2018-05-03T13:20:11Z</time>
      </trkpt>
      <trkpt lat="45.16105" lon="0.6695">
        <ele>239</ele>
        <time>2018-05-03T13:20:13Z</time>
      </trkpt>
      <trkpt lat="45.16098" lon="0.66966">
        <ele>239</ele>
        <time>2018-05-03T13:20:15Z</time>
      </trkpt>
      <trkpt lat="45.16098" lon="0.66973">
        <ele>240</ele>
        <time>2018-05-03T13:20:16Z</time>
      </trkpt>
      <trkpt lat="45.16098" lon="0.66981">
        <ele>239</ele>
        <time>2018-05-03T13:20:18Z</time>
      </trkpt>
      <trkpt lat="45.16093" lon="0.66993">
        <ele>238</ele>
        <time>2018-05-03T13:20:19Z</time>
      </trkpt>
      <trkpt lat="45.16091" lon="0.67001">
        <ele>238</ele>
        <time>2018-05-03T13:20:20Z</time>
      </trkpt>
      <trkpt lat="45.1609" lon="0.67008">
        <ele>238</ele>
        <time>2018-05-03T13:20:21Z</time>
      </trkpt>
      <trkpt lat="45.16087" lon="0.67013">
        <ele>238</ele>
        <time>2018-05-03T13:20:23Z</time>
      </trkpt>
      <trkpt lat="45.16084" lon="0.67029">
        <ele>239</ele>
        <time>2018-05-03T13:20:24Z</time>
      </trkpt>
      <trkpt lat="45.16081" lon="0.67036">
        <ele>239</ele>
        <time>2018-05-03T13:20:26Z</time>
      </trkpt>
      <trkpt lat="45.16076" lon="0.67055">
        <ele>239</ele>
        <time>2018-05-03T13:20:29Z</time>
      </trkpt>
      <trkpt lat="45.16073" lon="0.67062">
        <ele>239</ele>
        <time>2018-05-03T13:20:30Z</time>
      </trkpt>
      <trkpt lat="45.1607" lon="0.67069">
        <ele>239</ele>
        <time>2018-05-03T13:20:31Z</time>
      </trkpt>
      <trkpt lat="45.16068" lon="0.67077">
        <ele>238</ele>
        <time>2018-05-03T13:20:32Z</time>
      </trkpt>
      <trkpt lat="45.16061" lon="0.67092">
        <ele>239</ele>
        <time>2018-05-03T13:20:33Z</time>
      </trkpt>
      <trkpt lat="45.16058" lon="0.671">
        <ele>240</ele>
        <time>2018-05-03T13:20:34Z</time>
      </trkpt>
      <trkpt lat="45.16053" lon="0.67116">
        <ele>241</ele>
        <time>2018-05-03T13:20:36Z</time>
      </trkpt>
      <trkpt lat="45.1605" lon="0.67125">
        <ele>241</ele>
        <time>2018-05-03T13:20:38Z</time>
      </trkpt>
      <trkpt lat="45.16046" lon="0.67138">
        <ele>241</ele>
        <time>2018-05-03T13:20:39Z</time>
      </trkpt>
      <trkpt lat="45.16041" lon="0.67151">
        <ele>240</ele>
        <time>2018-05-03T13:20:42Z</time>
      </trkpt>
      <trkpt lat="45.16039" lon="0.67159">
        <ele>240</ele>
        <time>2018-05-03T13:20:43Z</time>
      </trkpt>
      <trkpt lat="45.16029" lon="0.67188">
        <ele>240</ele>
        <time>2018-05-03T13:20:46Z</time>
      </trkpt>
      <trkpt lat="45.16027" lon="0.67195">
        <ele>240</ele>
        <time>2018-05-03T13:20:47Z</time>
      </trkpt>
      <trkpt lat="45.16025" lon="0.67203">
        <ele>241</ele>
        <time>2018-05-03T13:20:49Z</time>
      </trkpt>
      <trkpt lat="45.16018" lon="0.67222">
        <ele>241</ele>
        <time>2018-05-03T13:20:51Z</time>
      </trkpt>
      <trkpt lat="45.16016" lon="0.67228">
        <ele>240</ele>
        <time>2018-05-03T13:20:52Z</time>
      </trkpt>
      <trkpt lat="45.16013" lon="0.67234">
        <ele>240</ele>
        <time>2018-05-03T13:20:53Z</time>
      </trkpt>
      <trkpt lat="45.16013" lon="0.67244">
        <ele>240</ele>
        <time>2018-05-03T13:20:55Z</time>
      </trkpt>
      <trkpt lat="45.16007" lon="0.67261">
        <ele>239</ele>
        <time>2018-05-03T13:20:58Z</time>
      </trkpt>
      <trkpt lat="45.16" lon="0.67282">
        <ele>240</ele>
        <time>2018-05-03T13:21:02Z</time>
      </trkpt>
      <trkpt lat="45.15999" lon="0.67289">
        <ele>240</ele>
        <time>2018-05-03T13:21:04Z</time>
      </trkpt>
      <trkpt lat="45.15994" lon="0.67302">
        <ele>239</ele>
        <time>2018-05-03T13:21:07Z</time>
      </trkpt>
      <trkpt lat="45.15992" lon="0.67306">
        <ele>239</ele>
        <time>2018-05-03T13:21:08Z</time>
      </trkpt>
      <trkpt lat="45.1599" lon="0.6731">
        <ele>239</ele>
        <time>2018-05-03T13:21:09Z</time>
      </trkpt>
      <trkpt lat="45.15989" lon="0.67314">
        <ele>239</ele>
        <time>2018-05-03T13:21:11Z</time>
      </trkpt>
      <trkpt lat="45.15987" lon="0.67323">
        <ele>237</ele>
        <time>2018-05-03T13:21:12Z</time>
      </trkpt>
      <trkpt lat="45.15986" lon="0.67331">
        <ele>238</ele>
        <time>2018-05-03T13:21:14Z</time>
      </trkpt>
      <trkpt lat="45.15986" lon="0.67335">
        <ele>238</ele>
        <time>2018-05-03T13:21:15Z</time>
      </trkpt>
      <trkpt lat="45.15987" lon="0.67343">
        <ele>238</ele>
        <time>2018-05-03T13:21:17Z</time>
      </trkpt>
      <trkpt lat="45.15987" lon="0.67347">
        <ele>239</ele>
        <time>2018-05-03T13:21:18Z</time>
      </trkpt>
      <trkpt lat="45.15987" lon="0.6735">
        <ele>240</ele>
        <time>2018-05-03T13:21:19Z</time>
      </trkpt>
      <trkpt lat="45.15987" lon="0.67358">
        <ele>240</ele>
        <time>2018-05-03T13:21:22Z</time>
      </trkpt>
      <trkpt lat="45.15988" lon="0.67369">
        <ele>241</ele>
        <time>2018-05-03T13:21:25Z</time>
      </trkpt>
      <trkpt lat="45.15989" lon="0.6738">
        <ele>241</ele>
        <time>2018-05-03T13:21:28Z</time>
      </trkpt>
      <trkpt lat="45.1599" lon="0.67391">
        <ele>241</ele>
        <time>2018-05-03T13:21:30Z</time>
      </trkpt>
      <trkpt lat="45.1599" lon="0.67395">
        <ele>242</ele>
        <time>2018-05-03T13:21:31Z</time>
      </trkpt>
      <trkpt lat="45.1599" lon="0.67403">
        <ele>241</ele>
        <time>2018-05-03T13:21:33Z</time>
      </trkpt>
      <trkpt lat="45.15991" lon="0.67415">
        <ele>240</ele>
        <time>2018-05-03T13:21:36Z</time>
      </trkpt>
      <trkpt lat="45.1599" lon="0.67423">
        <ele>240</ele>
        <time>2018-05-03T13:21:38Z</time>
      </trkpt>
      <trkpt lat="45.15991" lon="0.67435">
        <ele>239</ele>
        <time>2018-05-03T13:21:41Z</time>
      </trkpt>
      <trkpt lat="45.15991" lon="0.67439">
        <ele>237</ele>
        <time>2018-05-03T13:21:43Z</time>
      </trkpt>
      <trkpt lat="45.15992" lon="0.67447">
        <ele>237</ele>
        <time>2018-05-03T13:21:44Z</time>
      </trkpt>
      <trkpt lat="45.15993" lon="0.67454">
        <ele>236</ele>
        <time>2018-05-03T13:21:46Z</time>
      </trkpt>
      <trkpt lat="45.15992" lon="0.67457">
        <ele>237</ele>
        <time>2018-05-03T13:21:47Z</time>
      </trkpt>
      <trkpt lat="45.15993" lon="0.67461">
        <ele>236</ele>
        <time>2018-05-03T13:21:48Z</time>
      </trkpt>
      <trkpt lat="45.15994" lon="0.67469">
        <ele>236</ele>
        <time>2018-05-03T13:21:50Z</time>
      </trkpt>
      <trkpt lat="45.15995" lon="0.67476">
        <ele>238</ele>
        <time>2018-05-03T13:21:53Z</time>
      </trkpt>
      <trkpt lat="45.15996" lon="0.67484">
        <ele>239</ele>
        <time>2018-05-03T13:21:54Z</time>
      </trkpt>
      <trkpt lat="45.15997" lon="0.67488">
        <ele>240</ele>
        <time>2018-05-03T13:21:56Z</time>
      </trkpt>
      <trkpt lat="45.15998" lon="0.67495">
        <ele>240</ele>
        <time>2018-05-03T13:21:57Z</time>
      </trkpt>
      <trkpt lat="45.15999" lon="0.67499">
        <ele>239</ele>
        <time>2018-05-03T13:21:58Z</time>
      </trkpt>
      <trkpt lat="45.16003" lon="0.67506">
        <ele>240</ele>
        <time>2018-05-03T13:22:01Z</time>
      </trkpt>
      <trkpt lat="45.16007" lon="0.67514">
        <ele>240</ele>
        <time>2018-05-03T13:22:02Z</time>
      </trkpt>
      <trkpt lat="45.16012" lon="0.67521">
        <ele>240</ele>
        <time>2018-05-03T13:22:04Z</time>
      </trkpt>
      <trkpt lat="45.16018" lon="0.67529">
        <ele>240</ele>
        <time>2018-05-03T13:22:06Z</time>
      </trkpt>
      <trkpt lat="45.16021" lon="0.67532">
        <ele>240</ele>
        <time>2018-05-03T13:22:07Z</time>
      </trkpt>
      <trkpt lat="45.16025" lon="0.67536">
        <ele>239</ele>
        <time>2018-05-03T13:22:08Z</time>
      </trkpt>
      <trkpt lat="45.16028" lon="0.6754">
        <ele>239</ele>
        <time>2018-05-03T13:22:09Z</time>
      </trkpt>
      <trkpt lat="45.16033" lon="0.67544">
        <ele>240</ele>
        <time>2018-05-03T13:22:10Z</time>
      </trkpt>
      <trkpt lat="45.16037" lon="0.67548">
        <ele>240</ele>
        <time>2018-05-03T13:22:11Z</time>
      </trkpt>
      <trkpt lat="45.16043" lon="0.67557">
        <ele>240</ele>
        <time>2018-05-03T13:22:13Z</time>
      </trkpt>
      <trkpt lat="45.16046" lon="0.67561">
        <ele>240</ele>
        <time>2018-05-03T13:22:14Z</time>
      </trkpt>
      <trkpt lat="45.16049" lon="0.67566">
        <ele>240</ele>
        <time>2018-05-03T13:22:15Z</time>
      </trkpt>
      <trkpt lat="45.16052" lon="0.6757">
        <ele>240</ele>
        <time>2018-05-03T13:22:16Z</time>
      </trkpt>
      <trkpt lat="45.16054" lon="0.67575">
        <ele>240</ele>
        <time>2018-05-03T13:22:17Z</time>
      </trkpt>
      <trkpt lat="45.1606" lon="0.67592">
        <ele>240</ele>
        <time>2018-05-03T13:22:20Z</time>
      </trkpt>
      <trkpt lat="45.16063" lon="0.67598">
        <ele>240</ele>
        <time>2018-05-03T13:22:21Z</time>
      </trkpt>
      <trkpt lat="45.16065" lon="0.67605">
        <ele>240</ele>
        <time>2018-05-03T13:22:22Z</time>
      </trkpt>
      <trkpt lat="45.16068" lon="0.67618">
        <ele>239</ele>
        <time>2018-05-03T13:22:24Z</time>
      </trkpt>
      <trkpt lat="45.16071" lon="0.67625">
        <ele>240</ele>
        <time>2018-05-03T13:22:25Z</time>
      </trkpt>
      <trkpt lat="45.16073" lon="0.67632">
        <ele>240</ele>
        <time>2018-05-03T13:22:26Z</time>
      </trkpt>
      <trkpt lat="45.16079" lon="0.67654">
        <ele>240</ele>
        <time>2018-05-03T13:22:29Z</time>
      </trkpt>
      <trkpt lat="45.16082" lon="0.6766">
        <ele>240</ele>
        <time>2018-05-03T13:22:30Z</time>
      </trkpt>
      <trkpt lat="45.16084" lon="0.67667">
        <ele>240</ele>
        <time>2018-05-03T13:22:31Z</time>
      </trkpt>
      <trkpt lat="45.16086" lon="0.67673">
        <ele>240</ele>
        <time>2018-05-03T13:22:32Z</time>
      </trkpt>
      <trkpt lat="45.16089" lon="0.67679">
        <ele>239</ele>
        <time>2018-05-03T13:22:33Z</time>
      </trkpt>
      <trkpt lat="45.16092" lon="0.67686">
        <ele>239</ele>
        <time>2018-05-03T13:22:34Z</time>
      </trkpt>
      <trkpt lat="45.16097" lon="0.67691">
        <ele>240</ele>
        <time>2018-05-03T13:22:35Z</time>
      </trkpt>
      <trkpt lat="45.16101" lon="0.67698">
        <ele>239</ele>
        <time>2018-05-03T13:22:36Z</time>
      </trkpt>
      <trkpt lat="45.16106" lon="0.67703">
        <ele>239</ele>
        <time>2018-05-03T13:22:37Z</time>
      </trkpt>
      <trkpt lat="45.16111" lon="0.67709">
        <ele>239</ele>
        <time>2018-05-03T13:22:38Z</time>
      </trkpt>
      <trkpt lat="45.16116" lon="0.67714">
        <ele>238</ele>
        <time>2018-05-03T13:22:39Z</time>
      </trkpt>
      <trkpt lat="45.16131" lon="0.6773">
        <ele>238</ele>
        <time>2018-05-03T13:22:42Z</time>
      </trkpt>
      <trkpt lat="45.16137" lon="0.67735">
        <ele>239</ele>
        <time>2018-05-03T13:22:43Z</time>
      </trkpt>
      <trkpt lat="45.16142" lon="0.6774">
        <ele>239</ele>
        <time>2018-05-03T13:22:44Z</time>
      </trkpt>
      <trkpt lat="45.16146" lon="0.67744">
        <ele>238</ele>
        <time>2018-05-03T13:22:45Z</time>
      </trkpt>
      <trkpt lat="45.16151" lon="0.67749">
        <ele>238</ele>
        <time>2018-05-03T13:22:46Z</time>
      </trkpt>
      <trkpt lat="45.16157" lon="0.67753">
        <ele>238</ele>
        <time>2018-05-03T13:22:47Z</time>
      </trkpt>
      <trkpt lat="45.16162" lon="0.67757">
        <ele>238</ele>
        <time>2018-05-03T13:22:48Z</time>
      </trkpt>
      <trkpt lat="45.16167" lon="0.67762">
        <ele>238</ele>
        <time>2018-05-03T13:22:49Z</time>
      </trkpt>
      <trkpt lat="45.16172" lon="0.67767">
        <ele>238</ele>
        <time>2018-05-03T13:22:50Z</time>
      </trkpt>
      <trkpt lat="45.16178" lon="0.67771">
        <ele>238</ele>
        <time>2018-05-03T13:22:51Z</time>
      </trkpt>
      <trkpt lat="45.16183" lon="0.67775">
        <ele>238</ele>
        <time>2018-05-03T13:22:52Z</time>
      </trkpt>
      <trkpt lat="45.16188" lon="0.67779">
        <ele>238</ele>
        <time>2018-05-03T13:22:53Z</time>
      </trkpt>
      <trkpt lat="45.16192" lon="0.67783">
        <ele>237</ele>
        <time>2018-05-03T13:22:54Z</time>
      </trkpt>
      <trkpt lat="45.16196" lon="0.67787">
        <ele>237</ele>
        <time>2018-05-03T13:22:55Z</time>
      </trkpt>
      <trkpt lat="45.16203" lon="0.67795">
        <ele>237</ele>
        <time>2018-05-03T13:22:58Z</time>
      </trkpt>
      <trkpt lat="45.16211" lon="0.67805">
        <ele>238</ele>
        <time>2018-05-03T13:22:59Z</time>
      </trkpt>
      <trkpt lat="45.16219" lon="0.67812">
        <ele>237</ele>
        <time>2018-05-03T13:23:01Z</time>
      </trkpt>
      <trkpt lat="45.16222" lon="0.67817">
        <ele>237</ele>
        <time>2018-05-03T13:23:03Z</time>
      </trkpt>
      <trkpt lat="45.16228" lon="0.67829">
        <ele>238</ele>
        <time>2018-05-03T13:23:04Z</time>
      </trkpt>
      <trkpt lat="45.16232" lon="0.67841">
        <ele>237</ele>
        <time>2018-05-03T13:23:06Z</time>
      </trkpt>
      <trkpt lat="45.16234" lon="0.67846">
        <ele>238</ele>
        <time>2018-05-03T13:23:07Z</time>
      </trkpt>
      <trkpt lat="45.16237" lon="0.67852">
        <ele>237</ele>
        <time>2018-05-03T13:23:09Z</time>
      </trkpt>
      <trkpt lat="45.16242" lon="0.67863">
        <ele>237</ele>
        <time>2018-05-03T13:23:11Z</time>
      </trkpt>
      <trkpt lat="45.16249" lon="0.6788">
        <ele>237</ele>
        <time>2018-05-03T13:23:13Z</time>
      </trkpt>
      <trkpt lat="45.16264" lon="0.67916">
        <ele>235</ele>
        <time>2018-05-03T13:23:18Z</time>
      </trkpt>
      <trkpt lat="45.16271" lon="0.67932">
        <ele>236</ele>
        <time>2018-05-03T13:23:20Z</time>
      </trkpt>
      <trkpt lat="45.16278" lon="0.6794">
        <ele>235</ele>
        <time>2018-05-03T13:23:21Z</time>
      </trkpt>
      <trkpt lat="45.16281" lon="0.67948">
        <ele>234</ele>
        <time>2018-05-03T13:23:22Z</time>
      </trkpt>
      <trkpt lat="45.16285" lon="0.67955">
        <ele>233</ele>
        <time>2018-05-03T13:23:23Z</time>
      </trkpt>
      <trkpt lat="45.16304" lon="0.67991">
        <ele>232</ele>
        <time>2018-05-03T13:23:27Z</time>
      </trkpt>
      <trkpt lat="45.16307" lon="0.68">
        <ele>235</ele>
        <time>2018-05-03T13:23:29Z</time>
      </trkpt>
      <trkpt lat="45.16322" lon="0.68035">
        <ele>235</ele>
        <time>2018-05-03T13:23:32Z</time>
      </trkpt>
      <trkpt lat="45.16327" lon="0.68043">
        <ele>235</ele>
        <time>2018-05-03T13:23:33Z</time>
      </trkpt>
      <trkpt lat="45.16331" lon="0.68051">
        <ele>234</ele>
        <time>2018-05-03T13:23:34Z</time>
      </trkpt>
      <trkpt lat="45.16341" lon="0.68063">
        <ele>235</ele>
        <time>2018-05-03T13:23:36Z</time>
      </trkpt>
      <trkpt lat="45.16346" lon="0.68072">
        <ele>233</ele>
        <time>2018-05-03T13:23:38Z</time>
      </trkpt>
      <trkpt lat="45.1635" lon="0.68079">
        <ele>232</ele>
        <time>2018-05-03T13:23:40Z</time>
      </trkpt>
      <trkpt lat="45.16351" lon="0.68082">
        <ele>232</ele>
        <time>2018-05-03T13:23:41Z</time>
      </trkpt>
      <trkpt lat="45.16353" lon="0.68087">
        <ele>233</ele>
        <time>2018-05-03T13:23:42Z</time>
      </trkpt>
      <trkpt lat="45.16359" lon="0.68085">
        <ele>232</ele>
        <time>2018-05-03T13:23:44Z</time>
      </trkpt>
      <trkpt lat="45.16363" lon="0.68083">
        <ele>232</ele>
        <time>2018-05-03T13:23:45Z</time>
      </trkpt>
      <trkpt lat="45.16376" lon="0.68075">
        <ele>231</ele>
        <time>2018-05-03T13:23:48Z</time>
      </trkpt>
      <trkpt lat="45.16402" lon="0.68066">
        <ele>230</ele>
        <time>2018-05-03T13:23:52Z</time>
      </trkpt>
      <trkpt lat="45.16409" lon="0.68062">
        <ele>228</ele>
        <time>2018-05-03T13:23:53Z</time>
      </trkpt>
      <trkpt lat="45.16416" lon="0.68059">
        <ele>226</ele>
        <time>2018-05-03T13:23:54Z</time>
      </trkpt>
      <trkpt lat="45.16423" lon="0.68056">
        <ele>225</ele>
        <time>2018-05-03T13:23:55Z</time>
      </trkpt>
      <trkpt lat="45.1643" lon="0.68052">
        <ele>224</ele>
        <time>2018-05-03T13:23:56Z</time>
      </trkpt>
      <trkpt lat="45.16445" lon="0.68047">
        <ele>224</ele>
        <time>2018-05-03T13:23:58Z</time>
      </trkpt>
      <trkpt lat="45.16452" lon="0.68045">
        <ele>224</ele>
        <time>2018-05-03T13:23:59Z</time>
      </trkpt>
      <trkpt lat="45.16459" lon="0.68044">
        <ele>225</ele>
        <time>2018-05-03T13:24:00Z</time>
      </trkpt>
      <trkpt lat="45.16466" lon="0.68042">
        <ele>225</ele>
        <time>2018-05-03T13:24:01Z</time>
      </trkpt>
      <trkpt lat="45.16474" lon="0.6804">
        <ele>224</ele>
        <time>2018-05-03T13:24:02Z</time>
      </trkpt>
      <trkpt lat="45.16481" lon="0.68037">
        <ele>224</ele>
        <time>2018-05-03T13:24:03Z</time>
      </trkpt>
      <trkpt lat="45.16488" lon="0.68034">
        <ele>224</ele>
        <time>2018-05-03T13:24:04Z</time>
      </trkpt>
      <trkpt lat="45.16495" lon="0.68032">
        <ele>224</ele>
        <time>2018-05-03T13:24:05Z</time>
      </trkpt>
      <trkpt lat="45.16522" lon="0.68023">
        <ele>224</ele>
        <time>2018-05-03T13:24:09Z</time>
      </trkpt>
      <trkpt lat="45.16528" lon="0.68022">
        <ele>224</ele>
        <time>2018-05-03T13:24:10Z</time>
      </trkpt>
      <trkpt lat="45.16533" lon="0.68019">
        <ele>225</ele>
        <time>2018-05-03T13:24:11Z</time>
      </trkpt>
      <trkpt lat="45.16539" lon="0.68014">
        <ele>223</ele>
        <time>2018-05-03T13:24:12Z</time>
      </trkpt>
      <trkpt lat="45.16544" lon="0.68011">
        <ele>222</ele>
        <time>2018-05-03T13:24:13Z</time>
      </trkpt>
      <trkpt lat="45.16549" lon="0.68007">
        <ele>222</ele>
        <time>2018-05-03T13:24:14Z</time>
      </trkpt>
      <trkpt lat="45.16555" lon="0.68003">
        <ele>221</ele>
        <time>2018-05-03T13:24:15Z</time>
      </trkpt>
      <trkpt lat="45.16561" lon="0.67999">
        <ele>222</ele>
        <time>2018-05-03T13:24:16Z</time>
      </trkpt>
      <trkpt lat="45.16566" lon="0.67995">
        <ele>222</ele>
        <time>2018-05-03T13:24:17Z</time>
      </trkpt>
      <trkpt lat="45.16571" lon="0.6799">
        <ele>222</ele>
        <time>2018-05-03T13:24:18Z</time>
      </trkpt>
      <trkpt lat="45.16575" lon="0.67988">
        <ele>222</ele>
        <time>2018-05-03T13:24:19Z</time>
      </trkpt>
      <trkpt lat="45.1658" lon="0.67985">
        <ele>220</ele>
        <time>2018-05-03T13:24:20Z</time>
      </trkpt>
      <trkpt lat="45.16585" lon="0.67981">
        <ele>219</ele>
        <time>2018-05-03T13:24:21Z</time>
      </trkpt>
      <trkpt lat="45.16601" lon="0.67973">
        <ele>220</ele>
        <time>2018-05-03T13:24:24Z</time>
      </trkpt>
      <trkpt lat="45.16607" lon="0.67969">
        <ele>220</ele>
        <time>2018-05-03T13:24:25Z</time>
      </trkpt>
      <trkpt lat="45.16612" lon="0.67968">
        <ele>221</ele>
        <time>2018-05-03T13:24:26Z</time>
      </trkpt>
      <trkpt lat="45.16617" lon="0.67963">
        <ele>221</ele>
        <time>2018-05-03T13:24:27Z</time>
      </trkpt>
      <trkpt lat="45.16624" lon="0.67959">
        <ele>220</ele>
        <time>2018-05-03T13:24:28Z</time>
      </trkpt>
      <trkpt lat="45.16629" lon="0.67956">
        <ele>221</ele>
        <time>2018-05-03T13:24:29Z</time>
      </trkpt>
      <trkpt lat="45.16635" lon="0.67951">
        <ele>221</ele>
        <time>2018-05-03T13:24:30Z</time>
      </trkpt>
      <trkpt lat="45.16641" lon="0.67948">
        <ele>220</ele>
        <time>2018-05-03T13:24:31Z</time>
      </trkpt>
      <trkpt lat="45.16646" lon="0.67944">
        <ele>220</ele>
        <time>2018-05-03T13:24:32Z</time>
      </trkpt>
      <trkpt lat="45.1665" lon="0.6794">
        <ele>220</ele>
        <time>2018-05-03T13:24:33Z</time>
      </trkpt>
      <trkpt lat="45.16656" lon="0.67935">
        <ele>220</ele>
        <time>2018-05-03T13:24:34Z</time>
      </trkpt>
      <trkpt lat="45.16662" lon="0.67932">
        <ele>219</ele>
        <time>2018-05-03T13:24:35Z</time>
      </trkpt>
      <trkpt lat="45.16669" lon="0.67931">
        <ele>219</ele>
        <time>2018-05-03T13:24:36Z</time>
      </trkpt>
      <trkpt lat="45.16674" lon="0.67928">
        <ele>220</ele>
        <time>2018-05-03T13:24:37Z</time>
      </trkpt>
      <trkpt lat="45.16678" lon="0.67927">
        <ele>218</ele>
        <time>2018-05-03T13:24:38Z</time>
      </trkpt>
      <trkpt lat="45.16684" lon="0.67923">
        <ele>217</ele>
        <time>2018-05-03T13:24:39Z</time>
      </trkpt>
      <trkpt lat="45.16689" lon="0.67919">
        <ele>218</ele>
        <time>2018-05-03T13:24:40Z</time>
      </trkpt>
      <trkpt lat="45.16696" lon="0.67917">
        <ele>217</ele>
        <time>2018-05-03T13:24:41Z</time>
      </trkpt>
      <trkpt lat="45.16701" lon="0.67916">
        <ele>216</ele>
        <time>2018-05-03T13:24:42Z</time>
      </trkpt>
      <trkpt lat="45.16707" lon="0.67913">
        <ele>217</ele>
        <time>2018-05-03T13:24:44Z</time>
      </trkpt>
      <trkpt lat="45.16719" lon="0.6791">
        <ele>216</ele>
        <time>2018-05-03T13:24:45Z</time>
      </trkpt>
      <trkpt lat="45.16737" lon="0.67901">
        <ele>220</ele>
        <time>2018-05-03T13:24:49Z</time>
      </trkpt>
      <trkpt lat="45.16747" lon="0.67896">
        <ele>222</ele>
        <time>2018-05-03T13:24:52Z</time>
      </trkpt>
      <trkpt lat="45.16756" lon="0.67895">
        <ele>223</ele>
        <time>2018-05-03T13:24:54Z</time>
      </trkpt>
      <trkpt lat="45.16762" lon="0.67895">
        <ele>222</ele>
        <time>2018-05-03T13:24:56Z</time>
      </trkpt>
      <trkpt lat="45.16767" lon="0.67892">
        <ele>222</ele>
        <time>2018-05-03T13:24:58Z</time>
      </trkpt>
      <trkpt lat="45.16772" lon="0.67893">
        <ele>222</ele>
        <time>2018-05-03T13:25:00Z</time>
      </trkpt>
      <trkpt lat="45.16775" lon="0.67894">
        <ele>220</ele>
        <time>2018-05-03T13:25:01Z</time>
      </trkpt>
      <trkpt lat="45.16779" lon="0.67894">
        <ele>220</ele>
        <time>2018-05-03T13:25:03Z</time>
      </trkpt>
      <trkpt lat="45.16782" lon="0.67894">
        <ele>221</ele>
        <time>2018-05-03T13:25:04Z</time>
      </trkpt>
      <trkpt lat="45.16796" lon="0.67894">
        <ele>222</ele>
        <time>2018-05-03T13:25:11Z</time>
      </trkpt>
      <trkpt lat="45.16801" lon="0.67893">
        <ele>223</ele>
        <time>2018-05-03T13:25:13Z</time>
      </trkpt>
      <trkpt lat="45.16804" lon="0.67893">
        <ele>224</ele>
        <time>2018-05-03T13:25:14Z</time>
      </trkpt>
      <trkpt lat="45.16807" lon="0.67893">
        <ele>222</ele>
        <time>2018-05-03T13:25:15Z</time>
      </trkpt>
      <trkpt lat="45.16812" lon="0.67893">
        <ele>222</ele>
        <time>2018-05-03T13:25:16Z</time>
      </trkpt>
      <trkpt lat="45.16815" lon="0.67894">
        <ele>222</ele>
        <time>2018-05-03T13:25:17Z</time>
      </trkpt>
      <trkpt lat="45.16817" lon="0.67894">
        <ele>222</ele>
        <time>2018-05-03T13:25:18Z</time>
      </trkpt>
      <trkpt lat="45.1682" lon="0.67894">
        <ele>222</ele>
        <time>2018-05-03T13:25:20Z</time>
      </trkpt>
      <trkpt lat="45.16822" lon="0.67894">
        <ele>222</ele>
        <time>2018-05-03T13:25:21Z</time>
      </trkpt>
      <trkpt lat="45.16831" lon="0.67895">
        <ele>221</ele>
        <time>2018-05-03T13:25:24Z</time>
      </trkpt>
      <trkpt lat="45.16836" lon="0.67896">
        <ele>221</ele>
        <time>2018-05-03T13:25:25Z</time>
      </trkpt>
      <trkpt lat="45.16839" lon="0.67896">
        <ele>220</ele>
        <time>2018-05-03T13:25:27Z</time>
      </trkpt>
      <trkpt lat="45.16844" lon="0.67896">
        <ele>221</ele>
        <time>2018-05-03T13:25:28Z</time>
      </trkpt>
      <trkpt lat="45.1685" lon="0.67894">
        <ele>219</ele>
        <time>2018-05-03T13:25:31Z</time>
      </trkpt>
      <trkpt lat="45.16865" lon="0.67891">
        <ele>220</ele>
        <time>2018-05-03T13:25:36Z</time>
      </trkpt>
      <trkpt lat="45.16874" lon="0.67882">
        <ele>220</ele>
        <time>2018-05-03T13:25:39Z</time>
      </trkpt>
      <trkpt lat="45.16879" lon="0.67873">
        <ele>222</ele>
        <time>2018-05-03T13:25:43Z</time>
      </trkpt>
      <trkpt lat="45.16882" lon="0.67866">
        <ele>221</ele>
        <time>2018-05-03T13:25:45Z</time>
      </trkpt>
      <trkpt lat="45.16885" lon="0.67857">
        <ele>220</ele>
        <time>2018-05-03T13:25:46Z</time>
      </trkpt>
      <trkpt lat="45.16886" lon="0.67853">
        <ele>221</ele>
        <time>2018-05-03T13:25:47Z</time>
      </trkpt>
      <trkpt lat="45.16888" lon="0.67849">
        <ele>221</ele>
        <time>2018-05-03T13:25:49Z</time>
      </trkpt>
      <trkpt lat="45.16889" lon="0.67845">
        <ele>221</ele>
        <time>2018-05-03T13:25:50Z</time>
      </trkpt>
      <trkpt lat="45.1689" lon="0.6784">
        <ele>221</ele>
        <time>2018-05-03T13:25:51Z</time>
      </trkpt>
      <trkpt lat="45.16892" lon="0.67836">
        <ele>221</ele>
        <time>2018-05-03T13:25:52Z</time>
      </trkpt>
      <trkpt lat="45.16894" lon="0.67831">
        <ele>222</ele>
        <time>2018-05-03T13:25:53Z</time>
      </trkpt>
      <trkpt lat="45.16898" lon="0.67817">
        <ele>220</ele>
        <time>2018-05-03T13:25:55Z</time>
      </trkpt>
      <trkpt lat="45.16901" lon="0.67808">
        <ele>219</ele>
        <time>2018-05-03T13:25:58Z</time>
      </trkpt>
      <trkpt lat="45.16904" lon="0.67798">
        <ele>219</ele>
        <time>2018-05-03T13:25:59Z</time>
      </trkpt>
      <trkpt lat="45.16906" lon="0.67793">
        <ele>219</ele>
        <time>2018-05-03T13:26:00Z</time>
      </trkpt>
      <trkpt lat="45.16909" lon="0.67782">
        <ele>218</ele>
        <time>2018-05-03T13:26:03Z</time>
      </trkpt>
      <trkpt lat="45.1691" lon="0.67776">
        <ele>219</ele>
        <time>2018-05-03T13:26:04Z</time>
      </trkpt>
      <trkpt lat="45.16912" lon="0.67771">
        <ele>218</ele>
        <time>2018-05-03T13:26:05Z</time>
      </trkpt>
      <trkpt lat="45.16914" lon="0.6776">
        <ele>217</ele>
        <time>2018-05-03T13:26:06Z</time>
      </trkpt>
      <trkpt lat="45.16916" lon="0.6775">
        <ele>216</ele>
        <time>2018-05-03T13:26:08Z</time>
      </trkpt>
      <trkpt lat="45.1692" lon="0.67729">
        <ele>218</ele>
        <time>2018-05-03T13:26:12Z</time>
      </trkpt>
      <trkpt lat="45.1692" lon="0.67716">
        <ele>218</ele>
        <time>2018-05-03T13:26:14Z</time>
      </trkpt>
      <trkpt lat="45.16921" lon="0.6771">
        <ele>218</ele>
        <time>2018-05-03T13:26:15Z</time>
      </trkpt>
      <trkpt lat="45.16922" lon="0.67703">
        <ele>218</ele>
        <time>2018-05-03T13:26:16Z</time>
      </trkpt>
      <trkpt lat="45.16926" lon="0.67689">
        <ele>220</ele>
        <time>2018-05-03T13:26:17Z</time>
      </trkpt>
      <trkpt lat="45.16927" lon="0.67681">
        <ele>220</ele>
        <time>2018-05-03T13:26:19Z</time>
      </trkpt>
      <trkpt lat="45.16931" lon="0.67667">
        <ele>219</ele>
        <time>2018-05-03T13:26:21Z</time>
      </trkpt>
      <trkpt lat="45.16933" lon="0.6766">
        <ele>221</ele>
        <time>2018-05-03T13:26:22Z</time>
      </trkpt>
      <trkpt lat="45.16934" lon="0.67651">
        <ele>221</ele>
        <time>2018-05-03T13:26:23Z</time>
      </trkpt>
      <trkpt lat="45.16934" lon="0.67643">
        <ele>220</ele>
        <time>2018-05-03T13:26:24Z</time>
      </trkpt>
      <trkpt lat="45.16936" lon="0.67634">
        <ele>219</ele>
        <time>2018-05-03T13:26:25Z</time>
      </trkpt>
      <trkpt lat="45.16942" lon="0.67606">
        <ele>220</ele>
        <time>2018-05-03T13:26:28Z</time>
      </trkpt>
      <trkpt lat="45.16944" lon="0.67598">
        <ele>220</ele>
        <time>2018-05-03T13:26:29Z</time>
      </trkpt>
      <trkpt lat="45.16957" lon="0.67593">
        <ele>218</ele>
        <time>2018-05-03T13:26:31Z</time>
      </trkpt>
      <trkpt lat="45.16963" lon="0.67592">
        <ele>218</ele>
        <time>2018-05-03T13:26:32Z</time>
      </trkpt>
      <trkpt lat="45.1697" lon="0.67591">
        <ele>219</ele>
        <time>2018-05-03T13:26:33Z</time>
      </trkpt>
      <trkpt lat="45.16994" lon="0.67579">
        <ele>218</ele>
        <time>2018-05-03T13:26:36Z</time>
      </trkpt>
      <trkpt lat="45.16999" lon="0.67573">
        <ele>216</ele>
        <time>2018-05-03T13:26:37Z</time>
      </trkpt>
      <trkpt lat="45.17004" lon="0.67566">
        <ele>216</ele>
        <time>2018-05-03T13:26:39Z</time>
      </trkpt>
      <trkpt lat="45.1701" lon="0.67559">
        <ele>216</ele>
        <time>2018-05-03T13:26:40Z</time>
      </trkpt>
      <trkpt lat="45.17013" lon="0.67552">
        <ele>215</ele>
        <time>2018-05-03T13:26:41Z</time>
      </trkpt>
      <trkpt lat="45.17033" lon="0.67534">
        <ele>216</ele>
        <time>2018-05-03T13:26:44Z</time>
      </trkpt>
      <trkpt lat="45.17067" lon="0.67522">
        <ele>215</ele>
        <time>2018-05-03T13:26:48Z</time>
      </trkpt>
      <trkpt lat="45.17077" lon="0.67518">
        <ele>215</ele>
        <time>2018-05-03T13:26:51Z</time>
      </trkpt>
      <trkpt lat="45.17083" lon="0.67517">
        <ele>216</ele>
        <time>2018-05-03T13:26:52Z</time>
      </trkpt>
      <trkpt lat="45.17088" lon="0.67515">
        <ele>216</ele>
        <time>2018-05-03T13:26:53Z</time>
      </trkpt>
      <trkpt lat="45.17093" lon="0.67512">
        <ele>216</ele>
        <time>2018-05-03T13:26:54Z</time>
      </trkpt>
      <trkpt lat="45.17098" lon="0.6751">
        <ele>216</ele>
        <time>2018-05-03T13:26:55Z</time>
      </trkpt>
      <trkpt lat="45.17108" lon="0.67505">
        <ele>215</ele>
        <time>2018-05-03T13:26:57Z</time>
      </trkpt>
      <trkpt lat="45.17117" lon="0.67503">
        <ele>216</ele>
        <time>2018-05-03T13:26:58Z</time>
      </trkpt>
      <trkpt lat="45.17123" lon="0.67501">
        <ele>215</ele>
        <time>2018-05-03T13:27:00Z</time>
      </trkpt>
      <trkpt lat="45.17133" lon="0.67495">
        <ele>215</ele>
        <time>2018-05-03T13:27:02Z</time>
      </trkpt>
      <trkpt lat="45.17144" lon="0.67488">
        <ele>217</ele>
        <time>2018-05-03T13:27:03Z</time>
      </trkpt>
      <trkpt lat="45.17161" lon="0.67477">
        <ele>214</ele>
        <time>2018-05-03T13:27:06Z</time>
      </trkpt>
      <trkpt lat="45.17166" lon="0.67472">
        <ele>214</ele>
        <time>2018-05-03T13:27:07Z</time>
      </trkpt>
      <trkpt lat="45.17172" lon="0.67467">
        <ele>214</ele>
        <time>2018-05-03T13:27:08Z</time>
      </trkpt>
      <trkpt lat="45.17178" lon="0.67462">
        <ele>213</ele>
        <time>2018-05-03T13:27:10Z</time>
      </trkpt>
      <trkpt lat="45.17208" lon="0.67429">
        <ele>210</ele>
        <time>2018-05-03T13:27:15Z</time>
      </trkpt>
      <trkpt lat="45.17213" lon="0.6742">
        <ele>210</ele>
        <time>2018-05-03T13:27:16Z</time>
      </trkpt>
      <trkpt lat="45.17219" lon="0.6741">
        <ele>209</ele>
        <time>2018-05-03T13:27:17Z</time>
      </trkpt>
      <trkpt lat="45.17224" lon="0.67401">
        <ele>209</ele>
        <time>2018-05-03T13:27:18Z</time>
      </trkpt>
      <trkpt lat="45.17234" lon="0.6738">
        <ele>208</ele>
        <time>2018-05-03T13:27:19Z</time>
      </trkpt>
      <trkpt lat="45.17272" lon="0.67321">
        <ele>206</ele>
        <time>2018-05-03T13:27:25Z</time>
      </trkpt>
      <trkpt lat="45.1733" lon="0.6728">
        <ele>203</ele>
        <time>2018-05-03T13:27:30Z</time>
      </trkpt>
      <trkpt lat="45.17339" lon="0.67268">
        <ele>203</ele>
        <time>2018-05-03T13:27:31Z</time>
      </trkpt>
      <trkpt lat="45.17349" lon="0.67266">
        <ele>204</ele>
        <time>2018-05-03T13:27:32Z</time>
      </trkpt>
      <trkpt lat="45.17365" lon="0.67266">
        <ele>203</ele>
        <time>2018-05-03T13:27:33Z</time>
      </trkpt>
      <trkpt lat="45.17376" lon="0.67262">
        <ele>200</ele>
        <time>2018-05-03T13:27:34Z</time>
      </trkpt>
      <trkpt lat="45.1739" lon="0.67262">
        <ele>199</ele>
        <time>2018-05-03T13:27:35Z</time>
      </trkpt>
      <trkpt lat="45.17456" lon="0.6726">
        <ele>197</ele>
        <time>2018-05-03T13:27:41Z</time>
      </trkpt>
      <trkpt lat="45.17596" lon="0.67316">
        <ele>187</ele>
        <time>2018-05-03T13:27:52Z</time>
      </trkpt>
      <trkpt lat="45.17618" lon="0.67309">
        <ele>188</ele>
        <time>2018-05-03T13:27:54Z</time>
      </trkpt>
      <trkpt lat="45.17631" lon="0.67323">
        <ele>186</ele>
        <time>2018-05-03T13:27:55Z</time>
      </trkpt>
      <trkpt lat="45.17638" lon="0.6733">
        <ele>182</ele>
        <time>2018-05-03T13:27:56Z</time>
      </trkpt>
      <trkpt lat="45.17661" lon="0.67336">
        <ele>178</ele>
        <time>2018-05-03T13:27:58Z</time>
      </trkpt>
      <trkpt lat="45.17705" lon="0.6732">
        <ele>207</ele>
        <time>2018-05-03T13:28:02Z</time>
      </trkpt>
      <trkpt lat="45.17713" lon="0.67313">
        <ele>202</ele>
        <time>2018-05-03T13:28:03Z</time>
      </trkpt>
      <trkpt lat="45.17718" lon="0.67304">
        <ele>197</ele>
        <time>2018-05-03T13:28:04Z</time>
      </trkpt>
      <trkpt lat="45.17725" lon="0.67295">
        <ele>192</ele>
        <time>2018-05-03T13:28:05Z</time>
      </trkpt>
      <trkpt lat="45.17733" lon="0.67289">
        <ele>189</ele>
        <time>2018-05-03T13:28:06Z</time>
      </trkpt>
      <trkpt lat="45.17741" lon="0.67281">
        <ele>183</ele>
        <time>2018-05-03T13:28:08Z</time>
      </trkpt>
      <trkpt lat="45.17747" lon="0.67274">
        <ele>179</ele>
        <time>2018-05-03T13:28:09Z</time>
      </trkpt>
      <trkpt lat="45.17754" lon="0.67265">
        <ele>175</ele>
        <time>2018-05-03T13:28:11Z</time>
      </trkpt>
      <trkpt lat="45.17762" lon="0.67258">
        <ele>173</ele>
        <time>2018-05-03T13:28:13Z</time>
      </trkpt>
      <trkpt lat="45.17777" lon="0.67258">
        <ele>168</ele>
        <time>2018-05-03T13:28:16Z</time>
      </trkpt>
      <trkpt lat="45.17777" lon="0.67258">
        <ele>104.1</ele>
        <time>2018-05-03T13:28:24Z</time>
      </trkpt>
      <trkpt lat="45.17777" lon="0.67258">
        <ele>104.1</ele>
        <time>2018-05-03T13:28:24Z</time>
      </trkpt>
      <trkpt lat="45.1778" lon="0.67258">
        <ele>162</ele>
        <time>2018-05-03T13:28:24Z</time>
      </trkpt>
      <trkpt lat="45.17783" lon="0.67253">
        <ele>159</ele>
        <time>2018-05-03T13:28:26Z</time>
      </trkpt>
      <trkpt lat="45.17787" lon="0.67244">
        <ele>158</ele>
        <time>2018-05-03T13:28:28Z</time>
      </trkpt>
      <trkpt lat="45.1779" lon="0.67237">
        <ele>155</ele>
        <time>2018-05-03T13:28:29Z</time>
      </trkpt>
      <trkpt lat="45.17796" lon="0.67225">
        <ele>140</ele>
        <time>2018-05-03T13:28:31Z</time>
      </trkpt>
      <trkpt lat="45.17803" lon="0.67212">
        <ele>145</ele>
        <time>2018-05-03T13:28:33Z</time>
      </trkpt>
      <trkpt lat="45.17809" lon="0.67202">
        <ele>148</ele>
        <time>2018-05-03T13:28:35Z</time>
      </trkpt>
      <trkpt lat="45.17811" lon="0.67195">
        <ele>146</ele>
        <time>2018-05-03T13:28:36Z</time>
      </trkpt>
      <trkpt lat="45.17813" lon="0.6719">
        <ele>145</ele>
        <time>2018-05-03T13:28:37Z</time>
      </trkpt>
      <trkpt lat="45.17815" lon="0.67183">
        <ele>143</ele>
        <time>2018-05-03T13:28:38Z</time>
      </trkpt>
      <trkpt lat="45.17833" lon="0.6716">
        <ele>141</ele>
        <time>2018-05-03T13:28:42Z</time>
      </trkpt>
      <trkpt lat="45.17843" lon="0.67152">
        <ele>178</ele>
        <time>2018-05-03T13:28:44Z</time>
      </trkpt>
      <trkpt lat="45.1785" lon="0.67148">
        <ele>169</ele>
        <time>2018-05-03T13:28:45Z</time>
      </trkpt>
      <trkpt lat="45.17856" lon="0.67145">
        <ele>162</ele>
        <time>2018-05-03T13:28:46Z</time>
      </trkpt>
      <trkpt lat="45.1786" lon="0.67139">
        <ele>157</ele>
        <time>2018-05-03T13:28:47Z</time>
      </trkpt>
      <trkpt lat="45.1787" lon="0.67122">
        <ele>152</ele>
        <time>2018-05-03T13:28:50Z</time>
      </trkpt>
      <trkpt lat="45.17883" lon="0.67102">
        <ele>150</ele>
        <time>2018-05-03T13:28:53Z</time>
      </trkpt>
      <trkpt lat="45.17887" lon="0.67091">
        <ele>148</ele>
        <time>2018-05-03T13:28:55Z</time>
      </trkpt>
      <trkpt lat="45.17892" lon="0.67082">
        <ele>146</ele>
        <time>2018-05-03T13:28:57Z</time>
      </trkpt>
      <trkpt lat="45.17895" lon="0.67078">
        <ele>146</ele>
        <time>2018-05-03T13:28:58Z</time>
      </trkpt>
      <trkpt lat="45.17899" lon="0.67073">
        <ele>146</ele>
        <time>2018-05-03T13:28:59Z</time>
      </trkpt>
      <trkpt lat="45.17902" lon="0.67067">
        <ele>145</ele>
        <time>2018-05-03T13:29:00Z</time>
      </trkpt>
      <trkpt lat="45.17906" lon="0.6706">
        <ele>144</ele>
        <time>2018-05-03T13:29:01Z</time>
      </trkpt>
      <trkpt lat="45.1791" lon="0.67054">
        <ele>144</ele>
        <time>2018-05-03T13:29:02Z</time>
      </trkpt>
      <trkpt lat="45.17914" lon="0.67047">
        <ele>145</ele>
        <time>2018-05-03T13:29:03Z</time>
      </trkpt>
      <trkpt lat="45.1792" lon="0.6704">
        <ele>145</ele>
        <time>2018-05-03T13:29:04Z</time>
      </trkpt>
      <trkpt lat="45.17924" lon="0.67035">
        <ele>145</ele>
        <time>2018-05-03T13:29:05Z</time>
      </trkpt>
      <trkpt lat="45.1793" lon="0.6703">
        <ele>145</ele>
        <time>2018-05-03T13:29:06Z</time>
      </trkpt>
      <trkpt lat="45.17953" lon="0.67019">
        <ele>144</ele>
        <time>2018-05-03T13:29:09Z</time>
      </trkpt>
      <trkpt lat="45.17959" lon="0.67017">
        <ele>144</ele>
        <time>2018-05-03T13:29:10Z</time>
      </trkpt>
      <trkpt lat="45.17964" lon="0.67016">
        <ele>144</ele>
        <time>2018-05-03T13:29:11Z</time>
      </trkpt>
      <trkpt lat="45.17968" lon="0.67015">
        <ele>144</ele>
        <time>2018-05-03T13:29:12Z</time>
      </trkpt>
      <trkpt lat="45.17974" lon="0.67013">
        <ele>144</ele>
        <time>2018-05-03T13:29:13Z</time>
      </trkpt>
      <trkpt lat="45.17979" lon="0.6701">
        <ele>144</ele>
        <time>2018-05-03T13:29:14Z</time>
      </trkpt>
      <trkpt lat="45.17984" lon="0.6701">
        <ele>144</ele>
        <time>2018-05-03T13:29:15Z</time>
      </trkpt>
      <trkpt lat="45.1799" lon="0.67009">
        <ele>144</ele>
        <time>2018-05-03T13:29:16Z</time>
      </trkpt>
      <trkpt lat="45.17994" lon="0.67005">
        <ele>143</ele>
        <time>2018-05-03T13:29:17Z</time>
      </trkpt>
      <trkpt lat="45.17999" lon="0.67002">
        <ele>144</ele>
        <time>2018-05-03T13:29:18Z</time>
      </trkpt>
      <trkpt lat="45.18004" lon="0.66998">
        <ele>144</ele>
        <time>2018-05-03T13:29:19Z</time>
      </trkpt>
      <trkpt lat="45.18009" lon="0.66995">
        <ele>144</ele>
        <time>2018-05-03T13:29:20Z</time>
      </trkpt>
      <trkpt lat="45.18014" lon="0.66991">
        <ele>144</ele>
        <time>2018-05-03T13:29:21Z</time>
      </trkpt>
      <trkpt lat="45.18019" lon="0.66987">
        <ele>143</ele>
        <time>2018-05-03T13:29:22Z</time>
      </trkpt>
      <trkpt lat="45.18029" lon="0.66975">
        <ele>142</ele>
        <time>2018-05-03T13:29:24Z</time>
      </trkpt>
      <trkpt lat="45.18034" lon="0.6697">
        <ele>142</ele>
        <time>2018-05-03T13:29:25Z</time>
      </trkpt>
      <trkpt lat="45.18038" lon="0.66963">
        <ele>142</ele>
        <time>2018-05-03T13:29:26Z</time>
      </trkpt>
      <trkpt lat="45.18042" lon="0.66958">
        <ele>142</ele>
        <time>2018-05-03T13:29:27Z</time>
      </trkpt>
      <trkpt lat="45.18046" lon="0.66953">
        <ele>143</ele>
        <time>2018-05-03T13:29:28Z</time>
      </trkpt>
      <trkpt lat="45.1805" lon="0.66946">
        <ele>143</ele>
        <time>2018-05-03T13:29:29Z</time>
      </trkpt>
      <trkpt lat="45.18055" lon="0.66939">
        <ele>144</ele>
        <time>2018-05-03T13:29:30Z</time>
      </trkpt>
      <trkpt lat="45.18056" lon="0.66932">
        <ele>144</ele>
        <time>2018-05-03T13:29:31Z</time>
      </trkpt>
      <trkpt lat="45.18061" lon="0.66925">
        <ele>143</ele>
        <time>2018-05-03T13:29:32Z</time>
      </trkpt>
      <trkpt lat="45.18064" lon="0.66917">
        <ele>146</ele>
        <time>2018-05-03T13:29:33Z</time>
      </trkpt>
      <trkpt lat="45.18067" lon="0.6691">
        <ele>145</ele>
        <time>2018-05-03T13:29:34Z</time>
      </trkpt>
      <trkpt lat="45.1807" lon="0.66894">
        <ele>143</ele>
        <time>2018-05-03T13:29:36Z</time>
      </trkpt>
      <trkpt lat="45.1808" lon="0.66868">
        <ele>140</ele>
        <time>2018-05-03T13:29:39Z</time>
      </trkpt>
      <trkpt lat="45.18102" lon="0.66811">
        <ele>136</ele>
        <time>2018-05-03T13:29:46Z</time>
      </trkpt>
      <trkpt lat="45.18108" lon="0.66803">
        <ele>137</ele>
        <time>2018-05-03T13:29:47Z</time>
      </trkpt>
      <trkpt lat="45.18113" lon="0.66795">
        <ele>137</ele>
        <time>2018-05-03T13:29:48Z</time>
      </trkpt>
      <trkpt lat="45.18119" lon="0.66788">
        <ele>138</ele>
        <time>2018-05-03T13:29:49Z</time>
      </trkpt>
      <trkpt lat="45.18123" lon="0.66781">
        <ele>138</ele>
        <time>2018-05-03T13:29:50Z</time>
      </trkpt>
      <trkpt lat="45.18127" lon="0.66775">
        <ele>139</ele>
        <time>2018-05-03T13:29:51Z</time>
      </trkpt>
      <trkpt lat="45.18131" lon="0.66767">
        <ele>138</ele>
        <time>2018-05-03T13:29:52Z</time>
      </trkpt>
      <trkpt lat="45.18139" lon="0.66763">
        <ele>137</ele>
        <time>2018-05-03T13:29:54Z</time>
      </trkpt>
      <trkpt lat="45.1815" lon="0.66752">
        <ele>139</ele>
        <time>2018-05-03T13:29:57Z</time>
      </trkpt>
      <trkpt lat="45.18162" lon="0.66746">
        <ele>140</ele>
        <time>2018-05-03T13:30:01Z</time>
      </trkpt>
      <trkpt lat="45.18207" lon="0.66721">
        <ele>139</ele>
        <time>2018-05-03T13:30:14Z</time>
      </trkpt>
      <trkpt lat="45.18222" lon="0.66712">
        <ele>138</ele>
        <time>2018-05-03T13:30:16Z</time>
      </trkpt>
      <trkpt lat="45.18231" lon="0.66706">
        <ele>137</ele>
        <time>2018-05-03T13:30:18Z</time>
      </trkpt>
      <trkpt lat="45.18236" lon="0.66703">
        <ele>137</ele>
        <time>2018-05-03T13:30:19Z</time>
      </trkpt>
      <trkpt lat="45.18241" lon="0.66699">
        <ele>137</ele>
        <time>2018-05-03T13:30:20Z</time>
      </trkpt>
      <trkpt lat="45.18255" lon="0.66691">
        <ele>135</ele>
        <time>2018-05-03T13:30:23Z</time>
      </trkpt>
      <trkpt lat="45.18272" lon="0.66685">
        <ele>133</ele>
        <time>2018-05-03T13:30:26Z</time>
      </trkpt>
      <trkpt lat="45.18319" lon="0.66666">
        <ele>135</ele>
        <time>2018-05-03T13:30:35Z</time>
      </trkpt>
      <trkpt lat="45.18324" lon="0.66668">
        <ele>133</ele>
        <time>2018-05-03T13:30:36Z</time>
      </trkpt>
      <trkpt lat="45.18329" lon="0.66665">
        <ele>135</ele>
        <time>2018-05-03T13:30:37Z</time>
      </trkpt>
      <trkpt lat="45.18337" lon="0.66659">
        <ele>138</ele>
        <time>2018-05-03T13:30:39Z</time>
      </trkpt>
      <trkpt lat="45.18341" lon="0.66656">
        <ele>140</ele>
        <time>2018-05-03T13:30:40Z</time>
      </trkpt>
      <trkpt lat="45.18349" lon="0.66651">
        <ele>138</ele>
        <time>2018-05-03T13:30:42Z</time>
      </trkpt>
      <trkpt lat="45.18366" lon="0.66631">
        <ele>135</ele>
        <time>2018-05-03T13:30:46Z</time>
      </trkpt>
      <trkpt lat="45.18369" lon="0.66626">
        <ele>134</ele>
        <time>2018-05-03T13:30:47Z</time>
      </trkpt>
      <trkpt lat="45.18375" lon="0.66619">
        <ele>134</ele>
        <time>2018-05-03T13:30:48Z</time>
      </trkpt>
      <trkpt lat="45.18379" lon="0.66612">
        <ele>133</ele>
        <time>2018-05-03T13:30:49Z</time>
      </trkpt>
      <trkpt lat="45.18384" lon="0.66605">
        <ele>133</ele>
        <time>2018-05-03T13:30:50Z</time>
      </trkpt>
      <trkpt lat="45.18399" lon="0.66588">
        <ele>135</ele>
        <time>2018-05-03T13:30:54Z</time>
      </trkpt>
      <trkpt lat="45.18406" lon="0.66582">
        <ele>134</ele>
        <time>2018-05-03T13:30:55Z</time>
      </trkpt>
      <trkpt lat="45.18424" lon="0.66563">
        <ele>133</ele>
        <time>2018-05-03T13:30:58Z</time>
      </trkpt>
      <trkpt lat="45.18431" lon="0.66561">
        <ele>131</ele>
        <time>2018-05-03T13:30:59Z</time>
      </trkpt>
      <trkpt lat="45.18444" lon="0.66551">
        <ele>130</ele>
        <time>2018-05-03T13:31:01Z</time>
      </trkpt>
      <trkpt lat="45.18449" lon="0.66546">
        <ele>130</ele>
        <time>2018-05-03T13:31:02Z</time>
      </trkpt>
      <trkpt lat="45.18455" lon="0.66541">
        <ele>130</ele>
        <time>2018-05-03T13:31:03Z</time>
      </trkpt>
      <trkpt lat="45.18462" lon="0.66534">
        <ele>130</ele>
        <time>2018-05-03T13:31:04Z</time>
      </trkpt>
      <trkpt lat="45.18468" lon="0.66527">
        <ele>130</ele>
        <time>2018-05-03T13:31:05Z</time>
      </trkpt>
      <trkpt lat="45.18485" lon="0.66503">
        <ele>126</ele>
        <time>2018-05-03T13:31:08Z</time>
      </trkpt>
      <trkpt lat="45.18492" lon="0.66496">
        <ele>126</ele>
        <time>2018-05-03T13:31:09Z</time>
      </trkpt>
      <trkpt lat="45.18504" lon="0.66487">
        <ele>127</ele>
        <time>2018-05-03T13:31:11Z</time>
      </trkpt>
      <trkpt lat="45.18511" lon="0.66481">
        <ele>127</ele>
        <time>2018-05-03T13:31:12Z</time>
      </trkpt>
      <trkpt lat="45.18531" lon="0.66467">
        <ele>127</ele>
        <time>2018-05-03T13:31:15Z</time>
      </trkpt>
      <trkpt lat="45.18537" lon="0.66463">
        <ele>127</ele>
        <time>2018-05-03T13:31:16Z</time>
      </trkpt>
      <trkpt lat="45.18543" lon="0.66462">
        <ele>127</ele>
        <time>2018-05-03T13:31:17Z</time>
      </trkpt>
      <trkpt lat="45.18548" lon="0.66462">
        <ele>126</ele>
        <time>2018-05-03T13:31:18Z</time>
      </trkpt>
      <trkpt lat="45.18553" lon="0.66462">
        <ele>127</ele>
        <time>2018-05-03T13:31:19Z</time>
      </trkpt>
      <trkpt lat="45.18558" lon="0.66461">
        <ele>128</ele>
        <time>2018-05-03T13:31:20Z</time>
      </trkpt>
      <trkpt lat="45.18564" lon="0.66464">
        <ele>127</ele>
        <time>2018-05-03T13:31:21Z</time>
      </trkpt>
      <trkpt lat="45.18575" lon="0.66469">
        <ele>128</ele>
        <time>2018-05-03T13:31:23Z</time>
      </trkpt>
      <trkpt lat="45.18581" lon="0.66469">
        <ele>129</ele>
        <time>2018-05-03T13:31:24Z</time>
      </trkpt>
      <trkpt lat="45.18589" lon="0.66459">
        <ele>128</ele>
        <time>2018-05-03T13:31:26Z</time>
      </trkpt>
      <trkpt lat="45.1859" lon="0.66451">
        <ele>129</ele>
        <time>2018-05-03T13:31:27Z</time>
      </trkpt>
      <trkpt lat="45.18588" lon="0.66443">
        <ele>128</ele>
        <time>2018-05-03T13:31:28Z</time>
      </trkpt>
      <trkpt lat="45.18578" lon="0.66425">
        <ele>127</ele>
        <time>2018-05-03T13:31:31Z</time>
      </trkpt>
      <trkpt lat="45.1857" lon="0.66401">
        <ele>126</ele>
        <time>2018-05-03T13:31:35Z</time>
      </trkpt>
      <trkpt lat="45.18562" lon="0.66393">
        <ele>127</ele>
        <time>2018-05-03T13:31:37Z</time>
      </trkpt>
      <trkpt lat="45.18558" lon="0.66377">
        <ele>128</ele>
        <time>2018-05-03T13:31:40Z</time>
      </trkpt>
      <trkpt lat="45.18553" lon="0.66369">
        <ele>129</ele>
        <time>2018-05-03T13:31:42Z</time>
      </trkpt>
      <trkpt lat="45.1855" lon="0.66354">
        <ele>128</ele>
        <time>2018-05-03T13:31:45Z</time>
      </trkpt>
      <trkpt lat="45.18547" lon="0.66345">
        <ele>127</ele>
        <time>2018-05-03T13:31:47Z</time>
      </trkpt>
      <trkpt lat="45.18542" lon="0.66332">
        <ele>128</ele>
        <time>2018-05-03T13:31:50Z</time>
      </trkpt>
      <trkpt lat="45.18541" lon="0.66324">
        <ele>129</ele>
        <time>2018-05-03T13:31:52Z</time>
      </trkpt>
      <trkpt lat="45.18536" lon="0.66307">
        <ele>130</ele>
        <time>2018-05-03T13:31:56Z</time>
      </trkpt>
      <trkpt lat="45.18534" lon="0.66303">
        <ele>131</ele>
        <time>2018-05-03T13:31:57Z</time>
      </trkpt>
      <trkpt lat="45.1853" lon="0.6629">
        <ele>130</ele>
        <time>2018-05-03T13:32:00Z</time>
      </trkpt>
      <trkpt lat="45.18529" lon="0.66285">
        <ele>130</ele>
        <time>2018-05-03T13:32:01Z</time>
      </trkpt>
      <trkpt lat="45.18527" lon="0.66281">
        <ele>131</ele>
        <time>2018-05-03T13:32:02Z</time>
      </trkpt>
      <trkpt lat="45.1852" lon="0.66257">
        <ele>131</ele>
        <time>2018-05-03T13:32:07Z</time>
      </trkpt>
      <trkpt lat="45.18516" lon="0.66234">
        <ele>131</ele>
        <time>2018-05-03T13:32:12Z</time>
      </trkpt>
      <trkpt lat="45.18516" lon="0.66229">
        <ele>132</ele>
        <time>2018-05-03T13:32:13Z</time>
      </trkpt>
      <trkpt lat="45.18515" lon="0.66224">
        <ele>133</ele>
        <time>2018-05-03T13:32:14Z</time>
      </trkpt>
      <trkpt lat="45.18515" lon="0.66219">
        <ele>133</ele>
        <time>2018-05-03T13:32:15Z</time>
      </trkpt>
      <trkpt lat="45.18514" lon="0.66206">
        <ele>131</ele>
        <time>2018-05-03T13:32:18Z</time>
      </trkpt>
      <trkpt lat="45.18512" lon="0.66195">
        <ele>132</ele>
        <time>2018-05-03T13:32:20Z</time>
      </trkpt>
      <trkpt lat="45.1851" lon="0.66181">
        <ele>133</ele>
        <time>2018-05-03T13:32:23Z</time>
      </trkpt>
      <trkpt lat="45.18509" lon="0.66172">
        <ele>135</ele>
        <time>2018-05-03T13:32:25Z</time>
      </trkpt>
      <trkpt lat="45.18508" lon="0.66163">
        <ele>136</ele>
        <time>2018-05-03T13:32:27Z</time>
      </trkpt>
      <trkpt lat="45.18507" lon="0.66153">
        <ele>136</ele>
        <time>2018-05-03T13:32:29Z</time>
      </trkpt>
      <trkpt lat="45.18505" lon="0.66137">
        <ele>137</ele>
        <time>2018-05-03T13:32:32Z</time>
      </trkpt>
      <trkpt lat="45.18507" lon="0.66125">
        <ele>138</ele>
        <time>2018-05-03T13:32:34Z</time>
      </trkpt>
      <trkpt lat="45.1852" lon="0.66107">
        <ele>136</ele>
        <time>2018-05-03T13:32:39Z</time>
      </trkpt>
      <trkpt lat="45.18547" lon="0.66085">
        <ele>136</ele>
        <time>2018-05-03T13:32:45Z</time>
      </trkpt>
      <trkpt lat="45.18552" lon="0.66082">
        <ele>136</ele>
        <time>2018-05-03T13:32:46Z</time>
      </trkpt>
      <trkpt lat="45.18557" lon="0.66082">
        <ele>134</ele>
        <time>2018-05-03T13:32:47Z</time>
      </trkpt>
      <trkpt lat="45.18565" lon="0.66078">
        <ele>134</ele>
        <time>2018-05-03T13:32:49Z</time>
      </trkpt>
      <trkpt lat="45.18574" lon="0.66074">
        <ele>134</ele>
        <time>2018-05-03T13:32:51Z</time>
      </trkpt>
      <trkpt lat="45.18578" lon="0.66072">
        <ele>134</ele>
        <time>2018-05-03T13:32:52Z</time>
      </trkpt>
      <trkpt lat="45.18583" lon="0.66069">
        <ele>134</ele>
        <time>2018-05-03T13:32:53Z</time>
      </trkpt>
      <trkpt lat="45.1859" lon="0.66065">
        <ele>132</ele>
        <time>2018-05-03T13:32:55Z</time>
      </trkpt>
      <trkpt lat="45.18595" lon="0.66063">
        <ele>132</ele>
        <time>2018-05-03T13:32:56Z</time>
      </trkpt>
      <trkpt lat="45.18613" lon="0.66055">
        <ele>131</ele>
        <time>2018-05-03T13:33:00Z</time>
      </trkpt>
      <trkpt lat="45.18618" lon="0.66053">
        <ele>132</ele>
        <time>2018-05-03T13:33:01Z</time>
      </trkpt>
      <trkpt lat="45.18623" lon="0.66051">
        <ele>131</ele>
        <time>2018-05-03T13:33:02Z</time>
      </trkpt>
      <trkpt lat="45.18628" lon="0.66049">
        <ele>131</ele>
        <time>2018-05-03T13:33:04Z</time>
      </trkpt>
      <trkpt lat="45.18641" lon="0.66045">
        <ele>129</ele>
        <time>2018-05-03T13:33:05Z</time>
      </trkpt>
      <trkpt lat="45.18653" lon="0.66041">
        <ele>129</ele>
        <time>2018-05-03T13:33:07Z</time>
      </trkpt>
      <trkpt lat="45.18659" lon="0.66041">
        <ele>129</ele>
        <time>2018-05-03T13:33:08Z</time>
      </trkpt>
      <trkpt lat="45.18667" lon="0.66041">
        <ele>127</ele>
        <time>2018-05-03T13:33:10Z</time>
      </trkpt>
      <trkpt lat="45.18701" lon="0.66042">
        <ele>123</ele>
        <time>2018-05-03T13:33:14Z</time>
      </trkpt>
      <trkpt lat="45.18709" lon="0.66044">
        <ele>122</ele>
        <time>2018-05-03T13:33:15Z</time>
      </trkpt>
      <trkpt lat="45.18716" lon="0.66047">
        <ele>122</ele>
        <time>2018-05-03T13:33:16Z</time>
      </trkpt>
      <trkpt lat="45.18723" lon="0.6605">
        <ele>123</ele>
        <time>2018-05-03T13:33:17Z</time>
      </trkpt>
      <trkpt lat="45.18731" lon="0.66054">
        <ele>123</ele>
        <time>2018-05-03T13:33:18Z</time>
      </trkpt>
      <trkpt lat="45.18736" lon="0.66058">
        <ele>121</ele>
        <time>2018-05-03T13:33:19Z</time>
      </trkpt>
      <trkpt lat="45.18743" lon="0.66063">
        <ele>121</ele>
        <time>2018-05-03T13:33:20Z</time>
      </trkpt>
      <trkpt lat="45.18747" lon="0.66071">
        <ele>121</ele>
        <time>2018-05-03T13:33:21Z</time>
      </trkpt>
      <trkpt lat="45.1875" lon="0.66078">
        <ele>121</ele>
        <time>2018-05-03T13:33:22Z</time>
      </trkpt>
      <trkpt lat="45.18759" lon="0.66094">
        <ele>120</ele>
        <time>2018-05-03T13:33:25Z</time>
      </trkpt>
      <trkpt lat="45.18771" lon="0.66105">
        <ele>119</ele>
        <time>2018-05-03T13:33:28Z</time>
      </trkpt>
      <trkpt lat="45.18775" lon="0.66119">
        <ele>120</ele>
        <time>2018-05-03T13:33:30Z</time>
      </trkpt>
      <trkpt lat="45.18778" lon="0.66124">
        <ele>119</ele>
        <time>2018-05-03T13:33:31Z</time>
      </trkpt>
      <trkpt lat="45.18787" lon="0.66125">
        <ele>119</ele>
        <time>2018-05-03T13:33:33Z</time>
      </trkpt>
      <trkpt lat="45.18795" lon="0.66121">
        <ele>118</ele>
        <time>2018-05-03T13:33:35Z</time>
      </trkpt>
      <trkpt lat="45.18801" lon="0.66123">
        <ele>117</ele>
        <time>2018-05-03T13:33:36Z</time>
      </trkpt>
      <trkpt lat="45.18807" lon="0.66122">
        <ele>117</ele>
        <time>2018-05-03T13:33:37Z</time>
      </trkpt>
      <trkpt lat="45.18811" lon="0.66125">
        <ele>118</ele>
        <time>2018-05-03T13:33:38Z</time>
      </trkpt>
      <trkpt lat="45.18816" lon="0.6613">
        <ele>119</ele>
        <time>2018-05-03T13:33:39Z</time>
      </trkpt>
      <trkpt lat="45.18832" lon="0.66139">
        <ele>121</ele>
        <time>2018-05-03T13:33:43Z</time>
      </trkpt>
      <trkpt lat="45.18839" lon="0.66135">
        <ele>120</ele>
        <time>2018-05-03T13:33:45Z</time>
      </trkpt>
      <trkpt lat="45.18843" lon="0.66133">
        <ele>119</ele>
        <time>2018-05-03T13:33:46Z</time>
      </trkpt>
      <trkpt lat="45.18851" lon="0.66131">
        <ele>120</ele>
        <time>2018-05-03T13:33:48Z</time>
      </trkpt>
      <trkpt lat="45.18864" lon="0.66116">
        <ele>120</ele>
        <time>2018-05-03T13:33:53Z</time>
      </trkpt>
      <trkpt lat="45.18869" lon="0.66109">
        <ele>121</ele>
        <time>2018-05-03T13:33:55Z</time>
      </trkpt>
      <trkpt lat="45.18873" lon="0.66104">
        <ele>123</ele>
        <time>2018-05-03T13:33:57Z</time>
      </trkpt>
      <trkpt lat="45.18877" lon="0.66099">
        <ele>122</ele>
        <time>2018-05-03T13:33:59Z</time>
      </trkpt>
      <trkpt lat="45.18882" lon="0.66082">
        <ele>120</ele>
        <time>2018-05-03T13:34:02Z</time>
      </trkpt>
      <trkpt lat="45.18884" lon="0.66076">
        <ele>121</ele>
        <time>2018-05-03T13:34:03Z</time>
      </trkpt>
      <trkpt lat="45.18891" lon="0.66059">
        <ele>123</ele>
        <time>2018-05-03T13:34:06Z</time>
      </trkpt>
      <trkpt lat="45.18894" lon="0.66048">
        <ele>120</ele>
        <time>2018-05-03T13:34:08Z</time>
      </trkpt>
      <trkpt lat="45.18898" lon="0.66037">
        <ele>121</ele>
        <time>2018-05-03T13:34:10Z</time>
      </trkpt>
      <trkpt lat="45.189" lon="0.66032">
        <ele>120</ele>
        <time>2018-05-03T13:34:11Z</time>
      </trkpt>
      <trkpt lat="45.18904" lon="0.66022">
        <ele>119</ele>
        <time>2018-05-03T13:34:13Z</time>
      </trkpt>
      <trkpt lat="45.18906" lon="0.66017">
        <ele>119</ele>
        <time>2018-05-03T13:34:14Z</time>
      </trkpt>
      <trkpt lat="45.18908" lon="0.66012">
        <ele>119</ele>
        <time>2018-05-03T13:34:15Z</time>
      </trkpt>
      <trkpt lat="45.1891" lon="0.66007">
        <ele>119</ele>
        <time>2018-05-03T13:34:16Z</time>
      </trkpt>
      <trkpt lat="45.18912" lon="0.66001">
        <ele>118</ele>
        <time>2018-05-03T13:34:17Z</time>
      </trkpt>
      <trkpt lat="45.18914" lon="0.65996">
        <ele>118</ele>
        <time>2018-05-03T13:34:18Z</time>
      </trkpt>
      <trkpt lat="45.18916" lon="0.6599">
        <ele>118</ele>
        <time>2018-05-03T13:34:19Z</time>
      </trkpt>
      <trkpt lat="45.18918" lon="0.65985">
        <ele>119</ele>
        <time>2018-05-03T13:34:20Z</time>
      </trkpt>
      <trkpt lat="45.18924" lon="0.65969">
        <ele>119</ele>
        <time>2018-05-03T13:34:23Z</time>
      </trkpt>
      <trkpt lat="45.18926" lon="0.65963">
        <ele>119</ele>
        <time>2018-05-03T13:34:24Z</time>
      </trkpt>
      <trkpt lat="45.18927" lon="0.65958">
        <ele>119</ele>
        <time>2018-05-03T13:34:25Z</time>
      </trkpt>
      <trkpt lat="45.18935" lon="0.65929">
        <ele>119</ele>
        <time>2018-05-03T13:34:30Z</time>
      </trkpt>
      <trkpt lat="45.18936" lon="0.65918">
        <ele>120</ele>
        <time>2018-05-03T13:34:32Z</time>
      </trkpt>
      <trkpt lat="45.18937" lon="0.65912">
        <ele>120</ele>
        <time>2018-05-03T13:34:33Z</time>
      </trkpt>
      <trkpt lat="45.18939" lon="0.65902">
        <ele>119</ele>
        <time>2018-05-03T13:34:35Z</time>
      </trkpt>
      <trkpt lat="45.18939" lon="0.65895">
        <ele>119</ele>
        <time>2018-05-03T13:34:36Z</time>
      </trkpt>
      <trkpt lat="45.18941" lon="0.65878">
        <ele>120</ele>
        <time>2018-05-03T13:34:39Z</time>
      </trkpt>
      <trkpt lat="45.18941" lon="0.65871">
        <ele>120</ele>
        <time>2018-05-03T13:34:40Z</time>
      </trkpt>
      <trkpt lat="45.18939" lon="0.65865">
        <ele>120</ele>
        <time>2018-05-03T13:34:41Z</time>
      </trkpt>
      <trkpt lat="45.18937" lon="0.65854">
        <ele>120</ele>
        <time>2018-05-03T13:34:43Z</time>
      </trkpt>
      <trkpt lat="45.18935" lon="0.65848">
        <ele>119</ele>
        <time>2018-05-03T13:34:44Z</time>
      </trkpt>
      <trkpt lat="45.18927" lon="0.6583">
        <ele>118</ele>
        <time>2018-05-03T13:34:47Z</time>
      </trkpt>
      <trkpt lat="45.18925" lon="0.65824">
        <ele>117</ele>
        <time>2018-05-03T13:34:48Z</time>
      </trkpt>
      <trkpt lat="45.18923" lon="0.65816">
        <ele>118</ele>
        <time>2018-05-03T13:34:49Z</time>
      </trkpt>
      <trkpt lat="45.18923" lon="0.6581">
        <ele>118</ele>
        <time>2018-05-03T13:34:50Z</time>
      </trkpt>
      <trkpt lat="45.1892" lon="0.65803">
        <ele>118</ele>
        <time>2018-05-03T13:34:51Z</time>
      </trkpt>
      <trkpt lat="45.18918" lon="0.65796">
        <ele>118</ele>
        <time>2018-05-03T13:34:52Z</time>
      </trkpt>
      <trkpt lat="45.18916" lon="0.65787">
        <ele>118</ele>
        <time>2018-05-03T13:34:53Z</time>
      </trkpt>
      <trkpt lat="45.18914" lon="0.65779">
        <ele>118</ele>
        <time>2018-05-03T13:34:54Z</time>
      </trkpt>
      <trkpt lat="45.18907" lon="0.65748">
        <ele>119</ele>
        <time>2018-05-03T13:34:58Z</time>
      </trkpt>
      <trkpt lat="45.18909" lon="0.65737">
        <ele>119</ele>
        <time>2018-05-03T13:34:59Z</time>
      </trkpt>
      <trkpt lat="45.18906" lon="0.6573">
        <ele>120</ele>
        <time>2018-05-03T13:35:00Z</time>
      </trkpt>
      <trkpt lat="45.18901" lon="0.65716">
        <ele>120</ele>
        <time>2018-05-03T13:35:02Z</time>
      </trkpt>
      <trkpt lat="45.18898" lon="0.657">
        <ele>121</ele>
        <time>2018-05-03T13:35:04Z</time>
      </trkpt>
      <trkpt lat="45.18891" lon="0.65698">
        <ele>121</ele>
        <time>2018-05-03T13:35:05Z</time>
      </trkpt>
      <trkpt lat="45.18892" lon="0.65688">
        <ele>121</ele>
        <time>2018-05-03T13:35:06Z</time>
      </trkpt>
      <trkpt lat="45.18888" lon="0.65683">
        <ele>122</ele>
        <time>2018-05-03T13:35:07Z</time>
      </trkpt>
      <trkpt lat="45.18885" lon="0.65677">
        <ele>122</ele>
        <time>2018-05-03T13:35:08Z</time>
      </trkpt>
      <trkpt lat="45.18886" lon="0.65668">
        <ele>122</ele>
        <time>2018-05-03T13:35:09Z</time>
      </trkpt>
      <trkpt lat="45.18886" lon="0.6566">
        <ele>123</ele>
        <time>2018-05-03T13:35:10Z</time>
      </trkpt>
      <trkpt lat="45.18886" lon="0.65652">
        <ele>123</ele>
        <time>2018-05-03T13:35:11Z</time>
      </trkpt>
      <trkpt lat="45.18882" lon="0.65649">
        <ele>121</ele>
        <time>2018-05-03T13:35:12Z</time>
      </trkpt>
      <trkpt lat="45.18872" lon="0.65616">
        <ele>118</ele>
        <time>2018-05-03T13:35:17Z</time>
      </trkpt>
      <trkpt lat="45.18863" lon="0.65611">
        <ele>117</ele>
        <time>2018-05-03T13:35:19Z</time>
      </trkpt>
      <trkpt lat="45.18796" lon="0.65635">
        <ele>119</ele>
        <time>2018-05-03T13:35:33Z</time>
      </trkpt>
      <trkpt lat="45.18791" lon="0.65636">
        <ele>119</ele>
        <time>2018-05-03T13:35:34Z</time>
      </trkpt>
      <trkpt lat="45.18785" lon="0.65638">
        <ele>119</ele>
        <time>2018-05-03T13:35:35Z</time>
      </trkpt>
      <trkpt lat="45.1878" lon="0.65641">
        <ele>119</ele>
        <time>2018-05-03T13:35:36Z</time>
      </trkpt>
      <trkpt lat="45.1877" lon="0.65646">
        <ele>119</ele>
        <time>2018-05-03T13:35:38Z</time>
      </trkpt>
      <trkpt lat="45.18765" lon="0.65649">
        <ele>119</ele>
        <time>2018-05-03T13:35:39Z</time>
      </trkpt>
      <trkpt lat="45.18756" lon="0.65653">
        <ele>119</ele>
        <time>2018-05-03T13:35:41Z</time>
      </trkpt>
      <trkpt lat="45.1875" lon="0.65656">
        <ele>119</ele>
        <time>2018-05-03T13:35:43Z</time>
      </trkpt>
      <trkpt lat="45.1874" lon="0.6566">
        <ele>120</ele>
        <time>2018-05-03T13:35:44Z</time>
      </trkpt>
      <trkpt lat="45.18735" lon="0.65663">
        <ele>120</ele>
        <time>2018-05-03T13:35:45Z</time>
      </trkpt>
      <trkpt lat="45.18729" lon="0.65666">
        <ele>121</ele>
        <time>2018-05-03T13:35:46Z</time>
      </trkpt>
      <trkpt lat="45.18724" lon="0.65668">
        <ele>121</ele>
        <time>2018-05-03T13:35:48Z</time>
      </trkpt>
      <trkpt lat="45.18711" lon="0.65675">
        <ele>121</ele>
        <time>2018-05-03T13:35:50Z</time>
      </trkpt>
      <trkpt lat="45.18707" lon="0.65676">
        <ele>121</ele>
        <time>2018-05-03T13:35:51Z</time>
      </trkpt>
      <trkpt lat="45.18703" lon="0.65673">
        <ele>120</ele>
        <time>2018-05-03T13:35:52Z</time>
      </trkpt>
      <trkpt lat="45.187" lon="0.65662">
        <ele>120</ele>
        <time>2018-05-03T13:35:54Z</time>
      </trkpt>
      <trkpt lat="45.18702" lon="0.6564">
        <ele>122</ele>
        <time>2018-05-03T13:35:58Z</time>
      </trkpt>
      <trkpt lat="45.18701" lon="0.65629">
        <ele>122</ele>
        <time>2018-05-03T13:36:00Z</time>
      </trkpt>
      <trkpt lat="45.18699" lon="0.65622">
        <ele>122</ele>
        <time>2018-05-03T13:36:02Z</time>
      </trkpt>
      <trkpt lat="45.18696" lon="0.65604">
        <ele>122</ele>
        <time>2018-05-03T13:36:04Z</time>
      </trkpt>
      <trkpt lat="45.18695" lon="0.65591">
        <ele>123</ele>
        <time>2018-05-03T13:36:06Z</time>
      </trkpt>
      <trkpt lat="45.18695" lon="0.65586">
        <ele>123</ele>
        <time>2018-05-03T13:36:07Z</time>
      </trkpt>
      <trkpt lat="45.18694" lon="0.6558">
        <ele>123</ele>
        <time>2018-05-03T13:36:08Z</time>
      </trkpt>
      <trkpt lat="45.18693" lon="0.65568">
        <ele>122</ele>
        <time>2018-05-03T13:36:10Z</time>
      </trkpt>
      <trkpt lat="45.18692" lon="0.65563">
        <ele>121</ele>
        <time>2018-05-03T13:36:11Z</time>
      </trkpt>
      <trkpt lat="45.18693" lon="0.65556">
        <ele>122</ele>
        <time>2018-05-03T13:36:13Z</time>
      </trkpt>
      <trkpt lat="45.18691" lon="0.65537">
        <ele>124</ele>
        <time>2018-05-03T13:36:15Z</time>
      </trkpt>
      <trkpt lat="45.18686" lon="0.65533">
        <ele>121</ele>
        <time>2018-05-03T13:36:16Z</time>
      </trkpt>
      <trkpt lat="45.1868" lon="0.65509">
        <ele>122</ele>
        <time>2018-05-03T13:36:20Z</time>
      </trkpt>
      <trkpt lat="45.18678" lon="0.65504">
        <ele>122</ele>
        <time>2018-05-03T13:36:21Z</time>
      </trkpt>
      <trkpt lat="45.18679" lon="0.65497">
        <ele>122</ele>
        <time>2018-05-03T13:36:22Z</time>
      </trkpt>
      <trkpt lat="45.18676" lon="0.65479">
        <ele>121</ele>
        <time>2018-05-03T13:36:26Z</time>
      </trkpt>
      <trkpt lat="45.18664" lon="0.65442">
        <ele>123</ele>
        <time>2018-05-03T13:36:31Z</time>
      </trkpt>
      <trkpt lat="45.18663" lon="0.65435">
        <ele>124</ele>
        <time>2018-05-03T13:36:32Z</time>
      </trkpt>
      <trkpt lat="45.18656" lon="0.65418">
        <ele>125</ele>
        <time>2018-05-03T13:36:35Z</time>
      </trkpt>
      <trkpt lat="45.18656" lon="0.65411">
        <ele>126</ele>
        <time>2018-05-03T13:36:36Z</time>
      </trkpt>
      <trkpt lat="45.1865" lon="0.654">
        <ele>125</ele>
        <time>2018-05-03T13:36:38Z</time>
      </trkpt>
      <trkpt lat="45.18646" lon="0.65388">
        <ele>125</ele>
        <time>2018-05-03T13:36:41Z</time>
      </trkpt>
      <trkpt lat="45.18647" lon="0.65374">
        <ele>122</ele>
        <time>2018-05-03T13:36:43Z</time>
      </trkpt>
      <trkpt lat="45.18639" lon="0.65349">
        <ele>121</ele>
        <time>2018-05-03T13:36:46Z</time>
      </trkpt>
      <trkpt lat="45.18637" lon="0.65344">
        <ele>122</ele>
        <time>2018-05-03T13:36:47Z</time>
      </trkpt>
      <trkpt lat="45.18633" lon="0.65325">
        <ele>121</ele>
        <time>2018-05-03T13:36:50Z</time>
      </trkpt>
      <trkpt lat="45.18631" lon="0.65319">
        <ele>121</ele>
        <time>2018-05-03T13:36:51Z</time>
      </trkpt>
      <trkpt lat="45.18623" lon="0.65304">
        <ele>121</ele>
        <time>2018-05-03T13:36:55Z</time>
      </trkpt>
      <trkpt lat="45.18621" lon="0.65275">
        <ele>120</ele>
        <time>2018-05-03T13:36:58Z</time>
      </trkpt>
      <trkpt lat="45.18613" lon="0.6527">
        <ele>121</ele>
        <time>2018-05-03T13:37:00Z</time>
      </trkpt>
      <trkpt lat="45.18609" lon="0.6526">
        <ele>120</ele>
        <time>2018-05-03T13:37:02Z</time>
      </trkpt>
      <trkpt lat="45.18606" lon="0.65248">
        <ele>122</ele>
        <time>2018-05-03T13:37:04Z</time>
      </trkpt>
      <trkpt lat="45.18602" lon="0.65238">
        <ele>122</ele>
        <time>2018-05-03T13:37:06Z</time>
      </trkpt>
      <trkpt lat="45.18598" lon="0.65221">
        <ele>122</ele>
        <time>2018-05-03T13:37:09Z</time>
      </trkpt>
      <trkpt lat="45.18598" lon="0.65215">
        <ele>120</ele>
        <time>2018-05-03T13:37:11Z</time>
      </trkpt>
      <trkpt lat="45.18595" lon="0.65205">
        <ele>120</ele>
        <time>2018-05-03T13:37:12Z</time>
      </trkpt>
      <trkpt lat="45.1859" lon="0.65194">
        <ele>119</ele>
        <time>2018-05-03T13:37:14Z</time>
      </trkpt>
      <trkpt lat="45.18585" lon="0.65185">
        <ele>118</ele>
        <time>2018-05-03T13:37:16Z</time>
      </trkpt>
      <trkpt lat="45.18583" lon="0.6518">
        <ele>118</ele>
        <time>2018-05-03T13:37:17Z</time>
      </trkpt>
      <trkpt lat="45.1858" lon="0.65175">
        <ele>118</ele>
        <time>2018-05-03T13:37:18Z</time>
      </trkpt>
      <trkpt lat="45.18575" lon="0.65166">
        <ele>119</ele>
        <time>2018-05-03T13:37:20Z</time>
      </trkpt>
      <trkpt lat="45.18573" lon="0.65161">
        <ele>119</ele>
        <time>2018-05-03T13:37:21Z</time>
      </trkpt>
      <trkpt lat="45.18571" lon="0.65157">
        <ele>120</ele>
        <time>2018-05-03T13:37:23Z</time>
      </trkpt>
      <trkpt lat="45.18565" lon="0.65148">
        <ele>119</ele>
        <time>2018-05-03T13:37:24Z</time>
      </trkpt>
      <trkpt lat="45.18559" lon="0.65132">
        <ele>119</ele>
        <time>2018-05-03T13:37:27Z</time>
      </trkpt>
      <trkpt lat="45.18557" lon="0.65127">
        <ele>119</ele>
        <time>2018-05-03T13:37:28Z</time>
      </trkpt>
      <trkpt lat="45.18555" lon="0.65121">
        <ele>119</ele>
        <time>2018-05-03T13:37:29Z</time>
      </trkpt>
      <trkpt lat="45.18553" lon="0.6511">
        <ele>119</ele>
        <time>2018-05-03T13:37:32Z</time>
      </trkpt>
      <trkpt lat="45.18552" lon="0.65093">
        <ele>119</ele>
        <time>2018-05-03T13:37:34Z</time>
      </trkpt>
      <trkpt lat="45.18552" lon="0.65087">
        <ele>119</ele>
        <time>2018-05-03T13:37:35Z</time>
      </trkpt>
      <trkpt lat="45.18551" lon="0.65082">
        <ele>119</ele>
        <time>2018-05-03T13:37:36Z</time>
      </trkpt>
      <trkpt lat="45.18551" lon="0.65076">
        <ele>119</ele>
        <time>2018-05-03T13:37:37Z</time>
      </trkpt>
      <trkpt lat="45.18551" lon="0.65071">
        <ele>119</ele>
        <time>2018-05-03T13:37:38Z</time>
      </trkpt>
      <trkpt lat="45.18552" lon="0.65059">
        <ele>119</ele>
        <time>2018-05-03T13:37:40Z</time>
      </trkpt>
      <trkpt lat="45.18552" lon="0.65023">
        <ele>120</ele>
        <time>2018-05-03T13:37:46Z</time>
      </trkpt>
      <trkpt lat="45.18551" lon="0.65011">
        <ele>119</ele>
        <time>2018-05-03T13:37:48Z</time>
      </trkpt>
      <trkpt lat="45.1855" lon="0.64999">
        <ele>120</ele>
        <time>2018-05-03T13:37:50Z</time>
      </trkpt>
      <trkpt lat="45.18549" lon="0.64994">
        <ele>120</ele>
        <time>2018-05-03T13:37:51Z</time>
      </trkpt>
      <trkpt lat="45.18549" lon="0.64988">
        <ele>120</ele>
        <time>2018-05-03T13:37:52Z</time>
      </trkpt>
      <trkpt lat="45.18549" lon="0.64982">
        <ele>120</ele>
        <time>2018-05-03T13:37:53Z</time>
      </trkpt>
      <trkpt lat="45.18548" lon="0.6497">
        <ele>118</ele>
        <time>2018-05-03T13:37:55Z</time>
      </trkpt>
      <trkpt lat="45.18545" lon="0.64953">
        <ele>116</ele>
        <time>2018-05-03T13:37:58Z</time>
      </trkpt>
      <trkpt lat="45.18541" lon="0.64948">
        <ele>115</ele>
        <time>2018-05-03T13:37:59Z</time>
      </trkpt>
      <trkpt lat="45.18541" lon="0.64936">
        <ele>113</ele>
        <time>2018-05-03T13:38:01Z</time>
      </trkpt>
      <trkpt lat="45.18539" lon="0.6492">
        <ele>113</ele>
        <time>2018-05-03T13:38:04Z</time>
      </trkpt>
      <trkpt lat="45.18539" lon="0.64913">
        <ele>114</ele>
        <time>2018-05-03T13:38:05Z</time>
      </trkpt>
      <trkpt lat="45.18537" lon="0.649">
        <ele>115</ele>
        <time>2018-05-03T13:38:07Z</time>
      </trkpt>
      <trkpt lat="45.18535" lon="0.64892">
        <ele>115</ele>
        <time>2018-05-03T13:38:08Z</time>
      </trkpt>
      <trkpt lat="45.18536" lon="0.64885">
        <ele>117</ele>
        <time>2018-05-03T13:38:09Z</time>
      </trkpt>
      <trkpt lat="45.18529" lon="0.64867">
        <ele>118</ele>
        <time>2018-05-03T13:38:12Z</time>
      </trkpt>
      <trkpt lat="45.18527" lon="0.64861">
        <ele>117</ele>
        <time>2018-05-03T13:38:13Z</time>
      </trkpt>
      <trkpt lat="45.18517" lon="0.64839">
        <ele>116</ele>
        <time>2018-05-03T13:38:18Z</time>
      </trkpt>
      <trkpt lat="45.18517" lon="0.64833">
        <ele>115</ele>
        <time>2018-05-03T13:38:19Z</time>
      </trkpt>
      <trkpt lat="45.18512" lon="0.64817">
        <ele>114</ele>
        <time>2018-05-03T13:38:22Z</time>
      </trkpt>
      <trkpt lat="45.18513" lon="0.64728">
        <ele>114</ele>
        <time>2018-05-03T13:38:37Z</time>
      </trkpt>
      <trkpt lat="45.18513" lon="0.64722">
        <ele>115</ele>
        <time>2018-05-03T13:38:39Z</time>
      </trkpt>
      <trkpt lat="45.18512" lon="0.64704">
        <ele>116</ele>
        <time>2018-05-03T13:38:41Z</time>
      </trkpt>
      <trkpt lat="45.18512" lon="0.64698">
        <ele>116</ele>
        <time>2018-05-03T13:38:42Z</time>
      </trkpt>
      <trkpt lat="45.18514" lon="0.64678">
        <ele>115</ele>
        <time>2018-05-03T13:38:45Z</time>
      </trkpt>
      <trkpt lat="45.18512" lon="0.64672">
        <ele>115</ele>
        <time>2018-05-03T13:38:46Z</time>
      </trkpt>
      <trkpt lat="45.18508" lon="0.64668">
        <ele>115</ele>
        <time>2018-05-03T13:38:47Z</time>
      </trkpt>
      <trkpt lat="45.18509" lon="0.64653">
        <ele>116</ele>
        <time>2018-05-03T13:38:49Z</time>
      </trkpt>
      <trkpt lat="45.18512" lon="0.64608">
        <ele>117</ele>
        <time>2018-05-03T13:38:56Z</time>
      </trkpt>
      <trkpt lat="45.18506" lon="0.64601">
        <ele>114</ele>
        <time>2018-05-03T13:38:59Z</time>
      </trkpt>
      <trkpt lat="45.18508" lon="0.64593">
        <ele>114</ele>
        <time>2018-05-03T13:39:00Z</time>
      </trkpt>
      <trkpt lat="45.18506" lon="0.64575">
        <ele>116</ele>
        <time>2018-05-03T13:39:02Z</time>
      </trkpt>
      <trkpt lat="45.18511" lon="0.64568">
        <ele>117</ele>
        <time>2018-05-03T13:39:03Z</time>
      </trkpt>
      <trkpt lat="45.18515" lon="0.64562">
        <ele>117</ele>
        <time>2018-05-03T13:39:04Z</time>
      </trkpt>
      <trkpt lat="45.18516" lon="0.64552">
        <ele>117</ele>
        <time>2018-05-03T13:39:07Z</time>
      </trkpt>
      <trkpt lat="45.18516" lon="0.64539">
        <ele>119</ele>
        <time>2018-05-03T13:39:09Z</time>
      </trkpt>
      <trkpt lat="45.18517" lon="0.64523">
        <ele>120</ele>
        <time>2018-05-03T13:39:12Z</time>
      </trkpt>
      <trkpt lat="45.18519" lon="0.64511">
        <ele>119</ele>
        <time>2018-05-03T13:39:14Z</time>
      </trkpt>
      <trkpt lat="45.1852" lon="0.64499">
        <ele>120</ele>
        <time>2018-05-03T13:39:16Z</time>
      </trkpt>
      <trkpt lat="45.1852" lon="0.64493">
        <ele>121</ele>
        <time>2018-05-03T13:39:17Z</time>
      </trkpt>
      <trkpt lat="45.1852" lon="0.64481">
        <ele>123</ele>
        <time>2018-05-03T13:39:19Z</time>
      </trkpt>
      <trkpt lat="45.18521" lon="0.64474">
        <ele>123</ele>
        <time>2018-05-03T13:39:20Z</time>
      </trkpt>
      <trkpt lat="45.18521" lon="0.64468">
        <ele>123</ele>
        <time>2018-05-03T13:39:21Z</time>
      </trkpt>
      <trkpt lat="45.18521" lon="0.64462">
        <ele>122</ele>
        <time>2018-05-03T13:39:22Z</time>
      </trkpt>
      <trkpt lat="45.18521" lon="0.64456">
        <ele>122</ele>
        <time>2018-05-03T13:39:23Z</time>
      </trkpt>
      <trkpt lat="45.1852" lon="0.64449">
        <ele>123</ele>
        <time>2018-05-03T13:39:24Z</time>
      </trkpt>
      <trkpt lat="45.1852" lon="0.64438">
        <ele>122</ele>
        <time>2018-05-03T13:39:26Z</time>
      </trkpt>
      <trkpt lat="45.18518" lon="0.64427">
        <ele>122</ele>
        <time>2018-05-03T13:39:28Z</time>
      </trkpt>
      <trkpt lat="45.18519" lon="0.64421">
        <ele>122</ele>
        <time>2018-05-03T13:39:29Z</time>
      </trkpt>
      <trkpt lat="45.18519" lon="0.64414">
        <ele>123</ele>
        <time>2018-05-03T13:39:30Z</time>
      </trkpt>
      <trkpt lat="45.18519" lon="0.64403">
        <ele>123</ele>
        <time>2018-05-03T13:39:32Z</time>
      </trkpt>
      <trkpt lat="45.18518" lon="0.64397">
        <ele>124</ele>
        <time>2018-05-03T13:39:33Z</time>
      </trkpt>
      <trkpt lat="45.18517" lon="0.64392">
        <ele>123</ele>
        <time>2018-05-03T13:39:34Z</time>
      </trkpt>
      <trkpt lat="45.18517" lon="0.64373">
        <ele>124</ele>
        <time>2018-05-03T13:39:37Z</time>
      </trkpt>
      <trkpt lat="45.18517" lon="0.64367">
        <ele>124</ele>
        <time>2018-05-03T13:39:38Z</time>
      </trkpt>
      <trkpt lat="45.18518" lon="0.64361">
        <ele>124</ele>
        <time>2018-05-03T13:39:39Z</time>
      </trkpt>
      <trkpt lat="45.18518" lon="0.64355">
        <ele>124</ele>
        <time>2018-05-03T13:39:40Z</time>
      </trkpt>
      <trkpt lat="45.18518" lon="0.64345">
        <ele>124</ele>
        <time>2018-05-03T13:39:42Z</time>
      </trkpt>
      <trkpt lat="45.18518" lon="0.6434">
        <ele>124</ele>
        <time>2018-05-03T13:39:43Z</time>
      </trkpt>
      <trkpt lat="45.18518" lon="0.64334">
        <ele>124</ele>
        <time>2018-05-03T13:39:44Z</time>
      </trkpt>
      <trkpt lat="45.18518" lon="0.64319">
        <ele>123</ele>
        <time>2018-05-03T13:39:47Z</time>
      </trkpt>
      <trkpt lat="45.18519" lon="0.64309">
        <ele>123</ele>
        <time>2018-05-03T13:39:49Z</time>
      </trkpt>
      <trkpt lat="45.1852" lon="0.64304">
        <ele>122</ele>
        <time>2018-05-03T13:39:50Z</time>
      </trkpt>
      <trkpt lat="45.18524" lon="0.64288">
        <ele>121</ele>
        <time>2018-05-03T13:39:53Z</time>
      </trkpt>
      <trkpt lat="45.18526" lon="0.64282">
        <ele>121</ele>
        <time>2018-05-03T13:39:54Z</time>
      </trkpt>
      <trkpt lat="45.18527" lon="0.64277">
        <ele>121</ele>
        <time>2018-05-03T13:39:55Z</time>
      </trkpt>
      <trkpt lat="45.18528" lon="0.64272">
        <ele>122</ele>
        <time>2018-05-03T13:39:56Z</time>
      </trkpt>
      <trkpt lat="45.1853" lon="0.64261">
        <ele>122</ele>
        <time>2018-05-03T13:39:58Z</time>
      </trkpt>
      <trkpt lat="45.18533" lon="0.64244">
        <ele>122</ele>
        <time>2018-05-03T13:40:01Z</time>
      </trkpt>
      <trkpt lat="45.18533" lon="0.64239">
        <ele>122</ele>
        <time>2018-05-03T13:40:02Z</time>
      </trkpt>
      <trkpt lat="45.18534" lon="0.64233">
        <ele>122</ele>
        <time>2018-05-03T13:40:03Z</time>
      </trkpt>
      <trkpt lat="45.18535" lon="0.64222">
        <ele>122</ele>
        <time>2018-05-03T13:40:05Z</time>
      </trkpt>
      <trkpt lat="45.18536" lon="0.64216">
        <ele>122</ele>
        <time>2018-05-03T13:40:06Z</time>
      </trkpt>
      <trkpt lat="45.18536" lon="0.6421">
        <ele>122</ele>
        <time>2018-05-03T13:40:07Z</time>
      </trkpt>
      <trkpt lat="45.18537" lon="0.64204">
        <ele>122</ele>
        <time>2018-05-03T13:40:08Z</time>
      </trkpt>
      <trkpt lat="45.18538" lon="0.64198">
        <ele>121</ele>
        <time>2018-05-03T13:40:09Z</time>
      </trkpt>
      <trkpt lat="45.18539" lon="0.64192">
        <ele>121</ele>
        <time>2018-05-03T13:40:10Z</time>
      </trkpt>
      <trkpt lat="45.18539" lon="0.64186">
        <ele>120</ele>
        <time>2018-05-03T13:40:11Z</time>
      </trkpt>
      <trkpt lat="45.1854" lon="0.64179">
        <ele>121</ele>
        <time>2018-05-03T13:40:12Z</time>
      </trkpt>
      <trkpt lat="45.18541" lon="0.64173">
        <ele>121</ele>
        <time>2018-05-03T13:40:13Z</time>
      </trkpt>
      <trkpt lat="45.18542" lon="0.64162">
        <ele>121</ele>
        <time>2018-05-03T13:40:15Z</time>
      </trkpt>
      <trkpt lat="45.18545" lon="0.64142">
        <ele>122</ele>
        <time>2018-05-03T13:40:18Z</time>
      </trkpt>
      <trkpt lat="45.18545" lon="0.64136">
        <ele>122</ele>
        <time>2018-05-03T13:40:19Z</time>
      </trkpt>
      <trkpt lat="45.18546" lon="0.64124">
        <ele>122</ele>
        <time>2018-05-03T13:40:21Z</time>
      </trkpt>
      <trkpt lat="45.18546" lon="0.64113">
        <ele>122</ele>
        <time>2018-05-03T13:40:23Z</time>
      </trkpt>
      <trkpt lat="45.18546" lon="0.64107">
        <ele>121</ele>
        <time>2018-05-03T13:40:24Z</time>
      </trkpt>
      <trkpt lat="45.18546" lon="0.64093">
        <ele>122</ele>
        <time>2018-05-03T13:40:26Z</time>
      </trkpt>
      <trkpt lat="45.18544" lon="0.64081">
        <ele>122</ele>
        <time>2018-05-03T13:40:28Z</time>
      </trkpt>
      <trkpt lat="45.18545" lon="0.64074">
        <ele>121</ele>
        <time>2018-05-03T13:40:29Z</time>
      </trkpt>
      <trkpt lat="45.18544" lon="0.64055">
        <ele>120</ele>
        <time>2018-05-03T13:40:32Z</time>
      </trkpt>
      <trkpt lat="45.18545" lon="0.64047">
        <ele>119</ele>
        <time>2018-05-03T13:40:33Z</time>
      </trkpt>
      <trkpt lat="45.18545" lon="0.64033">
        <ele>121</ele>
        <time>2018-05-03T13:40:35Z</time>
      </trkpt>
      <trkpt lat="45.18546" lon="0.64016">
        <ele>121</ele>
        <time>2018-05-03T13:40:38Z</time>
      </trkpt>
      <trkpt lat="45.18546" lon="0.64009">
        <ele>121</ele>
        <time>2018-05-03T13:40:39Z</time>
      </trkpt>
      <trkpt lat="45.18547" lon="0.64002">
        <ele>120</ele>
        <time>2018-05-03T13:40:40Z</time>
      </trkpt>
      <trkpt lat="45.18546" lon="0.63996">
        <ele>121</ele>
        <time>2018-05-03T13:40:41Z</time>
      </trkpt>
      <trkpt lat="45.18548" lon="0.63977">
        <ele>122</ele>
        <time>2018-05-03T13:40:44Z</time>
      </trkpt>
      <trkpt lat="45.18549" lon="0.6397">
        <ele>121</ele>
        <time>2018-05-03T13:40:45Z</time>
      </trkpt>
      <trkpt lat="45.18549" lon="0.63963">
        <ele>122</ele>
        <time>2018-05-03T13:40:46Z</time>
      </trkpt>
      <trkpt lat="45.18548" lon="0.63947">
        <ele>121</ele>
        <time>2018-05-03T13:40:49Z</time>
      </trkpt>
      <trkpt lat="45.18548" lon="0.63941">
        <ele>121</ele>
        <time>2018-05-03T13:40:50Z</time>
      </trkpt>
      <trkpt lat="45.18548" lon="0.63936">
        <ele>121</ele>
        <time>2018-05-03T13:40:51Z</time>
      </trkpt>
      <trkpt lat="45.18547" lon="0.63925">
        <ele>121</ele>
        <time>2018-05-03T13:40:53Z</time>
      </trkpt>
      <trkpt lat="45.18546" lon="0.63918">
        <ele>121</ele>
        <time>2018-05-03T13:40:54Z</time>
      </trkpt>
      <trkpt lat="45.18547" lon="0.639">
        <ele>121</ele>
        <time>2018-05-03T13:40:57Z</time>
      </trkpt>
      <trkpt lat="45.18547" lon="0.63894">
        <ele>122</ele>
        <time>2018-05-03T13:40:58Z</time>
      </trkpt>
      <trkpt lat="45.18547" lon="0.63886">
        <ele>122</ele>
        <time>2018-05-03T13:41:00Z</time>
      </trkpt>
      <trkpt lat="45.18548" lon="0.63875">
        <ele>120</ele>
        <time>2018-05-03T13:41:02Z</time>
      </trkpt>
      <trkpt lat="45.18548" lon="0.63865">
        <ele>119</ele>
        <time>2018-05-03T13:41:04Z</time>
      </trkpt>
      <trkpt lat="45.18547" lon="0.63852">
        <ele>120</ele>
        <time>2018-05-03T13:41:07Z</time>
      </trkpt>
      <trkpt lat="45.18547" lon="0.63844">
        <ele>122</ele>
        <time>2018-05-03T13:41:09Z</time>
      </trkpt>
      <trkpt lat="45.1855" lon="0.63836">
        <ele>121</ele>
        <time>2018-05-03T13:41:11Z</time>
      </trkpt>
      <trkpt lat="45.18559" lon="0.63827">
        <ele>123</ele>
        <time>2018-05-03T13:41:14Z</time>
      </trkpt>
      <trkpt lat="45.18571" lon="0.6382">
        <ele>122</ele>
        <time>2018-05-03T13:41:17Z</time>
      </trkpt>
      <trkpt lat="45.1858" lon="0.63815">
        <ele>123</ele>
        <time>2018-05-03T13:41:19Z</time>
      </trkpt>
      <trkpt lat="45.18584" lon="0.63811">
        <ele>122</ele>
        <time>2018-05-03T13:41:20Z</time>
      </trkpt>
      <trkpt lat="45.18589" lon="0.63807">
        <ele>122</ele>
        <time>2018-05-03T13:41:21Z</time>
      </trkpt>
      <trkpt lat="45.18594" lon="0.63799">
        <ele>121</ele>
        <time>2018-05-03T13:41:23Z</time>
      </trkpt>
      <trkpt lat="45.186" lon="0.6379">
        <ele>120</ele>
        <time>2018-05-03T13:41:25Z</time>
      </trkpt>
      <trkpt lat="45.18605" lon="0.63781">
        <ele>121</ele>
        <time>2018-05-03T13:41:27Z</time>
      </trkpt>
      <trkpt lat="45.18614" lon="0.63767">
        <ele>119</ele>
        <time>2018-05-03T13:41:30Z</time>
      </trkpt>
      <trkpt lat="45.18616" lon="0.63764">
        <ele>118</ele>
        <time>2018-05-03T13:41:31Z</time>
      </trkpt>
      <trkpt lat="45.18621" lon="0.63759">
        <ele>119</ele>
        <time>2018-05-03T13:41:32Z</time>
      </trkpt>
      <trkpt lat="45.18624" lon="0.63753">
        <ele>118</ele>
        <time>2018-05-03T13:41:33Z</time>
      </trkpt>
      <trkpt lat="45.18626" lon="0.63743">
        <ele>117</ele>
        <time>2018-05-03T13:41:35Z</time>
      </trkpt>
      <trkpt lat="45.18632" lon="0.63734">
        <ele>118</ele>
        <time>2018-05-03T13:41:37Z</time>
      </trkpt>
      <trkpt lat="45.18634" lon="0.63729">
        <ele>118</ele>
        <time>2018-05-03T13:41:38Z</time>
      </trkpt>
      <trkpt lat="45.18637" lon="0.63726">
        <ele>119</ele>
        <time>2018-05-03T13:41:39Z</time>
      </trkpt>
      <trkpt lat="45.18644" lon="0.63712">
        <ele>118</ele>
        <time>2018-05-03T13:41:42Z</time>
      </trkpt>
      <trkpt lat="45.18648" lon="0.63703">
        <ele>118</ele>
        <time>2018-05-03T13:41:44Z</time>
      </trkpt>
      <trkpt lat="45.18651" lon="0.63698">
        <ele>118</ele>
        <time>2018-05-03T13:41:45Z</time>
      </trkpt>
      <trkpt lat="45.18653" lon="0.63693">
        <ele>119</ele>
        <time>2018-05-03T13:41:46Z</time>
      </trkpt>
      <trkpt lat="45.18656" lon="0.63689">
        <ele>120</ele>
        <time>2018-05-03T13:41:47Z</time>
      </trkpt>
      <trkpt lat="45.18658" lon="0.63685">
        <ele>120</ele>
        <time>2018-05-03T13:41:48Z</time>
      </trkpt>
      <trkpt lat="45.1866" lon="0.6368">
        <ele>121</ele>
        <time>2018-05-03T13:41:49Z</time>
      </trkpt>
      <trkpt lat="45.18662" lon="0.63676">
        <ele>121</ele>
        <time>2018-05-03T13:41:50Z</time>
      </trkpt>
      <trkpt lat="45.18665" lon="0.63672">
        <ele>121</ele>
        <time>2018-05-03T13:41:51Z</time>
      </trkpt>
      <trkpt lat="45.18667" lon="0.63668">
        <ele>120</ele>
        <time>2018-05-03T13:41:52Z</time>
      </trkpt>
      <trkpt lat="45.18669" lon="0.63664">
        <ele>120</ele>
        <time>2018-05-03T13:41:53Z</time>
      </trkpt>
      <trkpt lat="45.18672" lon="0.6366">
        <ele>120</ele>
        <time>2018-05-03T13:41:54Z</time>
      </trkpt>
      <trkpt lat="45.18674" lon="0.63656">
        <ele>121</ele>
        <time>2018-05-03T13:41:55Z</time>
      </trkpt>
      <trkpt lat="45.18678" lon="0.63647">
        <ele>120</ele>
        <time>2018-05-03T13:41:57Z</time>
      </trkpt>
      <trkpt lat="45.18682" lon="0.63639">
        <ele>120</ele>
        <time>2018-05-03T13:41:59Z</time>
      </trkpt>
      <trkpt lat="45.18689" lon="0.63626">
        <ele>122</ele>
        <time>2018-05-03T13:42:02Z</time>
      </trkpt>
      <trkpt lat="45.18692" lon="0.63622">
        <ele>122</ele>
        <time>2018-05-03T13:42:03Z</time>
      </trkpt>
      <trkpt lat="45.18694" lon="0.63618">
        <ele>121</ele>
        <time>2018-05-03T13:42:04Z</time>
      </trkpt>
      <trkpt lat="45.18697" lon="0.63614">
        <ele>122</ele>
        <time>2018-05-03T13:42:05Z</time>
      </trkpt>
      <trkpt lat="45.18704" lon="0.63603">
        <ele>122</ele>
        <time>2018-05-03T13:42:08Z</time>
      </trkpt>
      <trkpt lat="45.18709" lon="0.63595">
        <ele>122</ele>
        <time>2018-05-03T13:42:10Z</time>
      </trkpt>
      <trkpt lat="45.18713" lon="0.63587">
        <ele>123</ele>
        <time>2018-05-03T13:42:12Z</time>
      </trkpt>
      <trkpt lat="45.18717" lon="0.63578">
        <ele>122</ele>
        <time>2018-05-03T13:42:14Z</time>
      </trkpt>
      <trkpt lat="45.18722" lon="0.63563">
        <ele>121</ele>
        <time>2018-05-03T13:42:17Z</time>
      </trkpt>
      <trkpt lat="45.18724" lon="0.63558">
        <ele>121</ele>
        <time>2018-05-03T13:42:18Z</time>
      </trkpt>
      <trkpt lat="45.18726" lon="0.63553">
        <ele>121</ele>
        <time>2018-05-03T13:42:19Z</time>
      </trkpt>
      <trkpt lat="45.18727" lon="0.63549">
        <ele>121</ele>
        <time>2018-05-03T13:42:20Z</time>
      </trkpt>
      <trkpt lat="45.18733" lon="0.63534">
        <ele>121</ele>
        <time>2018-05-03T13:42:23Z</time>
      </trkpt>
      <trkpt lat="45.18735" lon="0.63529">
        <ele>121</ele>
        <time>2018-05-03T13:42:24Z</time>
      </trkpt>
      <trkpt lat="45.18737" lon="0.63525">
        <ele>122</ele>
        <time>2018-05-03T13:42:25Z</time>
      </trkpt>
      <trkpt lat="45.18742" lon="0.63516">
        <ele>124</ele>
        <time>2018-05-03T13:42:27Z</time>
      </trkpt>
      <trkpt lat="45.18745" lon="0.63512">
        <ele>123</ele>
        <time>2018-05-03T13:42:28Z</time>
      </trkpt>
      <trkpt lat="45.18748" lon="0.63508">
        <ele>122</ele>
        <time>2018-05-03T13:42:29Z</time>
      </trkpt>
      <trkpt lat="45.18751" lon="0.63504">
        <ele>123</ele>
        <time>2018-05-03T13:42:30Z</time>
      </trkpt>
      <trkpt lat="45.18754" lon="0.635">
        <ele>124</ele>
        <time>2018-05-03T13:42:31Z</time>
      </trkpt>
      <trkpt lat="45.18756" lon="0.63496">
        <ele>124</ele>
        <time>2018-05-03T13:42:32Z</time>
      </trkpt>
      <trkpt lat="45.18759" lon="0.63492">
        <ele>124</ele>
        <time>2018-05-03T13:42:33Z</time>
      </trkpt>
      <trkpt lat="45.18761" lon="0.63488">
        <ele>123</ele>
        <time>2018-05-03T13:42:34Z</time>
      </trkpt>
      <trkpt lat="45.18764" lon="0.63485">
        <ele>122</ele>
        <time>2018-05-03T13:42:35Z</time>
      </trkpt>
      <trkpt lat="45.18766" lon="0.63481">
        <ele>121</ele>
        <time>2018-05-03T13:42:36Z</time>
      </trkpt>
      <trkpt lat="45.18779" lon="0.63461">
        <ele>122</ele>
        <time>2018-05-03T13:42:41Z</time>
      </trkpt>
      <trkpt lat="45.18784" lon="0.63452">
        <ele>121</ele>
        <time>2018-05-03T13:42:43Z</time>
      </trkpt>
      <trkpt lat="45.18794" lon="0.63433">
        <ele>120</ele>
        <time>2018-05-03T13:42:47Z</time>
      </trkpt>
      <trkpt lat="45.18797" lon="0.63428">
        <ele>119</ele>
        <time>2018-05-03T13:42:48Z</time>
      </trkpt>
      <trkpt lat="45.18799" lon="0.63423">
        <ele>120</ele>
        <time>2018-05-03T13:42:49Z</time>
      </trkpt>
      <trkpt lat="45.18802" lon="0.63418">
        <ele>121</ele>
        <time>2018-05-03T13:42:50Z</time>
      </trkpt>
      <trkpt lat="45.18804" lon="0.63413">
        <ele>121</ele>
        <time>2018-05-03T13:42:51Z</time>
      </trkpt>
      <trkpt lat="45.18807" lon="0.63409">
        <ele>122</ele>
        <time>2018-05-03T13:42:52Z</time>
      </trkpt>
      <trkpt lat="45.1881" lon="0.63404">
        <ele>122</ele>
        <time>2018-05-03T13:42:53Z</time>
      </trkpt>
      <trkpt lat="45.18814" lon="0.634">
        <ele>121</ele>
        <time>2018-05-03T13:42:54Z</time>
      </trkpt>
      <trkpt lat="45.18822" lon="0.63386">
        <ele>121</ele>
        <time>2018-05-03T13:42:57Z</time>
      </trkpt>
      <trkpt lat="45.18824" lon="0.63381">
        <ele>121</ele>
        <time>2018-05-03T13:42:58Z</time>
      </trkpt>
      <trkpt lat="45.1883" lon="0.63373">
        <ele>122</ele>
        <time>2018-05-03T13:43:01Z</time>
      </trkpt>
      <trkpt lat="45.18839" lon="0.63367">
        <ele>119</ele>
        <time>2018-05-03T13:43:02Z</time>
      </trkpt>
      <trkpt lat="45.18842" lon="0.63361">
        <ele>119</ele>
        <time>2018-05-03T13:43:03Z</time>
      </trkpt>
      <trkpt lat="45.18844" lon="0.63356">
        <ele>119</ele>
        <time>2018-05-03T13:43:04Z</time>
      </trkpt>
      <trkpt lat="45.18846" lon="0.63351">
        <ele>119</ele>
        <time>2018-05-03T13:43:05Z</time>
      </trkpt>
      <trkpt lat="45.18848" lon="0.63347">
        <ele>120</ele>
        <time>2018-05-03T13:43:06Z</time>
      </trkpt>
      <trkpt lat="45.18852" lon="0.63338">
        <ele>119</ele>
        <time>2018-05-03T13:43:08Z</time>
      </trkpt>
      <trkpt lat="45.18855" lon="0.63328">
        <ele>118</ele>
        <time>2018-05-03T13:43:10Z</time>
      </trkpt>
      <trkpt lat="45.18858" lon="0.63319">
        <ele>118</ele>
        <time>2018-05-03T13:43:12Z</time>
      </trkpt>
      <trkpt lat="45.18859" lon="0.63315">
        <ele>119</ele>
        <time>2018-05-03T13:43:13Z</time>
      </trkpt>
      <trkpt lat="45.18864" lon="0.63307">
        <ele>121</ele>
        <time>2018-05-03T13:43:15Z</time>
      </trkpt>
      <trkpt lat="45.18869" lon="0.633">
        <ele>120</ele>
        <time>2018-05-03T13:43:17Z</time>
      </trkpt>
      <trkpt lat="45.18871" lon="0.63296">
        <ele>120</ele>
        <time>2018-05-03T13:43:18Z</time>
      </trkpt>
      <trkpt lat="45.18874" lon="0.63293">
        <ele>119</ele>
        <time>2018-05-03T13:43:19Z</time>
      </trkpt>
      <trkpt lat="45.18876" lon="0.63289">
        <ele>120</ele>
        <time>2018-05-03T13:43:20Z</time>
      </trkpt>
      <trkpt lat="45.1888" lon="0.63282">
        <ele>122</ele>
        <time>2018-05-03T13:43:22Z</time>
      </trkpt>
      <trkpt lat="45.18882" lon="0.63272">
        <ele>122</ele>
        <time>2018-05-03T13:43:25Z</time>
      </trkpt>
      <trkpt lat="45.18881" lon="0.63262">
        <ele>122</ele>
        <time>2018-05-03T13:43:26Z</time>
      </trkpt>
      <trkpt lat="45.18877" lon="0.63255">
        <ele>122</ele>
        <time>2018-05-03T13:43:28Z</time>
      </trkpt>
      <trkpt lat="45.1887" lon="0.63249">
        <ele>122</ele>
        <time>2018-05-03T13:43:30Z</time>
      </trkpt>
      <trkpt lat="45.18863" lon="0.63243">
        <ele>122</ele>
        <time>2018-05-03T13:43:32Z</time>
      </trkpt>
      <trkpt lat="45.18856" lon="0.63238">
        <ele>121</ele>
        <time>2018-05-03T13:43:34Z</time>
      </trkpt>
      <trkpt lat="45.18853" lon="0.63235">
        <ele>122</ele>
        <time>2018-05-03T13:43:35Z</time>
      </trkpt>
      <trkpt lat="45.18845" lon="0.6323">
        <ele>122</ele>
        <time>2018-05-03T13:43:37Z</time>
      </trkpt>
      <trkpt lat="45.18838" lon="0.63224">
        <ele>123</ele>
        <time>2018-05-03T13:43:39Z</time>
      </trkpt>
      <trkpt lat="45.18834" lon="0.63221">
        <ele>123</ele>
        <time>2018-05-03T13:43:40Z</time>
      </trkpt>
      <trkpt lat="45.1883" lon="0.63218">
        <ele>123</ele>
        <time>2018-05-03T13:43:41Z</time>
      </trkpt>
      <trkpt lat="45.18826" lon="0.63216">
        <ele>123</ele>
        <time>2018-05-03T13:43:42Z</time>
      </trkpt>
      <trkpt lat="45.18812" lon="0.63208">
        <ele>123</ele>
        <time>2018-05-03T13:43:46Z</time>
      </trkpt>
      <trkpt lat="45.188" lon="0.63197">
        <ele>123</ele>
        <time>2018-05-03T13:43:48Z</time>
      </trkpt>
      <trkpt lat="45.18787" lon="0.63184">
        <ele>123</ele>
        <time>2018-05-03T13:43:52Z</time>
      </trkpt>
      <trkpt lat="45.18781" lon="0.63175">
        <ele>122</ele>
        <time>2018-05-03T13:43:54Z</time>
      </trkpt>
      <trkpt lat="45.18778" lon="0.6317">
        <ele>121</ele>
        <time>2018-05-03T13:43:55Z</time>
      </trkpt>
      <trkpt lat="45.1877" lon="0.63159">
        <ele>120</ele>
        <time>2018-05-03T13:43:58Z</time>
      </trkpt>
      <trkpt lat="45.18767" lon="0.63155">
        <ele>119</ele>
        <time>2018-05-03T13:43:59Z</time>
      </trkpt>
      <trkpt lat="45.18763" lon="0.63152">
        <ele>120</ele>
        <time>2018-05-03T13:44:00Z</time>
      </trkpt>
      <trkpt lat="45.18755" lon="0.6314">
        <ele>120</ele>
        <time>2018-05-03T13:44:03Z</time>
      </trkpt>
      <trkpt lat="45.18747" lon="0.63128">
        <ele>120</ele>
        <time>2018-05-03T13:44:07Z</time>
      </trkpt>
      <trkpt lat="45.18738" lon="0.63115">
        <ele>120</ele>
        <time>2018-05-03T13:44:09Z</time>
      </trkpt>
      <trkpt lat="45.18732" lon="0.63106">
        <ele>121</ele>
        <time>2018-05-03T13:44:11Z</time>
      </trkpt>
      <trkpt lat="45.18728" lon="0.63101">
        <ele>121</ele>
        <time>2018-05-03T13:44:12Z</time>
      </trkpt>
      <trkpt lat="45.18719" lon="0.63082">
        <ele>120</ele>
        <time>2018-05-03T13:44:16Z</time>
      </trkpt>
      <trkpt lat="45.18714" lon="0.63073">
        <ele>120</ele>
        <time>2018-05-03T13:44:18Z</time>
      </trkpt>
      <trkpt lat="45.18711" lon="0.63068">
        <ele>121</ele>
        <time>2018-05-03T13:44:19Z</time>
      </trkpt>
      <trkpt lat="45.18708" lon="0.63063">
        <ele>122</ele>
        <time>2018-05-03T13:44:21Z</time>
      </trkpt>
      <trkpt lat="45.18696" lon="0.63043">
        <ele>122</ele>
        <time>2018-05-03T13:44:24Z</time>
      </trkpt>
      <trkpt lat="45.18692" lon="0.63035">
        <ele>121</ele>
        <time>2018-05-03T13:44:26Z</time>
      </trkpt>
      <trkpt lat="45.18686" lon="0.63025">
        <ele>121</ele>
        <time>2018-05-03T13:44:28Z</time>
      </trkpt>
      <trkpt lat="45.18684" lon="0.63021">
        <ele>121</ele>
        <time>2018-05-03T13:44:30Z</time>
      </trkpt>
      <trkpt lat="45.18679" lon="0.63012">
        <ele>121</ele>
        <time>2018-05-03T13:44:31Z</time>
      </trkpt>
      <trkpt lat="45.18674" lon="0.63004">
        <ele>120</ele>
        <time>2018-05-03T13:44:33Z</time>
      </trkpt>
      <trkpt lat="45.18669" lon="0.62995">
        <ele>119</ele>
        <time>2018-05-03T13:44:35Z</time>
      </trkpt>
      <trkpt lat="45.18667" lon="0.62991">
        <ele>120</ele>
        <time>2018-05-03T13:44:36Z</time>
      </trkpt>
      <trkpt lat="45.18665" lon="0.62987">
        <ele>121</ele>
        <time>2018-05-03T13:44:37Z</time>
      </trkpt>
      <trkpt lat="45.1866" lon="0.62978">
        <ele>121</ele>
        <time>2018-05-03T13:44:39Z</time>
      </trkpt>
      <trkpt lat="45.18654" lon="0.62965">
        <ele>121</ele>
        <time>2018-05-03T13:44:42Z</time>
      </trkpt>
      <trkpt lat="45.18652" lon="0.62961">
        <ele>120</ele>
        <time>2018-05-03T13:44:43Z</time>
      </trkpt>
      <trkpt lat="45.18648" lon="0.62954">
        <ele>121</ele>
        <time>2018-05-03T13:44:45Z</time>
      </trkpt>
      <trkpt lat="45.18646" lon="0.6295">
        <ele>120</ele>
        <time>2018-05-03T13:44:47Z</time>
      </trkpt>
      <trkpt lat="45.18641" lon="0.62944">
        <ele>120</ele>
        <time>2018-05-03T13:44:48Z</time>
      </trkpt>
      <trkpt lat="45.18638" lon="0.62941">
        <ele>120</ele>
        <time>2018-05-03T13:44:49Z</time>
      </trkpt>
      <trkpt lat="45.18633" lon="0.62935">
        <ele>121</ele>
        <time>2018-05-03T13:44:51Z</time>
      </trkpt>
      <trkpt lat="45.18631" lon="0.62931">
        <ele>121</ele>
        <time>2018-05-03T13:44:53Z</time>
      </trkpt>
      <trkpt lat="45.18627" lon="0.62925">
        <ele>120</ele>
        <time>2018-05-03T13:44:54Z</time>
      </trkpt>
      <trkpt lat="45.18625" lon="0.62921">
        <ele>121</ele>
        <time>2018-05-03T13:44:55Z</time>
      </trkpt>
      <trkpt lat="45.18623" lon="0.62917">
        <ele>120</ele>
        <time>2018-05-03T13:44:56Z</time>
      </trkpt>
      <trkpt lat="45.1862" lon="0.62913">
        <ele>121</ele>
        <time>2018-05-03T13:44:57Z</time>
      </trkpt>
      <trkpt lat="45.18618" lon="0.62909">
        <ele>120</ele>
        <time>2018-05-03T13:44:58Z</time>
      </trkpt>
      <trkpt lat="45.18615" lon="0.62905">
        <ele>121</ele>
        <time>2018-05-03T13:44:59Z</time>
      </trkpt>
      <trkpt lat="45.18613" lon="0.62901">
        <ele>120</ele>
        <time>2018-05-03T13:45:00Z</time>
      </trkpt>
      <trkpt lat="45.1861" lon="0.62897">
        <ele>120</ele>
        <time>2018-05-03T13:45:01Z</time>
      </trkpt>
      <trkpt lat="45.18607" lon="0.62892">
        <ele>120</ele>
        <time>2018-05-03T13:45:02Z</time>
      </trkpt>
      <trkpt lat="45.18592" lon="0.6287">
        <ele>120</ele>
        <time>2018-05-03T13:45:07Z</time>
      </trkpt>
      <trkpt lat="45.18591" lon="0.62864">
        <ele>119</ele>
        <time>2018-05-03T13:45:09Z</time>
      </trkpt>
      <trkpt lat="45.18579" lon="0.62851">
        <ele>119</ele>
        <time>2018-05-03T13:45:11Z</time>
      </trkpt>
      <trkpt lat="45.18576" lon="0.62847">
        <ele>119</ele>
        <time>2018-05-03T13:45:12Z</time>
      </trkpt>
      <trkpt lat="45.18567" lon="0.62838">
        <ele>120</ele>
        <time>2018-05-03T13:45:14Z</time>
      </trkpt>
      <trkpt lat="45.1856" lon="0.6283">
        <ele>120</ele>
        <time>2018-05-03T13:45:16Z</time>
      </trkpt>
      <trkpt lat="45.18552" lon="0.62823">
        <ele>119</ele>
        <time>2018-05-03T13:45:18Z</time>
      </trkpt>
      <trkpt lat="45.18546" lon="0.62814">
        <ele>119</ele>
        <time>2018-05-03T13:45:20Z</time>
      </trkpt>
      <trkpt lat="45.18542" lon="0.62811">
        <ele>119</ele>
        <time>2018-05-03T13:45:21Z</time>
      </trkpt>
      <trkpt lat="45.18534" lon="0.62803">
        <ele>119</ele>
        <time>2018-05-03T13:45:23Z</time>
      </trkpt>
      <trkpt lat="45.18525" lon="0.62803">
        <ele>119</ele>
        <time>2018-05-03T13:45:25Z</time>
      </trkpt>
      <trkpt lat="45.18516" lon="0.62818">
        <ele>119</ele>
        <time>2018-05-03T13:45:28Z</time>
      </trkpt>
      <trkpt lat="45.18514" lon="0.62825">
        <ele>119</ele>
        <time>2018-05-03T13:45:29Z</time>
      </trkpt>
      <trkpt lat="45.1851" lon="0.62832">
        <ele>120</ele>
        <time>2018-05-03T13:45:30Z</time>
      </trkpt>
      <trkpt lat="45.18507" lon="0.62838">
        <ele>120</ele>
        <time>2018-05-03T13:45:31Z</time>
      </trkpt>
      <trkpt lat="45.18501" lon="0.62857">
        <ele>121</ele>
        <time>2018-05-03T13:45:34Z</time>
      </trkpt>
      <trkpt lat="45.18493" lon="0.62874">
        <ele>118</ele>
        <time>2018-05-03T13:45:37Z</time>
      </trkpt>
      <trkpt lat="45.18491" lon="0.6289">
        <ele>118</ele>
        <time>2018-05-03T13:45:40Z</time>
      </trkpt>
      <trkpt lat="45.18492" lon="0.6293">
        <ele>119</ele>
        <time>2018-05-03T13:45:47Z</time>
      </trkpt>
      <trkpt lat="45.18494" lon="0.62945">
        <ele>121</ele>
        <time>2018-05-03T13:45:50Z</time>
      </trkpt>
      <trkpt lat="45.18495" lon="0.6295">
        <ele>121</ele>
        <time>2018-05-03T13:45:51Z</time>
      </trkpt>
      <trkpt lat="45.18496" lon="0.62955">
        <ele>120</ele>
        <time>2018-05-03T13:45:52Z</time>
      </trkpt>
      <trkpt lat="45.185" lon="0.62977">
        <ele>122</ele>
        <time>2018-05-03T13:45:56Z</time>
      </trkpt>
      <trkpt lat="45.18501" lon="0.62983">
        <ele>122</ele>
        <time>2018-05-03T13:45:57Z</time>
      </trkpt>
      <trkpt lat="45.18502" lon="0.62988">
        <ele>123</ele>
        <time>2018-05-03T13:45:58Z</time>
      </trkpt>
      <trkpt lat="45.18503" lon="0.62994">
        <ele>123</ele>
        <time>2018-05-03T13:45:59Z</time>
      </trkpt>
      <trkpt lat="45.18504" lon="0.63">
        <ele>123</ele>
        <time>2018-05-03T13:46:00Z</time>
      </trkpt>
      <trkpt lat="45.18505" lon="0.63005">
        <ele>123</ele>
        <time>2018-05-03T13:46:01Z</time>
      </trkpt>
      <trkpt lat="45.18506" lon="0.63011">
        <ele>122</ele>
        <time>2018-05-03T13:46:03Z</time>
      </trkpt>
      <trkpt lat="45.18513" lon="0.63037">
        <ele>121</ele>
        <time>2018-05-03T13:46:07Z</time>
      </trkpt>
      <trkpt lat="45.18514" lon="0.63042">
        <ele>122</ele>
        <time>2018-05-03T13:46:08Z</time>
      </trkpt>
      <trkpt lat="45.18513" lon="0.63074">
        <ele>121</ele>
        <time>2018-05-03T13:46:16Z</time>
      </trkpt>
      <trkpt lat="45.1851" lon="0.6309">
        <ele>122</ele>
        <time>2018-05-03T13:46:18Z</time>
      </trkpt>
      <trkpt lat="45.18509" lon="0.63101">
        <ele>121</ele>
        <time>2018-05-03T13:46:20Z</time>
      </trkpt>
      <trkpt lat="45.18509" lon="0.63106">
        <ele>120</ele>
        <time>2018-05-03T13:46:21Z</time>
      </trkpt>
      <trkpt lat="45.18509" lon="0.63111">
        <ele>120</ele>
        <time>2018-05-03T13:46:22Z</time>
      </trkpt>
      <trkpt lat="45.18508" lon="0.63116">
        <ele>118</ele>
        <time>2018-05-03T13:46:24Z</time>
      </trkpt>
      <trkpt lat="45.18505" lon="0.63139">
        <ele>118</ele>
        <time>2018-05-03T13:46:27Z</time>
      </trkpt>
      <trkpt lat="45.18502" lon="0.63152">
        <ele>116</ele>
        <time>2018-05-03T13:46:29Z</time>
      </trkpt>
      <trkpt lat="45.185" lon="0.63169">
        <ele>115</ele>
        <time>2018-05-03T13:46:32Z</time>
      </trkpt>
      <trkpt lat="45.18499" lon="0.63175">
        <ele>117</ele>
        <time>2018-05-03T13:46:33Z</time>
      </trkpt>
      <trkpt lat="45.18498" lon="0.63182">
        <ele>116</ele>
        <time>2018-05-03T13:46:34Z</time>
      </trkpt>
      <trkpt lat="45.18492" lon="0.63203">
        <ele>115</ele>
        <time>2018-05-03T13:46:37Z</time>
      </trkpt>
      <trkpt lat="45.18487" lon="0.63226">
        <ele>118</ele>
        <time>2018-05-03T13:46:41Z</time>
      </trkpt>
      <trkpt lat="45.18489" lon="0.63238">
        <ele>119</ele>
        <time>2018-05-03T13:46:42Z</time>
      </trkpt>
      <trkpt lat="45.18489" lon="0.63245">
        <ele>119</ele>
        <time>2018-05-03T13:46:43Z</time>
      </trkpt>
      <trkpt lat="45.18491" lon="0.63257">
        <ele>120</ele>
        <time>2018-05-03T13:46:45Z</time>
      </trkpt>
      <trkpt lat="45.18493" lon="0.63264">
        <ele>121</ele>
        <time>2018-05-03T13:46:46Z</time>
      </trkpt>
      <trkpt lat="45.18495" lon="0.63268">
        <ele>119</ele>
        <time>2018-05-03T13:46:48Z</time>
      </trkpt>
      <trkpt lat="45.18494" lon="0.63287">
        <ele>123</ele>
        <time>2018-05-03T13:46:50Z</time>
      </trkpt>
      <trkpt lat="45.18493" lon="0.63297">
        <ele>122</ele>
        <time>2018-05-03T13:46:52Z</time>
      </trkpt>
      <trkpt lat="45.18494" lon="0.63308">
        <ele>123</ele>
        <time>2018-05-03T13:46:54Z</time>
      </trkpt>
      <trkpt lat="45.18494" lon="0.63319">
        <ele>123</ele>
        <time>2018-05-03T13:46:56Z</time>
      </trkpt>
      <trkpt lat="45.18495" lon="0.63325">
        <ele>123</ele>
        <time>2018-05-03T13:46:57Z</time>
      </trkpt>
      <trkpt lat="45.18501" lon="0.6333">
        <ele>122</ele>
        <time>2018-05-03T13:46:59Z</time>
      </trkpt>
      <trkpt lat="45.18504" lon="0.63333">
        <ele>122</ele>
        <time>2018-05-03T13:47:00Z</time>
      </trkpt>
      <trkpt lat="45.18512" lon="0.63338">
        <ele>122</ele>
        <time>2018-05-03T13:47:02Z</time>
      </trkpt>
      <trkpt lat="45.18515" lon="0.6334">
        <ele>122</ele>
        <time>2018-05-03T13:47:03Z</time>
      </trkpt>
      <trkpt lat="45.18522" lon="0.63345">
        <ele>122</ele>
        <time>2018-05-03T13:47:05Z</time>
      </trkpt>
      <trkpt lat="45.18533" lon="0.63353">
        <ele>122</ele>
        <time>2018-05-03T13:47:08Z</time>
      </trkpt>
      <trkpt lat="45.18537" lon="0.63355">
        <ele>123</ele>
        <time>2018-05-03T13:47:09Z</time>
      </trkpt>
      <trkpt lat="45.18544" lon="0.6336">
        <ele>123</ele>
        <time>2018-05-03T13:47:11Z</time>
      </trkpt>
      <trkpt lat="45.18548" lon="0.63362">
        <ele>123</ele>
        <time>2018-05-03T13:47:12Z</time>
      </trkpt>
      <trkpt lat="45.18552" lon="0.63365">
        <ele>124</ele>
        <time>2018-05-03T13:47:13Z</time>
      </trkpt>
      <trkpt lat="45.18556" lon="0.63367">
        <ele>123</ele>
        <time>2018-05-03T13:47:14Z</time>
      </trkpt>
      <trkpt lat="45.18559" lon="0.6337">
        <ele>124</ele>
        <time>2018-05-03T13:47:15Z</time>
      </trkpt>
      <trkpt lat="45.18563" lon="0.63373">
        <ele>124</ele>
        <time>2018-05-03T13:47:16Z</time>
      </trkpt>
      <trkpt lat="45.18568" lon="0.63375">
        <ele>124</ele>
        <time>2018-05-03T13:47:17Z</time>
      </trkpt>
      <trkpt lat="45.18572" lon="0.63377">
        <ele>124</ele>
        <time>2018-05-03T13:47:19Z</time>
      </trkpt>
      <trkpt lat="45.1858" lon="0.6338">
        <ele>124</ele>
        <time>2018-05-03T13:47:20Z</time>
      </trkpt>
      <trkpt lat="45.18584" lon="0.63381">
        <ele>124</ele>
        <time>2018-05-03T13:47:21Z</time>
      </trkpt>
      <trkpt lat="45.18588" lon="0.63383">
        <ele>123</ele>
        <time>2018-05-03T13:47:22Z</time>
      </trkpt>
      <trkpt lat="45.186" lon="0.6339">
        <ele>123</ele>
        <time>2018-05-03T13:47:25Z</time>
      </trkpt>
      <trkpt lat="45.18607" lon="0.63395">
        <ele>123</ele>
        <time>2018-05-03T13:47:27Z</time>
      </trkpt>
      <trkpt lat="45.18615" lon="0.63389">
        <ele>122</ele>
        <time>2018-05-03T13:47:29Z</time>
      </trkpt>
      <trkpt lat="45.18618" lon="0.63384">
        <ele>122</ele>
        <time>2018-05-03T13:47:31Z</time>
      </trkpt>
      <trkpt lat="45.1862" lon="0.63374">
        <ele>122</ele>
        <time>2018-05-03T13:47:32Z</time>
      </trkpt>
      <trkpt lat="45.18621" lon="0.63369">
        <ele>122</ele>
        <time>2018-05-03T13:47:33Z</time>
      </trkpt>
      <trkpt lat="45.18622" lon="0.63356">
        <ele>122</ele>
        <time>2018-05-03T13:47:35Z</time>
      </trkpt>
      <trkpt lat="45.18617" lon="0.63347">
        <ele>122</ele>
        <time>2018-05-03T13:47:38Z</time>
      </trkpt>
      <trkpt lat="45.18611" lon="0.63341">
        <ele>123</ele>
        <time>2018-05-03T13:47:39Z</time>
      </trkpt>
      <trkpt lat="45.18608" lon="0.63339">
        <ele>123</ele>
        <time>2018-05-03T13:47:40Z</time>
      </trkpt>
      <trkpt lat="45.18602" lon="0.63335">
        <ele>123</ele>
        <time>2018-05-03T13:47:42Z</time>
      </trkpt>
      <trkpt lat="45.18598" lon="0.63326">
        <ele>124</ele>
        <time>2018-05-03T13:47:45Z</time>
      </trkpt>
      <trkpt lat="45.18599" lon="0.63315">
        <ele>122</ele>
        <time>2018-05-03T13:47:49Z</time>
      </trkpt>
      <trkpt lat="45.18597" lon="0.63303">
        <ele>122</ele>
        <time>2018-05-03T13:47:53Z</time>
      </trkpt>
      <trkpt lat="45.18589" lon="0.63302">
        <ele>122</ele>
        <time>2018-05-03T13:47:57Z</time>
      </trkpt>
      <trkpt lat="45.18585" lon="0.63306">
        <ele>120</ele>
        <time>2018-05-03T13:48:02Z</time>
      </trkpt>
      <trkpt lat="45.18585" lon="0.63306">
        <ele>120</ele>
        <time>2018-05-03T13:48:10Z</time>
      </trkpt>
      <trkpt lat="45.18585" lon="0.63306">
        <ele>79</ele>
        <time>2018-05-03T13:48:10Z</time>
      </trkpt>
      <trkpt lat="45.18585" lon="0.63306">
        <ele>79</ele>
        <time>2018-05-03T13:48:16Z</time>
      </trkpt>
    </trkseg>
  </trk>
</gpx>